<?xml version='1.0' encoding='UTF-8'?><gpx version="1.1" creator="JPX - https://github.com/jenetics/jpx" xmlns="http://www.topografix.com/GPX/1/1"><trk><trkseg><trkpt lat="49.13364897316244" lon="2.507991691139666"><ele>78.0</ele><time>2026-04-09T12:11:25.76Z</time></trkpt><trkpt lat="49.133722893983666" lon="2.5080302790605935"><ele>78.0</ele><time>2026-04-09T12:11:29.995Z</time></trkpt><trkpt lat="49.133757269971106" lon="2.5079440712256362"><ele>78.0</ele><time>2026-04-09T12:12:28.998Z</time></trkpt><trkpt lat="49.13380799162357" lon="2.5078400253033557"><ele>78.0</ele><time>2026-04-09T12:12:31.998Z</time></trkpt><trkpt lat="49.133842115991236" lon="2.507745248773709"><ele>78.0</ele><time>2026-04-09T12:12:33.998Z</time></trkpt><trkpt lat="49.133875184966435" lon="2.507638890371961"><ele>78.0</ele><time>2026-04-09T12:12:35.998Z</time></trkpt><trkpt lat="49.13391639721576" lon="2.507534303368117"><ele>77.85714285714286</ele><time>2026-04-09T12:12:37.998Z</time></trkpt><trkpt lat="49.13395901530704" lon="2.5074411257813063"><ele>77.71428571428571</ele><time>2026-04-09T12:12:39.998Z</time></trkpt><trkpt lat="49.1339974995014" lon="2.5073324277413827"><ele>77.57142857142857</ele><time>2026-04-09T12:12:41.998Z</time></trkpt><trkpt lat="49.13404403718716" lon="2.5072326654243424"><ele>77.42857142857143</ele><time>2026-04-09T12:12:43.998Z</time></trkpt><trkpt lat="49.13408264860388" lon="2.5071388310877714"><ele>77.28571428571428</ele><time>2026-04-09T12:12:45.998Z</time></trkpt><trkpt lat="49.13411334503442" lon="2.5070512587958316"><ele>77.14285714285714</ele><time>2026-04-09T12:12:47.998Z</time></trkpt><trkpt lat="49.13414221545235" lon="2.506964405305461"><ele>77.0</ele><time>2026-04-09T12:12:49.998Z</time></trkpt><trkpt lat="49.13418580226218" lon="2.5068468895007943"><ele>77.5</ele><time>2026-04-09T12:12:52.998Z</time></trkpt><trkpt lat="49.13423814579072" lon="2.506748813045411"><ele>78.0</ele><time>2026-04-09T12:12:55.998Z</time></trkpt><trkpt lat="49.134324659362946" lon="2.506750233686448"><ele>78.5</ele><time>2026-04-09T12:12:58.998Z</time></trkpt><trkpt lat="49.13438515602626" lon="2.5067866208165888"><ele>79.0</ele><time>2026-04-09T12:13:00.997Z</time></trkpt><trkpt lat="49.13444355769004" lon="2.506867638502981"><ele>79.5</ele><time>2026-04-09T12:13:02.997Z</time></trkpt><trkpt lat="49.134522895532335" lon="2.5069062969007234"><ele>80.0</ele><time>2026-04-09T12:13:04.997Z</time></trkpt><trkpt lat="49.134617355457685" lon="2.506957656451414"><ele>80.0</ele><time>2026-04-09T12:13:06.997Z</time></trkpt><trkpt lat="49.134716488085644" lon="2.5070007316029512"><ele>80.0</ele><time>2026-04-09T12:13:08.997Z</time></trkpt><trkpt lat="49.134818031292355" lon="2.507032311548113"><ele>80.0</ele><time>2026-04-09T12:13:10.997Z</time></trkpt><trkpt lat="49.13488130806165" lon="2.5070491676333146"><ele>80.0</ele><time>2026-04-09T12:13:11.997Z</time></trkpt><trkpt lat="49.13499106868313" lon="2.507083395566439"><ele>80.0</ele><time>2026-04-09T12:13:13.997Z</time></trkpt><trkpt lat="49.1350952753344" lon="2.507094903920617"><ele>79.0</ele><time>2026-04-09T12:13:15.997Z</time></trkpt><trkpt lat="49.13515871223501" lon="2.507112702942207"><ele>78.0</ele><time>2026-04-09T12:13:16.997Z</time></trkpt><trkpt lat="49.13526691105321" lon="2.507123800985672"><ele>77.0</ele><time>2026-04-09T12:13:18.997Z</time></trkpt><trkpt lat="49.135386726983626" lon="2.5071466958881254"><ele>76.0</ele><time>2026-04-09T12:13:20.997Z</time></trkpt><trkpt lat="49.135487622533276" lon="2.5071840032477897"><ele>75.0</ele><time>2026-04-09T12:13:22.997Z</time></trkpt><trkpt lat="49.13560110018574" lon="2.5072091266708036"><ele>75.0</ele><time>2026-04-09T12:13:24.997Z</time></trkpt><trkpt lat="49.13566416745291" lon="2.5072061870376374"><ele>75.0</ele><time>2026-04-09T12:13:25.997Z</time></trkpt><trkpt lat="49.1357763873678" lon="2.5072376811257127"><ele>75.0</ele><time>2026-04-09T12:13:27.997Z</time></trkpt><trkpt lat="49.135842015521206" lon="2.5072628992194197"><ele>75.0</ele><time>2026-04-09T12:13:28.997Z</time></trkpt><trkpt lat="49.13595711555877" lon="2.5072880135026785"><ele>75.0</ele><time>2026-04-09T12:13:30.997Z</time></trkpt><trkpt lat="49.13604432005761" lon="2.507307041112631"><ele>75.0</ele><time>2026-04-09T12:13:33Z</time></trkpt><trkpt lat="49.13611188943752" lon="2.507137734479613"><ele>75.0</ele><time>2026-04-09T12:13:34Z</time></trkpt><trkpt lat="49.13619167583101" lon="2.5071019029617654"><ele>75.0</ele><time>2026-04-09T12:13:36Z</time></trkpt><trkpt lat="49.136269563195015" lon="2.5070218349475093"><ele>75.0</ele><time>2026-04-09T12:13:38Z</time></trkpt><trkpt lat="49.13634825650683" lon="2.5069409384162977"><ele>75.0</ele><time>2026-04-09T12:13:40Z</time></trkpt><trkpt lat="49.13642618732905" lon="2.506860825696196"><ele>75.0</ele><time>2026-04-09T12:13:42Z</time></trkpt><trkpt lat="49.13650764445575" lon="2.506777465790463"><ele>76.25</ele><time>2026-04-09T12:13:45Z</time></trkpt><trkpt lat="49.136588190389965" lon="2.5066954346874715"><ele>77.5</ele><time>2026-04-09T12:13:47Z</time></trkpt><trkpt lat="49.13668596696207" lon="2.5065867326424858"><ele>78.75</ele><time>2026-04-09T12:13:50Z</time></trkpt><trkpt lat="49.13675004716429" lon="2.5065167855092723"><ele>80.0</ele><time>2026-04-09T12:13:52Z</time></trkpt><trkpt lat="49.13720231919988" lon="2.5069513890758097"><ele>80.0</ele><time>2026-04-09T12:13:56.999Z</time></trkpt><trkpt lat="49.13729777281218" lon="2.5069490509045043"><ele>80.0</ele><time>2026-04-09T12:13:58.999Z</time></trkpt><trkpt lat="49.137381664859596" lon="2.506919026599176"><ele>80.0</ele><time>2026-04-09T12:14:00.999Z</time></trkpt><trkpt lat="49.13744690966664" lon="2.5069687421481888"><ele>80.0</ele><time>2026-04-09T12:14:02.999Z</time></trkpt><trkpt lat="49.13750921584969" lon="2.507053062147166"><ele>80.0</ele><time>2026-04-09T12:14:04.999Z</time></trkpt><trkpt lat="49.13758007171667" lon="2.5071353913732937"><ele>80.0</ele><time>2026-04-09T12:14:06.999Z</time></trkpt><trkpt lat="49.13764910465852" lon="2.507209357628776"><ele>80.0</ele><time>2026-04-09T12:14:08.999Z</time></trkpt><trkpt lat="49.13773094573912" lon="2.5072735780313913"><ele>80.0</ele><time>2026-04-09T12:14:10.999Z</time></trkpt><trkpt lat="49.137819805079914" lon="2.507357305275562"><ele>80.0</ele><time>2026-04-09T12:14:12.999Z</time></trkpt><trkpt lat="49.13789190074297" lon="2.50742672718307"><ele>80.0</ele><time>2026-04-09T12:14:14.999Z</time></trkpt><trkpt lat="49.13795343004873" lon="2.507450709479173"><ele>80.0</ele><time>2026-04-09T12:14:16.999Z</time></trkpt><trkpt lat="49.13802735375025" lon="2.5074520159733864"><ele>80.0</ele><time>2026-04-09T12:14:18.999Z</time></trkpt><trkpt lat="49.13810910037242" lon="2.5074951752348156"><ele>80.0</ele><time>2026-04-09T12:14:20.999Z</time></trkpt><trkpt lat="49.13819956965287" lon="2.5074624386971793"><ele>80.0</ele><time>2026-04-09T12:14:22.999Z</time></trkpt><trkpt lat="49.13828731240001" lon="2.5074468896001"><ele>80.0</ele><time>2026-04-09T12:14:24.999Z</time></trkpt><trkpt lat="49.1383385403556" lon="2.507551104614025"><ele>80.0</ele><time>2026-04-09T12:14:26.999Z</time></trkpt><trkpt lat="49.13841104091136" lon="2.507557778088601"><ele>80.0</ele><time>2026-04-09T12:14:28.998Z</time></trkpt><trkpt lat="49.138493719862964" lon="2.507480358048757"><ele>80.0</ele><time>2026-04-09T12:14:30.998Z</time></trkpt><trkpt lat="49.13856545652293" lon="2.5073780538263026"><ele>78.8</ele><time>2026-04-09T12:14:32.998Z</time></trkpt><trkpt lat="49.13863600598047" lon="2.5073041846934965"><ele>77.6</ele><time>2026-04-09T12:14:34.998Z</time></trkpt><trkpt lat="49.138706323515855" lon="2.507197879602856"><ele>76.4</ele><time>2026-04-09T12:14:36.998Z</time></trkpt><trkpt lat="49.13881154683307" lon="2.5071546305427583"><ele>75.2</ele><time>2026-04-09T12:14:38.998Z</time></trkpt><trkpt lat="49.138875205708466" lon="2.5070762169931187"><ele>74.0</ele><time>2026-04-09T12:14:40.998Z</time></trkpt><trkpt lat="49.13892330072161" lon="2.506987859041354"><ele>73.75</ele><time>2026-04-09T12:14:41.998Z</time></trkpt><trkpt lat="49.138996683032566" lon="2.5068488848474453"><ele>73.5</ele><time>2026-04-09T12:14:43.998Z</time></trkpt><trkpt lat="49.13905554930162" lon="2.5067102804816184"><ele>73.25</ele><time>2026-04-09T12:14:45.998Z</time></trkpt><trkpt lat="49.13909926727934" lon="2.5065383371521115"><ele>73.0</ele><time>2026-04-09T12:14:47.998Z</time></trkpt><trkpt lat="49.13917252537471" lon="2.5064124471631684"><ele>73.0</ele><time>2026-04-09T12:14:49.998Z</time></trkpt><trkpt lat="49.13922440912738" lon="2.5062922119781654"><ele>73.0</ele><time>2026-04-09T12:14:51.998Z</time></trkpt><trkpt lat="49.13927679107918" lon="2.5061801087827424"><ele>73.0</ele><time>2026-04-09T12:14:53.998Z</time></trkpt><trkpt lat="49.13935477454391" lon="2.50612144433313"><ele>73.0</ele><time>2026-04-09T12:14:55.998Z</time></trkpt><trkpt lat="49.13943096624296" lon="2.5060516015889487"><ele>73.0</ele><time>2026-04-09T12:14:57.998Z</time></trkpt><trkpt lat="49.13953769233811" lon="2.506060070602302"><ele>73.0</ele><time>2026-04-09T12:14:59.998Z</time></trkpt><trkpt lat="49.13962389552238" lon="2.506140347457362"><ele>73.0</ele><time>2026-04-09T12:15:01.997Z</time></trkpt><trkpt lat="49.13971701770027" lon="2.506215397166176"><ele>73.0</ele><time>2026-04-09T12:15:03.997Z</time></trkpt><trkpt lat="49.13979047293969" lon="2.50630767259604"><ele>73.0</ele><time>2026-04-09T12:15:05.997Z</time></trkpt><trkpt lat="49.13987718341185" lon="2.506285577278564"><ele>73.0</ele><time>2026-04-09T12:15:07.997Z</time></trkpt><trkpt lat="49.139958716929186" lon="2.5063445801437116"><ele>72.8</ele><time>2026-04-09T12:15:09.997Z</time></trkpt><trkpt lat="49.14003203421301" lon="2.5064198604965684"><ele>72.6</ele><time>2026-04-09T12:15:11.997Z</time></trkpt><trkpt lat="49.14010512264932" lon="2.5064988506506776"><ele>72.4</ele><time>2026-04-09T12:15:13.997Z</time></trkpt><trkpt lat="49.140171247199795" lon="2.506585405126664"><ele>72.2</ele><time>2026-04-09T12:15:15.997Z</time></trkpt><trkpt lat="49.14023457381589" lon="2.5066803595257796"><ele>72.0</ele><time>2026-04-09T12:15:17.997Z</time></trkpt><trkpt lat="49.14029288745659" lon="2.5067998390449753"><ele>72.0</ele><time>2026-04-09T12:15:19.997Z</time></trkpt><trkpt lat="49.14034087964691" lon="2.506918124742772"><ele>72.0</ele><time>2026-04-09T12:15:21.997Z</time></trkpt><trkpt lat="49.1404228585181" lon="2.5069705096873234"><ele>72.0</ele><time>2026-04-09T12:15:23.997Z</time></trkpt><trkpt lat="49.14049136320807" lon="2.506998051277479"><ele>72.0</ele><time>2026-04-09T12:15:25.997Z</time></trkpt><trkpt lat="49.14055514662621" lon="2.507050471675767"><ele>72.0</ele><time>2026-04-09T12:15:27.997Z</time></trkpt><trkpt lat="49.14061976592225" lon="2.5071383697907907"><ele>72.0</ele><time>2026-04-09T12:15:29.997Z</time></trkpt><trkpt lat="49.14069522748109" lon="2.5071440875737347"><ele>71.57142857142858</ele><time>2026-04-09T12:15:31.997Z</time></trkpt><trkpt lat="49.140770058878395" lon="2.507128025336172"><ele>71.14285714285714</ele><time>2026-04-09T12:15:33.997Z</time></trkpt><trkpt lat="49.14084132544769" lon="2.5071244517419196"><ele>70.71428571428572</ele><time>2026-04-09T12:15:35.996Z</time></trkpt><trkpt lat="49.14094062845419" lon="2.507126043818457"><ele>70.28571428571429</ele><time>2026-04-09T12:15:39Z</time></trkpt><trkpt lat="49.14100515118597" lon="2.5071166520044375"><ele>69.85714285714286</ele><time>2026-04-09T12:15:41Z</time></trkpt><trkpt lat="49.14107249730753" lon="2.507122554152804"><ele>69.42857142857143</ele><time>2026-04-09T12:15:43Z</time></trkpt><trkpt lat="49.14113659865377" lon="2.5071159054631202"><ele>69.0</ele><time>2026-04-09T12:15:45Z</time></trkpt><trkpt lat="49.14120063370459" lon="2.5071018974364634"><ele>69.0</ele><time>2026-04-09T12:15:47Z</time></trkpt><trkpt lat="49.14126407099211" lon="2.5071099184464667"><ele>69.0</ele><time>2026-04-09T12:15:50Z</time></trkpt><trkpt lat="49.141340823713506" lon="2.5071150378806215"><ele>69.0</ele><time>2026-04-09T12:15:53Z</time></trkpt><trkpt lat="49.14141783097599" lon="2.5070612258303893"><ele>69.0</ele><time>2026-04-09T12:15:56Z</time></trkpt><trkpt lat="49.141430820791115" lon="2.506951728461105"><ele>69.0</ele><time>2026-04-09T12:15:58Z</time></trkpt><trkpt lat="49.14145732378861" lon="2.5068457733912575"><ele>69.0</ele><time>2026-04-09T12:16:00.999Z</time></trkpt><trkpt lat="49.141468912048964" lon="2.5067173417387516"><ele>69.83333333333333</ele><time>2026-04-09T12:16:03.999Z</time></trkpt><trkpt lat="49.14151393914959" lon="2.506597995205351"><ele>70.66666666666667</ele><time>2026-04-09T12:16:05.999Z</time></trkpt><trkpt lat="49.14153496189097" lon="2.5065014478471563"><ele>71.5</ele><time>2026-04-09T12:16:07.999Z</time></trkpt><trkpt lat="49.141548217031584" lon="2.506385951909395"><ele>72.33333333333334</ele><time>2026-04-09T12:16:09.999Z</time></trkpt><trkpt lat="49.14156390480686" lon="2.506291296311727"><ele>73.16666666666667</ele><time>2026-04-09T12:16:11.999Z</time></trkpt><trkpt lat="49.141586312521866" lon="2.506154905289988"><ele>74.0</ele><time>2026-04-09T12:16:14.999Z</time></trkpt><trkpt lat="49.1416043071935" lon="2.506019926629266"><ele>74.16666666666667</ele><time>2026-04-09T12:16:17.999Z</time></trkpt><trkpt lat="49.14161921307575" lon="2.5059256679870905"><ele>74.33333333333334</ele><time>2026-04-09T12:16:19.999Z</time></trkpt><trkpt lat="49.14163529260137" lon="2.505786357811476"><ele>74.5</ele><time>2026-04-09T12:16:22.999Z</time></trkpt><trkpt lat="49.141653273065025" lon="2.505689506531051"><ele>74.66666666666667</ele><time>2026-04-09T12:16:24.999Z</time></trkpt><trkpt lat="49.14168181019615" lon="2.505569948448453"><ele>74.83333333333333</ele><time>2026-04-09T12:16:27.999Z</time></trkpt><trkpt lat="49.14170669371956" lon="2.5054313035624443"><ele>75.0</ele><time>2026-04-09T12:16:30.999Z</time></trkpt><trkpt lat="49.1417305870597" lon="2.5053056099265376"><ele>75.14285714285714</ele><time>2026-04-09T12:16:33.998Z</time></trkpt><trkpt lat="49.14174069405825" lon="2.505192797952994"><ele>75.28571428571428</ele><time>2026-04-09T12:16:35.998Z</time></trkpt><trkpt lat="49.1417542354925" lon="2.5050894565374633"><ele>75.42857142857142</ele><time>2026-04-09T12:16:37.998Z</time></trkpt><trkpt lat="49.14177779960922" lon="2.5049557436274825"><ele>75.57142857142857</ele><time>2026-04-09T12:16:40.998Z</time></trkpt><trkpt lat="49.14179029952774" lon="2.504860482524946"><ele>75.71428571428572</ele><time>2026-04-09T12:16:42.998Z</time></trkpt><trkpt lat="49.141809867960134" lon="2.504759619368155"><ele>75.85714285714285</ele><time>2026-04-09T12:16:44.998Z</time></trkpt><trkpt lat="49.14181816731471" lon="2.5046638456935897"><ele>76.0</ele><time>2026-04-09T12:16:46.998Z</time></trkpt><trkpt lat="49.141863789041935" lon="2.5045897309795055"><ele>76.0</ele><time>2026-04-09T12:16:48.998Z</time></trkpt><trkpt lat="49.14195480761933" lon="2.5046004971516873"><ele>76.0</ele><time>2026-04-09T12:16:51.998Z</time></trkpt><trkpt lat="49.1420452354324" lon="2.5045443309240096"><ele>76.0</ele><time>2026-04-09T12:16:53.998Z</time></trkpt><trkpt lat="49.14212332616996" lon="2.504538993070322"><ele>76.0</ele><time>2026-04-09T12:16:55.998Z</time></trkpt><trkpt lat="49.14219434940301" lon="2.504538380187043"><ele>76.0</ele><time>2026-04-09T12:16:57.998Z</time></trkpt><trkpt lat="49.142288579480486" lon="2.5045411531325783"><ele>76.0</ele><time>2026-04-09T12:17:00.998Z</time></trkpt><trkpt lat="49.14236078241411" lon="2.504524292241686"><ele>76.33333333333333</ele><time>2026-04-09T12:17:02.998Z</time></trkpt><trkpt lat="49.14242629019476" lon="2.5045140010689484"><ele>76.66666666666666</ele><time>2026-04-09T12:17:04.998Z</time></trkpt><trkpt lat="49.1425225359973" lon="2.5045297370333053"><ele>77.0</ele><time>2026-04-09T12:17:07.997Z</time></trkpt><trkpt lat="49.14260331163892" lon="2.50451116069458"><ele>77.33333333333333</ele><time>2026-04-09T12:17:09.997Z</time></trkpt><trkpt lat="49.14268112343984" lon="2.5045147381534"><ele>77.66666666666667</ele><time>2026-04-09T12:17:11.997Z</time></trkpt><trkpt lat="49.14275058919716" lon="2.504516586134814"><ele>78.0</ele><time>2026-04-09T12:17:13.997Z</time></trkpt><trkpt lat="49.142833162515515" lon="2.50451113718839"><ele>78.0</ele><time>2026-04-09T12:17:15.997Z</time></trkpt><trkpt lat="49.14292090406993" lon="2.5045105988254246"><ele>78.0</ele><time>2026-04-09T12:17:18.997Z</time></trkpt><trkpt lat="49.14300057944708" lon="2.504518055221318"><ele>78.0</ele><time>2026-04-09T12:17:20.997Z</time></trkpt><trkpt lat="49.14307621346858" lon="2.5045152806986866"><ele>78.0</ele><time>2026-04-09T12:17:22.997Z</time></trkpt><trkpt lat="49.143169697128975" lon="2.5045225400371987"><ele>78.0</ele><time>2026-04-09T12:17:24.997Z</time></trkpt><trkpt lat="49.14325299766072" lon="2.5045079831360457"><ele>78.0</ele><time>2026-04-09T12:17:26.997Z</time></trkpt><trkpt lat="49.14333945539933" lon="2.504506096623696"><ele>78.16666666666667</ele><time>2026-04-09T12:17:28.997Z</time></trkpt><trkpt lat="49.14341067466174" lon="2.5044869704999955"><ele>78.33333333333333</ele><time>2026-04-09T12:17:30.997Z</time></trkpt><trkpt lat="49.14350602764458" lon="2.504506210491763"><ele>78.5</ele><time>2026-04-09T12:17:32.997Z</time></trkpt><trkpt lat="49.14358435696592" lon="2.5045056387013984"><ele>78.66666666666666</ele><time>2026-04-09T12:17:34.997Z</time></trkpt><trkpt lat="49.14365941364573" lon="2.504491501959348"><ele>78.83333333333333</ele><time>2026-04-09T12:17:36.997Z</time></trkpt><trkpt lat="49.14373924010905" lon="2.5044922424602674"><ele>79.0</ele><time>2026-04-09T12:17:38.996Z</time></trkpt><trkpt lat="49.14381931675939" lon="2.504487192679763"><ele>79.00000000000001</ele><time>2026-04-09T12:17:40.996Z</time></trkpt><trkpt lat="49.143898128698076" lon="2.5044814304476413"><ele>79.0</ele><time>2026-04-09T12:17:42.996Z</time></trkpt><trkpt lat="49.1439784234318" lon="2.504487044491401"><ele>79.0</ele><time>2026-04-09T12:17:45Z</time></trkpt><trkpt lat="49.14405488391122" lon="2.504464688799686"><ele>79.0</ele><time>2026-04-09T12:17:47Z</time></trkpt><trkpt lat="49.14411744443855" lon="2.504497670531167"><ele>79.0</ele><time>2026-04-09T12:17:50Z</time></trkpt><trkpt lat="49.144198159447654" lon="2.504492222239669"><ele>79.00000000000001</ele><time>2026-04-09T12:17:52Z</time></trkpt><trkpt lat="49.144261003618084" lon="2.5044856950421557"><ele>79.0</ele><time>2026-04-09T12:17:54Z</time></trkpt><trkpt lat="49.14434868138251" lon="2.5044812369631506"><ele>78.5</ele><time>2026-04-09T12:17:56Z</time></trkpt><trkpt lat="49.144434040224134" lon="2.5044787493573915"><ele>78.0</ele><time>2026-04-09T12:17:58Z</time></trkpt><trkpt lat="49.14452159751422" lon="2.5044777993895724"><ele>77.5</ele><time>2026-04-09T12:18:00Z</time></trkpt><trkpt lat="49.14459885653308" lon="2.504478403636095"><ele>77.0</ele><time>2026-04-09T12:18:02Z</time></trkpt><trkpt lat="49.14468410724048" lon="2.50447840634934"><ele>76.5</ele><time>2026-04-09T12:18:04Z</time></trkpt><trkpt lat="49.14478436136242" lon="2.504472335509453"><ele>76.0</ele><time>2026-04-09T12:18:05.999Z</time></trkpt><trkpt lat="49.14487808257214" lon="2.504463138377954"><ele>75.5</ele><time>2026-04-09T12:18:07.999Z</time></trkpt><trkpt lat="49.144971075440466" lon="2.5044570969167017"><ele>75.0</ele><time>2026-04-09T12:18:09.999Z</time></trkpt><trkpt lat="49.145050513666" lon="2.5044593196929843"><ele>74.5</ele><time>2026-04-09T12:18:11.999Z</time></trkpt><trkpt lat="49.145139692237684" lon="2.50445623280881"><ele>74.0</ele><time>2026-04-09T12:18:13.999Z</time></trkpt><trkpt lat="49.14521432411506" lon="2.5044518968161316"><ele>73.5</ele><time>2026-04-09T12:18:15.999Z</time></trkpt><trkpt lat="49.14529727643919" lon="2.5044467977896456"><ele>73.0</ele><time>2026-04-09T12:18:17.999Z</time></trkpt><trkpt lat="49.14537201776713" lon="2.5044455452228576"><ele>73.0</ele><time>2026-04-09T12:18:19.999Z</time></trkpt><trkpt lat="49.14546029949918" lon="2.5044430421708688"><ele>73.0</ele><time>2026-04-09T12:18:21.999Z</time></trkpt><trkpt lat="49.1455224595952" lon="2.5043760289509747"><ele>73.0</ele><time>2026-04-09T12:18:23.999Z</time></trkpt><trkpt lat="49.145522016541285" lon="2.5042455565859774"><ele>73.0</ele><time>2026-04-09T12:18:25.999Z</time></trkpt><trkpt lat="49.14555090148004" lon="2.504123082954774"><ele>73.0</ele><time>2026-04-09T12:18:27.999Z</time></trkpt><trkpt lat="49.145565028829324" lon="2.503997016050911"><ele>73.0</ele><time>2026-04-09T12:18:29.999Z</time></trkpt><trkpt lat="49.14559195487857" lon="2.503887208134829"><ele>73.0</ele><time>2026-04-09T12:18:31.999Z</time></trkpt><trkpt lat="49.145607048055965" lon="2.50377645968617"><ele>73.0</ele><time>2026-04-09T12:18:33.999Z</time></trkpt><trkpt lat="49.14562857793406" lon="2.50366247479585"><ele>73.0</ele><time>2026-04-09T12:18:35.999Z</time></trkpt><trkpt lat="49.145640801086856" lon="2.5035297627006408"><ele>73.0</ele><time>2026-04-09T12:18:37.998Z</time></trkpt><trkpt lat="49.1456633316551" lon="2.503416230755938"><ele>73.0</ele><time>2026-04-09T12:18:39.998Z</time></trkpt><trkpt lat="49.14567924137977" lon="2.5032708719938777"><ele>73.0</ele><time>2026-04-09T12:18:41.998Z</time></trkpt><trkpt lat="49.14569741297023" lon="2.50312961388279"><ele>72.0</ele><time>2026-04-09T12:18:43.998Z</time></trkpt><trkpt lat="49.14572126274075" lon="2.5030014572427786"><ele>71.0</ele><time>2026-04-09T12:18:45.998Z</time></trkpt><trkpt lat="49.14574231272957" lon="2.5028684882732866"><ele>70.0</ele><time>2026-04-09T12:18:47.998Z</time></trkpt><trkpt lat="49.1457572564373" lon="2.502719278019625"><ele>69.0</ele><time>2026-04-09T12:18:49.998Z</time></trkpt><trkpt lat="49.14577257704412" lon="2.5025846076147444"><ele>68.0</ele><time>2026-04-09T12:18:51.998Z</time></trkpt><trkpt lat="49.1457891526879" lon="2.5024256050291123"><ele>68.0</ele><time>2026-04-09T12:18:53.998Z</time></trkpt><trkpt lat="49.14581630939944" lon="2.5022703796263244"><ele>68.0</ele><time>2026-04-09T12:18:55.998Z</time></trkpt><trkpt lat="49.14584909601314" lon="2.502167606063363"><ele>68.0</ele><time>2026-04-09T12:18:57.998Z</time></trkpt><trkpt lat="49.14593189602456" lon="2.5021749450863084"><ele>68.0</ele><time>2026-04-09T12:19:00.998Z</time></trkpt><trkpt lat="49.14599417082193" lon="2.502232829262263"><ele>68.0</ele><time>2026-04-09T12:19:02.998Z</time></trkpt><trkpt lat="49.146076643919386" lon="2.5022848923206107"><ele>68.0</ele><time>2026-04-09T12:19:04.998Z</time></trkpt><trkpt lat="49.14614281733105" lon="2.5023561278546147"><ele>68.0</ele><time>2026-04-09T12:19:06.998Z</time></trkpt><trkpt lat="49.14623294421363" lon="2.5024231752141484"><ele>68.0</ele><time>2026-04-09T12:19:08.998Z</time></trkpt><trkpt lat="49.14632377885714" lon="2.502503118502017"><ele>68.0</ele><time>2026-04-09T12:19:10.997Z</time></trkpt><trkpt lat="49.146422285868006" lon="2.5025811982158666"><ele>68.0</ele><time>2026-04-09T12:19:12.997Z</time></trkpt><trkpt lat="49.146516605037405" lon="2.502663656859418"><ele>68.0</ele><time>2026-04-09T12:19:14.997Z</time></trkpt><trkpt lat="49.146609320995246" lon="2.502745897548191"><ele>67.0</ele><time>2026-04-09T12:19:16.997Z</time></trkpt><trkpt lat="49.146716039114594" lon="2.5028321669374534"><ele>66.0</ele><time>2026-04-09T12:19:18.997Z</time></trkpt><trkpt lat="49.14682172453681" lon="2.502922696921541"><ele>65.0</ele><time>2026-04-09T12:19:20.997Z</time></trkpt><trkpt lat="49.14691374664016" lon="2.5030107941006867"><ele>64.0</ele><time>2026-04-09T12:19:22.997Z</time></trkpt><trkpt lat="49.147013438184544" lon="2.5030846539984357"><ele>63.6</ele><time>2026-04-09T12:19:24.997Z</time></trkpt><trkpt lat="49.14710724806399" lon="2.5031784488550914"><ele>63.2</ele><time>2026-04-09T12:19:26.997Z</time></trkpt><trkpt lat="49.1472047436327" lon="2.5032614658478862"><ele>62.800000000000004</ele><time>2026-04-09T12:19:28.997Z</time></trkpt><trkpt lat="49.14730018560127" lon="2.5033481396685344"><ele>62.400000000000006</ele><time>2026-04-09T12:19:30.997Z</time></trkpt><trkpt lat="49.147396618074154" lon="2.5034310441508736"><ele>62.0</ele><time>2026-04-09T12:19:32.997Z</time></trkpt><trkpt lat="49.14749641932027" lon="2.503513788259211"><ele>62.2</ele><time>2026-04-09T12:19:34.997Z</time></trkpt><trkpt lat="49.14759022765593" lon="2.503592743276514"><ele>62.400000000000006</ele><time>2026-04-09T12:19:36.997Z</time></trkpt><trkpt lat="49.14764685644336" lon="2.50363849354879"><ele>62.599999999999994</ele><time>2026-04-09T12:19:37.997Z</time></trkpt><trkpt lat="49.14774597399921" lon="2.5037245401067385"><ele>62.8</ele><time>2026-04-09T12:19:39.997Z</time></trkpt><trkpt lat="49.147839439777435" lon="2.5038076885555554"><ele>63.0</ele><time>2026-04-09T12:19:41.997Z</time></trkpt><trkpt lat="49.14793301393748" lon="2.503894348362364"><ele>63.0</ele><time>2026-04-09T12:19:43.996Z</time></trkpt><trkpt lat="49.148029875885136" lon="2.503976999535977"><ele>63.0</ele><time>2026-04-09T12:19:45.996Z</time></trkpt><trkpt lat="49.148124513678994" lon="2.5040646845801686"><ele>63.0</ele><time>2026-04-09T12:19:47.996Z</time></trkpt><trkpt lat="49.14822271901855" lon="2.5041444287281864"><ele>63.0</ele><time>2026-04-09T12:19:50Z</time></trkpt><trkpt lat="49.14831396259662" lon="2.504235777780148"><ele>63.0</ele><time>2026-04-09T12:19:52Z</time></trkpt><trkpt lat="49.14840430950729" lon="2.5043158396639917"><ele>64.66666666666667</ele><time>2026-04-09T12:19:54Z</time></trkpt><trkpt lat="49.14846577160782" lon="2.5043704858805547"><ele>66.33333333333334</ele><time>2026-04-09T12:19:55Z</time></trkpt><trkpt lat="49.14853603422572" lon="2.504432956673079"><ele>68.0</ele><time>2026-04-09T12:19:57Z</time></trkpt><trkpt lat="49.14891874837467" lon="2.504057995328145"><ele>68.0</ele><time>2026-04-09T12:20:08Z</time></trkpt><trkpt lat="49.14898679609508" lon="2.504007457538735"><ele>68.0</ele><time>2026-04-09T12:20:10Z</time></trkpt><trkpt lat="49.14905633495253" lon="2.5039564982606093"><ele>68.0</ele><time>2026-04-09T12:20:11.999Z</time></trkpt><trkpt lat="49.149130918961916" lon="2.503929005397715"><ele>68.0</ele><time>2026-04-09T12:20:13.999Z</time></trkpt><trkpt lat="49.14919978053648" lon="2.503885512830228"><ele>68.0</ele><time>2026-04-09T12:20:15.999Z</time></trkpt><trkpt lat="49.14927227282759" lon="2.503830850391762"><ele>68.0</ele><time>2026-04-09T12:20:17.999Z</time></trkpt><trkpt lat="49.14935450902324" lon="2.503782329810812"><ele>68.5</ele><time>2026-04-09T12:20:19.999Z</time></trkpt><trkpt lat="49.14943533748178" lon="2.503737162573436"><ele>69.0</ele><time>2026-04-09T12:20:21.999Z</time></trkpt><trkpt lat="49.14950368312149" lon="2.503694625556368"><ele>69.5</ele><time>2026-04-09T12:20:23.999Z</time></trkpt><trkpt lat="49.1495816472005" lon="2.50365451295398"><ele>70.0</ele><time>2026-04-09T12:20:25.999Z</time></trkpt><trkpt lat="49.14966066617848" lon="2.5036157830653343"><ele>70.5</ele><time>2026-04-09T12:20:27.999Z</time></trkpt><trkpt lat="49.149722003732776" lon="2.5035741942215646"><ele>71.0</ele><time>2026-04-09T12:20:29.999Z</time></trkpt><trkpt lat="49.14979476683902" lon="2.5035454959532526"><ele>71.0</ele><time>2026-04-09T12:20:31.999Z</time></trkpt><trkpt lat="49.14987328508499" lon="2.503473020023049"><ele>71.0</ele><time>2026-04-09T12:20:34.999Z</time></trkpt><trkpt lat="49.149948306535755" lon="2.503440214333341"><ele>71.0</ele><time>2026-04-09T12:20:36.999Z</time></trkpt><trkpt lat="49.15003078192031" lon="2.5033959648007995"><ele>71.0</ele><time>2026-04-09T12:20:38.999Z</time></trkpt><trkpt lat="49.1501067159903" lon="2.503354399815594"><ele>71.0</ele><time>2026-04-09T12:20:40.999Z</time></trkpt><trkpt lat="49.1501849222588" lon="2.503293658004471"><ele>71.0</ele><time>2026-04-09T12:20:42.999Z</time></trkpt><trkpt lat="49.15026303812422" lon="2.5032467897154898"><ele>70.8</ele><time>2026-04-09T12:20:44.998Z</time></trkpt><trkpt lat="49.15034068227258" lon="2.503198019970246"><ele>70.6</ele><time>2026-04-09T12:20:46.998Z</time></trkpt><trkpt lat="49.150422467119725" lon="2.5031743625927194"><ele>70.4</ele><time>2026-04-09T12:20:48.998Z</time></trkpt><trkpt lat="49.15048947574758" lon="2.503087008912746"><ele>70.2</ele><time>2026-04-09T12:20:50.998Z</time></trkpt><trkpt lat="49.150605242859356" lon="2.5030280674180503"><ele>70.0</ele><time>2026-04-09T12:20:53.998Z</time></trkpt><trkpt lat="49.1506924661562" lon="2.502982992837334"><ele>70.0</ele><time>2026-04-09T12:20:55.998Z</time></trkpt><trkpt lat="49.15077427867715" lon="2.502936073623488"><ele>70.0</ele><time>2026-04-09T12:20:57.998Z</time></trkpt><trkpt lat="49.1508575146" lon="2.502889148006747"><ele>70.0</ele><time>2026-04-09T12:20:59.998Z</time></trkpt><trkpt lat="49.1509480355527" lon="2.5028469378394664"><ele>70.0</ele><time>2026-04-09T12:21:01.998Z</time></trkpt><trkpt lat="49.15103107156305" lon="2.502787762941054"><ele>70.0</ele><time>2026-04-09T12:21:03.998Z</time></trkpt><trkpt lat="49.151119565116026" lon="2.502711834252415"><ele>69.8</ele><time>2026-04-09T12:21:05.998Z</time></trkpt><trkpt lat="49.151214280888496" lon="2.5026698537453926"><ele>69.6</ele><time>2026-04-09T12:21:07.998Z</time></trkpt><trkpt lat="49.1513036437768" lon="2.5026167796479957"><ele>69.4</ele><time>2026-04-09T12:21:09.998Z</time></trkpt><trkpt lat="49.15139544841381" lon="2.5025576736036825"><ele>69.2</ele><time>2026-04-09T12:21:11.998Z</time></trkpt><trkpt lat="49.15150340174428" lon="2.5025018248746562"><ele>69.0</ele><time>2026-04-09T12:21:13.998Z</time></trkpt><trkpt lat="49.151597421783194" lon="2.50243693221244"><ele>68.4</ele><time>2026-04-09T12:21:15.998Z</time></trkpt><trkpt lat="49.15170347344743" lon="2.5023807851674786"><ele>67.80000000000001</ele><time>2026-04-09T12:21:17.997Z</time></trkpt><trkpt lat="49.1518203834189" lon="2.5023351221147334"><ele>67.19999999999999</ele><time>2026-04-09T12:21:19.997Z</time></trkpt><trkpt lat="49.151915689125246" lon="2.5022555803211044"><ele>66.6</ele><time>2026-04-09T12:21:21.997Z</time></trkpt><trkpt lat="49.15200821710826" lon="2.5021975804985637"><ele>66.0</ele><time>2026-04-09T12:21:23.997Z</time></trkpt><trkpt lat="49.152073172589056" lon="2.5021553785150843"><ele>66.0</ele><time>2026-04-09T12:21:24.997Z</time></trkpt><trkpt lat="49.15218314062607" lon="2.502125398980754"><ele>66.0</ele><time>2026-04-09T12:21:26.997Z</time></trkpt><trkpt lat="49.15226835210158" lon="2.502061557156233"><ele>66.0</ele><time>2026-04-09T12:21:28.997Z</time></trkpt><trkpt lat="49.15235536692098" lon="2.5020018029209705"><ele>66.0</ele><time>2026-04-09T12:21:30.997Z</time></trkpt><trkpt lat="49.15243184837829" lon="2.5019583755442776"><ele>66.0</ele><time>2026-04-09T12:21:32.997Z</time></trkpt><trkpt lat="49.15251486794751" lon="2.5019038069894646"><ele>66.16666666666667</ele><time>2026-04-09T12:21:34.997Z</time></trkpt><trkpt lat="49.15259270382193" lon="2.5018581059402756"><ele>66.33333333333333</ele><time>2026-04-09T12:21:36.997Z</time></trkpt><trkpt lat="49.15267012414701" lon="2.501816165045918"><ele>66.5</ele><time>2026-04-09T12:21:38.997Z</time></trkpt><trkpt lat="49.15274139414808" lon="2.5017634978315395"><ele>66.66666666666666</ele><time>2026-04-09T12:21:40.997Z</time></trkpt><trkpt lat="49.15281827709247" lon="2.501721750339503"><ele>66.83333333333333</ele><time>2026-04-09T12:21:42.997Z</time></trkpt><trkpt lat="49.15289095523515" lon="2.501674927201501"><ele>67.0</ele><time>2026-04-09T12:21:44.997Z</time></trkpt><trkpt lat="49.15296640838137" lon="2.5016376049695825"><ele>67.0</ele><time>2026-04-09T12:21:46.997Z</time></trkpt><trkpt lat="49.153035684933045" lon="2.501591351674577"><ele>67.0</ele><time>2026-04-09T12:21:48.997Z</time></trkpt><trkpt lat="49.15310609885311" lon="2.5015374338791303"><ele>67.0</ele><time>2026-04-09T12:21:50.996Z</time></trkpt><trkpt lat="49.153177101552934" lon="2.50149738356898"><ele>67.0</ele><time>2026-04-09T12:21:52.996Z</time></trkpt><trkpt lat="49.153245995809655" lon="2.5014701498797183"><ele>67.0</ele><time>2026-04-09T12:21:54.996Z</time></trkpt><trkpt lat="49.15331182780872" lon="2.5014222615060304"><ele>67.0</ele><time>2026-04-09T12:21:57Z</time></trkpt><trkpt lat="49.15338955990377" lon="2.501377572155418"><ele>67.0</ele><time>2026-04-09T12:21:59Z</time></trkpt><trkpt lat="49.15345011965731" lon="2.5013363334690593"><ele>67.0</ele><time>2026-04-09T12:22:01Z</time></trkpt><trkpt lat="49.15352728997851" lon="2.501293432434374"><ele>67.0</ele><time>2026-04-09T12:22:03Z</time></trkpt><trkpt lat="49.15359370226031" lon="2.5012493382595418"><ele>67.0</ele><time>2026-04-09T12:22:05Z</time></trkpt><trkpt lat="49.153665905215995" lon="2.5012054959697885"><ele>67.0</ele><time>2026-04-09T12:22:07Z</time></trkpt><trkpt lat="49.153743972031926" lon="2.501162851911031"><ele>67.0</ele><time>2026-04-09T12:22:09Z</time></trkpt><trkpt lat="49.15381276054275" lon="2.5011218660176207"><ele>67.0</ele><time>2026-04-09T12:22:11Z</time></trkpt><trkpt lat="49.15390738477481" lon="2.501048375078779"><ele>67.0</ele><time>2026-04-09T12:22:14Z</time></trkpt><trkpt lat="49.153976626986214" lon="2.501004134792574"><ele>67.0</ele><time>2026-04-09T12:22:16Z</time></trkpt><trkpt lat="49.15404864171336" lon="2.5009730715114484"><ele>67.0</ele><time>2026-04-09T12:22:17.999Z</time></trkpt><trkpt lat="49.15412525176019" lon="2.5009279338621857"><ele>67.0</ele><time>2026-04-09T12:22:19.999Z</time></trkpt><trkpt lat="49.15419444586998" lon="2.500888084770231"><ele>67.0</ele><time>2026-04-09T12:22:21.999Z</time></trkpt><trkpt lat="49.15426968470771" lon="2.500847088696167"><ele>67.0</ele><time>2026-04-09T12:22:23.999Z</time></trkpt><trkpt lat="49.15432745415136" lon="2.5007990905108772"><ele>67.0</ele><time>2026-04-09T12:22:25.999Z</time></trkpt><trkpt lat="49.15440339642882" lon="2.5007517136372304"><ele>67.0</ele><time>2026-04-09T12:22:27.999Z</time></trkpt><trkpt lat="49.15448060510381" lon="2.5007036125312534"><ele>67.0</ele><time>2026-04-09T12:22:29.999Z</time></trkpt><trkpt lat="49.15456120176829" lon="2.5006696702606512"><ele>67.0</ele><time>2026-04-09T12:22:31.999Z</time></trkpt><trkpt lat="49.15463631947601" lon="2.5006255989995805"><ele>67.0</ele><time>2026-04-09T12:22:33.999Z</time></trkpt><trkpt lat="49.15470753351741" lon="2.500579296404305"><ele>67.0</ele><time>2026-04-09T12:22:35.999Z</time></trkpt><trkpt lat="49.15478736121822" lon="2.500530201057498"><ele>67.0</ele><time>2026-04-09T12:22:37.999Z</time></trkpt><trkpt lat="49.154875598022635" lon="2.500483172782543"><ele>67.0</ele><time>2026-04-09T12:22:39.999Z</time></trkpt><trkpt lat="49.15496062888247" lon="2.500430428959643"><ele>67.0</ele><time>2026-04-09T12:22:41.999Z</time></trkpt><trkpt lat="49.15504863891443" lon="2.500376510292897"><ele>67.0</ele><time>2026-04-09T12:22:43.999Z</time></trkpt><trkpt lat="49.155131761057916" lon="2.500329902550939"><ele>66.6</ele><time>2026-04-09T12:22:45.999Z</time></trkpt><trkpt lat="49.15522278758957" lon="2.5002838595920043"><ele>66.2</ele><time>2026-04-09T12:22:47.999Z</time></trkpt><trkpt lat="49.1553061739534" lon="2.500230673145041"><ele>65.8</ele><time>2026-04-09T12:22:49.998Z</time></trkpt><trkpt lat="49.15539162983523" lon="2.500173736651591"><ele>65.4</ele><time>2026-04-09T12:22:51.998Z</time></trkpt><trkpt lat="49.15549098883701" lon="2.500112280221887"><ele>65.0</ele><time>2026-04-09T12:22:53.998Z</time></trkpt><trkpt lat="49.15558714565094" lon="2.500052546494605"><ele>65.0</ele><time>2026-04-09T12:22:55.998Z</time></trkpt><trkpt lat="49.15568279145459" lon="2.500008601552401"><ele>65.0</ele><time>2026-04-09T12:22:57.998Z</time></trkpt><trkpt lat="49.155789389013314" lon="2.499934578051305"><ele>65.0</ele><time>2026-04-09T12:22:59.998Z</time></trkpt><trkpt lat="49.15585260232677" lon="2.4999021777976616"><ele>65.0</ele><time>2026-04-09T12:23:00.998Z</time></trkpt><trkpt lat="49.15595614176595" lon="2.4998424995898167"><ele>65.0</ele><time>2026-04-09T12:23:02.998Z</time></trkpt><trkpt lat="49.15606814627597" lon="2.499768182705688"><ele>65.0</ele><time>2026-04-09T12:23:04.998Z</time></trkpt><trkpt lat="49.15612994801684" lon="2.4997384431779115"><ele>65.0</ele><time>2026-04-09T12:23:05.998Z</time></trkpt><trkpt lat="49.156231452073335" lon="2.49973717749699"><ele>65.0</ele><time>2026-04-09T12:23:07.998Z</time></trkpt><trkpt lat="49.15625392431116" lon="2.499624470133717"><ele>65.0</ele><time>2026-04-09T12:23:10.998Z</time></trkpt><trkpt lat="49.15619040670425" lon="2.4995751413541067"><ele>65.0</ele><time>2026-04-09T12:23:13.998Z</time></trkpt><trkpt lat="49.15614943030836" lon="2.4996672818542636"><ele>65.0</ele><time>2026-04-09T12:23:17.998Z</time></trkpt><trkpt lat="49.15621110761488" lon="2.4997001182304746"><ele>65.2</ele><time>2026-04-09T12:23:23.997Z</time></trkpt><trkpt lat="49.15628343015088" lon="2.499763004108121"><ele>65.4</ele><time>2026-04-09T12:23:49.997Z</time></trkpt><trkpt lat="49.15637631679617" lon="2.499831060940488"><ele>65.6</ele><time>2026-04-09T12:23:51.997Z</time></trkpt><trkpt lat="49.15648287404601" lon="2.499926401740198"><ele>65.8</ele><time>2026-04-09T12:23:53.997Z</time></trkpt><trkpt lat="49.15654833714952" lon="2.4999864546271877"><ele>66.0</ele><time>2026-04-09T12:23:54.996Z</time></trkpt><trkpt lat="49.15662067619276" lon="2.5000549145756232"><ele>65.0</ele><time>2026-04-09T12:23:55.996Z</time></trkpt><trkpt lat="49.156706243805424" lon="2.5001328077891207"><ele>63.99999999999999</ele><time>2026-04-09T12:23:56.996Z</time></trkpt><trkpt lat="49.15678707852796" lon="2.5002093252119697"><ele>62.99999999999999</ele><time>2026-04-09T12:23:57.996Z</time></trkpt><trkpt lat="49.156873388961515" lon="2.5002849683700403"><ele>62.0</ele><time>2026-04-09T12:23:58.996Z</time></trkpt><trkpt lat="49.15696842891992" lon="2.500370633843863"><ele>61.0</ele><time>2026-04-09T12:23:59.996Z</time></trkpt><trkpt lat="49.157067406460854" lon="2.500462166870559"><ele>60.8</ele><time>2026-04-09T12:24:01Z</time></trkpt><trkpt lat="49.15716699574286" lon="2.5005503101605853"><ele>60.599999999999994</ele><time>2026-04-09T12:24:02Z</time></trkpt><trkpt lat="49.157268153896716" lon="2.5006472994882145"><ele>60.4</ele><time>2026-04-09T12:24:03Z</time></trkpt><trkpt lat="49.157364657049044" lon="2.500727705174513"><ele>60.2</ele><time>2026-04-09T12:24:04Z</time></trkpt><trkpt lat="49.15745771523715" lon="2.5008017067838852"><ele>60.0</ele><time>2026-04-09T12:24:05Z</time></trkpt><trkpt lat="49.15754868697852" lon="2.500885438604391"><ele>57.8</ele><time>2026-04-09T12:24:06Z</time></trkpt><trkpt lat="49.15763580109761" lon="2.500963969273496"><ele>55.6</ele><time>2026-04-09T12:24:07Z</time></trkpt><trkpt lat="49.15771181647207" lon="2.5010569874988273"><ele>53.400000000000006</ele><time>2026-04-09T12:24:08Z</time></trkpt><trkpt lat="49.157791126523556" lon="2.5011296000056498"><ele>51.2</ele><time>2026-04-09T12:24:09Z</time></trkpt><trkpt lat="49.157869444565996" lon="2.5012011845602635"><ele>49.0</ele><time>2026-04-09T12:24:10Z</time></trkpt><trkpt lat="49.157936632404436" lon="2.5012623853044116"><ele>48.99999999999999</ele><time>2026-04-09T12:24:11Z</time></trkpt><trkpt lat="49.158006558405575" lon="2.501327175739945"><ele>49.0</ele><time>2026-04-09T12:24:12Z</time></trkpt><trkpt lat="49.15808068805514" lon="2.5013673536965384"><ele>49.0</ele><time>2026-04-09T12:24:13Z</time></trkpt><trkpt lat="49.15814416089788" lon="2.501428826533809"><ele>49.0</ele><time>2026-04-09T12:24:14Z</time></trkpt><trkpt lat="49.15819767212695" lon="2.501486855777479"><ele>48.99999999999999</ele><time>2026-04-09T12:24:15Z</time></trkpt><trkpt lat="49.15828298381149" lon="2.5015833481834706"><ele>49.0</ele><time>2026-04-09T12:24:17Z</time></trkpt><trkpt lat="49.15835699168015" lon="2.5015949881807495"><ele>49.49999999999999</ele><time>2026-04-09T12:24:19Z</time></trkpt><trkpt lat="49.158356804266404" lon="2.501461083303685"><ele>50.0</ele><time>2026-04-09T12:24:20.999Z</time></trkpt><trkpt lat="49.158346298294646" lon="2.5013484534293684"><ele>50.5</ele><time>2026-04-09T12:24:22.999Z</time></trkpt><trkpt lat="49.15833236689413" lon="2.501229547376718"><ele>51.0</ele><time>2026-04-09T12:24:24.999Z</time></trkpt><trkpt lat="49.15833591577366" lon="2.501114002016306"><ele>51.49999999999999</ele><time>2026-04-09T12:24:26.999Z</time></trkpt><trkpt lat="49.15833906991467" lon="2.5009987207543674"><ele>52.0</ele><time>2026-04-09T12:24:28.999Z</time></trkpt><trkpt lat="49.15834716774917" lon="2.5008566899801745"><ele>52.0</ele><time>2026-04-09T12:24:31.999Z</time></trkpt><trkpt lat="49.15833922342171" lon="2.5007306442666732"><ele>52.0</ele><time>2026-04-09T12:24:33.999Z</time></trkpt><trkpt lat="49.15834251368984" lon="2.500616440571474"><ele>52.0</ele><time>2026-04-09T12:24:35.999Z</time></trkpt><trkpt lat="49.158344500976874" lon="2.500511539070201"><ele>52.0</ele><time>2026-04-09T12:24:37.999Z</time></trkpt><trkpt lat="49.15834572155928" lon="2.500398754252835"><ele>52.0</ele><time>2026-04-09T12:24:39.999Z</time></trkpt><trkpt lat="49.15834716941897" lon="2.5002906837061474"><ele>52.0</ele><time>2026-04-09T12:24:41.999Z</time></trkpt><trkpt lat="49.15834360338052" lon="2.5001715042132813"><ele>52.0</ele><time>2026-04-09T12:24:43.999Z</time></trkpt><trkpt lat="49.15834926789115" lon="2.5000671491462936"><ele>52.33333333333333</ele><time>2026-04-09T12:24:45.999Z</time></trkpt><trkpt lat="49.15835349323171" lon="2.49996658795053"><ele>52.666666666666664</ele><time>2026-04-09T12:24:47.999Z</time></trkpt><trkpt lat="49.158354904085584" lon="2.4998599652624653"><ele>53.0</ele><time>2026-04-09T12:24:49.999Z</time></trkpt><trkpt lat="49.15835130913427" lon="2.499738816170512"><ele>53.33333333333333</ele><time>2026-04-09T12:24:51.999Z</time></trkpt><trkpt lat="49.15834680773703" lon="2.4996218998731172"><ele>53.666666666666664</ele><time>2026-04-09T12:24:53.998Z</time></trkpt><trkpt lat="49.15834567975707" lon="2.4994886462843393"><ele>54.0</ele><time>2026-04-09T12:24:55.998Z</time></trkpt><trkpt lat="49.158348059808866" lon="2.4993763361687407"><ele>54.0</ele><time>2026-04-09T12:24:57.998Z</time></trkpt><trkpt lat="49.15834760032358" lon="2.4992504914636173"><ele>54.0</ele><time>2026-04-09T12:24:59.998Z</time></trkpt><trkpt lat="49.15834940843999" lon="2.4991176778944917"><ele>54.0</ele><time>2026-04-09T12:25:01.998Z</time></trkpt><trkpt lat="49.15835628153559" lon="2.498997889418134"><ele>54.0</ele><time>2026-04-09T12:25:03.998Z</time></trkpt><trkpt lat="49.158348268659815" lon="2.498858258904357"><ele>54.0</ele><time>2026-04-09T12:25:05.998Z</time></trkpt><trkpt lat="49.15834025145146" lon="2.4987044835477814"><ele>54.0</ele><time>2026-04-09T12:25:07.998Z</time></trkpt><trkpt lat="49.15834465096374" lon="2.498589434885852"><ele>54.0</ele><time>2026-04-09T12:25:09.998Z</time></trkpt><trkpt lat="49.15834959977861" lon="2.498468601734802"><ele>54.0</ele><time>2026-04-09T12:25:11.998Z</time></trkpt><trkpt lat="49.15835076348071" lon="2.498356222716424"><ele>54.0</ele><time>2026-04-09T12:25:13.998Z</time></trkpt><trkpt lat="49.15835288469529" lon="2.4982506668690143"><ele>54.0</ele><time>2026-04-09T12:25:15.998Z</time></trkpt><trkpt lat="49.158363906814365" lon="2.498150604235696"><ele>54.0</ele><time>2026-04-09T12:25:17.998Z</time></trkpt><trkpt lat="49.158370635883365" lon="2.4980395707489516"><ele>54.0</ele><time>2026-04-09T12:25:19.998Z</time></trkpt><trkpt lat="49.158381244696194" lon="2.497936028659936"><ele>54.0</ele><time>2026-04-09T12:25:21.998Z</time></trkpt><trkpt lat="49.15839568011572" lon="2.4978217084382943"><ele>54.285714285714285</ele><time>2026-04-09T12:25:23.998Z</time></trkpt><trkpt lat="49.15840535182269" lon="2.497717161048636"><ele>54.57142857142857</ele><time>2026-04-09T12:25:25.997Z</time></trkpt><trkpt lat="49.158412491673225" lon="2.4976043856037498"><ele>54.85714285714286</ele><time>2026-04-09T12:25:27.997Z</time></trkpt><trkpt lat="49.158421430041905" lon="2.4974938597255543"><ele>55.14285714285714</ele><time>2026-04-09T12:25:29.997Z</time></trkpt><trkpt lat="49.158433028638704" lon="2.4973926936626314"><ele>55.42857142857143</ele><time>2026-04-09T12:25:31.997Z</time></trkpt><trkpt lat="49.15844229188564" lon="2.4972822926177"><ele>55.714285714285715</ele><time>2026-04-09T12:25:33.997Z</time></trkpt><trkpt lat="49.15845276292617" lon="2.4971742366565723"><ele>56.0</ele><time>2026-04-09T12:25:35.997Z</time></trkpt><trkpt lat="49.15846386522106" lon="2.497065291032341"><ele>56.50000000000001</ele><time>2026-04-09T12:25:37.997Z</time></trkpt><trkpt lat="49.15847190768142" lon="2.496955032834211"><ele>57.0</ele><time>2026-04-09T12:25:39.997Z</time></trkpt><trkpt lat="49.158480859754775" lon="2.496844586065321"><ele>57.5</ele><time>2026-04-09T12:25:41.997Z</time></trkpt><trkpt lat="49.158494142040205" lon="2.4967371909051006"><ele>58.0</ele><time>2026-04-09T12:25:43.997Z</time></trkpt><trkpt lat="49.158504714760575" lon="2.496620538194501"><ele>58.50000000000001</ele><time>2026-04-09T12:25:45.997Z</time></trkpt><trkpt lat="49.15851056676994" lon="2.4964878560529495"><ele>59.0</ele><time>2026-04-09T12:25:47.997Z</time></trkpt><trkpt lat="49.15851731270207" lon="2.4963570004251405"><ele>58.800000000000004</ele><time>2026-04-09T12:25:49.997Z</time></trkpt><trkpt lat="49.15852754128018" lon="2.4962107953838193"><ele>58.60000000000001</ele><time>2026-04-09T12:25:51.997Z</time></trkpt><trkpt lat="49.158534699278924" lon="2.4960469186669108"><ele>58.4</ele><time>2026-04-09T12:25:53.997Z</time></trkpt><trkpt lat="49.158552480538255" lon="2.495877901714636"><ele>58.2</ele><time>2026-04-09T12:25:55.997Z</time></trkpt><trkpt lat="49.15855776516287" lon="2.4957041772165276"><ele>58.0</ele><time>2026-04-09T12:25:57.997Z</time></trkpt><trkpt lat="49.158564809050276" lon="2.4955309310840876"><ele>57.4</ele><time>2026-04-09T12:25:59.996Z</time></trkpt><trkpt lat="49.15858244111408" lon="2.495357535816604"><ele>56.8</ele><time>2026-04-09T12:26:01.996Z</time></trkpt><trkpt lat="49.15857122852721" lon="2.4952149323226593"><ele>56.2</ele><time>2026-04-09T12:26:03.996Z</time></trkpt><trkpt lat="49.1585604350627" lon="2.495118746564048"><ele>55.6</ele><time>2026-04-09T12:26:04.996Z</time></trkpt><trkpt lat="49.158551380327" lon="2.494955098713497"><ele>55.0</ele><time>2026-04-09T12:26:07Z</time></trkpt><trkpt lat="49.158553028126796" lon="2.4947916293260373"><ele>55.0</ele><time>2026-04-09T12:26:09Z</time></trkpt><trkpt lat="49.15853767852253" lon="2.494625766260297"><ele>55.0</ele><time>2026-04-09T12:26:11Z</time></trkpt><trkpt lat="49.158507402600286" lon="2.494465743629382"><ele>55.0</ele><time>2026-04-09T12:26:13Z</time></trkpt><trkpt lat="49.15849033167461" lon="2.494304057682363"><ele>55.0</ele><time>2026-04-09T12:26:15Z</time></trkpt><trkpt lat="49.15847063702882" lon="2.4941379769699044"><ele>55.0</ele><time>2026-04-09T12:26:17Z</time></trkpt><trkpt lat="49.158452368959374" lon="2.4939661979160648"><ele>55.0</ele><time>2026-04-09T12:26:19Z</time></trkpt><trkpt lat="49.158449294656414" lon="2.493806069603701"><ele>55.0</ele><time>2026-04-09T12:26:21Z</time></trkpt><trkpt lat="49.158418800543316" lon="2.4936459691428277"><ele>55.0</ele><time>2026-04-09T12:26:23Z</time></trkpt><trkpt lat="49.15840406308587" lon="2.4934843382218337"><ele>55.0</ele><time>2026-04-09T12:26:24.999Z</time></trkpt><trkpt lat="49.158385783277815" lon="2.493336313463276"><ele>55.0</ele><time>2026-04-09T12:26:26.999Z</time></trkpt><trkpt lat="49.15837311742765" lon="2.49318976470281"><ele>55.2</ele><time>2026-04-09T12:26:28.999Z</time></trkpt><trkpt lat="49.158358727606306" lon="2.493053161481304"><ele>55.4</ele><time>2026-04-09T12:26:30.999Z</time></trkpt><trkpt lat="49.158341853268176" lon="2.492905722958894"><ele>55.599999999999994</ele><time>2026-04-09T12:26:32.999Z</time></trkpt><trkpt lat="49.15832777068812" lon="2.4927666641288666"><ele>55.8</ele><time>2026-04-09T12:26:34.999Z</time></trkpt><trkpt lat="49.158315252272324" lon="2.492632758533699"><ele>56.0</ele><time>2026-04-09T12:26:36.999Z</time></trkpt><trkpt lat="49.15830063269694" lon="2.4924950973191153"><ele>56.00000000000001</ele><time>2026-04-09T12:26:38.999Z</time></trkpt><trkpt lat="49.1582824699863" lon="2.492364671847076"><ele>56.0</ele><time>2026-04-09T12:26:40.999Z</time></trkpt><trkpt lat="49.15827168988672" lon="2.4922350083664937"><ele>56.0</ele><time>2026-04-09T12:26:42.999Z</time></trkpt><trkpt lat="49.15825878172271" lon="2.4921110020367774"><ele>56.0</ele><time>2026-04-09T12:26:44.999Z</time></trkpt><trkpt lat="49.158250674887555" lon="2.491987651462181"><ele>56.00000000000001</ele><time>2026-04-09T12:26:46.999Z</time></trkpt><trkpt lat="49.15823675054835" lon="2.491863621313311"><ele>56.0</ele><time>2026-04-09T12:26:48.999Z</time></trkpt><trkpt lat="49.15823868765083" lon="2.4917286160106284"><ele>56.199999999999996</ele><time>2026-04-09T12:26:50.999Z</time></trkpt><trkpt lat="49.158211979732044" lon="2.491613881948116"><ele>56.39999999999999</ele><time>2026-04-09T12:26:52.999Z</time></trkpt><trkpt lat="49.15821711267655" lon="2.491479738527268"><ele>56.6</ele><time>2026-04-09T12:26:54.999Z</time></trkpt><trkpt lat="49.15818854911966" lon="2.491347323582518"><ele>56.8</ele><time>2026-04-09T12:26:56.998Z</time></trkpt><trkpt lat="49.158191801655775" lon="2.491196647372726"><ele>57.0</ele><time>2026-04-09T12:26:58.998Z</time></trkpt><trkpt lat="49.15816158899412" lon="2.4910461031819477"><ele>55.6</ele><time>2026-04-09T12:27:00.998Z</time></trkpt><trkpt lat="49.15815004224072" lon="2.490886542676649"><ele>54.2</ele><time>2026-04-09T12:27:02.998Z</time></trkpt><trkpt lat="49.15813682987834" lon="2.490728577728144"><ele>52.8</ele><time>2026-04-09T12:27:04.998Z</time></trkpt><trkpt lat="49.158120259247504" lon="2.4905725505152523"><ele>51.4</ele><time>2026-04-09T12:27:06.998Z</time></trkpt><trkpt lat="49.15810075581001" lon="2.490415942100528"><ele>50.0</ele><time>2026-04-09T12:27:08.998Z</time></trkpt><trkpt lat="49.158085128222964" lon="2.4902571501150144"><ele>50.0</ele><time>2026-04-09T12:27:10.998Z</time></trkpt><trkpt lat="49.15808020182005" lon="2.4901070208538103"><ele>50.0</ele><time>2026-04-09T12:27:12.998Z</time></trkpt><trkpt lat="49.158088672424554" lon="2.489953297871914"><ele>50.0</ele><time>2026-04-09T12:27:14.998Z</time></trkpt><trkpt lat="49.158119366228966" lon="2.4897956792328886"><ele>50.0</ele><time>2026-04-09T12:27:16.998Z</time></trkpt><trkpt lat="49.15818831640112" lon="2.4896688233690427"><ele>50.0</ele><time>2026-04-09T12:27:18.998Z</time></trkpt><trkpt lat="49.15826708395303" lon="2.4895429351460323"><ele>51.6</ele><time>2026-04-09T12:27:20.998Z</time></trkpt><trkpt lat="49.15834835093286" lon="2.4894201541041454"><ele>53.2</ele><time>2026-04-09T12:27:22.998Z</time></trkpt><trkpt lat="49.158429179347806" lon="2.48930735995645"><ele>54.8</ele><time>2026-04-09T12:27:24.998Z</time></trkpt><trkpt lat="49.15850886179891" lon="2.4891873126876662"><ele>56.4</ele><time>2026-04-09T12:27:26.998Z</time></trkpt><trkpt lat="49.1585848867527" lon="2.489071611012658"><ele>58.0</ele><time>2026-04-09T12:27:28.997Z</time></trkpt><trkpt lat="49.15866409408396" lon="2.4889526943606"><ele>58.0</ele><time>2026-04-09T12:27:30.997Z</time></trkpt><trkpt lat="49.15874072498376" lon="2.4888322678822314"><ele>58.0</ele><time>2026-04-09T12:27:32.997Z</time></trkpt><trkpt lat="49.158800503985425" lon="2.488730683978898"><ele>58.0</ele><time>2026-04-09T12:27:34.997Z</time></trkpt><trkpt lat="49.15890635564262" lon="2.488586472145125"><ele>58.0</ele><time>2026-04-09T12:27:37.997Z</time></trkpt><trkpt lat="49.15898118972629" lon="2.488472109485323"><ele>58.0</ele><time>2026-04-09T12:27:39.997Z</time></trkpt><trkpt lat="49.15904667660339" lon="2.488350103793456"><ele>58.2</ele><time>2026-04-09T12:27:41.997Z</time></trkpt><trkpt lat="49.159123129204225" lon="2.4882292519810054"><ele>58.4</ele><time>2026-04-09T12:27:43.997Z</time></trkpt><trkpt lat="49.159197606932516" lon="2.488125919512492"><ele>58.60000000000001</ele><time>2026-04-09T12:27:45.997Z</time></trkpt><trkpt lat="49.1592691035183" lon="2.4880311906695876"><ele>58.800000000000004</ele><time>2026-04-09T12:27:47.997Z</time></trkpt><trkpt lat="49.15934757764493" lon="2.487925188223959"><ele>59.0</ele><time>2026-04-09T12:27:49.997Z</time></trkpt><trkpt lat="49.159417966430574" lon="2.4878202888451915"><ele>59.0</ele><time>2026-04-09T12:27:51.997Z</time></trkpt><trkpt lat="49.15947809258948" lon="2.487688448300661"><ele>59.00000000000001</ele><time>2026-04-09T12:27:53.997Z</time></trkpt><trkpt lat="49.159539957759236" lon="2.4875704811967734"><ele>59.00000000000001</ele><time>2026-04-09T12:27:55.997Z</time></trkpt><trkpt lat="49.159604454549296" lon="2.4874579331606834"><ele>59.0</ele><time>2026-04-09T12:27:57.997Z</time></trkpt><trkpt lat="49.1596650161584" lon="2.487340968419586"><ele>59.0</ele><time>2026-04-09T12:27:59.997Z</time></trkpt><trkpt lat="49.15972633768914" lon="2.487209393110139"><ele>59.00000000000001</ele><time>2026-04-09T12:28:01.996Z</time></trkpt><trkpt lat="49.15976678084775" lon="2.4871035592758335"><ele>59.0</ele><time>2026-04-09T12:28:03.996Z</time></trkpt><trkpt lat="49.15984605796872" lon="2.4870681882387027"><ele>59.0</ele><time>2026-04-09T12:28:05.996Z</time></trkpt><trkpt lat="49.15990125405775" lon="2.4869788357557363"><ele>59.0</ele><time>2026-04-09T12:28:08.996Z</time></trkpt><trkpt lat="49.15995139518074" lon="2.486892405838508"><ele>59.00000000000001</ele><time>2026-04-09T12:28:10.996Z</time></trkpt><trkpt lat="49.160003986360344" lon="2.486798802212167"><ele>59.0</ele><time>2026-04-09T12:28:12.999Z</time></trkpt><trkpt lat="49.16005612466217" lon="2.4866993948702603"><ele>60.00000000000001</ele><time>2026-04-09T12:28:14.999Z</time></trkpt><trkpt lat="49.16010158452669" lon="2.4865893042392906"><ele>61.0</ele><time>2026-04-09T12:28:16.999Z</time></trkpt><trkpt lat="49.16015153256404" lon="2.486483025372812"><ele>62.0</ele><time>2026-04-09T12:28:18.999Z</time></trkpt><trkpt lat="49.16021688328077" lon="2.486395878607887"><ele>63.0</ele><time>2026-04-09T12:28:20.999Z</time></trkpt><trkpt lat="49.16026161922574" lon="2.4862820800743917"><ele>64.0</ele><time>2026-04-09T12:28:22.999Z</time></trkpt><trkpt lat="49.16032717921554" lon="2.486203488176006"><ele>65.0</ele><time>2026-04-09T12:28:24.999Z</time></trkpt><trkpt lat="49.160368215816284" lon="2.486096798955606"><ele>65.33333333333334</ele><time>2026-04-09T12:28:26.999Z</time></trkpt><trkpt lat="49.16042591931211" lon="2.486014535710334"><ele>65.66666666666667</ele><time>2026-04-09T12:28:28.999Z</time></trkpt><trkpt lat="49.160485198193385" lon="2.485932382553578"><ele>66.0</ele><time>2026-04-09T12:28:30.999Z</time></trkpt><trkpt lat="49.160529514727116" lon="2.4858277122744625"><ele>66.33333333333333</ele><time>2026-04-09T12:28:32.999Z</time></trkpt><trkpt lat="49.16058442186576" lon="2.4857409750810917"><ele>66.66666666666666</ele><time>2026-04-09T12:28:34.999Z</time></trkpt><trkpt lat="49.16064329430741" lon="2.4856506294362837"><ele>67.0</ele><time>2026-04-09T12:28:36.999Z</time></trkpt><trkpt lat="49.16069630814249" lon="2.485564250196519"><ele>67.14285714285714</ele><time>2026-04-09T12:28:38.999Z</time></trkpt><trkpt lat="49.16074405033739" lon="2.4854802720577376"><ele>67.28571428571428</ele><time>2026-04-09T12:28:40.999Z</time></trkpt><trkpt lat="49.16078774778998" lon="2.4853907437287655"><ele>67.42857142857142</ele><time>2026-04-09T12:28:42.999Z</time></trkpt><trkpt lat="49.16083020996643" lon="2.4853144220006413"><ele>67.57142857142857</ele><time>2026-04-09T12:28:44.999Z</time></trkpt><trkpt lat="49.16088340509179" lon="2.4852385238038135"><ele>67.71428571428571</ele><time>2026-04-09T12:28:46.999Z</time></trkpt><trkpt lat="49.160925358491085" lon="2.4851467040301993"><ele>67.85714285714285</ele><time>2026-04-09T12:28:48.999Z</time></trkpt><trkpt lat="49.16097423385791" lon="2.485057552733165"><ele>68.0</ele><time>2026-04-09T12:28:50.999Z</time></trkpt><trkpt lat="49.16102699275381" lon="2.484968943667299"><ele>68.16666666666667</ele><time>2026-04-09T12:28:52.999Z</time></trkpt><trkpt lat="49.16107396676809" lon="2.4848724936994078"><ele>68.33333333333334</ele><time>2026-04-09T12:28:54.999Z</time></trkpt><trkpt lat="49.16114929787478" lon="2.484743109655081"><ele>68.5</ele><time>2026-04-09T12:28:57.999Z</time></trkpt><trkpt lat="49.161190448701916" lon="2.484665388790986"><ele>68.66666666666667</ele><time>2026-04-09T12:28:59.999Z</time></trkpt><trkpt lat="49.16124258305586" lon="2.484569251880987"><ele>68.83333333333333</ele><time>2026-04-09T12:29:02.998Z</time></trkpt><trkpt lat="49.16129405806457" lon="2.484473822407365"><ele>69.0</ele><time>2026-04-09T12:29:04.998Z</time></trkpt><trkpt lat="49.16134314609638" lon="2.48439448295109"><ele>69.33333333333333</ele><time>2026-04-09T12:29:06.998Z</time></trkpt><trkpt lat="49.161394887887845" lon="2.484314310260341"><ele>69.66666666666667</ele><time>2026-04-09T12:29:08.998Z</time></trkpt><trkpt lat="49.16144271422676" lon="2.4842241212041287"><ele>70.0</ele><time>2026-04-09T12:29:10.998Z</time></trkpt><trkpt lat="49.16149335856862" lon="2.484135665767617"><ele>70.33333333333334</ele><time>2026-04-09T12:29:12.998Z</time></trkpt><trkpt lat="49.16155278401167" lon="2.4840410212899107"><ele>70.66666666666667</ele><time>2026-04-09T12:29:14.998Z</time></trkpt><trkpt lat="49.16160291940949" lon="2.4839401391188347"><ele>71.0</ele><time>2026-04-09T12:29:16.998Z</time></trkpt><trkpt lat="49.16166888824058" lon="2.4838433565416262"><ele>71.16666666666667</ele><time>2026-04-09T12:29:18.998Z</time></trkpt><trkpt lat="49.161712225271586" lon="2.483754374433925"><ele>71.33333333333334</ele><time>2026-04-09T12:29:20.998Z</time></trkpt><trkpt lat="49.16177187561146" lon="2.4836626974286613"><ele>71.5</ele><time>2026-04-09T12:29:22.998Z</time></trkpt><trkpt lat="49.161838193401294" lon="2.483559596792709"><ele>71.66666666666667</ele><time>2026-04-09T12:29:24.998Z</time></trkpt><trkpt lat="49.161903520178846" lon="2.4834536575389277"><ele>71.83333333333333</ele><time>2026-04-09T12:29:26.998Z</time></trkpt><trkpt lat="49.16195203251515" lon="2.4833579681958677"><ele>72.0</ele><time>2026-04-09T12:29:28.998Z</time></trkpt><trkpt lat="49.16200222483921" lon="2.483275732962933"><ele>72.0</ele><time>2026-04-09T12:29:30.998Z</time></trkpt><trkpt lat="49.16206134411301" lon="2.483187492245218"><ele>72.0</ele><time>2026-04-09T12:29:32.998Z</time></trkpt><trkpt lat="49.162116208721805" lon="2.4830686174628185"><ele>72.0</ele><time>2026-04-09T12:29:34.997Z</time></trkpt><trkpt lat="49.16217193170717" lon="2.4829591782611797"><ele>72.0</ele><time>2026-04-09T12:29:36.997Z</time></trkpt><trkpt lat="49.162223235881264" lon="2.4828665180095517"><ele>72.0</ele><time>2026-04-09T12:29:38.997Z</time></trkpt><trkpt lat="49.162285886135095" lon="2.48278175382376"><ele>72.0</ele><time>2026-04-09T12:29:40.997Z</time></trkpt><trkpt lat="49.162338862458306" lon="2.482686503408081"><ele>72.16666666666667</ele><time>2026-04-09T12:29:42.997Z</time></trkpt><trkpt lat="49.16240393186853" lon="2.482595290519937"><ele>72.33333333333333</ele><time>2026-04-09T12:29:44.997Z</time></trkpt><trkpt lat="49.16246519179689" lon="2.482516763287615"><ele>72.5</ele><time>2026-04-09T12:29:46.997Z</time></trkpt><trkpt lat="49.162514477369065" lon="2.4824126506463564"><ele>72.66666666666666</ele><time>2026-04-09T12:29:48.997Z</time></trkpt><trkpt lat="49.16256746219533" lon="2.4823087224495146"><ele>72.83333333333333</ele><time>2026-04-09T12:29:50.997Z</time></trkpt><trkpt lat="49.162626520043986" lon="2.482203685289014"><ele>73.0</ele><time>2026-04-09T12:29:52.997Z</time></trkpt><trkpt lat="49.162679880327964" lon="2.4820973419771235"><ele>73.0</ele><time>2026-04-09T12:29:54.997Z</time></trkpt><trkpt lat="49.1627447003434" lon="2.482000194881059"><ele>73.0</ele><time>2026-04-09T12:29:56.997Z</time></trkpt><trkpt lat="49.16280089467951" lon="2.481895880636348"><ele>73.0</ele><time>2026-04-09T12:29:58.997Z</time></trkpt><trkpt lat="49.16287100365034" lon="2.4817820492380696"><ele>73.0</ele><time>2026-04-09T12:30:00.997Z</time></trkpt><trkpt lat="49.162932738458984" lon="2.481674021783212"><ele>73.0</ele><time>2026-04-09T12:30:02.997Z</time></trkpt><trkpt lat="49.16299641646525" lon="2.4815679696204604"><ele>73.0</ele><time>2026-04-09T12:30:04.997Z</time></trkpt><trkpt lat="49.16305964084913" lon="2.4814553070388574"><ele>73.0</ele><time>2026-04-09T12:30:06.997Z</time></trkpt><trkpt lat="49.16312225396837" lon="2.481346984507582"><ele>73.0</ele><time>2026-04-09T12:30:08.996Z</time></trkpt><trkpt lat="49.163183531790494" lon="2.4812345896813044"><ele>73.0</ele><time>2026-04-09T12:30:10.996Z</time></trkpt><trkpt lat="49.163243054439796" lon="2.4811260882550443"><ele>73.0</ele><time>2026-04-09T12:30:12.996Z</time></trkpt><trkpt lat="49.16331206149726" lon="2.4810245496849626"><ele>72.6</ele><time>2026-04-09T12:30:14.996Z</time></trkpt><trkpt lat="49.16338132061437" lon="2.4809116994709237"><ele>72.19999999999999</ele><time>2026-04-09T12:30:16.996Z</time></trkpt><trkpt lat="49.16344892604993" lon="2.480806119197349"><ele>71.8</ele><time>2026-04-09T12:30:18.999Z</time></trkpt><trkpt lat="49.1635105192799" lon="2.4806913838701656"><ele>71.39999999999999</ele><time>2026-04-09T12:30:20.999Z</time></trkpt><trkpt lat="49.163571612411125" lon="2.4805821463618853"><ele>71.0</ele><time>2026-04-09T12:30:22.999Z</time></trkpt><trkpt lat="49.16363440447853" lon="2.4804716724707654"><ele>71.2</ele><time>2026-04-09T12:30:24.999Z</time></trkpt><trkpt lat="49.16369638179292" lon="2.48035448124636"><ele>71.39999999999999</ele><time>2026-04-09T12:30:26.999Z</time></trkpt><trkpt lat="49.16376314299809" lon="2.480247493955677"><ele>71.6</ele><time>2026-04-09T12:30:28.999Z</time></trkpt><trkpt lat="49.16382844731361" lon="2.480138548771987"><ele>71.8</ele><time>2026-04-09T12:30:30.999Z</time></trkpt><trkpt lat="49.163889700603434" lon="2.4800243951977485"><ele>72.0</ele><time>2026-04-09T12:30:32.999Z</time></trkpt><trkpt lat="49.16396211634251" lon="2.47991908883682"><ele>72.0</ele><time>2026-04-09T12:30:34.999Z</time></trkpt><trkpt lat="49.164027555439574" lon="2.479807184223532"><ele>72.0</ele><time>2026-04-09T12:30:36.999Z</time></trkpt><trkpt lat="49.16409608059803" lon="2.4796906602657374"><ele>72.0</ele><time>2026-04-09T12:30:38.999Z</time></trkpt><trkpt lat="49.16416325983278" lon="2.479576880803015"><ele>72.0</ele><time>2026-04-09T12:30:40.999Z</time></trkpt><trkpt lat="49.16422011650525" lon="2.4794549685191916"><ele>72.0</ele><time>2026-04-09T12:30:42.999Z</time></trkpt><trkpt lat="49.164283976170346" lon="2.4793363606236754"><ele>71.4</ele><time>2026-04-09T12:30:44.999Z</time></trkpt><trkpt lat="49.164347719624956" lon="2.4792265151981416"><ele>70.80000000000001</ele><time>2026-04-09T12:30:46.999Z</time></trkpt><trkpt lat="49.164413873851494" lon="2.4791087739854363"><ele>70.2</ele><time>2026-04-09T12:30:48.999Z</time></trkpt><trkpt lat="49.16447833011214" lon="2.4789976798069255"><ele>69.60000000000001</ele><time>2026-04-09T12:30:50.999Z</time></trkpt><trkpt lat="49.16455979377438" lon="2.478887704455877"><ele>69.0</ele><time>2026-04-09T12:30:52.999Z</time></trkpt><trkpt lat="49.1646244435442" lon="2.478774733628132"><ele>69.0</ele><time>2026-04-09T12:30:54.999Z</time></trkpt><trkpt lat="49.16468646039185" lon="2.4786666592250794"><ele>69.0</ele><time>2026-04-09T12:30:56.999Z</time></trkpt><trkpt lat="49.16475268424868" lon="2.4785519682903763"><ele>69.0</ele><time>2026-04-09T12:30:58.999Z</time></trkpt><trkpt lat="49.16481012181366" lon="2.478416145267263"><ele>69.0</ele><time>2026-04-09T12:31:00.999Z</time></trkpt><trkpt lat="49.164887787865354" lon="2.4783194919338896"><ele>69.0</ele><time>2026-04-09T12:31:02.999Z</time></trkpt><trkpt lat="49.1649568337716" lon="2.478200683285267"><ele>69.60000000000001</ele><time>2026-04-09T12:31:04.998Z</time></trkpt><trkpt lat="49.16502050862682" lon="2.478090286732927"><ele>70.2</ele><time>2026-04-09T12:31:06.998Z</time></trkpt><trkpt lat="49.16509160078943" lon="2.4779665120899486"><ele>70.80000000000001</ele><time>2026-04-09T12:31:08.998Z</time></trkpt><trkpt lat="49.16515303610067" lon="2.477859550477579"><ele>71.4</ele><time>2026-04-09T12:31:10.998Z</time></trkpt><trkpt lat="49.16522331544806" lon="2.4777371909501373"><ele>72.0</ele><time>2026-04-09T12:31:12.998Z</time></trkpt><trkpt lat="49.165292105958564" lon="2.477617544154058"><ele>72.0</ele><time>2026-04-09T12:31:14.998Z</time></trkpt><trkpt lat="49.16535862132973" lon="2.4775027247880566"><ele>72.0</ele><time>2026-04-09T12:31:16.998Z</time></trkpt><trkpt lat="49.16542497815968" lon="2.4773881792948"><ele>72.0</ele><time>2026-04-09T12:31:18.998Z</time></trkpt><trkpt lat="49.16548158321756" lon="2.4772625344933044"><ele>72.0</ele><time>2026-04-09T12:31:20.998Z</time></trkpt><trkpt lat="49.1655474426243" lon="2.4771410098667315"><ele>72.0</ele><time>2026-04-09T12:31:22.998Z</time></trkpt><trkpt lat="49.16561754266771" lon="2.4770213707211703"><ele>72.2</ele><time>2026-04-09T12:31:24.998Z</time></trkpt><trkpt lat="49.1656880415884" lon="2.4769042266752024"><ele>72.4</ele><time>2026-04-09T12:31:26.998Z</time></trkpt><trkpt lat="49.165759913951746" lon="2.4767772768180283"><ele>72.6</ele><time>2026-04-09T12:31:28.998Z</time></trkpt><trkpt lat="49.16583683867191" lon="2.476654001100082"><ele>72.8</ele><time>2026-04-09T12:31:30.998Z</time></trkpt><trkpt lat="49.16590042012843" lon="2.476538965750709"><ele>73.0</ele><time>2026-04-09T12:31:32.998Z</time></trkpt><trkpt lat="49.165971659732676" lon="2.4764161876861106"><ele>72.6</ele><time>2026-04-09T12:31:34.998Z</time></trkpt><trkpt lat="49.16604289691638" lon="2.476297591796087"><ele>72.19999999999999</ele><time>2026-04-09T12:31:36.998Z</time></trkpt><trkpt lat="49.166121648233606" lon="2.476191363119166"><ele>71.8</ele><time>2026-04-09T12:31:38.997Z</time></trkpt><trkpt lat="49.16617961010446" lon="2.4760521325685563"><ele>71.39999999999999</ele><time>2026-04-09T12:31:40.997Z</time></trkpt><trkpt lat="49.16626201037253" lon="2.4759460748070317"><ele>71.0</ele><time>2026-04-09T12:31:42.997Z</time></trkpt><trkpt lat="49.16633238924436" lon="2.4758233252289394"><ele>71.0</ele><time>2026-04-09T12:31:44.997Z</time></trkpt><trkpt lat="49.16639771713936" lon="2.475709531471477"><ele>71.0</ele><time>2026-04-09T12:31:46.997Z</time></trkpt><trkpt lat="49.166470797368234" lon="2.475582838991594"><ele>71.0</ele><time>2026-04-09T12:31:48.997Z</time></trkpt><trkpt lat="49.16654016421847" lon="2.4754627782811034"><ele>71.0</ele><time>2026-04-09T12:31:50.997Z</time></trkpt><trkpt lat="49.16660858806126" lon="2.47534434983901"><ele>71.0</ele><time>2026-04-09T12:31:52.997Z</time></trkpt><trkpt lat="49.1666827521124" lon="2.4752159862477052"><ele>70.8</ele><time>2026-04-09T12:31:54.997Z</time></trkpt><trkpt lat="49.166752829554866" lon="2.4750937782200726"><ele>70.6</ele><time>2026-04-09T12:31:56.997Z</time></trkpt><trkpt lat="49.16682224652662" lon="2.4749715430396493"><ele>70.4</ele><time>2026-04-09T12:31:58.997Z</time></trkpt><trkpt lat="49.16689486062915" lon="2.474844083371369"><ele>70.2</ele><time>2026-04-09T12:32:00.997Z</time></trkpt><trkpt lat="49.16697474015424" lon="2.4747045893570503"><ele>70.0</ele><time>2026-04-09T12:32:02.997Z</time></trkpt><trkpt lat="49.16704163200811" lon="2.474587775697801"><ele>70.0</ele><time>2026-04-09T12:32:04.997Z</time></trkpt><trkpt lat="49.167113846687094" lon="2.4744616668186654"><ele>70.0</ele><time>2026-04-09T12:32:06.997Z</time></trkpt><trkpt lat="49.167186376350685" lon="2.47433845828034"><ele>70.0</ele><time>2026-04-09T12:32:08.997Z</time></trkpt><trkpt lat="49.16726422626144" lon="2.4742223611321514"><ele>70.0</ele><time>2026-04-09T12:32:10.997Z</time></trkpt><trkpt lat="49.1673419383126" lon="2.474109603687749"><ele>70.0</ele><time>2026-04-09T12:32:12.996Z</time></trkpt><trkpt lat="49.167412689083704" lon="2.4739713249175317"><ele>70.6</ele><time>2026-04-09T12:32:14.996Z</time></trkpt><trkpt lat="49.16745137150904" lon="2.4738935570947516"><ele>71.2</ele><time>2026-04-09T12:32:15.996Z</time></trkpt><trkpt lat="49.16751982649372" lon="2.4737600129430883"><ele>71.8</ele><time>2026-04-09T12:32:17.996Z</time></trkpt><trkpt lat="49.1675854597584" lon="2.473635525912974"><ele>72.4</ele><time>2026-04-09T12:32:19.996Z</time></trkpt><trkpt lat="49.16764920882557" lon="2.473522081954852"><ele>73.0</ele><time>2026-04-09T12:32:21.996Z</time></trkpt><trkpt lat="49.167724139927685" lon="2.4733992584942057"><ele>73.4</ele><time>2026-04-09T12:32:23.996Z</time></trkpt><trkpt lat="49.16776883667134" lon="2.473330041806021"><ele>73.8</ele><time>2026-04-09T12:32:24.999Z</time></trkpt><trkpt lat="49.167846167831165" lon="2.4732099978335897"><ele>74.2</ele><time>2026-04-09T12:32:26.999Z</time></trkpt><trkpt lat="49.167924455304906" lon="2.473094834906592"><ele>74.6</ele><time>2026-04-09T12:32:28.999Z</time></trkpt><trkpt lat="49.16799611542624" lon="2.4729889214633025"><ele>75.0</ele><time>2026-04-09T12:32:30.999Z</time></trkpt><trkpt lat="49.168047037235326" lon="2.47291365941697"><ele>75.0</ele><time>2026-04-09T12:32:32.999Z</time></trkpt><trkpt lat="49.16810785622998" lon="2.4728237692375536"><ele>75.0</ele><time>2026-04-09T12:32:34.999Z</time></trkpt><trkpt lat="49.168156938598734" lon="2.4727507203989862"><ele>75.0</ele><time>2026-04-09T12:32:36.999Z</time></trkpt><trkpt lat="49.168203012169705" lon="2.4726792086605123"><ele>75.0</ele><time>2026-04-09T12:32:38.999Z</time></trkpt><trkpt lat="49.16826928424923" lon="2.472569735660202"><ele>75.0</ele><time>2026-04-09T12:32:41.999Z</time></trkpt><trkpt lat="49.16832311966911" lon="2.472473775317527"><ele>75.0</ele><time>2026-04-09T12:32:43.999Z</time></trkpt><trkpt lat="49.168371843665454" lon="2.472386925831613"><ele>74.99999999999999</ele><time>2026-04-09T12:32:45.999Z</time></trkpt><trkpt lat="49.168418406397265" lon="2.472308108616467"><ele>75.0</ele><time>2026-04-09T12:32:47.999Z</time></trkpt><trkpt lat="49.16846869783917" lon="2.4722364973750475"><ele>75.0</ele><time>2026-04-09T12:32:49.999Z</time></trkpt><trkpt lat="49.168523027682106" lon="2.472180959183077"><ele>75.0</ele><time>2026-04-09T12:32:51.999Z</time></trkpt><trkpt lat="49.168598080492956" lon="2.4721325550147"><ele>75.0</ele><time>2026-04-09T12:32:53.999Z</time></trkpt><trkpt lat="49.1686828595716" lon="2.4720804010597535"><ele>74.99999999999999</ele><time>2026-04-09T12:32:55.999Z</time></trkpt><trkpt lat="49.168743746678764" lon="2.472024338275393"><ele>75.0</ele><time>2026-04-09T12:32:57.999Z</time></trkpt><trkpt lat="49.16880131875247" lon="2.4719678391275757"><ele>74.99999999999999</ele><time>2026-04-09T12:33:00.999Z</time></trkpt><trkpt lat="49.16885931068602" lon="2.4719216649594786"><ele>75.0</ele><time>2026-04-09T12:33:07.999Z</time></trkpt><trkpt lat="49.16892355564721" lon="2.471892741602116"><ele>75.0</ele><time>2026-04-09T12:33:11.999Z</time></trkpt><trkpt lat="49.16899486445934" lon="2.4718725112838844"><ele>75.0</ele><time>2026-04-09T12:33:15.998Z</time></trkpt><trkpt lat="49.16906282262807" lon="2.4718585018796055"><ele>75.0</ele><time>2026-04-09T12:33:17.998Z</time></trkpt><trkpt lat="49.16914723889645" lon="2.4718409018369587"><ele>74.99999999999999</ele><time>2026-04-09T12:33:20.998Z</time></trkpt><trkpt lat="49.16922354745163" lon="2.4718363047957803"><ele>75.0</ele><time>2026-04-09T12:33:22.998Z</time></trkpt><trkpt lat="49.169291587462375" lon="2.471834976286772"><ele>74.6</ele><time>2026-04-09T12:33:24.998Z</time></trkpt><trkpt lat="49.169384001668" lon="2.4718299249726736"><ele>74.2</ele><time>2026-04-09T12:33:27.998Z</time></trkpt><trkpt lat="49.16946871886226" lon="2.471823419457893"><ele>73.8</ele><time>2026-04-09T12:33:29.998Z</time></trkpt><trkpt lat="49.16955980913787" lon="2.4718133374689213"><ele>73.4</ele><time>2026-04-09T12:33:31.998Z</time></trkpt><trkpt lat="49.16965634324843" lon="2.471797043607377"><ele>73.0</ele><time>2026-04-09T12:33:33.998Z</time></trkpt><trkpt lat="49.169747528979926" lon="2.471778433779213"><ele>73.0</ele><time>2026-04-09T12:33:35.998Z</time></trkpt><trkpt lat="49.169833910289995" lon="2.471765020088084"><ele>73.0</ele><time>2026-04-09T12:33:37.998Z</time></trkpt><trkpt lat="49.16992651735833" lon="2.4717506395513134"><ele>73.0</ele><time>2026-04-09T12:33:39.998Z</time></trkpt><trkpt lat="49.17002752948115" lon="2.471737346069013"><ele>73.0</ele><time>2026-04-09T12:33:41.998Z</time></trkpt><trkpt lat="49.17013843030311" lon="2.4717249545687547"><ele>73.0</ele><time>2026-04-09T12:33:43.998Z</time></trkpt><trkpt lat="49.17023872315193" lon="2.471712573040322"><ele>72.8</ele><time>2026-04-09T12:33:45.998Z</time></trkpt><trkpt lat="49.17034468324647" lon="2.4716982826319525"><ele>72.6</ele><time>2026-04-09T12:33:47.998Z</time></trkpt><trkpt lat="49.170449000456856" lon="2.4716843635381394"><ele>72.4</ele><time>2026-04-09T12:33:49.997Z</time></trkpt><trkpt lat="49.170552995039166" lon="2.471670487504122"><ele>72.2</ele><time>2026-04-09T12:33:51.997Z</time></trkpt><trkpt lat="49.17065515152049" lon="2.471656856720442"><ele>72.0</ele><time>2026-04-09T12:33:53.997Z</time></trkpt><trkpt lat="49.17076707161028" lon="2.471641333833947"><ele>71.6</ele><time>2026-04-09T12:33:55.997Z</time></trkpt><trkpt lat="49.17086928313895" lon="2.471626696185489"><ele>71.2</ele><time>2026-04-09T12:33:57.997Z</time></trkpt><trkpt lat="49.17096219311942" lon="2.4716133906302002"><ele>70.8</ele><time>2026-04-09T12:33:59.997Z</time></trkpt><trkpt lat="49.171066770046146" lon="2.471598414247824"><ele>70.4</ele><time>2026-04-09T12:34:01.997Z</time></trkpt><trkpt lat="49.17117092192786" lon="2.471583498742194"><ele>70.0</ele><time>2026-04-09T12:34:03.997Z</time></trkpt><trkpt lat="49.171274237206866" lon="2.471568703055625"><ele>70.0</ele><time>2026-04-09T12:34:05.997Z</time></trkpt><trkpt lat="49.17137458500128" lon="2.471554332321073"><ele>70.0</ele><time>2026-04-09T12:34:07.997Z</time></trkpt><trkpt lat="49.17148087623434" lon="2.471539301602427"><ele>70.0</ele><time>2026-04-09T12:34:09.997Z</time></trkpt><trkpt lat="49.171585912604094" lon="2.471524719464606"><ele>70.0</ele><time>2026-04-09T12:34:11.997Z</time></trkpt><trkpt lat="49.17169020204774" lon="2.471510241011996"><ele>70.0</ele><time>2026-04-09T12:34:13.997Z</time></trkpt><trkpt lat="49.171798173801164" lon="2.4714952513637214"><ele>70.0</ele><time>2026-04-09T12:34:15.997Z</time></trkpt><trkpt lat="49.17190273426316" lon="2.47148073530045"><ele>70.0</ele><time>2026-04-09T12:34:17.997Z</time></trkpt><trkpt lat="49.17200809084404" lon="2.4714660785515297"><ele>70.0</ele><time>2026-04-09T12:34:19.997Z</time></trkpt><trkpt lat="49.17211511411711" lon="2.4714509120385877"><ele>70.0</ele><time>2026-04-09T12:34:21.997Z</time></trkpt><trkpt lat="49.1722305364673" lon="2.471434555291667"><ele>70.0</ele><time>2026-04-09T12:34:23.996Z</time></trkpt><trkpt lat="49.17233337573352" lon="2.4714205932574083"><ele>70.4</ele><time>2026-04-09T12:34:25.996Z</time></trkpt><trkpt lat="49.17243692664893" lon="2.471406952062057"><ele>70.8</ele><time>2026-04-09T12:34:27.996Z</time></trkpt><trkpt lat="49.172553819571654" lon="2.4713917860817416"><ele>71.2</ele><time>2026-04-09T12:34:29.996Z</time></trkpt><trkpt lat="49.17266010407951" lon="2.4713555081711713"><ele>71.6</ele><time>2026-04-09T12:34:32Z</time></trkpt><trkpt lat="49.17276982739126" lon="2.4713440010602294"><ele>72.0</ele><time>2026-04-09T12:34:34Z</time></trkpt><trkpt lat="49.17288344906036" lon="2.471332070749483"><ele>72.0</ele><time>2026-04-09T12:34:36Z</time></trkpt><trkpt lat="49.17299482779852" lon="2.471318093075363"><ele>72.0</ele><time>2026-04-09T12:34:38Z</time></trkpt><trkpt lat="49.173102013952544" lon="2.4712964130189308"><ele>72.0</ele><time>2026-04-09T12:34:40Z</time></trkpt><trkpt lat="49.173165123826394" lon="2.4712904473569046"><ele>72.0</ele><time>2026-04-09T12:34:41Z</time></trkpt><trkpt lat="49.173280106674326" lon="2.4712687016976522"><ele>72.0</ele><time>2026-04-09T12:34:43Z</time></trkpt><trkpt lat="49.1733947483411" lon="2.4712610140812235"><ele>71.75</ele><time>2026-04-09T12:34:45Z</time></trkpt><trkpt lat="49.17351560825374" lon="2.471243508387893"><ele>71.5</ele><time>2026-04-09T12:34:46.999Z</time></trkpt><trkpt lat="49.17363565695813" lon="2.47122812287961"><ele>71.25</ele><time>2026-04-09T12:34:48.999Z</time></trkpt><trkpt lat="49.17375559716026" lon="2.4712085446789844"><ele>71.0</ele><time>2026-04-09T12:34:50.999Z</time></trkpt><trkpt lat="49.17387703624875" lon="2.4711951308171423"><ele>71.0</ele><time>2026-04-09T12:34:52.999Z</time></trkpt><trkpt lat="49.173997985288075" lon="2.47117457882529"><ele>71.0</ele><time>2026-04-09T12:34:54.999Z</time></trkpt><trkpt lat="49.17412196535775" lon="2.4711649602217793"><ele>71.0</ele><time>2026-04-09T12:34:56.999Z</time></trkpt><trkpt lat="49.17424741479669" lon="2.4711454715670382"><ele>71.0</ele><time>2026-04-09T12:34:58.999Z</time></trkpt><trkpt lat="49.17431651615209" lon="2.4711414291177904"><ele>71.0</ele><time>2026-04-09T12:34:59.999Z</time></trkpt><trkpt lat="49.1743807011768" lon="2.471123828646572"><ele>70.8</ele><time>2026-04-09T12:35:00.999Z</time></trkpt><trkpt lat="49.17444425746135" lon="2.471119169387935"><ele>70.6</ele><time>2026-04-09T12:35:01.999Z</time></trkpt><trkpt lat="49.174511016631335" lon="2.4711087420469804"><ele>70.4</ele><time>2026-04-09T12:35:02.999Z</time></trkpt><trkpt lat="49.17464208395258" lon="2.471083117550983"><ele>70.2</ele><time>2026-04-09T12:35:04.999Z</time></trkpt><trkpt lat="49.17470695220061" lon="2.4710971718350323"><ele>70.0</ele><time>2026-04-09T12:35:05.999Z</time></trkpt><trkpt lat="49.17482972588037" lon="2.4710820010309003"><ele>69.66666666666666</ele><time>2026-04-09T12:35:07.999Z</time></trkpt><trkpt lat="49.17488963724715" lon="2.471049680477739"><ele>69.33333333333333</ele><time>2026-04-09T12:35:08.999Z</time></trkpt><trkpt lat="49.174952985484154" lon="2.4710425248636843"><ele>69.0</ele><time>2026-04-09T12:35:09.999Z</time></trkpt><trkpt lat="49.175075719757416" lon="2.4710264102953583"><ele>68.66666666666667</ele><time>2026-04-09T12:35:11.999Z</time></trkpt><trkpt lat="49.17514054197421" lon="2.471022082577636"><ele>68.33333333333334</ele><time>2026-04-09T12:35:12.999Z</time></trkpt><trkpt lat="49.17521097400509" lon="2.4710141906380056"><ele>68.0</ele><time>2026-04-09T12:35:13.999Z</time></trkpt><trkpt lat="49.175277498524885" lon="2.4710056807394385"><ele>68.0</ele><time>2026-04-09T12:35:14.999Z</time></trkpt><trkpt lat="49.1753925834265" lon="2.4709881402268423"><ele>68.0</ele><time>2026-04-09T12:35:16.999Z</time></trkpt><trkpt lat="49.17551153447461" lon="2.4709821388338766"><ele>68.0</ele><time>2026-04-09T12:35:18.999Z</time></trkpt><trkpt lat="49.17558047221356" lon="2.470978738418329"><ele>68.0</ele><time>2026-04-09T12:35:19.999Z</time></trkpt><trkpt lat="49.17564389222348" lon="2.4709532042899323"><ele>68.0</ele><time>2026-04-09T12:35:20.999Z</time></trkpt><trkpt lat="49.175706614683484" lon="2.470944893632261"><ele>68.0</ele><time>2026-04-09T12:35:21.998Z</time></trkpt><trkpt lat="49.1758370732228" lon="2.4709309650334412"><ele>68.0</ele><time>2026-04-09T12:35:23.998Z</time></trkpt><trkpt lat="49.1759591079357" lon="2.4709061931435072"><ele>68.0</ele><time>2026-04-09T12:35:25.998Z</time></trkpt><trkpt lat="49.176036202071494" lon="2.4709044500219006"><ele>68.0</ele><time>2026-04-09T12:35:26.998Z</time></trkpt><trkpt lat="49.17610115654515" lon="2.470889297733049"><ele>68.0</ele><time>2026-04-09T12:35:27.998Z</time></trkpt><trkpt lat="49.17616737358371" lon="2.4708905525473726"><ele>68.0</ele><time>2026-04-09T12:35:28.998Z</time></trkpt><trkpt lat="49.1762839704423" lon="2.4708666493833933"><ele>68.0</ele><time>2026-04-09T12:35:30.998Z</time></trkpt><trkpt lat="49.176406964607736" lon="2.4708405891986183"><ele>68.0</ele><time>2026-04-09T12:35:32.998Z</time></trkpt><trkpt lat="49.176470616131915" lon="2.4708222794960797"><ele>68.0</ele><time>2026-04-09T12:35:33.998Z</time></trkpt><trkpt lat="49.176594388710676" lon="2.4708027667486454"><ele>68.0</ele><time>2026-04-09T12:35:35.998Z</time></trkpt><trkpt lat="49.17666327263614" lon="2.4707896206573468"><ele>68.0</ele><time>2026-04-09T12:35:36.998Z</time></trkpt><trkpt lat="49.17678806283832" lon="2.470776761251777"><ele>67.99999999999999</ele><time>2026-04-09T12:35:38.998Z</time></trkpt><trkpt lat="49.17685794369847" lon="2.47076835611835"><ele>68.0</ele><time>2026-04-09T12:35:39.998Z</time></trkpt><trkpt lat="49.17692407749681" lon="2.4707577195075667"><ele>68.0</ele><time>2026-04-09T12:35:40.998Z</time></trkpt><trkpt lat="49.176994348949954" lon="2.4707457803995427"><ele>68.0</ele><time>2026-04-09T12:35:41.998Z</time></trkpt><trkpt lat="49.177059567077265" lon="2.4707274605737513"><ele>68.0</ele><time>2026-04-09T12:35:42.998Z</time></trkpt><trkpt lat="49.17712397598793" lon="2.4707247504849312"><ele>67.99999999999999</ele><time>2026-04-09T12:35:43.998Z</time></trkpt><trkpt lat="49.17719602970384" lon="2.4707127251001273"><ele>68.0</ele><time>2026-04-09T12:35:44.998Z</time></trkpt><trkpt lat="49.17725895392251" lon="2.4707189805100733"><ele>68.4</ele><time>2026-04-09T12:35:45.998Z</time></trkpt><trkpt lat="49.17736940364878" lon="2.4706826162655475"><ele>68.8</ele><time>2026-04-09T12:35:47.998Z</time></trkpt><trkpt lat="49.1774373924535" lon="2.4706771016883633"><ele>69.2</ele><time>2026-04-09T12:35:48.998Z</time></trkpt><trkpt lat="49.177501114756964" lon="2.4706698142262873"><ele>69.6</ele><time>2026-04-09T12:35:49.998Z</time></trkpt><trkpt lat="49.17762277859866" lon="2.4706500531002478"><ele>70.0</ele><time>2026-04-09T12:35:51.998Z</time></trkpt><trkpt lat="49.17774128301071" lon="2.4706618394056212"><ele>70.0</ele><time>2026-04-09T12:35:53.998Z</time></trkpt><trkpt lat="49.17786894265727" lon="2.470647661032225"><ele>70.0</ele><time>2026-04-09T12:35:55.998Z</time></trkpt><trkpt lat="49.177939502607046" lon="2.4706398243576104"><ele>70.0</ele><time>2026-04-09T12:35:56.997Z</time></trkpt><trkpt lat="49.17800633526025" lon="2.4706324262242747"><ele>70.0</ele><time>2026-04-09T12:35:57.997Z</time></trkpt><trkpt lat="49.178129854188235" lon="2.4706178667159353"><ele>70.0</ele><time>2026-04-09T12:35:59.997Z</time></trkpt><trkpt lat="49.17825196535908" lon="2.4706018770630296"><ele>70.0</ele><time>2026-04-09T12:36:01.997Z</time></trkpt><trkpt lat="49.178377815366325" lon="2.4705836634154226"><ele>70.0</ele><time>2026-04-09T12:36:03.997Z</time></trkpt><trkpt lat="49.178499228343085" lon="2.4705650300993236"><ele>70.0</ele><time>2026-04-09T12:36:05.997Z</time></trkpt><trkpt lat="49.17861742460933" lon="2.470546442210693"><ele>70.0</ele><time>2026-04-09T12:36:07.997Z</time></trkpt><trkpt lat="49.17868403566165" lon="2.4705359667730855"><ele>70.0</ele><time>2026-04-09T12:36:08.997Z</time></trkpt><trkpt lat="49.178748732445925" lon="2.4705258002058006"><ele>70.0</ele><time>2026-04-09T12:36:09.997Z</time></trkpt><trkpt lat="49.17887077164202" lon="2.4705075961969114"><ele>70.0</ele><time>2026-04-09T12:36:11.997Z</time></trkpt><trkpt lat="49.178987817036386" lon="2.4704901370664296"><ele>70.0</ele><time>2026-04-09T12:36:13.997Z</time></trkpt><trkpt lat="49.179051754604" lon="2.470480832394801"><ele>70.0</ele><time>2026-04-09T12:36:14.997Z</time></trkpt><trkpt lat="49.17911144809982" lon="2.470448728168088"><ele>70.0</ele><time>2026-04-09T12:36:15.997Z</time></trkpt><trkpt lat="49.17923775672251" lon="2.4704390886189684"><ele>69.66666666666666</ele><time>2026-04-09T12:36:17.997Z</time></trkpt><trkpt lat="49.17930959285293" lon="2.470430548584652"><ele>69.33333333333333</ele><time>2026-04-09T12:36:18.997Z</time></trkpt><trkpt lat="49.17937296392961" lon="2.4704131010229147"><ele>69.0</ele><time>2026-04-09T12:36:19.997Z</time></trkpt><trkpt lat="49.17951144265053" lon="2.4704186043719925"><ele>68.66666666666667</ele><time>2026-04-09T12:36:21.997Z</time></trkpt><trkpt lat="49.179578090687265" lon="2.470408686024625"><ele>68.33333333333334</ele><time>2026-04-09T12:36:22.997Z</time></trkpt><trkpt lat="49.17964922484966" lon="2.470388519490225"><ele>68.0</ele><time>2026-04-09T12:36:23.997Z</time></trkpt><trkpt lat="49.17971833791817" lon="2.4703839860604426"><ele>68.0</ele><time>2026-04-09T12:36:24.997Z</time></trkpt><trkpt lat="49.17983638360556" lon="2.4703572912050147"><ele>68.0</ele><time>2026-04-09T12:36:26.997Z</time></trkpt><trkpt lat="49.17990773515144" lon="2.4703449789939587"><ele>68.0</ele><time>2026-04-09T12:36:27.997Z</time></trkpt><trkpt lat="49.17997965647223" lon="2.4703321607635673"><ele>68.0</ele><time>2026-04-09T12:36:28.997Z</time></trkpt><trkpt lat="49.18011910359515" lon="2.4703163665027033"><ele>68.0</ele><time>2026-04-09T12:36:30.996Z</time></trkpt><trkpt lat="49.18019082942362" lon="2.4702999034286752"><ele>67.66666666666667</ele><time>2026-04-09T12:36:31.996Z</time></trkpt><trkpt lat="49.18026758563249" lon="2.470288395396724"><ele>67.33333333333334</ele><time>2026-04-09T12:36:32.996Z</time></trkpt><trkpt lat="49.18034246521805" lon="2.4702836260982193"><ele>67.0</ele><time>2026-04-09T12:36:33.996Z</time></trkpt><trkpt lat="49.180414833141356" lon="2.4702649245023447"><ele>66.66666666666667</ele><time>2026-04-09T12:36:34.996Z</time></trkpt><trkpt lat="49.180496998402546" lon="2.4702788983327526"><ele>66.33333333333333</ele><time>2026-04-09T12:36:35.996Z</time></trkpt><trkpt lat="49.18056832108881" lon="2.470270583381597"><ele>66.0</ele><time>2026-04-09T12:36:37Z</time></trkpt><trkpt lat="49.18064356023478" lon="2.4702459664989544"><ele>65.83333333333333</ele><time>2026-04-09T12:36:38Z</time></trkpt><trkpt lat="49.1807216192256" lon="2.4702294574064267"><ele>65.66666666666667</ele><time>2026-04-09T12:36:39Z</time></trkpt><trkpt lat="49.180796894325944" lon="2.470239660748561"><ele>65.5</ele><time>2026-04-09T12:36:40Z</time></trkpt><trkpt lat="49.18086664083765" lon="2.470226711040837"><ele>65.33333333333334</ele><time>2026-04-09T12:36:41Z</time></trkpt><trkpt lat="49.18094697931959" lon="2.470210331196094"><ele>65.16666666666667</ele><time>2026-04-09T12:36:42Z</time></trkpt><trkpt lat="49.18102134577098" lon="2.470169212510874"><ele>65.0</ele><time>2026-04-09T12:36:43Z</time></trkpt><trkpt lat="49.18110870104535" lon="2.4701498995544124"><ele>65.0</ele><time>2026-04-09T12:36:44Z</time></trkpt><trkpt lat="49.18119411901545" lon="2.47013805431848"><ele>65.0</ele><time>2026-04-09T12:36:45Z</time></trkpt><trkpt lat="49.181269191413904" lon="2.4701216759876363"><ele>65.0</ele><time>2026-04-09T12:36:46Z</time></trkpt><trkpt lat="49.18135426899999" lon="2.470133224708707"><ele>65.0</ele><time>2026-04-09T12:36:47Z</time></trkpt><trkpt lat="49.18142930094452" lon="2.4701216030330544"><ele>65.0</ele><time>2026-04-09T12:36:48Z</time></trkpt><trkpt lat="49.18150189707379" lon="2.4701106318886357"><ele>65.0</ele><time>2026-04-09T12:36:49Z</time></trkpt><trkpt lat="49.18157986600949" lon="2.470094525321006"><ele>65.16666666666667</ele><time>2026-04-09T12:36:50Z</time></trkpt><trkpt lat="49.181659948291426" lon="2.4700779821220884"><ele>65.33333333333334</ele><time>2026-04-09T12:36:51Z</time></trkpt><trkpt lat="49.181736775516505" lon="2.4700602791953505"><ele>65.5</ele><time>2026-04-09T12:36:52Z</time></trkpt><trkpt lat="49.18180964738603" lon="2.470040894873641"><ele>65.66666666666667</ele><time>2026-04-09T12:36:53Z</time></trkpt><trkpt lat="49.181884431355954" lon="2.4700210019487816"><ele>65.83333333333333</ele><time>2026-04-09T12:36:54Z</time></trkpt><trkpt lat="49.18195162494965" lon="2.4700038175064716"><ele>66.0</ele><time>2026-04-09T12:36:55Z</time></trkpt><trkpt lat="49.18202620146094" lon="2.4699861474595006"><ele>66.0</ele><time>2026-04-09T12:36:56Z</time></trkpt><trkpt lat="49.182095198198816" lon="2.4699699381980933"><ele>66.0</ele><time>2026-04-09T12:36:56.999Z</time></trkpt><trkpt lat="49.18217253824241" lon="2.4699519532925693"><ele>66.0</ele><time>2026-04-09T12:36:57.999Z</time></trkpt><trkpt lat="49.1822480755099" lon="2.469935058376379"><ele>66.0</ele><time>2026-04-09T12:36:58.999Z</time></trkpt><trkpt lat="49.182315704599965" lon="2.4699209237773574"><ele>66.0</ele><time>2026-04-09T12:36:59.999Z</time></trkpt><trkpt lat="49.18239327187586" lon="2.4699047120898383"><ele>66.0</ele><time>2026-04-09T12:37:00.999Z</time></trkpt><trkpt lat="49.18245826056881" lon="2.469891219757412"><ele>66.0</ele><time>2026-04-09T12:37:01.999Z</time></trkpt><trkpt lat="49.1825265091947" lon="2.469877383217179"><ele>65.85714285714286</ele><time>2026-04-09T12:37:02.999Z</time></trkpt><trkpt lat="49.182601202900685" lon="2.4698622400058867"><ele>65.71428571428572</ele><time>2026-04-09T12:37:03.999Z</time></trkpt><trkpt lat="49.18267362388875" lon="2.4698475575815713"><ele>65.57142857142858</ele><time>2026-04-09T12:37:04.999Z</time></trkpt><trkpt lat="49.18274306469839" lon="2.469833479325755"><ele>65.42857142857143</ele><time>2026-04-09T12:37:05.999Z</time></trkpt><trkpt lat="49.18281259780576" lon="2.46981915056647"><ele>65.28571428571429</ele><time>2026-04-09T12:37:06.999Z</time></trkpt><trkpt lat="49.18288035645995" lon="2.4698045426031885"><ele>65.14285714285715</ele><time>2026-04-09T12:37:07.999Z</time></trkpt><trkpt lat="49.182957061669356" lon="2.4697880058837915"><ele>65.0</ele><time>2026-04-09T12:37:08.999Z</time></trkpt><trkpt lat="49.183024684683005" lon="2.4697734271459484"><ele>65.00000000000001</ele><time>2026-04-09T12:37:09.999Z</time></trkpt><trkpt lat="49.1831034562935" lon="2.4697558259942487"><ele>65.0</ele><time>2026-04-09T12:37:10.999Z</time></trkpt><trkpt lat="49.183175391227294" lon="2.469738783242627"><ele>65.0</ele><time>2026-04-09T12:37:11.999Z</time></trkpt><trkpt lat="49.183247204755695" lon="2.469721769255627"><ele>65.0</ele><time>2026-04-09T12:37:12.999Z</time></trkpt><trkpt lat="49.18331525628092" lon="2.4697056465460863"><ele>65.0</ele><time>2026-04-09T12:37:13.999Z</time></trkpt><trkpt lat="49.18338378520874" lon="2.4696894107509886"><ele>65.00000000000001</ele><time>2026-04-09T12:37:14.999Z</time></trkpt><trkpt lat="49.1834517280985" lon="2.4696733137864646"><ele>65.0</ele><time>2026-04-09T12:37:15.999Z</time></trkpt><trkpt lat="49.18352244786521" lon="2.4696565589349873"><ele>65.14285714285715</ele><time>2026-04-09T12:37:16.999Z</time></trkpt><trkpt lat="49.18358845907989" lon="2.469640919609846"><ele>65.28571428571429</ele><time>2026-04-09T12:37:17.999Z</time></trkpt><trkpt lat="49.18365765655679" lon="2.4696245254088613"><ele>65.42857142857143</ele><time>2026-04-09T12:37:18.999Z</time></trkpt><trkpt lat="49.183718989069085" lon="2.4695885896656726"><ele>65.57142857142858</ele><time>2026-04-09T12:37:19.999Z</time></trkpt><trkpt lat="49.18378694984608" lon="2.46957182702849"><ele>65.71428571428572</ele><time>2026-04-09T12:37:20.999Z</time></trkpt><trkpt lat="49.18386509854906" lon="2.469575228677197"><ele>65.85714285714286</ele><time>2026-04-09T12:37:21.999Z</time></trkpt><trkpt lat="49.18393356329446" lon="2.4695335703135797"><ele>66.0</ele><time>2026-04-09T12:37:22.999Z</time></trkpt><trkpt lat="49.18400117397528" lon="2.4695195446272877"><ele>66.14285714285714</ele><time>2026-04-09T12:37:23.999Z</time></trkpt><trkpt lat="49.184071400673034" lon="2.469513895496692"><ele>66.28571428571429</ele><time>2026-04-09T12:37:24.999Z</time></trkpt><trkpt lat="49.1841378004629" lon="2.4694942683925385"><ele>66.42857142857143</ele><time>2026-04-09T12:37:25.999Z</time></trkpt><trkpt lat="49.1842052198641" lon="2.4694723920399615"><ele>66.57142857142857</ele><time>2026-04-09T12:37:26.999Z</time></trkpt><trkpt lat="49.18427206162493" lon="2.469465379929766"><ele>66.71428571428571</ele><time>2026-04-09T12:37:27.999Z</time></trkpt><trkpt lat="49.184340983786086" lon="2.46944711011967"><ele>66.85714285714286</ele><time>2026-04-09T12:37:28.999Z</time></trkpt><trkpt lat="49.18441166008664" lon="2.4694204856200623"><ele>67.0</ele><time>2026-04-09T12:37:29.999Z</time></trkpt><trkpt lat="49.18447883602088" lon="2.469403583669227"><ele>67.0</ele><time>2026-04-09T12:37:30.998Z</time></trkpt><trkpt lat="49.18454780183153" lon="2.4694107578851616"><ele>67.0</ele><time>2026-04-09T12:37:31.998Z</time></trkpt><trkpt lat="49.18461843335439" lon="2.4693699419309767"><ele>67.0</ele><time>2026-04-09T12:37:32.998Z</time></trkpt><trkpt lat="49.18468878878025" lon="2.469362927837682"><ele>67.0</ele><time>2026-04-09T12:37:33.998Z</time></trkpt><trkpt lat="49.184755670406815" lon="2.4693395632516424"><ele>67.0</ele><time>2026-04-09T12:37:34.998Z</time></trkpt><trkpt lat="49.184825296463536" lon="2.469325661557922"><ele>67.0</ele><time>2026-04-09T12:37:35.998Z</time></trkpt><trkpt lat="49.18489478454272" lon="2.4693060006651186"><ele>67.0</ele><time>2026-04-09T12:37:36.998Z</time></trkpt><trkpt lat="49.18496141680288" lon="2.4692976416724592"><ele>66.6</ele><time>2026-04-09T12:37:37.998Z</time></trkpt><trkpt lat="49.185025273018816" lon="2.469270635524859"><ele>66.2</ele><time>2026-04-09T12:37:38.998Z</time></trkpt><trkpt lat="49.185091371100036" lon="2.4692579375197847"><ele>65.8</ele><time>2026-04-09T12:37:39.998Z</time></trkpt><trkpt lat="49.18521416207849" lon="2.469229722152354"><ele>65.4</ele><time>2026-04-09T12:37:41.998Z</time></trkpt><trkpt lat="49.18532398105239" lon="2.469223141590531"><ele>65.0</ele><time>2026-04-09T12:37:43.998Z</time></trkpt><trkpt lat="49.18544183265189" lon="2.469194541097982"><ele>65.0</ele><time>2026-04-09T12:37:45.998Z</time></trkpt><trkpt lat="49.18554289525003" lon="2.469170185288835"><ele>65.0</ele><time>2026-04-09T12:37:47.998Z</time></trkpt><trkpt lat="49.1856666938402" lon="2.4691422139250734"><ele>65.0</ele><time>2026-04-09T12:37:49.998Z</time></trkpt><trkpt lat="49.18572941651123" lon="2.469116926373539"><ele>65.0</ele><time>2026-04-09T12:37:50.998Z</time></trkpt><trkpt lat="49.18579772297785" lon="2.4690923762039723"><ele>65.0</ele><time>2026-04-09T12:37:51.998Z</time></trkpt><trkpt lat="49.18592081234492" lon="2.46906288198344"><ele>65.0</ele><time>2026-04-09T12:37:53.998Z</time></trkpt><trkpt lat="49.185986735795694" lon="2.469049398005849"><ele>65.0</ele><time>2026-04-09T12:37:54.998Z</time></trkpt><trkpt lat="49.18605088358951" lon="2.469032529943231"><ele>65.0</ele><time>2026-04-09T12:37:55.998Z</time></trkpt><trkpt lat="49.18617034773333" lon="2.4690080594625794"><ele>65.0</ele><time>2026-04-09T12:37:57.998Z</time></trkpt><trkpt lat="49.186238173825494" lon="2.468986734164733"><ele>65.0</ele><time>2026-04-09T12:37:58.998Z</time></trkpt><trkpt lat="49.18630841163719" lon="2.46896851484998"><ele>65.0</ele><time>2026-04-09T12:37:59.998Z</time></trkpt><trkpt lat="49.186427128755845" lon="2.4689411431292827"><ele>65.0</ele><time>2026-04-09T12:38:01.998Z</time></trkpt><trkpt lat="49.18649528001022" lon="2.4689259330177067"><ele>65.0</ele><time>2026-04-09T12:38:02.998Z</time></trkpt><trkpt lat="49.18655815881156" lon="2.4689113739607462"><ele>65.0</ele><time>2026-04-09T12:38:03.998Z</time></trkpt><trkpt lat="49.18662241494238" lon="2.468893211672864"><ele>65.0</ele><time>2026-04-09T12:38:04.998Z</time></trkpt><trkpt lat="49.18669123981967" lon="2.468881745957335"><ele>65.0</ele><time>2026-04-09T12:38:05.997Z</time></trkpt><trkpt lat="49.186821522189845" lon="2.4688693028350825"><ele>65.0</ele><time>2026-04-09T12:38:07.997Z</time></trkpt><trkpt lat="49.18688798319311" lon="2.4688546197713577"><ele>65.0</ele><time>2026-04-09T12:38:08.997Z</time></trkpt><trkpt lat="49.1869475617192" lon="2.4688186621786583"><ele>65.0</ele><time>2026-04-09T12:38:09.997Z</time></trkpt><trkpt lat="49.18707477466764" lon="2.46881461521565"><ele>65.0</ele><time>2026-04-09T12:38:11.997Z</time></trkpt><trkpt lat="49.187143771483306" lon="2.4687998383700607"><ele>65.0</ele><time>2026-04-09T12:38:12.997Z</time></trkpt><trkpt lat="49.18720820698987" lon="2.4687864209906243"><ele>65.0</ele><time>2026-04-09T12:38:13.997Z</time></trkpt><trkpt lat="49.187273267345574" lon="2.4687636461328863"><ele>65.0</ele><time>2026-04-09T12:38:14.997Z</time></trkpt><trkpt lat="49.1873339047439" lon="2.4688480960772905"><ele>63.8</ele><time>2026-04-09T12:38:15.997Z</time></trkpt><trkpt lat="49.187445642510895" lon="2.4688462915474707"><ele>62.6</ele><time>2026-04-09T12:38:17.997Z</time></trkpt><trkpt lat="49.187487486029596" lon="2.468756570379826"><ele>61.400000000000006</ele><time>2026-04-09T12:38:18.997Z</time></trkpt><trkpt lat="49.18754424343471" lon="2.468637686100566"><ele>60.2</ele><time>2026-04-09T12:38:20.997Z</time></trkpt><trkpt lat="49.18746234149094" lon="2.4684891569490595"><ele>59.0</ele><time>2026-04-09T12:38:21.997Z</time></trkpt><trkpt lat="49.18752900023629" lon="2.4683696971551545"><ele>59.0</ele><time>2026-04-09T12:38:23.997Z</time></trkpt><trkpt lat="49.187552165669395" lon="2.468239835947139"><ele>59.0</ele><time>2026-04-09T12:38:26.997Z</time></trkpt><trkpt lat="49.18758442728382" lon="2.4681446776519085"><ele>59.0</ele><time>2026-04-09T12:38:28.997Z</time></trkpt><trkpt lat="49.187625771658496" lon="2.468048730770413"><ele>59.0</ele><time>2026-04-09T12:38:30.997Z</time></trkpt><trkpt lat="49.187673708355504" lon="2.467976059503495"><ele>59.0</ele><time>2026-04-09T12:38:32.997Z</time></trkpt><trkpt lat="49.18769690193236" lon="2.4678785039101134"><ele>59.0</ele><time>2026-04-09T12:38:34.997Z</time></trkpt><trkpt lat="49.187762680709746" lon="2.4678853841428374"><ele>59.0</ele><time>2026-04-09T12:38:36.997Z</time></trkpt><trkpt lat="49.18783378613865" lon="2.467847393470934"><ele>59.16666666666667</ele><time>2026-04-09T12:38:39.996Z</time></trkpt><trkpt lat="49.18780005866698" lon="2.467702584932052"><ele>59.333333333333336</ele><time>2026-04-09T12:38:41.996Z</time></trkpt><trkpt lat="49.18778110258751" lon="2.4675798352997966"><ele>59.5</ele><time>2026-04-09T12:38:45Z</time></trkpt><trkpt lat="49.187761397016786" lon="2.4674727223444934"><ele>59.66666666666667</ele><time>2026-04-09T12:38:47Z</time></trkpt><trkpt lat="49.187740756139824" lon="2.4673605252859145"><ele>59.833333333333336</ele><time>2026-04-09T12:38:49Z</time></trkpt><trkpt lat="49.18771175206884" lon="2.4672444374743545"><ele>60.0</ele><time>2026-04-09T12:38:51Z</time></trkpt><trkpt lat="49.187682257202994" lon="2.4671267749803887"><ele>60.333333333333336</ele><time>2026-04-09T12:38:53Z</time></trkpt><trkpt lat="49.187673057380174" lon="2.466992536948758"><ele>60.66666666666667</ele><time>2026-04-09T12:38:55Z</time></trkpt><trkpt lat="49.18765097962383" lon="2.4668725302100865"><ele>61.0</ele><time>2026-04-09T12:38:57Z</time></trkpt><trkpt lat="49.18761465542872" lon="2.466755239358098"><ele>61.333333333333336</ele><time>2026-04-09T12:38:59Z</time></trkpt><trkpt lat="49.18760825920932" lon="2.4666257367411846"><ele>61.66666666666667</ele><time>2026-04-09T12:39:01Z</time></trkpt><trkpt lat="49.18758738263953" lon="2.4665058087623994"><ele>62.0</ele><time>2026-04-09T12:39:03Z</time></trkpt><trkpt lat="49.18756654628611" lon="2.466386111768681"><ele>61.66666666666667</ele><time>2026-04-09T12:39:05Z</time></trkpt><trkpt lat="49.18752955870189" lon="2.466269969557758"><ele>61.333333333333336</ele><time>2026-04-09T12:39:06.999Z</time></trkpt><trkpt lat="49.187510169162536" lon="2.46615066196207"><ele>61.0</ele><time>2026-04-09T12:39:08.999Z</time></trkpt><trkpt lat="49.18748664018937" lon="2.466023320693097"><ele>60.66666666666667</ele><time>2026-04-09T12:39:10.999Z</time></trkpt><trkpt lat="49.187461918381835" lon="2.4658983042535114"><ele>60.333333333333336</ele><time>2026-04-09T12:39:12.999Z</time></trkpt><trkpt lat="49.18744217567" lon="2.4657722977967844"><ele>60.0</ele><time>2026-04-09T12:39:14.999Z</time></trkpt><trkpt lat="49.18741542415902" lon="2.4656432825042613"><ele>60.0</ele><time>2026-04-09T12:39:16.999Z</time></trkpt><trkpt lat="49.18738672760424" lon="2.4655186828215108"><ele>60.0</ele><time>2026-04-09T12:39:18.999Z</time></trkpt><trkpt lat="49.18735803147943" lon="2.4653958519485872"><ele>60.0</ele><time>2026-04-09T12:39:20.999Z</time></trkpt><trkpt lat="49.18732741817583" lon="2.465273059855197"><ele>60.0</ele><time>2026-04-09T12:39:22.999Z</time></trkpt><trkpt lat="49.18729395598374" lon="2.465149624682868"><ele>60.0</ele><time>2026-04-09T12:39:24.999Z</time></trkpt><trkpt lat="49.18726215718285" lon="2.46501983928997"><ele>60.0</ele><time>2026-04-09T12:39:26.999Z</time></trkpt><trkpt lat="49.18722597305951" lon="2.4648967359599627"><ele>60.2</ele><time>2026-04-09T12:39:28.999Z</time></trkpt><trkpt lat="49.187191308166184" lon="2.4647573531001505"><ele>60.4</ele><time>2026-04-09T12:39:30.999Z</time></trkpt><trkpt lat="49.187155336210886" lon="2.464618435190532"><ele>60.599999999999994</ele><time>2026-04-09T12:39:32.999Z</time></trkpt><trkpt lat="49.187122053533834" lon="2.46448160807443"><ele>60.8</ele><time>2026-04-09T12:39:34.999Z</time></trkpt><trkpt lat="49.18708830906809" lon="2.46434740004082"><ele>61.0</ele><time>2026-04-09T12:39:36.999Z</time></trkpt><trkpt lat="49.18705769920839" lon="2.4642143752207444"><ele>61.0</ele><time>2026-04-09T12:39:38.998Z</time></trkpt><trkpt lat="49.18702232426257" lon="2.464079938280392"><ele>60.99999999999999</ele><time>2026-04-09T12:39:40.998Z</time></trkpt><trkpt lat="49.18700098952769" lon="2.463942418276261"><ele>60.99999999999999</ele><time>2026-04-09T12:39:42.998Z</time></trkpt><trkpt lat="49.18697353777922" lon="2.463797741671351"><ele>61.0</ele><time>2026-04-09T12:39:44.998Z</time></trkpt><trkpt lat="49.186952878248945" lon="2.4636579491675987"><ele>61.0</ele><time>2026-04-09T12:39:46.998Z</time></trkpt><trkpt lat="49.18693805668882" lon="2.463525043298035"><ele>60.8</ele><time>2026-04-09T12:39:48.998Z</time></trkpt><trkpt lat="49.18692099346905" lon="2.4633800474039322"><ele>60.599999999999994</ele><time>2026-04-09T12:39:50.998Z</time></trkpt><trkpt lat="49.18690471110807" lon="2.463241686849156"><ele>60.4</ele><time>2026-04-09T12:39:52.998Z</time></trkpt><trkpt lat="49.18688503343479" lon="2.4630923380779706"><ele>60.2</ele><time>2026-04-09T12:39:54.998Z</time></trkpt><trkpt lat="49.18677170121531" lon="2.463057942473283"><ele>60.0</ele><time>2026-04-09T12:39:55.998Z</time></trkpt><trkpt lat="49.18673500448651" lon="2.462920940274305"><ele>59.8</ele><time>2026-04-09T12:39:57.998Z</time></trkpt><trkpt lat="49.18669701560085" lon="2.4627876902081325"><ele>59.6</ele><time>2026-04-09T12:39:59.998Z</time></trkpt><trkpt lat="49.18666243787823" lon="2.462649679494273"><ele>59.400000000000006</ele><time>2026-04-09T12:40:01.998Z</time></trkpt><trkpt lat="49.18663644176746" lon="2.4625105991640353"><ele>59.2</ele><time>2026-04-09T12:40:03.998Z</time></trkpt><trkpt lat="49.18660810869936" lon="2.462371159624682"><ele>59.0</ele><time>2026-04-09T12:40:05.998Z</time></trkpt><trkpt lat="49.18658174000307" lon="2.4622416580302944"><ele>58.800000000000004</ele><time>2026-04-09T12:40:07.998Z</time></trkpt><trkpt lat="49.18656164415915" lon="2.4621093602733195"><ele>58.60000000000001</ele><time>2026-04-09T12:40:09.998Z</time></trkpt><trkpt lat="49.186542838283714" lon="2.461999972133889"><ele>58.4</ele><time>2026-04-09T12:40:11.997Z</time></trkpt><trkpt lat="49.18657146426642" lon="2.4618990070434834"><ele>58.2</ele><time>2026-04-09T12:40:13.997Z</time></trkpt><trkpt lat="49.186639151493054" lon="2.461926612020632"><ele>58.0</ele><time>2026-04-09T12:40:15.997Z</time></trkpt><trkpt lat="49.18650868865971" lon="2.461793412595818"><ele>58.0</ele><time>2026-04-09T12:40:17.997Z</time></trkpt><trkpt lat="49.18648610380344" lon="2.461692233055052"><ele>58.0</ele><time>2026-04-09T12:40:19.997Z</time></trkpt><trkpt lat="49.186457196354745" lon="2.46156273246707"><ele>58.0</ele><time>2026-04-09T12:40:22.997Z</time></trkpt><trkpt lat="49.186791033915355" lon="2.461865664045523"><ele>58.0</ele><time>2026-04-09T12:40:24.997Z</time></trkpt><trkpt lat="49.18700958353788" lon="2.4614682715037217"><ele>58.0</ele><time>2026-04-09T12:40:33.997Z</time></trkpt><trkpt lat="49.1870799498115" lon="2.4615005571162745"><ele>58.0</ele><time>2026-04-09T12:40:35.997Z</time></trkpt><trkpt lat="49.18719028521796" lon="2.461422314018676"><ele>58.0</ele><time>2026-04-09T12:40:37.997Z</time></trkpt><trkpt lat="49.18728956672259" lon="2.4614854291438504"><ele>58.0</ele><time>2026-04-09T12:40:39.997Z</time></trkpt><trkpt lat="49.18738533793448" lon="2.461546587203286"><ele>58.0</ele><time>2026-04-09T12:40:41.997Z</time></trkpt><trkpt lat="49.187480738529125" lon="2.4616075102288875"><ele>58.0</ele><time>2026-04-09T12:40:43.997Z</time></trkpt><trkpt lat="49.18756882955895" lon="2.4616637942983597"><ele>58.0</ele><time>2026-04-09T12:40:45.996Z</time></trkpt><trkpt lat="49.187660715709086" lon="2.461722503203655"><ele>58.2</ele><time>2026-04-09T12:40:48Z</time></trkpt><trkpt lat="49.18774611743404" lon="2.4617770689612968"><ele>58.4</ele><time>2026-04-09T12:40:50Z</time></trkpt><trkpt lat="49.18783827113814" lon="2.461835948857129"><ele>58.60000000000001</ele><time>2026-04-09T12:40:52Z</time></trkpt><trkpt lat="49.187933177826636" lon="2.461896587617097"><ele>58.800000000000004</ele><time>2026-04-09T12:40:54Z</time></trkpt><trkpt lat="49.18802855009862" lon="2.4619585530077437"><ele>59.0</ele><time>2026-04-09T12:40:56Z</time></trkpt><trkpt lat="49.1881239341185" lon="2.4620209101923485"><ele>58.800000000000004</ele><time>2026-04-09T12:40:58Z</time></trkpt><trkpt lat="49.188213703889886" lon="2.462079597053418"><ele>58.60000000000001</ele><time>2026-04-09T12:41:00Z</time></trkpt><trkpt lat="49.18830144225793" lon="2.462136955901725"><ele>58.4</ele><time>2026-04-09T12:41:02Z</time></trkpt><trkpt lat="49.188405351231694" lon="2.4622048862010817"><ele>58.2</ele><time>2026-04-09T12:41:04Z</time></trkpt><trkpt lat="49.18849901903627" lon="2.462266121395356"><ele>58.0</ele><time>2026-04-09T12:41:06Z</time></trkpt><trkpt lat="49.18859050531108" lon="2.46232509697279"><ele>57.8</ele><time>2026-04-09T12:41:08Z</time></trkpt><trkpt lat="49.18869720692097" lon="2.4623926513362275"><ele>57.599999999999994</ele><time>2026-04-09T12:41:09.999Z</time></trkpt><trkpt lat="49.18878626835087" lon="2.462449037345695"><ele>57.400000000000006</ele><time>2026-04-09T12:41:11.999Z</time></trkpt><trkpt lat="49.18886728445857" lon="2.4625002892828465"><ele>57.2</ele><time>2026-04-09T12:41:13.999Z</time></trkpt><trkpt lat="49.188959624580534" lon="2.462558430712458"><ele>57.0</ele><time>2026-04-09T12:41:15.999Z</time></trkpt><trkpt lat="49.189031732178584" lon="2.4626038328339157"><ele>56.8</ele><time>2026-04-09T12:41:17.999Z</time></trkpt><trkpt lat="49.18912896366965" lon="2.4626650541254667"><ele>56.6</ele><time>2026-04-09T12:41:19.999Z</time></trkpt><trkpt lat="49.18921407985397" lon="2.462718646995924"><ele>56.39999999999999</ele><time>2026-04-09T12:41:21.999Z</time></trkpt><trkpt lat="49.1893068225141" lon="2.462777041925032"><ele>56.199999999999996</ele><time>2026-04-09T12:41:23.999Z</time></trkpt><trkpt lat="49.18938995220762" lon="2.4628293833700132"><ele>56.0</ele><time>2026-04-09T12:41:25.999Z</time></trkpt><trkpt lat="49.18947306130938" lon="2.4628840328297033"><ele>56.00000000000001</ele><time>2026-04-09T12:41:27.999Z</time></trkpt><trkpt lat="49.18955932663749" lon="2.4629396522473685"><ele>56.0</ele><time>2026-04-09T12:41:29.999Z</time></trkpt><trkpt lat="49.18964425585374" lon="2.462994410572244"><ele>56.0</ele><time>2026-04-09T12:41:31.999Z</time></trkpt><trkpt lat="49.189718677590136" lon="2.4630423941166373"><ele>56.0</ele><time>2026-04-09T12:41:33.999Z</time></trkpt><trkpt lat="49.18978564685651" lon="2.4630432601542656"><ele>56.00000000000001</ele><time>2026-04-09T12:41:36.999Z</time></trkpt><trkpt lat="49.18985669994473" lon="2.4630380782600043"><ele>56.0</ele><time>2026-04-09T12:41:38.999Z</time></trkpt><trkpt lat="49.18995049191704" lon="2.4631206729978894"><ele>56.0</ele><time>2026-04-09T12:41:40.998Z</time></trkpt><trkpt lat="49.19004514653103" lon="2.463164842491458"><ele>55.99999999999999</ele><time>2026-04-09T12:41:42.998Z</time></trkpt><trkpt lat="49.190136120480744" lon="2.463220803184978"><ele>55.99999999999999</ele><time>2026-04-09T12:41:44.998Z</time></trkpt><trkpt lat="49.19022891084086" lon="2.463277955684425"><ele>56.0</ele><time>2026-04-09T12:41:46.998Z</time></trkpt><trkpt lat="49.19032957575548" lon="2.463341330643112"><ele>56.0</ele><time>2026-04-09T12:41:48.998Z</time></trkpt><trkpt lat="49.19042367788621" lon="2.4634011425522404"><ele>56.0</ele><time>2026-04-09T12:41:50.998Z</time></trkpt><trkpt lat="49.190520346019376" lon="2.463464007644851"><ele>55.99999999999999</ele><time>2026-04-09T12:41:52.998Z</time></trkpt><trkpt lat="49.190617567913975" lon="2.46351915824582"><ele>55.99999999999999</ele><time>2026-04-09T12:41:54.998Z</time></trkpt><trkpt lat="49.19071302829142" lon="2.463578168033039"><ele>56.0</ele><time>2026-04-09T12:41:56.998Z</time></trkpt><trkpt lat="49.190809995184146" lon="2.4636399033846392"><ele>56.0</ele><time>2026-04-09T12:41:58.998Z</time></trkpt><trkpt lat="49.19090641113639" lon="2.463702487933994"><ele>55.8</ele><time>2026-04-09T12:42:00.998Z</time></trkpt><trkpt lat="49.191001604855146" lon="2.463764143115987"><ele>55.599999999999994</ele><time>2026-04-09T12:42:02.998Z</time></trkpt><trkpt lat="49.19109679358442" lon="2.463824838319351"><ele>55.4</ele><time>2026-04-09T12:42:04.998Z</time></trkpt><trkpt lat="49.191195337051646" lon="2.463888223826298"><ele>55.2</ele><time>2026-04-09T12:42:06.998Z</time></trkpt><trkpt lat="49.19129543502751" lon="2.463950356318315"><ele>55.0</ele><time>2026-04-09T12:42:08.998Z</time></trkpt><trkpt lat="49.19139637674864" lon="2.464016982690659"><ele>55.4</ele><time>2026-04-09T12:42:10.998Z</time></trkpt><trkpt lat="49.19149892378089" lon="2.464088848767735"><ele>55.8</ele><time>2026-04-09T12:42:12.998Z</time></trkpt><trkpt lat="49.19159658723911" lon="2.464145846345518"><ele>56.2</ele><time>2026-04-09T12:42:14.997Z</time></trkpt><trkpt lat="49.191695454587204" lon="2.464213537744716"><ele>56.6</ele><time>2026-04-09T12:42:16.997Z</time></trkpt><trkpt lat="49.19179961316046" lon="2.4642766286273106"><ele>57.0</ele><time>2026-04-09T12:42:18.997Z</time></trkpt><trkpt lat="49.191907883629426" lon="2.4643404412857555"><ele>57.0</ele><time>2026-04-09T12:42:20.997Z</time></trkpt><trkpt lat="49.1920145648132" lon="2.464400584076344"><ele>57.0</ele><time>2026-04-09T12:42:22.997Z</time></trkpt><trkpt lat="49.19211757859463" lon="2.4644652367982656"><ele>57.0</ele><time>2026-04-09T12:42:24.997Z</time></trkpt><trkpt lat="49.19221378694026" lon="2.4645338081398926"><ele>57.0</ele><time>2026-04-09T12:42:26.997Z</time></trkpt><trkpt lat="49.192309235941224" lon="2.4646041274514654"><ele>57.0</ele><time>2026-04-09T12:42:28.997Z</time></trkpt><trkpt lat="49.19241343304933" lon="2.4646648122230284"><ele>56.8</ele><time>2026-04-09T12:42:30.997Z</time></trkpt><trkpt lat="49.19251413023" lon="2.4647302437549583"><ele>56.6</ele><time>2026-04-09T12:42:32.997Z</time></trkpt><trkpt lat="49.19261734530722" lon="2.464797965334861"><ele>56.39999999999999</ele><time>2026-04-09T12:42:34.997Z</time></trkpt><trkpt lat="49.1927207640338" lon="2.464860348780532"><ele>56.199999999999996</ele><time>2026-04-09T12:42:36.997Z</time></trkpt><trkpt lat="49.19282738521698" lon="2.464910319787076"><ele>56.0</ele><time>2026-04-09T12:42:38.997Z</time></trkpt><trkpt lat="49.192928878593236" lon="2.46495191548545"><ele>56.00000000000001</ele><time>2026-04-09T12:42:40.997Z</time></trkpt><trkpt lat="49.19302137801084" lon="2.46500300208892"><ele>56.0</ele><time>2026-04-09T12:42:42.997Z</time></trkpt><trkpt lat="49.193073327815505" lon="2.4651355589810966"><ele>56.0</ele><time>2026-04-09T12:42:44.997Z</time></trkpt><trkpt lat="49.19312703701325" lon="2.4651918530844354"><ele>56.0</ele><time>2026-04-09T12:42:46.997Z</time></trkpt><trkpt lat="49.19322071525573" lon="2.465255315780605"><ele>56.00000000000001</ele><time>2026-04-09T12:42:49.996Z</time></trkpt><trkpt lat="49.19327737814188" lon="2.465305610177523"><ele>56.0</ele><time>2026-04-09T12:42:52.996Z</time></trkpt><trkpt lat="49.193329873108496" lon="2.4652421457077276"><ele>55.8</ele><time>2026-04-09T12:42:57Z</time></trkpt><trkpt lat="49.1934179976522" lon="2.4653098095133297"><ele>55.599999999999994</ele><time>2026-04-09T12:42:59Z</time></trkpt><trkpt lat="49.193495506061005" lon="2.4653633012546456"><ele>55.4</ele><time>2026-04-09T12:43:01Z</time></trkpt><trkpt lat="49.19358056281849" lon="2.4654115414220796"><ele>55.2</ele><time>2026-04-09T12:43:03Z</time></trkpt><trkpt lat="49.19366975236023" lon="2.4654608132689675"><ele>55.0</ele><time>2026-04-09T12:43:05Z</time></trkpt><trkpt lat="49.19375793827201" lon="2.4655128911671635"><ele>54.99999999999999</ele><time>2026-04-09T12:43:07Z</time></trkpt><trkpt lat="49.19383853030279" lon="2.4655651342241134"><ele>55.0</ele><time>2026-04-09T12:43:09Z</time></trkpt><trkpt lat="49.19390090696128" lon="2.465608036294553"><ele>55.0</ele><time>2026-04-09T12:43:11Z</time></trkpt><trkpt lat="49.19397826818757" lon="2.4656407977848764"><ele>55.0</ele><time>2026-04-09T12:43:13Z</time></trkpt><trkpt lat="49.19405453215856" lon="2.4656843823757364"><ele>54.99999999999999</ele><time>2026-04-09T12:43:14.999Z</time></trkpt><trkpt lat="49.19413017347836" lon="2.465746974291619"><ele>55.0</ele><time>2026-04-09T12:43:16.999Z</time></trkpt><trkpt lat="49.194188143013356" lon="2.4658108968107473"><ele>54.8</ele><time>2026-04-09T12:43:19.999Z</time></trkpt><trkpt lat="49.1941971166855" lon="2.4659662706983307"><ele>54.6</ele><time>2026-04-09T12:43:22.999Z</time></trkpt><trkpt lat="49.19419040275478" lon="2.466087348318717"><ele>54.400000000000006</ele><time>2026-04-09T12:43:24.999Z</time></trkpt><trkpt lat="49.19417902425842" lon="2.4662327174959744"><ele>54.2</ele><time>2026-04-09T12:43:26.999Z</time></trkpt><trkpt lat="49.19417944764479" lon="2.466388843259164"><ele>54.0</ele><time>2026-04-09T12:43:28.999Z</time></trkpt><trkpt lat="49.194182105331336" lon="2.4665370893919456"><ele>54.0</ele><time>2026-04-09T12:43:30.999Z</time></trkpt><trkpt lat="49.194184619295314" lon="2.466694306932941"><ele>54.00000000000001</ele><time>2026-04-09T12:43:32.999Z</time></trkpt><trkpt lat="49.194195862936255" lon="2.466846973141083"><ele>54.00000000000001</ele><time>2026-04-09T12:43:34.999Z</time></trkpt><trkpt lat="49.19419767430387" lon="2.467003380733631"><ele>54.0</ele><time>2026-04-09T12:43:36.999Z</time></trkpt><trkpt lat="49.19420713192499" lon="2.4671628389069586"><ele>54.0</ele><time>2026-04-09T12:43:38.999Z</time></trkpt><trkpt lat="49.19420700308233" lon="2.467315867876764"><ele>54.6</ele><time>2026-04-09T12:43:40.999Z</time></trkpt><trkpt lat="49.19421054486224" lon="2.4674629488260607"><ele>55.2</ele><time>2026-04-09T12:43:42.999Z</time></trkpt><trkpt lat="49.19422367321878" lon="2.4676301501629974"><ele>55.800000000000004</ele><time>2026-04-09T12:43:44.999Z</time></trkpt><trkpt lat="49.19422894567508" lon="2.4677867808441936"><ele>56.400000000000006</ele><time>2026-04-09T12:43:46.998Z</time></trkpt><trkpt lat="49.194233316496316" lon="2.46793924091263"><ele>57.0</ele><time>2026-04-09T12:43:48.998Z</time></trkpt><trkpt lat="49.194244332335224" lon="2.468093987736528"><ele>57.0</ele><time>2026-04-09T12:43:50.998Z</time></trkpt><trkpt lat="49.19425172766736" lon="2.468249453186079"><ele>57.0</ele><time>2026-04-09T12:43:52.998Z</time></trkpt><trkpt lat="49.194257863643486" lon="2.468402538403992"><ele>57.0</ele><time>2026-04-09T12:43:54.998Z</time></trkpt><trkpt lat="49.19426696624966" lon="2.4685601760447025"><ele>57.0</ele><time>2026-04-09T12:43:56.998Z</time></trkpt><trkpt lat="49.19427229910026" lon="2.4687143820209285"><ele>57.0</ele><time>2026-04-09T12:43:58.998Z</time></trkpt><trkpt lat="49.194278240522316" lon="2.468863950060133"><ele>56.8</ele><time>2026-04-09T12:44:00.998Z</time></trkpt><trkpt lat="49.194290999958696" lon="2.469027696721584"><ele>56.6</ele><time>2026-04-09T12:44:02.998Z</time></trkpt><trkpt lat="49.194296107943856" lon="2.469180063024401"><ele>56.39999999999999</ele><time>2026-04-09T12:44:04.998Z</time></trkpt><trkpt lat="49.1943017464439" lon="2.469339429838683"><ele>56.199999999999996</ele><time>2026-04-09T12:44:06.998Z</time></trkpt><trkpt lat="49.19430791305163" lon="2.469496871527028"><ele>56.0</ele><time>2026-04-09T12:44:08.998Z</time></trkpt><trkpt lat="49.19430919260261" lon="2.469662060833431"><ele>56.0</ele><time>2026-04-09T12:44:10.998Z</time></trkpt><trkpt lat="49.19431701604592" lon="2.4698269471992456"><ele>56.0</ele><time>2026-04-09T12:44:12.998Z</time></trkpt><trkpt lat="49.19432027794054" lon="2.469999900891017"><ele>56.0</ele><time>2026-04-09T12:44:14.998Z</time></trkpt><trkpt lat="49.19431258185967" lon="2.470182203444855"><ele>56.0</ele><time>2026-04-09T12:44:16.998Z</time></trkpt><trkpt lat="49.19433438299953" lon="2.470359822573433"><ele>56.0</ele><time>2026-04-09T12:44:18.997Z</time></trkpt><trkpt lat="49.19432310983822" lon="2.470543279351877"><ele>56.0</ele><time>2026-04-09T12:44:20.997Z</time></trkpt><trkpt lat="49.19433751356472" lon="2.4707302471458603"><ele>56.0</ele><time>2026-04-09T12:44:22.997Z</time></trkpt><trkpt lat="49.1943484781989" lon="2.4709100876473706"><ele>56.0</ele><time>2026-04-09T12:44:24.997Z</time></trkpt><trkpt lat="49.19435306591436" lon="2.471095593708789"><ele>56.0</ele><time>2026-04-09T12:44:26.997Z</time></trkpt><trkpt lat="49.19432422084359" lon="2.4712589754662155"><ele>56.0</ele><time>2026-04-09T12:44:28.997Z</time></trkpt><trkpt lat="49.19433049023495" lon="2.471439744711608"><ele>56.0</ele><time>2026-04-09T12:44:30.997Z</time></trkpt><trkpt lat="49.19433581005322" lon="2.4716255456403675"><ele>56.0</ele><time>2026-04-09T12:44:32.997Z</time></trkpt><trkpt lat="49.19434107858174" lon="2.4718095551787096"><ele>56.0</ele><time>2026-04-09T12:44:34.997Z</time></trkpt><trkpt lat="49.19434685945752" lon="2.471996157156889"><ele>56.0</ele><time>2026-04-09T12:44:36.997Z</time></trkpt><trkpt lat="49.194353322717234" lon="2.4721819296849263"><ele>56.0</ele><time>2026-04-09T12:44:38.997Z</time></trkpt><trkpt lat="49.19435947074614" lon="2.4723586415127614"><ele>56.0</ele><time>2026-04-09T12:44:40.997Z</time></trkpt><trkpt lat="49.19436559202546" lon="2.472536453346866"><ele>56.00000000000001</ele><time>2026-04-09T12:44:42.997Z</time></trkpt><trkpt lat="49.194368568218785" lon="2.4726486504991088"><ele>56.0</ele><time>2026-04-09T12:44:44.997Z</time></trkpt><trkpt lat="49.19437133954939" lon="2.4727531262162152"><ele>56.0</ele><time>2026-04-09T12:44:46.997Z</time></trkpt><trkpt lat="49.194374920223744" lon="2.4728881199258574"><ele>56.0</ele><time>2026-04-09T12:44:48.997Z</time></trkpt><trkpt lat="49.1943777345746" lon="2.47300785184477"><ele>56.00000000000001</ele><time>2026-04-09T12:44:50.997Z</time></trkpt><trkpt lat="49.1943829073595" lon="2.4731580350378692"><ele>56.0</ele><time>2026-04-09T12:44:52.996Z</time></trkpt><trkpt lat="49.19438946493986" lon="2.4733158355442826"><ele>56.0</ele><time>2026-04-09T12:44:54.996Z</time></trkpt><trkpt lat="49.19439560079953" lon="2.473479025753837"><ele>55.99999999999999</ele><time>2026-04-09T12:44:56.996Z</time></trkpt><trkpt lat="49.19440079234218" lon="2.473642346817376"><ele>55.99999999999999</ele><time>2026-04-09T12:44:58.996Z</time></trkpt><trkpt lat="49.194406264939964" lon="2.4738171577919426"><ele>56.0</ele><time>2026-04-09T12:45:01Z</time></trkpt><trkpt lat="49.194411499023005" lon="2.473984350136397"><ele>56.0</ele><time>2026-04-09T12:45:03Z</time></trkpt><trkpt lat="49.194416749167885" lon="2.474152055529999"><ele>56.25</ele><time>2026-04-09T12:45:05Z</time></trkpt><trkpt lat="49.19442239839871" lon="2.4743325089321093"><ele>56.5</ele><time>2026-04-09T12:45:07Z</time></trkpt><trkpt lat="49.19442689613927" lon="2.4745078476882494"><ele>56.75</ele><time>2026-04-09T12:45:09Z</time></trkpt><trkpt lat="49.19443122742439" lon="2.47468413594124"><ele>57.0</ele><time>2026-04-09T12:45:11Z</time></trkpt><trkpt lat="49.194438236694666" lon="2.4748610949782224"><ele>57.0</ele><time>2026-04-09T12:45:13Z</time></trkpt><trkpt lat="49.194446679844084" lon="2.475048478122749"><ele>57.0</ele><time>2026-04-09T12:45:15Z</time></trkpt><trkpt lat="49.19445221073564" lon="2.4752295619217284"><ele>57.0</ele><time>2026-04-09T12:45:17Z</time></trkpt><trkpt lat="49.19445736481948" lon="2.4754142639877705"><ele>57.0</ele><time>2026-04-09T12:45:18.999Z</time></trkpt><trkpt lat="49.19446256841037" lon="2.4756007402116333"><ele>56.25</ele><time>2026-04-09T12:45:20.999Z</time></trkpt><trkpt lat="49.19446672992388" lon="2.4757847806509514"><ele>55.5</ele><time>2026-04-09T12:45:22.999Z</time></trkpt><trkpt lat="49.194465764498865" lon="2.475976119939393"><ele>54.75</ele><time>2026-04-09T12:45:24.999Z</time></trkpt><trkpt lat="49.19446036485795" lon="2.4761664581379046"><ele>54.0</ele><time>2026-04-09T12:45:26.999Z</time></trkpt><trkpt lat="49.19445249218571" lon="2.4763516416877067"><ele>53.75</ele><time>2026-04-09T12:45:28.999Z</time></trkpt><trkpt lat="49.19444595565271" lon="2.47655508086557"><ele>53.5</ele><time>2026-04-09T12:45:30.999Z</time></trkpt><trkpt lat="49.19444256965605" lon="2.476750525889751"><ele>53.25</ele><time>2026-04-09T12:45:32.999Z</time></trkpt><trkpt lat="49.194439192396544" lon="2.476945466416018"><ele>53.0</ele><time>2026-04-09T12:45:34.999Z</time></trkpt><trkpt lat="49.194437464364846" lon="2.477131475042371"><ele>53.0</ele><time>2026-04-09T12:45:36.999Z</time></trkpt><trkpt lat="49.19443615234833" lon="2.4772945027944075"><ele>53.0</ele><time>2026-04-09T12:45:38.999Z</time></trkpt><trkpt lat="49.1943940163424" lon="2.477388401266661"><ele>53.0</ele><time>2026-04-09T12:45:40.999Z</time></trkpt><trkpt lat="49.19417911254952" lon="2.477390724980337"><ele>53.0</ele><time>2026-04-09T12:45:44.999Z</time></trkpt><trkpt lat="49.194100760734706" lon="2.477277491833284"><ele>53.2</ele><time>2026-04-09T12:45:46.999Z</time></trkpt><trkpt lat="49.19400305396743" lon="2.4772482008837664"><ele>53.4</ele><time>2026-04-09T12:45:48.999Z</time></trkpt><trkpt lat="49.193915956242954" lon="2.477263666931777"><ele>53.60000000000001</ele><time>2026-04-09T12:45:50.998Z</time></trkpt><trkpt lat="49.19383243104859" lon="2.4772173199807748"><ele>53.800000000000004</ele><time>2026-04-09T12:45:52.998Z</time></trkpt><trkpt lat="49.193741199558254" lon="2.4772089371411994"><ele>54.0</ele><time>2026-04-09T12:45:54.998Z</time></trkpt><trkpt lat="49.19365903414454" lon="2.477291082911976"><ele>54.0</ele><time>2026-04-09T12:45:56.998Z</time></trkpt><trkpt lat="49.19356607346302" lon="2.4773059940751554"><ele>54.00000000000001</ele><time>2026-04-09T12:45:58.998Z</time></trkpt><trkpt lat="49.19347752338674" lon="2.477339356070288"><ele>54.00000000000001</ele><time>2026-04-09T12:46:00.998Z</time></trkpt><trkpt lat="49.193421822930645" lon="2.4774618575416136"><ele>54.0</ele><time>2026-04-09T12:46:02.998Z</time></trkpt><trkpt lat="49.19339820715474" lon="2.477610642159864"><ele>54.0</ele><time>2026-04-09T12:46:04.998Z</time></trkpt><trkpt lat="49.19339739209567" lon="2.4777791915980276"><ele>54.2</ele><time>2026-04-09T12:46:06.998Z</time></trkpt><trkpt lat="49.19341404658684" lon="2.4779421929763537"><ele>54.400000000000006</ele><time>2026-04-09T12:46:08.998Z</time></trkpt><trkpt lat="49.193415994536124" lon="2.4781136465267757"><ele>54.6</ele><time>2026-04-09T12:46:10.998Z</time></trkpt><trkpt lat="49.193416559966145" lon="2.4782782679852673"><ele>54.8</ele><time>2026-04-09T12:46:12.998Z</time></trkpt><trkpt lat="49.193417141158456" lon="2.4784495615150446"><ele>55.0</ele><time>2026-04-09T12:46:14.998Z</time></trkpt><trkpt lat="49.19341734087967" lon="2.478620546709459"><ele>55.25</ele><time>2026-04-09T12:46:16.998Z</time></trkpt><trkpt lat="49.193419873234454" lon="2.4787861670091025"><ele>55.5</ele><time>2026-04-09T12:46:18.998Z</time></trkpt><trkpt lat="49.193412344658185" lon="2.478970386405734"><ele>55.75</ele><time>2026-04-09T12:46:20.998Z</time></trkpt><trkpt lat="49.19341660237156" lon="2.4791508791490937"><ele>56.0</ele><time>2026-04-09T12:46:22.997Z</time></trkpt><trkpt lat="49.19342272043811" lon="2.4793261052505366"><ele>56.0</ele><time>2026-04-09T12:46:24.997Z</time></trkpt><trkpt lat="49.19343454166553" lon="2.479509988478473"><ele>55.99999999999999</ele><time>2026-04-09T12:46:26.997Z</time></trkpt><trkpt lat="49.19344420142966" lon="2.479682797399265"><ele>55.99999999999999</ele><time>2026-04-09T12:46:28.997Z</time></trkpt><trkpt lat="49.19345516459958" lon="2.4797803840835084"><ele>56.0</ele><time>2026-04-09T12:46:29.997Z</time></trkpt><trkpt lat="49.19346287403328" lon="2.479958761290383"><ele>56.0</ele><time>2026-04-09T12:46:31.997Z</time></trkpt><trkpt lat="49.19346031848036" lon="2.480135510805833"><ele>55.50000000000001</ele><time>2026-04-09T12:46:33.997Z</time></trkpt><trkpt lat="49.19347346908506" lon="2.4802975864686174"><ele>55.0</ele><time>2026-04-09T12:46:35.997Z</time></trkpt><trkpt lat="49.19349359763264" lon="2.4804182158936308"><ele>54.5</ele><time>2026-04-09T12:46:37.997Z</time></trkpt><trkpt lat="49.19355374394867" lon="2.4804810788988494"><ele>54.0</ele><time>2026-04-09T12:46:40.997Z</time></trkpt><trkpt lat="49.19362504293186" lon="2.4804556468459187"><ele>53.50000000000001</ele><time>2026-04-09T12:46:43.997Z</time></trkpt><trkpt lat="49.193659644041254" lon="2.4803718367049874"><ele>53.0</ele><time>2026-04-09T12:46:47.997Z</time></trkpt><trkpt lat="49.19360202018474" lon="2.4803279749851903"><ele>53.00000000000001</ele><time>2026-04-09T12:46:50.997Z</time></trkpt><trkpt lat="49.19353368234077" lon="2.4803235536228896"><ele>53.0</ele><time>2026-04-09T12:46:54.996Z</time></trkpt><trkpt lat="49.193491324940965" lon="2.480397568626837"><ele>53.0</ele><time>2026-04-09T12:46:57.996Z</time></trkpt><trkpt lat="49.193461979017954" lon="2.480533555877037"><ele>53.0</ele><time>2026-04-09T12:47:00.996Z</time></trkpt><trkpt lat="49.193451078957736" lon="2.4806478943792536"><ele>53.00000000000001</ele><time>2026-04-09T12:47:02.996Z</time></trkpt><trkpt lat="49.19344020877308" lon="2.480766163244639"><ele>53.0</ele><time>2026-04-09T12:47:04.996Z</time></trkpt><trkpt lat="49.19343283340307" lon="2.480904829857908"><ele>52.599999999999994</ele><time>2026-04-09T12:47:07Z</time></trkpt><trkpt lat="49.193375514122096" lon="2.4810380028455703"><ele>52.199999999999996</ele><time>2026-04-09T12:47:09Z</time></trkpt><trkpt lat="49.19334029042903" lon="2.4811859701299306"><ele>51.8</ele><time>2026-04-09T12:47:11Z</time></trkpt><trkpt lat="49.193288578418745" lon="2.4813471217871292"><ele>51.4</ele><time>2026-04-09T12:47:13Z</time></trkpt><trkpt lat="49.19323781482186" lon="2.481512796321768"><ele>51.0</ele><time>2026-04-09T12:47:15Z</time></trkpt><trkpt lat="49.19319384211288" lon="2.481585676012035"><ele>50.199999999999996</ele><time>2026-04-09T12:47:16Z</time></trkpt><trkpt lat="49.19313403212169" lon="2.481748620879439"><ele>49.4</ele><time>2026-04-09T12:47:18Z</time></trkpt><trkpt lat="49.19309254019654" lon="2.481831266146866"><ele>48.6</ele><time>2026-04-09T12:47:19Z</time></trkpt><trkpt lat="49.19299761904686" lon="2.481945851869039"><ele>47.8</ele><time>2026-04-09T12:47:21Z</time></trkpt><trkpt lat="49.19294456620309" lon="2.4820110994466758"><ele>47.0</ele><time>2026-04-09T12:47:22Z</time></trkpt><trkpt lat="49.19285383505646" lon="2.482143950751586"><ele>46.5</ele><time>2026-04-09T12:47:23.999Z</time></trkpt><trkpt lat="49.19280689820781" lon="2.4822123294758422"><ele>46.0</ele><time>2026-04-09T12:47:24.999Z</time></trkpt><trkpt lat="49.19274330400518" lon="2.482253367068652"><ele>45.5</ele><time>2026-04-09T12:47:25.999Z</time></trkpt><trkpt lat="49.19269202862276" lon="2.4823118357596123"><ele>45.0</ele><time>2026-04-09T12:47:26.999Z</time></trkpt><trkpt lat="49.192629437246715" lon="2.4823663018020756"><ele>44.5</ele><time>2026-04-09T12:47:27.999Z</time></trkpt><trkpt lat="49.192567105236265" lon="2.4823878683960245"><ele>44.0</ele><time>2026-04-09T12:47:28.999Z</time></trkpt><trkpt lat="49.192450665987025" lon="2.4824822868409626"><ele>44.0</ele><time>2026-04-09T12:47:30.999Z</time></trkpt><trkpt lat="49.192390031952414" lon="2.4825212046692195"><ele>44.0</ele><time>2026-04-09T12:47:31.999Z</time></trkpt><trkpt lat="49.192271160477" lon="2.482601479247362"><ele>44.0</ele><time>2026-04-09T12:47:33.999Z</time></trkpt><trkpt lat="49.1922122158816" lon="2.482641284807287"><ele>44.0</ele><time>2026-04-09T12:47:34.999Z</time></trkpt><trkpt lat="49.19210092267101" lon="2.4827421382302792"><ele>44.0</ele><time>2026-04-09T12:47:36.999Z</time></trkpt><trkpt lat="49.19203476167124" lon="2.482759168935186"><ele>44.800000000000004</ele><time>2026-04-09T12:47:37.999Z</time></trkpt><trkpt lat="49.19197442889273" lon="2.4827986826033013"><ele>45.6</ele><time>2026-04-09T12:47:38.999Z</time></trkpt><trkpt lat="49.19186739710444" lon="2.48289220188479"><ele>46.4</ele><time>2026-04-09T12:47:40.999Z</time></trkpt><trkpt lat="49.191804078180716" lon="2.482927468724202"><ele>47.2</ele><time>2026-04-09T12:47:41.999Z</time></trkpt><trkpt lat="49.19170560051098" lon="2.48299919027256"><ele>48.0</ele><time>2026-04-09T12:47:43.999Z</time></trkpt><trkpt lat="49.19162071983265" lon="2.483094888064427"><ele>48.0</ele><time>2026-04-09T12:47:45.999Z</time></trkpt><trkpt lat="49.19156122569649" lon="2.4832162510803624"><ele>48.0</ele><time>2026-04-09T12:47:47.999Z</time></trkpt><trkpt lat="49.191544540461265" lon="2.4833642228930644"><ele>48.0</ele><time>2026-04-09T12:47:49.999Z</time></trkpt><trkpt lat="49.19151600675413" lon="2.4835174949085763"><ele>48.0</ele><time>2026-04-09T12:47:51.999Z</time></trkpt><trkpt lat="49.19150249918994" lon="2.483674697159455"><ele>48.0</ele><time>2026-04-09T12:47:53.999Z</time></trkpt><trkpt lat="49.19151913920856" lon="2.4838383926513115"><ele>48.8</ele><time>2026-04-09T12:47:55.998Z</time></trkpt><trkpt lat="49.19146151762325" lon="2.48396660102762"><ele>49.599999999999994</ele><time>2026-04-09T12:47:57.998Z</time></trkpt><trkpt lat="49.19136751136261" lon="2.483980642238901"><ele>50.400000000000006</ele><time>2026-04-09T12:47:59.998Z</time></trkpt><trkpt lat="49.191298674661816" lon="2.484004373817058"><ele>51.2</ele><time>2026-04-09T12:48:01.998Z</time></trkpt><trkpt lat="49.191225114185606" lon="2.484029733946258"><ele>52.0</ele><time>2026-04-09T12:48:04.998Z</time></trkpt><trkpt lat="49.19134232266867" lon="2.484309838166891"><ele>51.99999999999999</ele><time>2026-04-09T12:48:08.998Z</time></trkpt><trkpt lat="49.19141110183648" lon="2.4843109034091633"><ele>52.0</ele><time>2026-04-09T12:48:55.997Z</time></trkpt><trkpt lat="49.19145916921896" lon="2.484379374524838"><ele>52.0</ele><time>2026-04-09T12:49:01.996Z</time></trkpt><trkpt lat="49.19152930189802" lon="2.4844638793148226"><ele>52.0</ele><time>2026-04-09T12:49:04.996Z</time></trkpt><trkpt lat="49.19160193850091" lon="2.484534483486959"><ele>51.99999999999999</ele><time>2026-04-09T12:49:06.996Z</time></trkpt><trkpt lat="49.191662584066144" lon="2.484620664563809"><ele>52.0</ele><time>2026-04-09T12:49:08.996Z</time></trkpt><trkpt lat="49.19172464369142" lon="2.48465331779524"><ele>50.99999999999999</ele><time>2026-04-09T12:49:10.996Z</time></trkpt><trkpt lat="49.191741130047326" lon="2.484763972731893"><ele>50.0</ele><time>2026-04-09T12:49:13.999Z</time></trkpt><trkpt lat="49.19169836225561" lon="2.484882088589951"><ele>49.0</ele><time>2026-04-09T12:49:16.999Z</time></trkpt><trkpt lat="49.19166831208275" lon="2.485000252334684"><ele>48.0</ele><time>2026-04-09T12:49:19.999Z</time></trkpt><trkpt lat="49.19164050246982" lon="2.485105849650149"><ele>47.0</ele><time>2026-04-09T12:49:22.999Z</time></trkpt><trkpt lat="49.19163469493525" lon="2.485230227998899"><ele>46.0</ele><time>2026-04-09T12:49:25.999Z</time></trkpt><trkpt lat="49.19166326418766" lon="2.485334211948357"><ele>45.75</ele><time>2026-04-09T12:49:37.999Z</time></trkpt><trkpt lat="49.191634694302714" lon="2.485430227142527"><ele>45.5</ele><time>2026-04-09T12:49:40.999Z</time></trkpt><trkpt lat="49.19148134491759" lon="2.4851673159900596"><ele>45.25</ele><time>2026-04-09T12:49:41.999Z</time></trkpt><trkpt lat="49.19140998127991" lon="2.4851742843116043"><ele>45.0</ele><time>2026-04-09T12:49:47.999Z</time></trkpt><trkpt lat="49.191199237462826" lon="2.4860592578334546"><ele>45.833333333333336</ele><time>2026-04-09T12:49:59.998Z</time></trkpt><trkpt lat="49.1911485649142" lon="2.4861562014072596"><ele>46.66666666666667</ele><time>2026-04-09T12:50:01.998Z</time></trkpt><trkpt lat="49.19109471759209" lon="2.486241540923685"><ele>47.5</ele><time>2026-04-09T12:50:03.998Z</time></trkpt><trkpt lat="49.19104585413798" lon="2.486328451994389"><ele>48.333333333333336</ele><time>2026-04-09T12:50:05.998Z</time></trkpt><trkpt lat="49.19099205922276" lon="2.4864080220893965"><ele>49.16666666666667</ele><time>2026-04-09T12:50:07.998Z</time></trkpt><trkpt lat="49.19094063914918" lon="2.486501685364613"><ele>50.0</ele><time>2026-04-09T12:50:09.998Z</time></trkpt><trkpt lat="49.190887628087786" lon="2.4865960362890025"><ele>50.66666666666667</ele><time>2026-04-09T12:50:11.998Z</time></trkpt><trkpt lat="49.19083315739871" lon="2.486679626246027"><ele>51.333333333333336</ele><time>2026-04-09T12:50:13.998Z</time></trkpt><trkpt lat="49.1907775928354" lon="2.486760047621475"><ele>52.0</ele><time>2026-04-09T12:50:15.998Z</time></trkpt><trkpt lat="49.19072385305061" lon="2.486851786723543"><ele>52.66666666666667</ele><time>2026-04-09T12:50:17.998Z</time></trkpt><trkpt lat="49.190669295081115" lon="2.486933699708586"><ele>53.333333333333336</ele><time>2026-04-09T12:50:19.998Z</time></trkpt><trkpt lat="49.190616721276086" lon="2.4870185948024672"><ele>54.0</ele><time>2026-04-09T12:50:21.998Z</time></trkpt><trkpt lat="49.19056225645797" lon="2.4871031602634632"><ele>54.666666666666664</ele><time>2026-04-09T12:50:23.998Z</time></trkpt><trkpt lat="49.19050824973146" lon="2.487181578822403"><ele>55.33333333333333</ele><time>2026-04-09T12:50:25.998Z</time></trkpt><trkpt lat="49.19044847299581" lon="2.4872563841063715"><ele>56.0</ele><time>2026-04-09T12:50:27.998Z</time></trkpt><trkpt lat="49.19039283439825" lon="2.487337924869315"><ele>56.666666666666664</ele><time>2026-04-09T12:50:29.998Z</time></trkpt><trkpt lat="49.19035292566459" lon="2.4874400769069487"><ele>57.33333333333333</ele><time>2026-04-09T12:50:31.997Z</time></trkpt><trkpt lat="49.19031250929844" lon="2.4875429227128696"><ele>58.0</ele><time>2026-04-09T12:50:33.997Z</time></trkpt><trkpt lat="49.19026336061862" lon="2.4876399221864034"><ele>58.0</ele><time>2026-04-09T12:50:35.997Z</time></trkpt><trkpt lat="49.190211418950774" lon="2.4877576564797144"><ele>58.0</ele><time>2026-04-09T12:50:37.997Z</time></trkpt><trkpt lat="49.19016701968041" lon="2.487874640181998"><ele>58.0</ele><time>2026-04-09T12:50:39.997Z</time></trkpt><trkpt lat="49.189978019691495" lon="2.4879446467259814"><ele>58.0</ele><time>2026-04-09T12:50:41.997Z</time></trkpt><trkpt lat="49.18996037261677" lon="2.4880628812984917"><ele>57.8</ele><time>2026-04-09T12:50:43.997Z</time></trkpt><trkpt lat="49.18994057453935" lon="2.4881801976244993"><ele>57.599999999999994</ele><time>2026-04-09T12:50:45.997Z</time></trkpt><trkpt lat="49.189906266942835" lon="2.4882951738011916"><ele>57.400000000000006</ele><time>2026-04-09T12:50:47.997Z</time></trkpt><trkpt lat="49.1898478123333" lon="2.4884364696406736"><ele>57.2</ele><time>2026-04-09T12:50:49.997Z</time></trkpt><trkpt lat="49.18981178986301" lon="2.488523275729773"><ele>57.0</ele><time>2026-04-09T12:50:50.997Z</time></trkpt><trkpt lat="49.189838092673995" lon="2.488808361323024"><ele>56.166666666666664</ele><time>2026-04-09T12:50:52.997Z</time></trkpt><trkpt lat="49.18979215988805" lon="2.488903651667362"><ele>55.33333333333333</ele><time>2026-04-09T12:50:53.997Z</time></trkpt><trkpt lat="49.18974128316391" lon="2.4890150385730085"><ele>54.5</ele><time>2026-04-09T12:50:54.997Z</time></trkpt><trkpt lat="49.18968854612941" lon="2.4891311164834784"><ele>53.666666666666664</ele><time>2026-04-09T12:50:55.997Z</time></trkpt><trkpt lat="49.189641464096105" lon="2.4892481348659614"><ele>52.83333333333333</ele><time>2026-04-09T12:50:56.997Z</time></trkpt><trkpt lat="49.18958046887269" lon="2.489365850303003"><ele>52.0</ele><time>2026-04-09T12:50:57.997Z</time></trkpt><trkpt lat="49.189527256533346" lon="2.4894751824373995"><ele>52.0</ele><time>2026-04-09T12:50:58.997Z</time></trkpt><trkpt lat="49.18946847939596" lon="2.489588738696116"><ele>52.0</ele><time>2026-04-09T12:50:59.997Z</time></trkpt><trkpt lat="49.18941688854565" lon="2.489693643920375"><ele>52.0</ele><time>2026-04-09T12:51:00.997Z</time></trkpt><trkpt lat="49.189363214987104" lon="2.4897962795592963"><ele>52.0</ele><time>2026-04-09T12:51:01.997Z</time></trkpt><trkpt lat="49.18931193764128" lon="2.4899099819389976"><ele>52.0</ele><time>2026-04-09T12:51:02.997Z</time></trkpt><trkpt lat="49.189281150483986" lon="2.4900664801080232"><ele>52.49999999999999</ele><time>2026-04-09T12:51:04.996Z</time></trkpt><trkpt lat="49.189262432431654" lon="2.4902088746915636"><ele>53.0</ele><time>2026-04-09T12:51:06.996Z</time></trkpt><trkpt lat="49.1892550794833" lon="2.490321440519594"><ele>53.5</ele><time>2026-04-09T12:51:08.996Z</time></trkpt><trkpt lat="49.189259968096934" lon="2.490443676929333"><ele>54.0</ele><time>2026-04-09T12:51:11.996Z</time></trkpt><trkpt lat="49.18927727336143" lon="2.4905681342182304"><ele>54.49999999999999</ele><time>2026-04-09T12:51:14.996Z</time></trkpt><trkpt lat="49.18928225916161" lon="2.4906896889538066"><ele>55.0</ele><time>2026-04-09T12:51:17.999Z</time></trkpt><trkpt lat="49.18928997109979" lon="2.490793690134973"><ele>55.14285714285714</ele><time>2026-04-09T12:51:19.999Z</time></trkpt><trkpt lat="49.189299088308466" lon="2.4908923445233886"><ele>55.285714285714285</ele><time>2026-04-09T12:51:21.999Z</time></trkpt><trkpt lat="49.18930333238467" lon="2.4910044726889784"><ele>55.42857142857143</ele><time>2026-04-09T12:51:23.999Z</time></trkpt><trkpt lat="49.18929507692642" lon="2.4911179928846336"><ele>55.57142857142857</ele><time>2026-04-09T12:51:25.999Z</time></trkpt><trkpt lat="49.189310609820794" lon="2.4912279315081154"><ele>55.714285714285715</ele><time>2026-04-09T12:51:27.999Z</time></trkpt><trkpt lat="49.1893204011522" lon="2.4913448500211275"><ele>55.857142857142854</ele><time>2026-04-09T12:51:29.999Z</time></trkpt><trkpt lat="49.18932349520084" lon="2.4914420865377966"><ele>56.0</ele><time>2026-04-09T12:51:31.999Z</time></trkpt><trkpt lat="49.18932560213743" lon="2.4915547467238013"><ele>56.16666666666667</ele><time>2026-04-09T12:51:33.999Z</time></trkpt><trkpt lat="49.189340174214536" lon="2.4916880424780934"><ele>56.333333333333336</ele><time>2026-04-09T12:51:36.999Z</time></trkpt><trkpt lat="49.18934477828301" lon="2.491827359003598"><ele>56.5</ele><time>2026-04-09T12:51:39.999Z</time></trkpt><trkpt lat="49.189347296486666" lon="2.4919258460475784"><ele>56.66666666666667</ele><time>2026-04-09T12:51:41.999Z</time></trkpt><trkpt lat="49.18934663472174" lon="2.4920274556295725"><ele>56.833333333333336</ele><time>2026-04-09T12:51:43.999Z</time></trkpt><trkpt lat="49.18934361321522" lon="2.492157402539587"><ele>57.0</ele><time>2026-04-09T12:51:46.999Z</time></trkpt><trkpt lat="49.18934204605605" lon="2.4922685800771176"><ele>57.285714285714285</ele><time>2026-04-09T12:51:48.999Z</time></trkpt><trkpt lat="49.189343486445075" lon="2.49236524230903"><ele>57.57142857142857</ele><time>2026-04-09T12:51:50.999Z</time></trkpt><trkpt lat="49.18936417133391" lon="2.4924858519126536"><ele>57.857142857142854</ele><time>2026-04-09T12:51:52.999Z</time></trkpt><trkpt lat="49.189368433419034" lon="2.492599262971126"><ele>58.14285714285714</ele><time>2026-04-09T12:51:54.999Z</time></trkpt><trkpt lat="49.1893878074225" lon="2.492711619739655"><ele>58.42857142857143</ele><time>2026-04-09T12:51:56.999Z</time></trkpt><trkpt lat="49.18939885036678" lon="2.4928164428044135"><ele>58.71428571428571</ele><time>2026-04-09T12:51:58.999Z</time></trkpt><trkpt lat="49.18941742950333" lon="2.4929196673585645"><ele>59.0</ele><time>2026-04-09T12:52:00.999Z</time></trkpt><trkpt lat="49.18942987665078" lon="2.4930448225806874"><ele>59.00000000000001</ele><time>2026-04-09T12:52:02.999Z</time></trkpt><trkpt lat="49.18943904746385" lon="2.4931498156756144"><ele>59.0</ele><time>2026-04-09T12:52:04.998Z</time></trkpt><trkpt lat="49.18944566133136" lon="2.4932626756274154"><ele>59.0</ele><time>2026-04-09T12:52:06.998Z</time></trkpt><trkpt lat="49.18942861154" lon="2.4933802030738907"><ele>59.0</ele><time>2026-04-09T12:52:08.998Z</time></trkpt><trkpt lat="49.189423498492914" lon="2.493502878793835"><ele>59.00000000000001</ele><time>2026-04-09T12:52:10.998Z</time></trkpt><trkpt lat="49.18945660651103" lon="2.4936089470550393"><ele>59.0</ele><time>2026-04-09T12:52:12.998Z</time></trkpt><trkpt lat="49.189493556877785" lon="2.493705272481961"><ele>59.16666666666667</ele><time>2026-04-09T12:52:14.998Z</time></trkpt><trkpt lat="49.18951215413047" lon="2.4938296754037403"><ele>59.333333333333336</ele><time>2026-04-09T12:52:16.998Z</time></trkpt><trkpt lat="49.18952473633347" lon="2.4939479674585305"><ele>59.5</ele><time>2026-04-09T12:52:18.998Z</time></trkpt><trkpt lat="49.1895351495338" lon="2.494060027656435"><ele>59.66666666666667</ele><time>2026-04-09T12:52:20.998Z</time></trkpt><trkpt lat="49.18954082675796" lon="2.494187987360111"><ele>59.833333333333336</ele><time>2026-04-09T12:52:22.998Z</time></trkpt><trkpt lat="49.18953656781458" lon="2.494307255909756"><ele>60.0</ele><time>2026-04-09T12:52:24.998Z</time></trkpt><trkpt lat="49.18953010234507" lon="2.494432230098529"><ele>60.0</ele><time>2026-04-09T12:52:26.998Z</time></trkpt><trkpt lat="49.18952488595933" lon="2.4945589115689715"><ele>60.0</ele><time>2026-04-09T12:52:28.998Z</time></trkpt><trkpt lat="49.18951637796976" lon="2.4946839123192115"><ele>60.0</ele><time>2026-04-09T12:52:30.998Z</time></trkpt><trkpt lat="49.18950688017483" lon="2.494797283734912"><ele>60.0</ele><time>2026-04-09T12:52:32.998Z</time></trkpt><trkpt lat="49.189499496089326" lon="2.49491459387779"><ele>60.0</ele><time>2026-04-09T12:52:34.998Z</time></trkpt><trkpt lat="49.1894904889049" lon="2.495039810009695"><ele>60.0</ele><time>2026-04-09T12:52:36.997Z</time></trkpt><trkpt lat="49.189483148123344" lon="2.495167678372895"><ele>60.0</ele><time>2026-04-09T12:52:38.997Z</time></trkpt><trkpt lat="49.18947292009058" lon="2.495304739270474"><ele>60.0</ele><time>2026-04-09T12:52:40.997Z</time></trkpt><trkpt lat="49.18946315591816" lon="2.495436645975071"><ele>60.0</ele><time>2026-04-09T12:52:42.997Z</time></trkpt><trkpt lat="49.18945176689861" lon="2.495572715260053"><ele>60.0</ele><time>2026-04-09T12:52:44.997Z</time></trkpt><trkpt lat="49.18944322829011" lon="2.4957155146513954"><ele>60.0</ele><time>2026-04-09T12:52:46.997Z</time></trkpt><trkpt lat="49.189444995081956" lon="2.4958469349742884"><ele>60.0</ele><time>2026-04-09T12:52:48.997Z</time></trkpt><trkpt lat="49.189431580789986" lon="2.4959908464807143"><ele>60.0</ele><time>2026-04-09T12:52:50.997Z</time></trkpt><trkpt lat="49.18942320660931" lon="2.4961287278791975"><ele>60.0</ele><time>2026-04-09T12:52:52.997Z</time></trkpt><trkpt lat="49.18942115211451" lon="2.496269549123371"><ele>60.0</ele><time>2026-04-09T12:52:54.997Z</time></trkpt><trkpt lat="49.18941512455267" lon="2.4964181790916458"><ele>60.0</ele><time>2026-04-09T12:52:56.997Z</time></trkpt><trkpt lat="49.189402291554046" lon="2.49656034275567"><ele>60.0</ele><time>2026-04-09T12:52:58.997Z</time></trkpt><trkpt lat="49.18939370991193" lon="2.496707884403643"><ele>60.166666666666664</ele><time>2026-04-09T12:53:00.997Z</time></trkpt><trkpt lat="49.189379831388" lon="2.4968438010479117"><ele>60.33333333333333</ele><time>2026-04-09T12:53:02.997Z</time></trkpt><trkpt lat="49.18937480045836" lon="2.496965490364945"><ele>60.5</ele><time>2026-04-09T12:53:04.997Z</time></trkpt><trkpt lat="49.18937044099972" lon="2.4970920170061275"><ele>60.666666666666664</ele><time>2026-04-09T12:53:06.997Z</time></trkpt><trkpt lat="49.18936623856986" lon="2.4972264893984986"><ele>60.83333333333333</ele><time>2026-04-09T12:53:08.997Z</time></trkpt><trkpt lat="49.189357724400224" lon="2.4973682800183945"><ele>61.0</ele><time>2026-04-09T12:53:10.996Z</time></trkpt><trkpt lat="49.18934461425365" lon="2.497510038132562"><ele>61.199999999999996</ele><time>2026-04-09T12:53:12.996Z</time></trkpt><trkpt lat="49.18934983413168" lon="2.497647632693058"><ele>61.39999999999999</ele><time>2026-04-09T12:53:14.996Z</time></trkpt><trkpt lat="49.18937970841761" lon="2.497791013137084"><ele>61.6</ele><time>2026-04-09T12:53:16.996Z</time></trkpt><trkpt lat="49.18941482007123" lon="2.4979280007939475"><ele>61.8</ele><time>2026-04-09T12:53:18.996Z</time></trkpt><trkpt lat="49.18944301858645" lon="2.4980691681977114"><ele>62.0</ele><time>2026-04-09T12:53:20.996Z</time></trkpt><trkpt lat="49.18946990635221" lon="2.4982047816862107"><ele>62.00000000000001</ele><time>2026-04-09T12:53:22.996Z</time></trkpt><trkpt lat="49.18949570370421" lon="2.49834518539399"><ele>62.0</ele><time>2026-04-09T12:53:24.999Z</time></trkpt><trkpt lat="49.189527461288925" lon="2.4984768352370295"><ele>62.0</ele><time>2026-04-09T12:53:26.999Z</time></trkpt><trkpt lat="49.189561521334454" lon="2.498612923838144"><ele>62.0</ele><time>2026-04-09T12:53:28.999Z</time></trkpt><trkpt lat="49.189580514935976" lon="2.49872152260359"><ele>62.00000000000001</ele><time>2026-04-09T12:53:30.999Z</time></trkpt><trkpt lat="49.18960818224408" lon="2.498830291846709"><ele>62.0</ele><time>2026-04-09T12:53:32.999Z</time></trkpt><trkpt lat="49.18962083763171" lon="2.4989410879757195"><ele>61.833333333333336</ele><time>2026-04-09T12:53:34.999Z</time></trkpt><trkpt lat="49.18963222380289" lon="2.4990495035521407"><ele>61.66666666666667</ele><time>2026-04-09T12:53:36.999Z</time></trkpt><trkpt lat="49.18966177811176" lon="2.49914625180716"><ele>61.5</ele><time>2026-04-09T12:53:38.999Z</time></trkpt><trkpt lat="49.18969413426948" lon="2.499255383702839"><ele>61.33333333333333</ele><time>2026-04-09T12:53:40.999Z</time></trkpt><trkpt lat="49.18972156194714" lon="2.49938308924734"><ele>61.166666666666664</ele><time>2026-04-09T12:53:42.999Z</time></trkpt><trkpt lat="49.1897450509504" lon="2.4994971523175593"><ele>61.0</ele><time>2026-04-09T12:53:44.999Z</time></trkpt><trkpt lat="49.18976633303818" lon="2.4996141466585735"><ele>60.99999999999999</ele><time>2026-04-09T12:53:46.999Z</time></trkpt><trkpt lat="49.18979418480598" lon="2.4997237508124446"><ele>61.0</ele><time>2026-04-09T12:53:48.999Z</time></trkpt><trkpt lat="49.18982354073351" lon="2.49982945884196"><ele>61.0</ele><time>2026-04-09T12:53:50.999Z</time></trkpt><trkpt lat="49.18985376061696" lon="2.499928139895577"><ele>61.0</ele><time>2026-04-09T12:53:52.999Z</time></trkpt><trkpt lat="49.18987241100334" lon="2.5000228327356053"><ele>60.99999999999999</ele><time>2026-04-09T12:53:54.999Z</time></trkpt><trkpt lat="49.18989714905545" lon="2.5001403641590967"><ele>61.0</ele><time>2026-04-09T12:53:57.999Z</time></trkpt><trkpt lat="49.18992198839801" lon="2.5002675601281887"><ele>61.28571428571428</ele><time>2026-04-09T12:54:00.999Z</time></trkpt><trkpt lat="49.18993879029775" lon="2.500361366359052"><ele>61.57142857142857</ele><time>2026-04-09T12:54:02.999Z</time></trkpt><trkpt lat="49.18996391389672" lon="2.500453561040657"><ele>61.857142857142854</ele><time>2026-04-09T12:54:04.999Z</time></trkpt><trkpt lat="49.189981275717045" lon="2.500551181564567"><ele>62.14285714285714</ele><time>2026-04-09T12:54:06.999Z</time></trkpt><trkpt lat="49.18999993277883" lon="2.5006843592630448"><ele>62.42857142857143</ele><time>2026-04-09T12:54:09.998Z</time></trkpt><trkpt lat="49.190025454647106" lon="2.500813268321747"><ele>62.714285714285715</ele><time>2026-04-09T12:54:12.998Z</time></trkpt><trkpt lat="49.1900451746378" lon="2.5009054706883123"><ele>63.0</ele><time>2026-04-09T12:54:14.998Z</time></trkpt><trkpt lat="49.19007800378169" lon="2.5010045970703936"><ele>63.2</ele><time>2026-04-09T12:54:16.998Z</time></trkpt><trkpt lat="49.19010859028816" lon="2.5011529558695904"><ele>63.4</ele><time>2026-04-09T12:54:19.998Z</time></trkpt><trkpt lat="49.19013148436163" lon="2.5012564096977066"><ele>63.60000000000001</ele><time>2026-04-09T12:54:21.998Z</time></trkpt><trkpt lat="49.19015399794367" lon="2.501388068037687"><ele>63.800000000000004</ele><time>2026-04-09T12:54:23.998Z</time></trkpt><trkpt lat="49.19018110150356" lon="2.501519468072679"><ele>64.0</ele><time>2026-04-09T12:54:25.998Z</time></trkpt><trkpt lat="49.190223171238046" lon="2.5016571967759695"><ele>64.0</ele><time>2026-04-09T12:54:27.998Z</time></trkpt><trkpt lat="49.19025123543647" lon="2.5017996627899595"><ele>64.0</ele><time>2026-04-09T12:54:29.998Z</time></trkpt><trkpt lat="49.19027894388516" lon="2.5019448088928726"><ele>64.0</ele><time>2026-04-09T12:54:31.998Z</time></trkpt><trkpt lat="49.19030883215707" lon="2.5020884749727044"><ele>64.0</ele><time>2026-04-09T12:54:33.998Z</time></trkpt><trkpt lat="49.190340532861846" lon="2.502236333336912"><ele>64.0</ele><time>2026-04-09T12:54:35.998Z</time></trkpt><trkpt lat="49.19036954009225" lon="2.5023757256378656"><ele>63.6</ele><time>2026-04-09T12:54:37.998Z</time></trkpt><trkpt lat="49.190396385005904" lon="2.502514467140492"><ele>63.2</ele><time>2026-04-09T12:54:39.998Z</time></trkpt><trkpt lat="49.19041376087346" lon="2.5026458684796813"><ele>62.800000000000004</ele><time>2026-04-09T12:54:41.998Z</time></trkpt><trkpt lat="49.19045016797197" lon="2.502797948157234"><ele>62.400000000000006</ele><time>2026-04-09T12:54:43.997Z</time></trkpt><trkpt lat="49.19047690110976" lon="2.502948981641947"><ele>62.0</ele><time>2026-04-09T12:54:45.997Z</time></trkpt><trkpt lat="49.1905081068972" lon="2.503099715527517"><ele>61.8</ele><time>2026-04-09T12:54:47.997Z</time></trkpt><trkpt lat="49.19054499152382" lon="2.5032412231560803"><ele>61.6</ele><time>2026-04-09T12:54:49.997Z</time></trkpt><trkpt lat="49.19058653766611" lon="2.5033749563518817"><ele>61.39999999999999</ele><time>2026-04-09T12:54:51.997Z</time></trkpt><trkpt lat="49.19063474902373" lon="2.5034969800965303"><ele>61.199999999999996</ele><time>2026-04-09T12:54:53.997Z</time></trkpt><trkpt lat="49.19069251415665" lon="2.5036225794088254"><ele>61.0</ele><time>2026-04-09T12:54:55.997Z</time></trkpt><trkpt lat="49.19074712152428" lon="2.503759388926079"><ele>60.8</ele><time>2026-04-09T12:54:57.997Z</time></trkpt><trkpt lat="49.19080824864987" lon="2.5038955691417466"><ele>60.599999999999994</ele><time>2026-04-09T12:54:59.997Z</time></trkpt><trkpt lat="49.1908684357556" lon="2.504027076955198"><ele>60.4</ele><time>2026-04-09T12:55:01.997Z</time></trkpt><trkpt lat="49.190926987824646" lon="2.5041661453855784"><ele>60.2</ele><time>2026-04-09T12:55:03.997Z</time></trkpt><trkpt lat="49.19098469502497" lon="2.504309436449459"><ele>60.0</ele><time>2026-04-09T12:55:05.997Z</time></trkpt><trkpt lat="49.191055969762" lon="2.5044494765049334"><ele>60.2</ele><time>2026-04-09T12:55:07.997Z</time></trkpt><trkpt lat="49.19110974301921" lon="2.5045926476235056"><ele>60.4</ele><time>2026-04-09T12:55:09.997Z</time></trkpt><trkpt lat="49.191161211088684" lon="2.504730391938796"><ele>60.599999999999994</ele><time>2026-04-09T12:55:11.997Z</time></trkpt><trkpt lat="49.19123067279635" lon="2.504876033388056"><ele>60.8</ele><time>2026-04-09T12:55:13.997Z</time></trkpt><trkpt lat="49.191292271054586" lon="2.5050063998360743"><ele>61.0</ele><time>2026-04-09T12:55:15.997Z</time></trkpt><trkpt lat="49.19135102520608" lon="2.505135590739109"><ele>61.0</ele><time>2026-04-09T12:55:17.996Z</time></trkpt><trkpt lat="49.19141470753869" lon="2.5052716535093515"><ele>60.99999999999999</ele><time>2026-04-09T12:55:19.996Z</time></trkpt><trkpt lat="49.19146708179441" lon="2.5054222647754747"><ele>60.99999999999999</ele><time>2026-04-09T12:55:21.996Z</time></trkpt><trkpt lat="49.19152127333698" lon="2.505564263832705"><ele>61.0</ele><time>2026-04-09T12:55:23.996Z</time></trkpt><trkpt lat="49.19158222189392" lon="2.5056950114876213"><ele>61.0</ele><time>2026-04-09T12:55:25.996Z</time></trkpt><trkpt lat="49.19164301290052" lon="2.505838658819349"><ele>60.4</ele><time>2026-04-09T12:55:27.996Z</time></trkpt><trkpt lat="49.191683422641525" lon="2.5059827279249722"><ele>59.8</ele><time>2026-04-09T12:55:29.999Z</time></trkpt><trkpt lat="49.19172188119412" lon="2.506062438459787"><ele>59.199999999999996</ele><time>2026-04-09T12:55:30.999Z</time></trkpt><trkpt lat="49.191787864480006" lon="2.5061811791215747"><ele>58.599999999999994</ele><time>2026-04-09T12:55:32.999Z</time></trkpt><trkpt lat="49.191838857468674" lon="2.506295597126475"><ele>58.0</ele><time>2026-04-09T12:55:34.999Z</time></trkpt><trkpt lat="49.1919066502813" lon="2.5064148938739357"><ele>57.666666666666664</ele><time>2026-04-09T12:55:36.999Z</time></trkpt><trkpt lat="49.191950121156154" lon="2.506534513548693"><ele>57.33333333333333</ele><time>2026-04-09T12:55:38.999Z</time></trkpt><trkpt lat="49.19198959636818" lon="2.5066472823493373"><ele>57.0</ele><time>2026-04-09T12:55:40.999Z</time></trkpt><trkpt lat="49.1920509744241" lon="2.506744064890087"><ele>56.66666666666667</ele><time>2026-04-09T12:55:42.999Z</time></trkpt><trkpt lat="49.192092764361206" lon="2.506846725586106"><ele>56.333333333333336</ele><time>2026-04-09T12:55:44.999Z</time></trkpt><trkpt lat="49.192075829941714" lon="2.506966833398861"><ele>56.0</ele><time>2026-04-09T12:55:46.999Z</time></trkpt><trkpt lat="49.192056493088465" lon="2.5070825420960636"><ele>55.199999999999996</ele><time>2026-04-09T12:55:48.999Z</time></trkpt><trkpt lat="49.192042891122256" lon="2.507215454582403"><ele>54.39999999999999</ele><time>2026-04-09T12:55:50.999Z</time></trkpt><trkpt lat="49.192031641575355" lon="2.507325379549494"><ele>53.6</ele><time>2026-04-09T12:55:52.999Z</time></trkpt><trkpt lat="49.19202188014007" lon="2.5074207633802033"><ele>52.8</ele><time>2026-04-09T12:55:54.999Z</time></trkpt><trkpt lat="49.192225060915895" lon="2.507510937526235"><ele>52.0</ele><time>2026-04-09T12:55:55.999Z</time></trkpt><trkpt lat="49.19229545972148" lon="2.507599878363863"><ele>51.49999999999999</ele><time>2026-04-09T12:55:57.999Z</time></trkpt><trkpt lat="49.192361968709946" lon="2.507690046752641"><ele>51.0</ele><time>2026-04-09T12:55:59.999Z</time></trkpt><trkpt lat="49.1924283006503" lon="2.507782028187525"><ele>50.5</ele><time>2026-04-09T12:56:01.999Z</time></trkpt><trkpt lat="49.19249505707392" lon="2.507875276881359"><ele>50.0</ele><time>2026-04-09T12:56:03.999Z</time></trkpt><trkpt lat="49.19256923538863" lon="2.507936197509156"><ele>49.49999999999999</ele><time>2026-04-09T12:56:05.999Z</time></trkpt><trkpt lat="49.19262733500882" lon="2.508023513429378"><ele>49.0</ele><time>2026-04-09T12:56:07.999Z</time></trkpt><trkpt lat="49.19269446115527" lon="2.508101366168085"><ele>48.99999999999999</ele><time>2026-04-09T12:56:09.999Z</time></trkpt><trkpt lat="49.19273853782022" lon="2.5081966720443165"><ele>49.0</ele><time>2026-04-09T12:56:11.998Z</time></trkpt><trkpt lat="49.19281744056532" lon="2.5082272451210206"><ele>49.0</ele><time>2026-04-09T12:56:13.998Z</time></trkpt><trkpt lat="49.19287957096411" lon="2.5083073673960548"><ele>49.0</ele><time>2026-04-09T12:56:15.998Z</time></trkpt><trkpt lat="49.19293998260696" lon="2.5083846478930023"><ele>48.99999999999999</ele><time>2026-04-09T12:56:17.998Z</time></trkpt><trkpt lat="49.19299908704774" lon="2.5084661039347096"><ele>49.0</ele><time>2026-04-09T12:56:19.998Z</time></trkpt><trkpt lat="49.193056598848074" lon="2.5085375560829775"><ele>49.0</ele><time>2026-04-09T12:56:21.998Z</time></trkpt><trkpt lat="49.19311883043239" lon="2.50860962693577"><ele>49.0</ele><time>2026-04-09T12:56:23.998Z</time></trkpt><trkpt lat="49.19317517023941" lon="2.5086756608836773"><ele>49.0</ele><time>2026-04-09T12:56:25.998Z</time></trkpt><trkpt lat="49.19323614903799" lon="2.508750022187696"><ele>49.0</ele><time>2026-04-09T12:56:27.998Z</time></trkpt><trkpt lat="49.19329305796971" lon="2.5088094609357396"><ele>49.0</ele><time>2026-04-09T12:56:29.998Z</time></trkpt><trkpt lat="49.19335222422823" lon="2.508876987877237"><ele>49.0</ele><time>2026-04-09T12:56:31.998Z</time></trkpt><trkpt lat="49.19340264881478" lon="2.508964786222208"><ele>49.0</ele><time>2026-04-09T12:56:33.998Z</time></trkpt><trkpt lat="49.19345480854761" lon="2.5090426363100855"><ele>49.166666666666664</ele><time>2026-04-09T12:56:35.998Z</time></trkpt><trkpt lat="49.19351667707012" lon="2.5091253534057394"><ele>49.33333333333333</ele><time>2026-04-09T12:56:37.998Z</time></trkpt><trkpt lat="49.19355280258822" lon="2.509239721118309"><ele>49.5</ele><time>2026-04-09T12:56:39.998Z</time></trkpt><trkpt lat="49.19359714169382" lon="2.509341864863593"><ele>49.66666666666667</ele><time>2026-04-09T12:56:41.998Z</time></trkpt><trkpt lat="49.193638851615646" lon="2.509448949886402"><ele>49.833333333333336</ele><time>2026-04-09T12:56:43.998Z</time></trkpt><trkpt lat="49.193675689254434" lon="2.509556355104328"><ele>50.0</ele><time>2026-04-09T12:56:45.997Z</time></trkpt><trkpt lat="49.19370793387222" lon="2.5096713060574554"><ele>50.00000000000001</ele><time>2026-04-09T12:56:47.997Z</time></trkpt><trkpt lat="49.19373436281264" lon="2.5097913494871196"><ele>50.0</ele><time>2026-04-09T12:56:49.997Z</time></trkpt><trkpt lat="49.19377091975881" lon="2.5099063930369665"><ele>50.0</ele><time>2026-04-09T12:56:51.997Z</time></trkpt><trkpt lat="49.193787307976265" lon="2.5100295452177117"><ele>50.0</ele><time>2026-04-09T12:56:53.997Z</time></trkpt><trkpt lat="49.19380035407075" lon="2.510155888231863"><ele>50.00000000000001</ele><time>2026-04-09T12:56:55.997Z</time></trkpt><trkpt lat="49.193789465454195" lon="2.5102754502286095"><ele>50.0</ele><time>2026-04-09T12:56:57.997Z</time></trkpt><trkpt lat="49.19378944901232" lon="2.510420405538898"><ele>50.00000000000001</ele><time>2026-04-09T12:56:59.997Z</time></trkpt><trkpt lat="49.19378759694109" lon="2.510543859368859"><ele>50.0</ele><time>2026-04-09T12:57:01.997Z</time></trkpt><trkpt lat="49.19378596545373" lon="2.51066550537946"><ele>50.0</ele><time>2026-04-09T12:57:03.997Z</time></trkpt><trkpt lat="49.193793634115295" lon="2.5107863431268687"><ele>50.0</ele><time>2026-04-09T12:57:05.997Z</time></trkpt><trkpt lat="49.1937967066217" lon="2.51091695667184"><ele>50.00000000000001</ele><time>2026-04-09T12:57:07.997Z</time></trkpt><trkpt lat="49.1938022077784" lon="2.511042517278308"><ele>50.0</ele><time>2026-04-09T12:57:09.997Z</time></trkpt><trkpt lat="49.19380099658633" lon="2.511174062771139"><ele>50.16666666666667</ele><time>2026-04-09T12:57:11.997Z</time></trkpt><trkpt lat="49.19380720145469" lon="2.511305843046155"><ele>50.333333333333336</ele><time>2026-04-09T12:57:13.997Z</time></trkpt><trkpt lat="49.193810353049734" lon="2.511437139014115"><ele>50.5</ele><time>2026-04-09T12:57:15.997Z</time></trkpt><trkpt lat="49.1938235735175" lon="2.511577263836804"><ele>50.66666666666667</ele><time>2026-04-09T12:57:17.997Z</time></trkpt><trkpt lat="49.193830919297774" lon="2.5117038474146867"><ele>50.833333333333336</ele><time>2026-04-09T12:57:19.996Z</time></trkpt><trkpt lat="49.193821429917605" lon="2.511834120355187"><ele>51.0</ele><time>2026-04-09T12:57:21.996Z</time></trkpt><trkpt lat="49.19383545369947" lon="2.511973790717699"><ele>51.166666666666664</ele><time>2026-04-09T12:57:23.996Z</time></trkpt><trkpt lat="49.19383381844074" lon="2.5121199482153727"><ele>51.33333333333333</ele><time>2026-04-09T12:57:25.996Z</time></trkpt><trkpt lat="49.193824825418005" lon="2.512251924793967"><ele>51.5</ele><time>2026-04-09T12:57:27.996Z</time></trkpt><trkpt lat="49.19382962859909" lon="2.512383659943826"><ele>51.666666666666664</ele><time>2026-04-09T12:57:29.996Z</time></trkpt><trkpt lat="49.19383823990946" lon="2.5125016714674353"><ele>51.83333333333333</ele><time>2026-04-09T12:57:31.996Z</time></trkpt><trkpt lat="49.19383651086377" lon="2.5126076463985454"><ele>52.0</ele><time>2026-04-09T12:57:33.996Z</time></trkpt><trkpt lat="49.19383925243778" lon="2.512723021894577"><ele>51.99999999999999</ele><time>2026-04-09T12:57:35.999Z</time></trkpt><trkpt lat="49.193843181725505" lon="2.5128363108280287"><ele>52.0</ele><time>2026-04-09T12:57:37.999Z</time></trkpt><trkpt lat="49.19385268271693" lon="2.512940189844502"><ele>52.0</ele><time>2026-04-09T12:57:40.999Z</time></trkpt><trkpt lat="49.19396096630622" lon="2.512961028745452"><ele>52.0</ele><time>2026-04-09T12:57:44.999Z</time></trkpt><trkpt lat="49.194015440374045" lon="2.5130318849216957"><ele>51.99999999999999</ele><time>2026-04-09T12:57:46.999Z</time></trkpt><trkpt lat="49.19408830034516" lon="2.513090047872059"><ele>52.0</ele><time>2026-04-09T12:57:48.999Z</time></trkpt><trkpt lat="49.19416586330718" lon="2.513149417219123"><ele>51.666666666666664</ele><time>2026-04-09T12:57:51.999Z</time></trkpt><trkpt lat="49.19418929441162" lon="2.513287800253829"><ele>51.33333333333333</ele><time>2026-04-09T12:57:53.999Z</time></trkpt><trkpt lat="49.194198577367686" lon="2.513407846312968"><ele>51.0</ele><time>2026-04-09T12:57:55.999Z</time></trkpt><trkpt lat="49.19419284635884" lon="2.513536945903615"><ele>50.66666666666667</ele><time>2026-04-09T12:57:57.999Z</time></trkpt><trkpt lat="49.19419556651149" lon="2.5136735514546786"><ele>50.333333333333336</ele><time>2026-04-09T12:57:59.999Z</time></trkpt><trkpt lat="49.19417985354177" lon="2.5138162082166624"><ele>50.0</ele><time>2026-04-09T12:58:01.999Z</time></trkpt><trkpt lat="49.1941612297744" lon="2.513966346155555"><ele>49.8</ele><time>2026-04-09T12:58:03.999Z</time></trkpt><trkpt lat="49.19413759257642" lon="2.5141356795396406"><ele>49.6</ele><time>2026-04-09T12:58:05.999Z</time></trkpt><trkpt lat="49.19411288704346" lon="2.5143009533078704"><ele>49.400000000000006</ele><time>2026-04-09T12:58:07.999Z</time></trkpt><trkpt lat="49.19408503635708" lon="2.5143890949440437"><ele>49.2</ele><time>2026-04-09T12:58:08.999Z</time></trkpt><trkpt lat="49.19405649495552" lon="2.514567962989052"><ele>49.0</ele><time>2026-04-09T12:58:10.999Z</time></trkpt><trkpt lat="49.194040055121405" lon="2.5147522603014525"><ele>49.166666666666664</ele><time>2026-04-09T12:58:12.999Z</time></trkpt><trkpt lat="49.193999980559255" lon="2.5149291035377863"><ele>49.33333333333333</ele><time>2026-04-09T12:58:14.999Z</time></trkpt><trkpt lat="49.193950462535206" lon="2.514997765572714"><ele>49.5</ele><time>2026-04-09T12:58:15.999Z</time></trkpt><trkpt lat="49.19388622666964" lon="2.5150245815343895"><ele>49.66666666666667</ele><time>2026-04-09T12:58:16.999Z</time></trkpt><trkpt lat="49.19381952254468" lon="2.515037445531014"><ele>49.833333333333336</ele><time>2026-04-09T12:58:17.999Z</time></trkpt><trkpt lat="49.19371853083543" lon="2.5150755446113027"><ele>50.0</ele><time>2026-04-09T12:58:19.999Z</time></trkpt><trkpt lat="49.19364134506131" lon="2.51516838484562"><ele>50.00000000000001</ele><time>2026-04-09T12:58:21.998Z</time></trkpt><trkpt lat="49.19358702015856" lon="2.5152666895664546"><ele>50.0</ele><time>2026-04-09T12:58:23.998Z</time></trkpt><trkpt lat="49.193553751890015" lon="2.515382857943502"><ele>50.0</ele><time>2026-04-09T12:58:25.998Z</time></trkpt><trkpt lat="49.19352831061453" lon="2.515506053390201"><ele>50.0</ele><time>2026-04-09T12:58:27.998Z</time></trkpt><trkpt lat="49.1935116948739" lon="2.5156298212535297"><ele>50.00000000000001</ele><time>2026-04-09T12:58:29.998Z</time></trkpt><trkpt lat="49.19347752052509" lon="2.5157471070815163"><ele>50.0</ele><time>2026-04-09T12:58:31.998Z</time></trkpt><trkpt lat="49.19344263881981" lon="2.5158518346489576"><ele>49.66666666666667</ele><time>2026-04-09T12:58:33.998Z</time></trkpt><trkpt lat="49.19340742668088" lon="2.5159524797944317"><ele>49.333333333333336</ele><time>2026-04-09T12:58:35.998Z</time></trkpt><trkpt lat="49.193379992976375" lon="2.5160546220014712"><ele>49.0</ele><time>2026-04-09T12:58:37.998Z</time></trkpt><trkpt lat="49.193350881763955" lon="2.516150965466212"><ele>48.66666666666667</ele><time>2026-04-09T12:58:39.998Z</time></trkpt><trkpt lat="49.193309436832635" lon="2.5162647309676682"><ele>48.333333333333336</ele><time>2026-04-09T12:58:41.998Z</time></trkpt><trkpt lat="49.193271374017385" lon="2.516374029721182"><ele>48.0</ele><time>2026-04-09T12:58:43.998Z</time></trkpt><trkpt lat="49.19323943511364" lon="2.5164871133662334"><ele>48.0</ele><time>2026-04-09T12:58:45.998Z</time></trkpt><trkpt lat="49.193204647721686" lon="2.5166018434704425"><ele>48.0</ele><time>2026-04-09T12:58:47.998Z</time></trkpt><trkpt lat="49.193166269889" lon="2.516715744023719"><ele>48.0</ele><time>2026-04-09T12:58:49.998Z</time></trkpt><trkpt lat="49.19312341223961" lon="2.5168227214588312"><ele>48.0</ele><time>2026-04-09T12:58:51.998Z</time></trkpt><trkpt lat="49.19308616810911" lon="2.51693511063176"><ele>48.0</ele><time>2026-04-09T12:58:53.998Z</time></trkpt><trkpt lat="49.193049817174064" lon="2.517056906016239"><ele>48.0</ele><time>2026-04-09T12:58:55.997Z</time></trkpt><trkpt lat="49.193022572306674" lon="2.5171752545604975"><ele>48.14285714285714</ele><time>2026-04-09T12:58:57.997Z</time></trkpt><trkpt lat="49.19299771710809" lon="2.5172940972688735"><ele>48.285714285714285</ele><time>2026-04-09T12:58:59.997Z</time></trkpt><trkpt lat="49.19297336242032" lon="2.5173963381608"><ele>48.42857142857143</ele><time>2026-04-09T12:59:01.997Z</time></trkpt><trkpt lat="49.19295216740424" lon="2.517502715219978"><ele>48.57142857142857</ele><time>2026-04-09T12:59:03.997Z</time></trkpt><trkpt lat="49.19292880993296" lon="2.517598170035169"><ele>48.714285714285715</ele><time>2026-04-09T12:59:05.998Z</time></trkpt><trkpt lat="49.19289430579206" lon="2.5176971337152243"><ele>48.857142857142854</ele><time>2026-04-09T12:59:07.998Z</time></trkpt><trkpt lat="49.192883667148" lon="2.517823282913756"><ele>49.0</ele><time>2026-04-09T12:59:09.998Z</time></trkpt><trkpt lat="49.1928607829916" lon="2.51794743338475"><ele>48.99999999999999</ele><time>2026-04-09T12:59:11.998Z</time></trkpt><trkpt lat="49.19282915075974" lon="2.518071223999978"><ele>49.0</ele><time>2026-04-09T12:59:13.998Z</time></trkpt><trkpt lat="49.19280720413215" lon="2.5182037308450718"><ele>49.0</ele><time>2026-04-09T12:59:15.998Z</time></trkpt><trkpt lat="49.19278477584683" lon="2.51832993343413"><ele>49.0</ele><time>2026-04-09T12:59:17.998Z</time></trkpt><trkpt lat="49.19275991778669" lon="2.5184643904646196"><ele>48.99999999999999</ele><time>2026-04-09T12:59:19.998Z</time></trkpt><trkpt lat="49.19273941004015" lon="2.5186024801487497"><ele>49.0</ele><time>2026-04-09T12:59:21.998Z</time></trkpt><trkpt lat="49.192713935545754" lon="2.5187501298470285"><ele>49.0</ele><time>2026-04-09T12:59:23.998Z</time></trkpt><trkpt lat="49.1926860626329" lon="2.5188911126667497"><ele>49.0</ele><time>2026-04-09T12:59:25.998Z</time></trkpt><trkpt lat="49.19266002421845" lon="2.519039949416571"><ele>49.0</ele><time>2026-04-09T12:59:27.998Z</time></trkpt><trkpt lat="49.19263380237852" lon="2.519198494526883"><ele>49.0</ele><time>2026-04-09T12:59:29.997Z</time></trkpt><trkpt lat="49.19260622660682" lon="2.5193510230879297"><ele>49.0</ele><time>2026-04-09T12:59:31.997Z</time></trkpt><trkpt lat="49.192572485559566" lon="2.5195064543371983"><ele>48.800000000000004</ele><time>2026-04-09T12:59:33.997Z</time></trkpt><trkpt lat="49.19254460668522" lon="2.5196579815988858"><ele>48.6</ele><time>2026-04-09T12:59:35.997Z</time></trkpt><trkpt lat="49.192510112650616" lon="2.5198209831612486"><ele>48.4</ele><time>2026-04-09T12:59:37.997Z</time></trkpt><trkpt lat="49.192479354000774" lon="2.5199800165179274"><ele>48.2</ele><time>2026-04-09T12:59:39.997Z</time></trkpt><trkpt lat="49.19245697373747" lon="2.520149373271294"><ele>48.0</ele><time>2026-04-09T12:59:42Z</time></trkpt><trkpt lat="49.1924371802212" lon="2.5203069715249953"><ele>48.0</ele><time>2026-04-09T12:59:44Z</time></trkpt><trkpt lat="49.19241996019314" lon="2.5204664797129563"><ele>48.0</ele><time>2026-04-09T12:59:46Z</time></trkpt><trkpt lat="49.19240294681673" lon="2.5206219573366493"><ele>48.0</ele><time>2026-04-09T12:59:48Z</time></trkpt><trkpt lat="49.192385580673886" lon="2.520746105877124"><ele>48.0</ele><time>2026-04-09T12:59:50Z</time></trkpt><trkpt lat="49.1923732177645" lon="2.5208753972581213"><ele>48.0</ele><time>2026-04-09T12:59:51Z</time></trkpt><trkpt lat="49.192354415200846" lon="2.521052960202475"><ele>48.0</ele><time>2026-04-09T12:59:53Z</time></trkpt><trkpt lat="49.19233288794971" lon="2.521239780529427"><ele>48.0</ele><time>2026-04-09T12:59:55Z</time></trkpt><trkpt lat="49.19232061663701" lon="2.521337682981807"><ele>48.0</ele><time>2026-04-09T12:59:56Z</time></trkpt><trkpt lat="49.192311227364605" lon="2.5214338068916415"><ele>48.0</ele><time>2026-04-09T12:59:57Z</time></trkpt><trkpt lat="49.19230366617494" lon="2.5215331010400233"><ele>48.0</ele><time>2026-04-09T12:59:58Z</time></trkpt><trkpt lat="49.19229483309312" lon="2.521634931497218"><ele>48.0</ele><time>2026-04-09T12:59:59Z</time></trkpt><trkpt lat="49.192285836422585" lon="2.5217417603596064"><ele>47.99999999999999</ele><time>2026-04-09T13:00:00Z</time></trkpt><trkpt lat="49.192276785847284" lon="2.5218408543776665"><ele>48.0</ele><time>2026-04-09T13:00:01Z</time></trkpt><trkpt lat="49.192270508050505" lon="2.5219400093412543"><ele>48.0</ele><time>2026-04-09T13:00:02Z</time></trkpt><trkpt lat="49.192265018378805" lon="2.5220421581828583"><ele>48.0</ele><time>2026-04-09T13:00:03Z</time></trkpt><trkpt lat="49.19225985531163" lon="2.5221431683611066"><ele>48.0</ele><time>2026-04-09T13:00:04Z</time></trkpt><trkpt lat="49.192263502836774" lon="2.5222471429465028"><ele>47.99999999999999</ele><time>2026-04-09T13:00:05Z</time></trkpt><trkpt lat="49.19227933365738" lon="2.5223419186886833"><ele>48.0</ele><time>2026-04-09T13:00:06Z</time></trkpt><trkpt lat="49.192288946030175" lon="2.5224418551532306"><ele>48.166666666666664</ele><time>2026-04-09T13:00:07Z</time></trkpt><trkpt lat="49.19230062827466" lon="2.5225448185758"><ele>48.33333333333333</ele><time>2026-04-09T13:00:08Z</time></trkpt><trkpt lat="49.19231378364433" lon="2.522643045747556"><ele>48.5</ele><time>2026-04-09T13:00:09Z</time></trkpt><trkpt lat="49.192326897034526" lon="2.5227430318644206"><ele>48.666666666666664</ele><time>2026-04-09T13:00:10Z</time></trkpt><trkpt lat="49.19235357814732" lon="2.5229199751970692"><ele>48.83333333333333</ele><time>2026-04-09T13:00:12Z</time></trkpt><trkpt lat="49.19237826754325" lon="2.523083051259153"><ele>49.0</ele><time>2026-04-09T13:00:14Z</time></trkpt><trkpt lat="49.19239652147948" lon="2.5232416655719616"><ele>48.400000000000006</ele><time>2026-04-09T13:00:16Z</time></trkpt><trkpt lat="49.192409339274356" lon="2.5234014361818247"><ele>47.8</ele><time>2026-04-09T13:00:18Z</time></trkpt><trkpt lat="49.19242323076842" lon="2.5235514813735485"><ele>47.2</ele><time>2026-04-09T13:00:20Z</time></trkpt><trkpt lat="49.1924460592457" lon="2.5237061264637237"><ele>46.599999999999994</ele><time>2026-04-09T13:00:22Z</time></trkpt><trkpt lat="49.192467152612444" lon="2.523867448335014"><ele>46.0</ele><time>2026-04-09T13:00:24Z</time></trkpt><trkpt lat="49.19249074854525" lon="2.5240225955007567"><ele>46.0</ele><time>2026-04-09T13:00:26Z</time></trkpt><trkpt lat="49.192505432982806" lon="2.5241979711946656"><ele>46.0</ele><time>2026-04-09T13:00:28Z</time></trkpt><trkpt lat="49.192531168933606" lon="2.524364935793217"><ele>46.0</ele><time>2026-04-09T13:00:29.999Z</time></trkpt><trkpt lat="49.19254014746483" lon="2.5244603684996254"><ele>46.0</ele><time>2026-04-09T13:00:30.999Z</time></trkpt><trkpt lat="49.19255734169381" lon="2.5246390801712892"><ele>46.0</ele><time>2026-04-09T13:00:32.999Z</time></trkpt><trkpt lat="49.19257212326896" lon="2.5248168203816896"><ele>46.199999999999996</ele><time>2026-04-09T13:00:34.999Z</time></trkpt><trkpt lat="49.192600893060686" lon="2.524979011480056"><ele>46.4</ele><time>2026-04-09T13:00:36.999Z</time></trkpt><trkpt lat="49.19262727183965" lon="2.5251520305262805"><ele>46.6</ele><time>2026-04-09T13:00:38.999Z</time></trkpt><trkpt lat="49.19264294729886" lon="2.5253107243264306"><ele>46.8</ele><time>2026-04-09T13:00:40.999Z</time></trkpt><trkpt lat="49.192657669399786" lon="2.5254668821780353"><ele>47.0</ele><time>2026-04-09T13:00:42.999Z</time></trkpt><trkpt lat="49.192671531974995" lon="2.5256250697745153"><ele>47.400000000000006</ele><time>2026-04-09T13:00:44.999Z</time></trkpt><trkpt lat="49.192693413694485" lon="2.5257709898019383"><ele>47.800000000000004</ele><time>2026-04-09T13:00:46.999Z</time></trkpt><trkpt lat="49.192707179600255" lon="2.525919964977324"><ele>48.2</ele><time>2026-04-09T13:00:48.999Z</time></trkpt><trkpt lat="49.19272780335429" lon="2.52606024902486"><ele>48.6</ele><time>2026-04-09T13:00:50.999Z</time></trkpt><trkpt lat="49.19274310894294" lon="2.5262028717826"><ele>49.0</ele><time>2026-04-09T13:00:52.999Z</time></trkpt><trkpt lat="49.19275845678132" lon="2.526342978590184"><ele>49.33333333333333</ele><time>2026-04-09T13:00:54.999Z</time></trkpt><trkpt lat="49.19277293555561" lon="2.526482295801647"><ele>49.666666666666664</ele><time>2026-04-09T13:00:56.999Z</time></trkpt><trkpt lat="49.19279396325487" lon="2.5266180137741885"><ele>50.0</ele><time>2026-04-09T13:00:58.999Z</time></trkpt><trkpt lat="49.19281383659219" lon="2.5267524792016447"><ele>50.33333333333333</ele><time>2026-04-09T13:01:00.999Z</time></trkpt><trkpt lat="49.19282851078057" lon="2.526886832178474"><ele>50.666666666666664</ele><time>2026-04-09T13:01:02.999Z</time></trkpt><trkpt lat="49.1928522860796" lon="2.52701121963788"><ele>51.0</ele><time>2026-04-09T13:01:04.998Z</time></trkpt><trkpt lat="49.19286346067748" lon="2.5271399336793547"><ele>51.333333333333336</ele><time>2026-04-09T13:01:06.998Z</time></trkpt><trkpt lat="49.19288078197235" lon="2.527253201597407"><ele>51.66666666666667</ele><time>2026-04-09T13:01:08.998Z</time></trkpt><trkpt lat="49.1928807594947" lon="2.527379842046413"><ele>52.0</ele><time>2026-04-09T13:01:10.998Z</time></trkpt><trkpt lat="49.19290298912701" lon="2.5274772109362296"><ele>52.333333333333336</ele><time>2026-04-09T13:01:12.998Z</time></trkpt><trkpt lat="49.19291624871684" lon="2.527592078721687"><ele>52.66666666666667</ele><time>2026-04-09T13:01:14.998Z</time></trkpt><trkpt lat="49.19292522466223" lon="2.5277092802077847"><ele>53.0</ele><time>2026-04-09T13:01:16.998Z</time></trkpt><trkpt lat="49.192936019577914" lon="2.5278222365064407"><ele>52.833333333333336</ele><time>2026-04-09T13:01:18.998Z</time></trkpt><trkpt lat="49.19295165605469" lon="2.5279388381912176"><ele>52.66666666666667</ele><time>2026-04-09T13:01:20.998Z</time></trkpt><trkpt lat="49.1929658526678" lon="2.5280575021951193"><ele>52.5</ele><time>2026-04-09T13:01:22.998Z</time></trkpt><trkpt lat="49.19297954580931" lon="2.5281791240508364"><ele>52.33333333333333</ele><time>2026-04-09T13:01:24.998Z</time></trkpt><trkpt lat="49.192993551128104" lon="2.5283101213050188"><ele>52.166666666666664</ele><time>2026-04-09T13:01:26.998Z</time></trkpt><trkpt lat="49.19301243581982" lon="2.5284378133099445"><ele>52.0</ele><time>2026-04-09T13:01:28.998Z</time></trkpt><trkpt lat="49.19302772230217" lon="2.5285641695761423"><ele>52.0</ele><time>2026-04-09T13:01:30.998Z</time></trkpt><trkpt lat="49.19304794539223" lon="2.5287034938827935"><ele>52.0</ele><time>2026-04-09T13:01:32.998Z</time></trkpt><trkpt lat="49.19307026871404" lon="2.5288556722531337"><ele>52.0</ele><time>2026-04-09T13:01:34.998Z</time></trkpt><trkpt lat="49.19308862613027" lon="2.528991964792692"><ele>52.0</ele><time>2026-04-09T13:01:36.998Z</time></trkpt><trkpt lat="49.19311765151037" lon="2.5291133990224006"><ele>52.0</ele><time>2026-04-09T13:01:38.997Z</time></trkpt><trkpt lat="49.19313177526349" lon="2.5292617342267874"><ele>51.99999999999999</ele><time>2026-04-09T13:01:40.997Z</time></trkpt><trkpt lat="49.19315611352394" lon="2.5294001794054815"><ele>52.0</ele><time>2026-04-09T13:01:42.997Z</time></trkpt><trkpt lat="49.193184227098165" lon="2.5295283075490724"><ele>52.0</ele><time>2026-04-09T13:01:44.997Z</time></trkpt><trkpt lat="49.19320494971443" lon="2.5296597868514685"><ele>52.0</ele><time>2026-04-09T13:01:47Z</time></trkpt><trkpt lat="49.193235393025844" lon="2.529794751682642"><ele>51.99999999999999</ele><time>2026-04-09T13:01:49Z</time></trkpt><trkpt lat="49.193261843133364" lon="2.529916094218363"><ele>52.0</ele><time>2026-04-09T13:01:51Z</time></trkpt><trkpt lat="49.19328894511057" lon="2.5300477453115287"><ele>51.99999999999999</ele><time>2026-04-09T13:01:53Z</time></trkpt><trkpt lat="49.19331658166608" lon="2.5301766536167443"><ele>52.0</ele><time>2026-04-09T13:01:55Z</time></trkpt><trkpt lat="49.19334065289974" lon="2.5303071201718246"><ele>52.0</ele><time>2026-04-09T13:01:57Z</time></trkpt><trkpt lat="49.19337156340601" lon="2.5304399329536706"><ele>52.0</ele><time>2026-04-09T13:01:59Z</time></trkpt><trkpt lat="49.193395376197216" lon="2.5305741527090744"><ele>51.99999999999999</ele><time>2026-04-09T13:02:01Z</time></trkpt><trkpt lat="49.193423858353896" lon="2.5307009110834904"><ele>52.0</ele><time>2026-04-09T13:02:03Z</time></trkpt><trkpt lat="49.19344815144919" lon="2.530827998140982"><ele>52.0</ele><time>2026-04-09T13:02:05Z</time></trkpt><trkpt lat="49.1934806659439" lon="2.530958402887295"><ele>52.0</ele><time>2026-04-09T13:02:07Z</time></trkpt><trkpt lat="49.19351057494715" lon="2.5310930160036436"><ele>52.0</ele><time>2026-04-09T13:02:09Z</time></trkpt><trkpt lat="49.19354189332871" lon="2.5312192752589486"><ele>52.0</ele><time>2026-04-09T13:02:11Z</time></trkpt><trkpt lat="49.19357475291451" lon="2.5313617840792064"><ele>52.0</ele><time>2026-04-09T13:02:13Z</time></trkpt><trkpt lat="49.1936124259235" lon="2.531503490565047"><ele>52.400000000000006</ele><time>2026-04-09T13:02:15Z</time></trkpt><trkpt lat="49.1936521618706" lon="2.5316438978168265"><ele>52.800000000000004</ele><time>2026-04-09T13:02:17Z</time></trkpt><trkpt lat="49.193693518452555" lon="2.5317793333816963"><ele>53.2</ele><time>2026-04-09T13:02:19Z</time></trkpt><trkpt lat="49.1937403619262" lon="2.531924289927506"><ele>53.6</ele><time>2026-04-09T13:02:21Z</time></trkpt><trkpt lat="49.19378775008296" lon="2.532058736050014"><ele>54.0</ele><time>2026-04-09T13:02:23Z</time></trkpt><trkpt lat="49.193840677184276" lon="2.5321917975858472"><ele>54.0</ele><time>2026-04-09T13:02:25Z</time></trkpt><trkpt lat="49.19389563127484" lon="2.5323521706939283"><ele>54.00000000000001</ele><time>2026-04-09T13:02:27Z</time></trkpt><trkpt lat="49.19394296106629" lon="2.532484719715162"><ele>54.00000000000001</ele><time>2026-04-09T13:02:29Z</time></trkpt><trkpt lat="49.1939994733867" lon="2.5326371672262344"><ele>54.0</ele><time>2026-04-09T13:02:31Z</time></trkpt><trkpt lat="49.194048949268165" lon="2.532784305841709"><ele>54.0</ele><time>2026-04-09T13:02:32.999Z</time></trkpt><trkpt lat="49.1940975747005" lon="2.5329222806812695"><ele>53.75</ele><time>2026-04-09T13:02:34.999Z</time></trkpt><trkpt lat="49.194152574282896" lon="2.5330794284740117"><ele>53.5</ele><time>2026-04-09T13:02:36.999Z</time></trkpt><trkpt lat="49.19419635350622" lon="2.53324018639175"><ele>53.25</ele><time>2026-04-09T13:02:38.999Z</time></trkpt><trkpt lat="49.19423394819727" lon="2.533425542184507"><ele>53.0</ele><time>2026-04-09T13:02:40.999Z</time></trkpt><trkpt lat="49.19424631610468" lon="2.5336062574216105"><ele>53.0</ele><time>2026-04-09T13:02:42.999Z</time></trkpt><trkpt lat="49.19424696900412" lon="2.5337055511435396"><ele>53.0</ele><time>2026-04-09T13:02:43.999Z</time></trkpt><trkpt lat="49.19424281596323" lon="2.533893548653867"><ele>53.0</ele><time>2026-04-09T13:02:45.999Z</time></trkpt><trkpt lat="49.19423007920577" lon="2.5340668602972887"><ele>53.0</ele><time>2026-04-09T13:02:47.999Z</time></trkpt><trkpt lat="49.19422077745681" lon="2.534232954236274"><ele>53.0</ele><time>2026-04-09T13:02:49.999Z</time></trkpt><trkpt lat="49.19421368581909" lon="2.534329437421002"><ele>53.0</ele><time>2026-04-09T13:02:50.999Z</time></trkpt><trkpt lat="49.194208297877324" lon="2.534496137060234"><ele>53.0</ele><time>2026-04-09T13:02:52.999Z</time></trkpt><trkpt lat="49.19420288645421" lon="2.534661002022136"><ele>53.0</ele><time>2026-04-09T13:02:54.999Z</time></trkpt><trkpt lat="49.194195108410355" lon="2.534812286187088"><ele>53.0</ele><time>2026-04-09T13:02:56.999Z</time></trkpt><trkpt lat="49.19418503917669" lon="2.5349812186862986"><ele>53.0</ele><time>2026-04-09T13:02:58.999Z</time></trkpt><trkpt lat="49.19417256446812" lon="2.5351410635703933"><ele>53.4</ele><time>2026-04-09T13:03:00.999Z</time></trkpt><trkpt lat="49.19416503122155" lon="2.5352978366881147"><ele>53.8</ele><time>2026-04-09T13:03:02.999Z</time></trkpt><trkpt lat="49.194159348373226" lon="2.5354542642309106"><ele>54.2</ele><time>2026-04-09T13:03:04.999Z</time></trkpt><trkpt lat="49.194159425779134" lon="2.535604448919968"><ele>54.6</ele><time>2026-04-09T13:03:06.999Z</time></trkpt><trkpt lat="49.19416278125364" lon="2.53574646015843"><ele>55.0</ele><time>2026-04-09T13:03:08.998Z</time></trkpt><trkpt lat="49.19416428432539" lon="2.5358837880939196"><ele>55.0</ele><time>2026-04-09T13:03:10.998Z</time></trkpt><trkpt lat="49.19417093299856" lon="2.536019079826784"><ele>55.0</ele><time>2026-04-09T13:03:12.998Z</time></trkpt><trkpt lat="49.19416391511015" lon="2.5361558436934977"><ele>55.0</ele><time>2026-04-09T13:03:14.998Z</time></trkpt><trkpt lat="49.1941642170442" lon="2.5363060610410035"><ele>55.0</ele><time>2026-04-09T13:03:16.998Z</time></trkpt><trkpt lat="49.19415145648182" lon="2.5364369218931864"><ele>55.0</ele><time>2026-04-09T13:03:18.998Z</time></trkpt><trkpt lat="49.194080905807155" lon="2.536571020572947"><ele>55.0</ele><time>2026-04-09T13:03:20.998Z</time></trkpt><trkpt lat="49.19401644914417" lon="2.5366932932161483"><ele>55.0</ele><time>2026-04-09T13:03:22.998Z</time></trkpt><trkpt lat="49.193945924145" lon="2.536801770924269"><ele>55.0</ele><time>2026-04-09T13:03:24.998Z</time></trkpt><trkpt lat="49.19386670936214" lon="2.5369042213133137"><ele>55.0</ele><time>2026-04-09T13:03:26.998Z</time></trkpt><trkpt lat="49.193796828610296" lon="2.5370125405310255"><ele>55.0</ele><time>2026-04-09T13:03:28.998Z</time></trkpt><trkpt lat="49.19372831946323" lon="2.537129164701807"><ele>55.0</ele><time>2026-04-09T13:03:30.998Z</time></trkpt><trkpt lat="49.19371392753046" lon="2.5372655085147926"><ele>55.0</ele><time>2026-04-09T13:03:32.998Z</time></trkpt><trkpt lat="49.19374883777195" lon="2.5374263756123465"><ele>55.0</ele><time>2026-04-09T13:03:34.998Z</time></trkpt><trkpt lat="49.19377029510822" lon="2.5375968817167776"><ele>55.0</ele><time>2026-04-09T13:03:36.998Z</time></trkpt><trkpt lat="49.193764065477794" lon="2.5377540643236496"><ele>55.0</ele><time>2026-04-09T13:03:38.998Z</time></trkpt><trkpt lat="49.19374690411936" lon="2.537908651150883"><ele>55.0</ele><time>2026-04-09T13:03:40.998Z</time></trkpt><trkpt lat="49.19372734166555" lon="2.5380870606085835"><ele>55.0</ele><time>2026-04-09T13:03:42.997Z</time></trkpt><trkpt lat="49.19372600381372" lon="2.5382805138900983"><ele>55.0</ele><time>2026-04-09T13:03:44.997Z</time></trkpt><trkpt lat="49.19374473786539" lon="2.5384617115324004"><ele>55.0</ele><time>2026-04-09T13:03:46.997Z</time></trkpt><trkpt lat="49.19375420753514" lon="2.538559810210053"><ele>55.0</ele><time>2026-04-09T13:03:47.997Z</time></trkpt><trkpt lat="49.193769601761375" lon="2.5386760310825087"><ele>54.71428571428571</ele><time>2026-04-09T13:03:48.997Z</time></trkpt><trkpt lat="49.193782541635585" lon="2.538774648151408"><ele>54.42857142857143</ele><time>2026-04-09T13:03:49.997Z</time></trkpt><trkpt lat="49.19379674190848" lon="2.5388782273203967"><ele>54.14285714285714</ele><time>2026-04-09T13:03:51Z</time></trkpt><trkpt lat="49.19381462304695" lon="2.538988742453773"><ele>53.857142857142854</ele><time>2026-04-09T13:03:52Z</time></trkpt><trkpt lat="49.193839831052095" lon="2.5391083503090788"><ele>53.57142857142857</ele><time>2026-04-09T13:03:53Z</time></trkpt><trkpt lat="49.193871838766434" lon="2.5392179361227316"><ele>53.285714285714285</ele><time>2026-04-09T13:03:54Z</time></trkpt><trkpt lat="49.19390413096221" lon="2.539327544117107"><ele>53.0</ele><time>2026-04-09T13:03:55Z</time></trkpt><trkpt lat="49.193935429371294" lon="2.539455004488351"><ele>52.8</ele><time>2026-04-09T13:03:56Z</time></trkpt><trkpt lat="49.19397079026027" lon="2.53958865490447"><ele>52.599999999999994</ele><time>2026-04-09T13:03:57Z</time></trkpt><trkpt lat="49.19400624246336" lon="2.539717605202721"><ele>52.400000000000006</ele><time>2026-04-09T13:03:58Z</time></trkpt><trkpt lat="49.19403522742808" lon="2.5398454815740132"><ele>52.2</ele><time>2026-04-09T13:03:59Z</time></trkpt><trkpt lat="49.194061197161375" lon="2.5399804097516494"><ele>52.0</ele><time>2026-04-09T13:04:00Z</time></trkpt><trkpt lat="49.194090573179004" lon="2.5401211997353315"><ele>51.666666666666664</ele><time>2026-04-09T13:04:01Z</time></trkpt><trkpt lat="49.19409978806611" lon="2.5402508935616845"><ele>51.33333333333333</ele><time>2026-04-09T13:04:02Z</time></trkpt><trkpt lat="49.194126223508725" lon="2.540380852715335"><ele>51.0</ele><time>2026-04-09T13:04:03Z</time></trkpt><trkpt lat="49.19415304733239" lon="2.5405123650482313"><ele>50.66666666666667</ele><time>2026-04-09T13:04:04Z</time></trkpt><trkpt lat="49.19418764791262" lon="2.5406326263649768"><ele>50.333333333333336</ele><time>2026-04-09T13:04:05Z</time></trkpt><trkpt lat="49.1942178759465" lon="2.5407683938290315"><ele>50.0</ele><time>2026-04-09T13:04:06Z</time></trkpt><trkpt lat="49.19424340039916" lon="2.5409009415643684"><ele>50.00000000000001</ele><time>2026-04-09T13:04:07Z</time></trkpt><trkpt lat="49.19426995208048" lon="2.54104007418181"><ele>50.0</ele><time>2026-04-09T13:04:08Z</time></trkpt><trkpt lat="49.194296964741326" lon="2.541157389349823"><ele>50.0</ele><time>2026-04-09T13:04:09Z</time></trkpt><trkpt lat="49.19432188412075" lon="2.5412709400882916"><ele>50.0</ele><time>2026-04-09T13:04:10Z</time></trkpt><trkpt lat="49.19433853341553" lon="2.5413752299160977"><ele>50.00000000000001</ele><time>2026-04-09T13:04:11Z</time></trkpt><trkpt lat="49.19436432748518" lon="2.541465847965945"><ele>50.0</ele><time>2026-04-09T13:04:12Z</time></trkpt><trkpt lat="49.1944036758888" lon="2.541631428427928"><ele>50.0</ele><time>2026-04-09T13:04:14Z</time></trkpt><trkpt lat="49.19448644088181" lon="2.541767744197618"><ele>50.0</ele><time>2026-04-09T13:04:16Z</time></trkpt><trkpt lat="49.19457026134942" lon="2.541881787493662"><ele>50.0</ele><time>2026-04-09T13:04:18Z</time></trkpt><trkpt lat="49.1946407836656" lon="2.541982819502553"><ele>50.0</ele><time>2026-04-09T13:04:20Z</time></trkpt><trkpt lat="49.1947113975649" lon="2.542059430121485"><ele>50.0</ele><time>2026-04-09T13:04:22Z</time></trkpt><trkpt lat="49.19477989384313" lon="2.5421168296520573"><ele>50.833333333333336</ele><time>2026-04-09T13:04:24Z</time></trkpt><trkpt lat="49.194842600327235" lon="2.542181908588788"><ele>51.66666666666667</ele><time>2026-04-09T13:04:26Z</time></trkpt><trkpt lat="49.19490701408795" lon="2.542247234162881"><ele>52.5</ele><time>2026-04-09T13:04:28Z</time></trkpt><trkpt lat="49.1949674388013" lon="2.5423238742052714"><ele>53.33333333333333</ele><time>2026-04-09T13:04:30Z</time></trkpt><trkpt lat="49.19502651264881" lon="2.5424001619869228"><ele>54.166666666666664</ele><time>2026-04-09T13:04:32Z</time></trkpt><trkpt lat="49.195090188266796" lon="2.5424686074109966"><ele>55.0</ele><time>2026-04-09T13:04:34Z</time></trkpt><trkpt lat="49.19513904669927" lon="2.542557489137518"><ele>54.99999999999999</ele><time>2026-04-09T13:04:36Z</time></trkpt><trkpt lat="49.195182841514196" lon="2.5426511661813653"><ele>55.0</ele><time>2026-04-09T13:04:38Z</time></trkpt><trkpt lat="49.195203122210586" lon="2.542768517179334"><ele>55.0</ele><time>2026-04-09T13:04:39.999Z</time></trkpt><trkpt lat="49.1952126873908" lon="2.542880099628325"><ele>55.0</ele><time>2026-04-09T13:04:41.999Z</time></trkpt><trkpt lat="49.195221969965026" lon="2.542991490269258"><ele>55.0</ele><time>2026-04-09T13:04:43.999Z</time></trkpt><trkpt lat="49.19521268294957" lon="2.543098859722091"><ele>54.99999999999999</ele><time>2026-04-09T13:04:45.999Z</time></trkpt><trkpt lat="49.19523015501124" lon="2.5432087941365227"><ele>55.0</ele><time>2026-04-09T13:04:47.999Z</time></trkpt><trkpt lat="49.195229714354944" lon="2.5433262329953523"><ele>55.166666666666664</ele><time>2026-04-09T13:04:49.999Z</time></trkpt><trkpt lat="49.19523548025569" lon="2.5434429008272366"><ele>55.33333333333333</ele><time>2026-04-09T13:04:51.999Z</time></trkpt><trkpt lat="49.195233988432335" lon="2.5435655683162133"><ele>55.5</ele><time>2026-04-09T13:04:53.999Z</time></trkpt><trkpt lat="49.195237605655485" lon="2.5436886176356546"><ele>55.66666666666667</ele><time>2026-04-09T13:04:55.999Z</time></trkpt><trkpt lat="49.19524723568586" lon="2.5438182967186402"><ele>55.833333333333336</ele><time>2026-04-09T13:04:57.999Z</time></trkpt><trkpt lat="49.1952427764346" lon="2.543953494119662"><ele>56.0</ele><time>2026-04-09T13:04:59.999Z</time></trkpt><trkpt lat="49.195246932492395" lon="2.5440954622767618"><ele>56.0</ele><time>2026-04-09T13:05:01.999Z</time></trkpt><trkpt lat="49.19525222625444" lon="2.5442394819332126"><ele>55.99999999999999</ele><time>2026-04-09T13:05:03.999Z</time></trkpt><trkpt lat="49.19525853252283" lon="2.5443860297927694"><ele>55.99999999999999</ele><time>2026-04-09T13:05:05.999Z</time></trkpt><trkpt lat="49.195262404411494" lon="2.544542718323774"><ele>56.0</ele><time>2026-04-09T13:05:07.999Z</time></trkpt><trkpt lat="49.19527320252491" lon="2.544704789043662"><ele>56.0</ele><time>2026-04-09T13:05:09.999Z</time></trkpt><trkpt lat="49.19528062980484" lon="2.5448590962535707"><ele>55.8</ele><time>2026-04-09T13:05:11.999Z</time></trkpt><trkpt lat="49.19528657154438" lon="2.545032863510163"><ele>55.599999999999994</ele><time>2026-04-09T13:05:13.998Z</time></trkpt><trkpt lat="49.19528360226791" lon="2.5451751036939636"><ele>55.4</ele><time>2026-04-09T13:05:15.998Z</time></trkpt><trkpt lat="49.19528738539522" lon="2.545348087155272"><ele>55.2</ele><time>2026-04-09T13:05:17.998Z</time></trkpt><trkpt lat="49.19530230177724" lon="2.5455238926717887"><ele>55.0</ele><time>2026-04-09T13:05:19.998Z</time></trkpt><trkpt lat="49.19531469996885" lon="2.545636283046859"><ele>55.0</ele><time>2026-04-09T13:05:20.998Z</time></trkpt><trkpt lat="49.195300051798526" lon="2.5457740770535358"><ele>55.0</ele><time>2026-04-09T13:05:22.998Z</time></trkpt><trkpt lat="49.195297633591395" lon="2.5459387826665734"><ele>55.0</ele><time>2026-04-09T13:05:24.998Z</time></trkpt><trkpt lat="49.19529741343739" lon="2.546110023053525"><ele>55.0</ele><time>2026-04-09T13:05:26.998Z</time></trkpt><trkpt lat="49.19530531814355" lon="2.546263754633211"><ele>55.0</ele><time>2026-04-09T13:05:28.998Z</time></trkpt><trkpt lat="49.19531204381028" lon="2.5464324789096766"><ele>55.4</ele><time>2026-04-09T13:05:30.998Z</time></trkpt><trkpt lat="49.19531879554261" lon="2.5466016939054037"><ele>55.8</ele><time>2026-04-09T13:05:32.998Z</time></trkpt><trkpt lat="49.19533056797312" lon="2.5467657452044246"><ele>56.2</ele><time>2026-04-09T13:05:34.998Z</time></trkpt><trkpt lat="49.19533545983503" lon="2.54692212246679"><ele>56.6</ele><time>2026-04-09T13:05:36.998Z</time></trkpt><trkpt lat="49.19533141522114" lon="2.5470846318467184"><ele>57.0</ele><time>2026-04-09T13:05:38.998Z</time></trkpt><trkpt lat="49.19534249552605" lon="2.5472388203417986"><ele>57.0</ele><time>2026-04-09T13:05:40.998Z</time></trkpt><trkpt lat="49.19534241312346" lon="2.547399680623785"><ele>57.0</ele><time>2026-04-09T13:05:42.998Z</time></trkpt><trkpt lat="49.195347012841005" lon="2.5475421087423165"><ele>57.0</ele><time>2026-04-09T13:05:44.998Z</time></trkpt><trkpt lat="49.195357360046515" lon="2.547707804903165"><ele>57.0</ele><time>2026-04-09T13:05:46.998Z</time></trkpt><trkpt lat="49.19535936861123" lon="2.5478683493125476"><ele>57.0</ele><time>2026-04-09T13:05:48.997Z</time></trkpt><trkpt lat="49.195375677235525" lon="2.5480380085062886"><ele>56.8</ele><time>2026-04-09T13:05:50.997Z</time></trkpt><trkpt lat="49.19538077916863" lon="2.5482024747441288"><ele>56.6</ele><time>2026-04-09T13:05:52.997Z</time></trkpt><trkpt lat="49.195385074169316" lon="2.5483685556143363"><ele>56.39999999999999</ele><time>2026-04-09T13:05:54.997Z</time></trkpt><trkpt lat="49.19538814471983" lon="2.548535851238685"><ele>56.199999999999996</ele><time>2026-04-09T13:05:57.001Z</time></trkpt><trkpt lat="49.195393212580356" lon="2.548710400110374"><ele>56.0</ele><time>2026-04-09T13:05:59.001Z</time></trkpt><trkpt lat="49.19540343911005" lon="2.5488800234256943"><ele>56.0</ele><time>2026-04-09T13:06:01.001Z</time></trkpt><trkpt lat="49.19541373834755" lon="2.5490505559866303"><ele>55.99999999999999</ele><time>2026-04-09T13:06:03.001Z</time></trkpt><trkpt lat="49.19541935193871" lon="2.5492161281718806"><ele>55.99999999999999</ele><time>2026-04-09T13:06:05.001Z</time></trkpt><trkpt lat="49.19542792270292" lon="2.549382498636518"><ele>56.0</ele><time>2026-04-09T13:06:07.001Z</time></trkpt><trkpt lat="49.19543842869072" lon="2.5495572743159483"><ele>56.0</ele><time>2026-04-09T13:06:09.001Z</time></trkpt><trkpt lat="49.195446326143376" lon="2.549725361064088"><ele>56.0</ele><time>2026-04-09T13:06:11.001Z</time></trkpt><trkpt lat="49.19545215077332" lon="2.5498812596445486"><ele>55.99999999999999</ele><time>2026-04-09T13:06:13Z</time></trkpt><trkpt lat="49.195463098704664" lon="2.550056434904632"><ele>55.99999999999999</ele><time>2026-04-09T13:06:15Z</time></trkpt><trkpt lat="49.195467691413356" lon="2.5502163132666613"><ele>56.0</ele><time>2026-04-09T13:06:17Z</time></trkpt><trkpt lat="49.195481730976454" lon="2.550380920020178"><ele>56.0</ele><time>2026-04-09T13:06:19Z</time></trkpt><trkpt lat="49.19549316276356" lon="2.5505429945968214"><ele>56.0</ele><time>2026-04-09T13:06:21Z</time></trkpt><trkpt lat="49.19550950232325" lon="2.550703605549636"><ele>55.99999999999999</ele><time>2026-04-09T13:06:23Z</time></trkpt><trkpt lat="49.195522077111605" lon="2.5508692731280127"><ele>55.99999999999999</ele><time>2026-04-09T13:06:25Z</time></trkpt><trkpt lat="49.19554227267107" lon="2.5510356257260787"><ele>56.0</ele><time>2026-04-09T13:06:27Z</time></trkpt><trkpt lat="49.19556160049531" lon="2.551200121191609"><ele>56.0</ele><time>2026-04-09T13:06:29Z</time></trkpt><trkpt lat="49.195592135004745" lon="2.5513736514577094"><ele>56.0</ele><time>2026-04-09T13:06:31Z</time></trkpt><trkpt lat="49.19561836394501" lon="2.5515352049117523"><ele>55.99999999999999</ele><time>2026-04-09T13:06:33Z</time></trkpt><trkpt lat="49.195632732632134" lon="2.5516322262747844"><ele>55.99999999999999</ele><time>2026-04-09T13:06:34Z</time></trkpt><trkpt lat="49.19565684860031" lon="2.5518159116125"><ele>56.0</ele><time>2026-04-09T13:06:36Z</time></trkpt><trkpt lat="49.19569484116016" lon="2.55199117565755"><ele>56.0</ele><time>2026-04-09T13:06:38Z</time></trkpt><trkpt lat="49.19571319811378" lon="2.552086960486604"><ele>55.57142857142857</ele><time>2026-04-09T13:06:39Z</time></trkpt><trkpt lat="49.195740341214076" lon="2.5521752513750315"><ele>55.14285714285714</ele><time>2026-04-09T13:06:40Z</time></trkpt><trkpt lat="49.19576770326784" lon="2.552273824919382"><ele>54.714285714285715</ele><time>2026-04-09T13:06:41Z</time></trkpt><trkpt lat="49.19579869706896" lon="2.5523725996877378"><ele>54.285714285714285</ele><time>2026-04-09T13:06:42Z</time></trkpt><trkpt lat="49.19582478760408" lon="2.552478850777547"><ele>53.857142857142854</ele><time>2026-04-09T13:06:43Z</time></trkpt><trkpt lat="49.195852924676394" lon="2.552585664116202"><ele>53.42857142857143</ele><time>2026-04-09T13:06:44Z</time></trkpt><trkpt lat="49.19588966620726" lon="2.5526906061138326"><ele>53.0</ele><time>2026-04-09T13:06:45Z</time></trkpt><trkpt lat="49.195925329155095" lon="2.5527923806086146"><ele>52.833333333333336</ele><time>2026-04-09T13:06:45.999Z</time></trkpt><trkpt lat="49.195954994703754" lon="2.552908798714485"><ele>52.66666666666667</ele><time>2026-04-09T13:06:46.999Z</time></trkpt><trkpt lat="49.19598330380826" lon="2.553020503644636"><ele>52.5</ele><time>2026-04-09T13:06:47.999Z</time></trkpt><trkpt lat="49.196017083182994" lon="2.553139382049664"><ele>52.33333333333333</ele><time>2026-04-09T13:06:48.999Z</time></trkpt><trkpt lat="49.19603851433113" lon="2.553263741372692"><ele>52.166666666666664</ele><time>2026-04-09T13:06:49.999Z</time></trkpt><trkpt lat="49.19604823231686" lon="2.5533925871183847"><ele>52.0</ele><time>2026-04-09T13:06:50.999Z</time></trkpt><trkpt lat="49.19605007412696" lon="2.553522170249479"><ele>51.99999999999999</ele><time>2026-04-09T13:06:51.999Z</time></trkpt><trkpt lat="49.19605171967451" lon="2.5536511813129055"><ele>52.0</ele><time>2026-04-09T13:06:52.999Z</time></trkpt><trkpt lat="49.196046725617585" lon="2.5537774328877214"><ele>52.0</ele><time>2026-04-09T13:06:53.999Z</time></trkpt><trkpt lat="49.19603697555632" lon="2.553893452444191"><ele>52.0</ele><time>2026-04-09T13:06:54.999Z</time></trkpt><trkpt lat="49.196025713019246" lon="2.554013899249942"><ele>51.99999999999999</ele><time>2026-04-09T13:06:55.999Z</time></trkpt><trkpt lat="49.19601561379836" lon="2.554127681917062"><ele>52.0</ele><time>2026-04-09T13:06:56.999Z</time></trkpt><trkpt lat="49.19600240233997" lon="2.554241646975221"><ele>51.857142857142854</ele><time>2026-04-09T13:06:57.999Z</time></trkpt><trkpt lat="49.1959897063219" lon="2.5543563540904386"><ele>51.714285714285715</ele><time>2026-04-09T13:06:58.999Z</time></trkpt><trkpt lat="49.19597484062838" lon="2.554468654282283"><ele>51.57142857142857</ele><time>2026-04-09T13:06:59.999Z</time></trkpt><trkpt lat="49.19595842914519" lon="2.5545792376574474"><ele>51.42857142857143</ele><time>2026-04-09T13:07:00.999Z</time></trkpt><trkpt lat="49.195942818041196" lon="2.554683608989471"><ele>51.28571428571429</ele><time>2026-04-09T13:07:01.999Z</time></trkpt><trkpt lat="49.19592798552542" lon="2.554792348035207"><ele>51.142857142857146</ele><time>2026-04-09T13:07:02.999Z</time></trkpt><trkpt lat="49.19590447614179" lon="2.5549003733605486"><ele>51.0</ele><time>2026-04-09T13:07:03.999Z</time></trkpt><trkpt lat="49.195880550367484" lon="2.5551004109372175"><ele>51.0</ele><time>2026-04-09T13:07:05.999Z</time></trkpt><trkpt lat="49.1958734513839" lon="2.5552092743854162"><ele>51.0</ele><time>2026-04-09T13:07:06.999Z</time></trkpt><trkpt lat="49.19585695907961" lon="2.555306076685716"><ele>51.0</ele><time>2026-04-09T13:07:07.999Z</time></trkpt><trkpt lat="49.195849850066004" lon="2.5554072872716156"><ele>51.0</ele><time>2026-04-09T13:07:08.999Z</time></trkpt><trkpt lat="49.19583788266543" lon="2.5555024516244025"><ele>51.0</ele><time>2026-04-09T13:07:09.999Z</time></trkpt><trkpt lat="49.19581193437203" lon="2.5556854944774887"><ele>51.0</ele><time>2026-04-09T13:07:11.999Z</time></trkpt><trkpt lat="49.19579046393148" lon="2.555875592286832"><ele>50.4</ele><time>2026-04-09T13:07:13.999Z</time></trkpt><trkpt lat="49.195769565333556" lon="2.5560588948146146"><ele>49.8</ele><time>2026-04-09T13:07:15.999Z</time></trkpt><trkpt lat="49.19574389680848" lon="2.556241159874725"><ele>49.199999999999996</ele><time>2026-04-09T13:07:17.999Z</time></trkpt><trkpt lat="49.19572637382048" lon="2.5564296345363875"><ele>48.599999999999994</ele><time>2026-04-09T13:07:19.998Z</time></trkpt><trkpt lat="49.19571485945817" lon="2.5565245603989757"><ele>48.0</ele><time>2026-04-09T13:07:20.998Z</time></trkpt><trkpt lat="49.19569103775535" lon="2.5567117365452234"><ele>48.666666666666664</ele><time>2026-04-09T13:07:22.998Z</time></trkpt><trkpt lat="49.19566444402604" lon="2.556897748926032"><ele>49.33333333333333</ele><time>2026-04-09T13:07:24.998Z</time></trkpt><trkpt lat="49.19563649830725" lon="2.557090335980679"><ele>50.0</ele><time>2026-04-09T13:07:26.998Z</time></trkpt><trkpt lat="49.195622035087524" lon="2.557186311324607"><ele>50.666666666666664</ele><time>2026-04-09T13:07:27.998Z</time></trkpt><trkpt lat="49.19560523725171" lon="2.5572801189397874"><ele>51.33333333333333</ele><time>2026-04-09T13:07:28.998Z</time></trkpt><trkpt lat="49.195595736306984" lon="2.5573788123015273"><ele>52.0</ele><time>2026-04-09T13:07:29.998Z</time></trkpt><trkpt lat="49.195590217981476" lon="2.5574758581577446"><ele>52.2</ele><time>2026-04-09T13:07:30.998Z</time></trkpt><trkpt lat="49.19558142512585" lon="2.5576651033688456"><ele>52.400000000000006</ele><time>2026-04-09T13:07:32.998Z</time></trkpt><trkpt lat="49.19558174088466" lon="2.557848284043535"><ele>52.599999999999994</ele><time>2026-04-09T13:07:34.998Z</time></trkpt><trkpt lat="49.195591497687936" lon="2.5580343732749826"><ele>52.8</ele><time>2026-04-09T13:07:36.998Z</time></trkpt><trkpt lat="49.195594087254285" lon="2.5581317703320003"><ele>53.0</ele><time>2026-04-09T13:07:37.998Z</time></trkpt><trkpt lat="49.19559929513782" lon="2.558312998507757"><ele>53.0</ele><time>2026-04-09T13:07:39.998Z</time></trkpt><trkpt lat="49.195612618059414" lon="2.558501761206229"><ele>53.0</ele><time>2026-04-09T13:07:41.998Z</time></trkpt><trkpt lat="49.19561696176184" lon="2.55868850178759"><ele>53.0</ele><time>2026-04-09T13:07:43.998Z</time></trkpt><trkpt lat="49.19562215155607" lon="2.5588714235508987"><ele>53.0</ele><time>2026-04-09T13:07:45.998Z</time></trkpt><trkpt lat="49.195629413552055" lon="2.5590522758989356"><ele>53.0</ele><time>2026-04-09T13:07:47.998Z</time></trkpt><trkpt lat="49.1956378737649" lon="2.5592351335538814"><ele>53.0</ele><time>2026-04-09T13:07:49.998Z</time></trkpt><trkpt lat="49.195635339990666" lon="2.5594175793342373"><ele>53.0</ele><time>2026-04-09T13:07:51.998Z</time></trkpt><trkpt lat="49.19564228923246" lon="2.5596009560049495"><ele>53.0</ele><time>2026-04-09T13:07:53.997Z</time></trkpt><trkpt lat="49.1956359847221" lon="2.559766073602017"><ele>53.0</ele><time>2026-04-09T13:07:55.997Z</time></trkpt><trkpt lat="49.19564716481553" lon="2.5599457038574744"><ele>53.0</ele><time>2026-04-09T13:07:57.997Z</time></trkpt><trkpt lat="49.1956501156977" lon="2.560122431186765"><ele>53.0</ele><time>2026-04-09T13:07:59.997Z</time></trkpt><trkpt lat="49.19565054997275" lon="2.56029408919665"><ele>53.0</ele><time>2026-04-09T13:08:01.997Z</time></trkpt><trkpt lat="49.195653403241344" lon="2.5604692527327044"><ele>53.2</ele><time>2026-04-09T13:08:04.001Z</time></trkpt><trkpt lat="49.195663116778725" lon="2.5606582341304676"><ele>53.4</ele><time>2026-04-09T13:08:06.001Z</time></trkpt><trkpt lat="49.19566924142706" lon="2.560754127952643"><ele>53.60000000000001</ele><time>2026-04-09T13:08:07.001Z</time></trkpt><trkpt lat="49.19567854009602" lon="2.5609438409527736"><ele>53.800000000000004</ele><time>2026-04-09T13:08:09.001Z</time></trkpt><trkpt lat="49.19568881756298" lon="2.5611263193692824"><ele>54.0</ele><time>2026-04-09T13:08:11.001Z</time></trkpt><trkpt lat="49.19570877435739" lon="2.5613103108960726"><ele>54.0</ele><time>2026-04-09T13:08:13.001Z</time></trkpt><trkpt lat="49.195732012393385" lon="2.561401464104917"><ele>54.00000000000001</ele><time>2026-04-09T13:08:14Z</time></trkpt><trkpt lat="49.1957648716366" lon="2.5615712727093833"><ele>54.00000000000001</ele><time>2026-04-09T13:08:16.001Z</time></trkpt><trkpt lat="49.195804390876845" lon="2.5616804326116505"><ele>54.0</ele><time>2026-04-09T13:08:17Z</time></trkpt><trkpt lat="49.19586534428408" lon="2.5618372639343603"><ele>54.0</ele><time>2026-04-09T13:08:19Z</time></trkpt><trkpt lat="49.195926262590085" lon="2.5620072743772124"><ele>54.0</ele><time>2026-04-09T13:08:21Z</time></trkpt><trkpt lat="49.19595896108037" lon="2.562095111643788"><ele>54.00000000000001</ele><time>2026-04-09T13:08:22Z</time></trkpt><trkpt lat="49.19601349353873" lon="2.5622528543401515"><ele>54.00000000000001</ele><time>2026-04-09T13:08:24Z</time></trkpt><trkpt lat="49.19606751346691" lon="2.5624144429480404"><ele>54.0</ele><time>2026-04-09T13:08:26Z</time></trkpt><trkpt lat="49.1961132590918" lon="2.562550294120875"><ele>54.0</ele><time>2026-04-09T13:08:28Z</time></trkpt><trkpt lat="49.1961551331156" lon="2.5626796863194654"><ele>54.0</ele><time>2026-04-09T13:08:30Z</time></trkpt><trkpt lat="49.196196436321195" lon="2.5628188484081695"><ele>54.00000000000001</ele><time>2026-04-09T13:08:32Z</time></trkpt><trkpt lat="49.19622643086929" lon="2.56296987451532"><ele>54.00000000000001</ele><time>2026-04-09T13:08:34Z</time></trkpt><trkpt lat="49.1962495674092" lon="2.5631300800784107"><ele>54.0</ele><time>2026-04-09T13:08:36Z</time></trkpt><trkpt lat="49.19630032530203" lon="2.563275831639587"><ele>54.0</ele><time>2026-04-09T13:08:38Z</time></trkpt><trkpt lat="49.19632633063045" lon="2.5634181294751075"><ele>54.400000000000006</ele><time>2026-04-09T13:08:40Z</time></trkpt><trkpt lat="49.19635750786218" lon="2.563573333816204"><ele>54.800000000000004</ele><time>2026-04-09T13:08:42Z</time></trkpt><trkpt lat="49.19639680858979" lon="2.5636999836288057"><ele>55.199999999999996</ele><time>2026-04-09T13:08:44Z</time></trkpt><trkpt lat="49.19642517542939" lon="2.563839755919708"><ele>55.599999999999994</ele><time>2026-04-09T13:08:46Z</time></trkpt><trkpt lat="49.19644713320952" lon="2.5639846421657113"><ele>56.0</ele><time>2026-04-09T13:08:48Z</time></trkpt><trkpt lat="49.196486461616516" lon="2.5641289290544287"><ele>54.8</ele><time>2026-04-09T13:08:49.999Z</time></trkpt><trkpt lat="49.19651208990754" lon="2.5642791324675382"><ele>53.599999999999994</ele><time>2026-04-09T13:08:51.999Z</time></trkpt><trkpt lat="49.19653506552478" lon="2.5644285491934435"><ele>52.4</ele><time>2026-04-09T13:08:53.999Z</time></trkpt><trkpt lat="49.19655180803711" lon="2.5645843218531"><ele>51.2</ele><time>2026-04-09T13:08:55.999Z</time></trkpt><trkpt lat="49.19656506184239" lon="2.5647474609765264"><ele>50.0</ele><time>2026-04-09T13:08:57.999Z</time></trkpt><trkpt lat="49.196569411572206" lon="2.5649070298647287"><ele>50.0</ele><time>2026-04-09T13:08:59.999Z</time></trkpt><trkpt lat="49.19654126983628" lon="2.5650656343711074"><ele>50.0</ele><time>2026-04-09T13:09:01.999Z</time></trkpt><trkpt lat="49.19650419156061" lon="2.565221275099693"><ele>50.0</ele><time>2026-04-09T13:09:03.999Z</time></trkpt><trkpt lat="49.196468596715526" lon="2.56537470504392"><ele>50.0</ele><time>2026-04-09T13:09:05.999Z</time></trkpt><trkpt lat="49.19642667496938" lon="2.565528982827347"><ele>50.0</ele><time>2026-04-09T13:09:07.999Z</time></trkpt><trkpt lat="49.19639266638333" lon="2.5656690904943114"><ele>50.4</ele><time>2026-04-09T13:09:09.999Z</time></trkpt><trkpt lat="49.19634536823007" lon="2.5658146600565512"><ele>50.8</ele><time>2026-04-09T13:09:11.999Z</time></trkpt><trkpt lat="49.196305220109565" lon="2.5659752523590678"><ele>51.2</ele><time>2026-04-09T13:09:13.999Z</time></trkpt><trkpt lat="49.196253387340114" lon="2.5661232804582084"><ele>51.6</ele><time>2026-04-09T13:09:15.999Z</time></trkpt><trkpt lat="49.1962154824857" lon="2.5662686118421227"><ele>52.0</ele><time>2026-04-09T13:09:17.999Z</time></trkpt><trkpt lat="49.19617662467038" lon="2.566425956135395"><ele>52.0</ele><time>2026-04-09T13:09:19.999Z</time></trkpt><trkpt lat="49.196132378150445" lon="2.566583953423108"><ele>52.0</ele><time>2026-04-09T13:09:21.999Z</time></trkpt><trkpt lat="49.1960900120968" lon="2.566731438069729"><ele>52.0</ele><time>2026-04-09T13:09:23.998Z</time></trkpt><trkpt lat="49.19606561961237" lon="2.566823403892577"><ele>52.0</ele><time>2026-04-09T13:09:24.998Z</time></trkpt><trkpt lat="49.196020220331114" lon="2.5669747793181954"><ele>52.0</ele><time>2026-04-09T13:09:26.998Z</time></trkpt><trkpt lat="49.19598428828964" lon="2.5671360837975046"><ele>52.0</ele><time>2026-04-09T13:09:28.998Z</time></trkpt><trkpt lat="49.19596924888954" lon="2.567300189668821"><ele>52.0</ele><time>2026-04-09T13:09:30.998Z</time></trkpt><trkpt lat="49.1959829544329" lon="2.5674615252936337"><ele>52.0</ele><time>2026-04-09T13:09:32.998Z</time></trkpt><trkpt lat="49.19601819440208" lon="2.567615429087314"><ele>52.0</ele><time>2026-04-09T13:09:34.998Z</time></trkpt><trkpt lat="49.19606214223387" lon="2.5677721673334966"><ele>52.0</ele><time>2026-04-09T13:09:36.998Z</time></trkpt><trkpt lat="49.19610034392134" lon="2.567935407176921"><ele>52.400000000000006</ele><time>2026-04-09T13:09:38.998Z</time></trkpt><trkpt lat="49.19613975341697" lon="2.5680943077929563"><ele>52.800000000000004</ele><time>2026-04-09T13:09:40.998Z</time></trkpt><trkpt lat="49.196162130725334" lon="2.568184418500208"><ele>53.2</ele><time>2026-04-09T13:09:41.998Z</time></trkpt><trkpt lat="49.19620334760916" lon="2.568344184252205"><ele>53.6</ele><time>2026-04-09T13:09:43.998Z</time></trkpt><trkpt lat="49.196240542182146" lon="2.568505471367521"><ele>54.0</ele><time>2026-04-09T13:09:45.998Z</time></trkpt><trkpt lat="49.19628902608231" lon="2.5686575956075304"><ele>54.0</ele><time>2026-04-09T13:09:47.998Z</time></trkpt><trkpt lat="49.196312195829805" lon="2.568824284221427"><ele>54.00000000000001</ele><time>2026-04-09T13:09:49.998Z</time></trkpt><trkpt lat="49.196354395726196" lon="2.5689767491852735"><ele>54.00000000000001</ele><time>2026-04-09T13:09:51.998Z</time></trkpt><trkpt lat="49.19638746200791" lon="2.569138568624042"><ele>54.0</ele><time>2026-04-09T13:09:53.998Z</time></trkpt><trkpt lat="49.196426001733016" lon="2.5693016166537044"><ele>54.0</ele><time>2026-04-09T13:09:55.998Z</time></trkpt><trkpt lat="49.19646004087277" lon="2.5694651413692746"><ele>53.666666666666664</ele><time>2026-04-09T13:09:57.997Z</time></trkpt><trkpt lat="49.19650404049212" lon="2.569546985058884"><ele>53.33333333333333</ele><time>2026-04-09T13:09:58.997Z</time></trkpt><trkpt lat="49.19651935823266" lon="2.569649329611796"><ele>53.0</ele><time>2026-04-09T13:09:59.997Z</time></trkpt><trkpt lat="49.19650371323429" lon="2.5698121493212693"><ele>52.666666666666664</ele><time>2026-04-09T13:10:01.997Z</time></trkpt><trkpt lat="49.19644731594356" lon="2.569886168091747"><ele>52.33333333333333</ele><time>2026-04-09T13:10:02.997Z</time></trkpt><trkpt lat="49.19643598870395" lon="2.5700529776166197"><ele>52.0</ele><time>2026-04-09T13:10:04.997Z</time></trkpt><trkpt lat="49.19642436707654" lon="2.570218505582229"><ele>52.0</ele><time>2026-04-09T13:10:06.997Z</time></trkpt><trkpt lat="49.19641637980062" lon="2.570375851685412"><ele>52.0</ele><time>2026-04-09T13:10:09Z</time></trkpt><trkpt lat="49.196406888734536" lon="2.570536601951919"><ele>52.0</ele><time>2026-04-09T13:10:11Z</time></trkpt><trkpt lat="49.19641317729536" lon="2.570693718532653"><ele>52.0</ele><time>2026-04-09T13:10:13Z</time></trkpt><trkpt lat="49.1964161502901" lon="2.57085970118922"><ele>52.0</ele><time>2026-04-09T13:10:15Z</time></trkpt><trkpt lat="49.196422201694276" lon="2.5710294715425674"><ele>52.0</ele><time>2026-04-09T13:10:17Z</time></trkpt><trkpt lat="49.196414763715445" lon="2.571215126407116"><ele>52.0</ele><time>2026-04-09T13:10:19Z</time></trkpt><trkpt lat="49.19638523424319" lon="2.5713890962994705"><ele>52.0</ele><time>2026-04-09T13:10:21Z</time></trkpt><trkpt lat="49.19636624418903" lon="2.5715597136795783"><ele>52.0</ele><time>2026-04-09T13:10:23Z</time></trkpt><trkpt lat="49.19634813098065" lon="2.5717265465224335"><ele>52.0</ele><time>2026-04-09T13:10:25Z</time></trkpt><trkpt lat="49.196326789998096" lon="2.5719001407973887"><ele>52.0</ele><time>2026-04-09T13:10:27Z</time></trkpt><trkpt lat="49.19630958828033" lon="2.572069494143699"><ele>52.0</ele><time>2026-04-09T13:10:29Z</time></trkpt><trkpt lat="49.19629226436274" lon="2.572236716427925"><ele>52.0</ele><time>2026-04-09T13:10:31Z</time></trkpt><trkpt lat="49.19627466297158" lon="2.5723992989831608"><ele>52.0</ele><time>2026-04-09T13:10:33Z</time></trkpt><trkpt lat="49.19625710510228" lon="2.572565303473035"><ele>52.2</ele><time>2026-04-09T13:10:35Z</time></trkpt><trkpt lat="49.1962348188578" lon="2.5727327188874263"><ele>52.400000000000006</ele><time>2026-04-09T13:10:37Z</time></trkpt><trkpt lat="49.19621523365523" lon="2.572898693143526"><ele>52.599999999999994</ele><time>2026-04-09T13:10:39Z</time></trkpt><trkpt lat="49.19619527670149" lon="2.573061489594105"><ele>52.8</ele><time>2026-04-09T13:10:41Z</time></trkpt><trkpt lat="49.196174352756245" lon="2.5732275316434663"><ele>53.0</ele><time>2026-04-09T13:10:43Z</time></trkpt><trkpt lat="49.196152480375034" lon="2.5733968644009386"><ele>53.0</ele><time>2026-04-09T13:10:45Z</time></trkpt><trkpt lat="49.19613279665315" lon="2.5735625881419235"><ele>53.0</ele><time>2026-04-09T13:10:47Z</time></trkpt><trkpt lat="49.19611644534958" lon="2.573721380968694"><ele>53.0</ele><time>2026-04-09T13:10:49Z</time></trkpt><trkpt lat="49.19609532446174" lon="2.5738905444210913"><ele>53.0</ele><time>2026-04-09T13:10:51Z</time></trkpt><trkpt lat="49.19607684755096" lon="2.574051676449052"><ele>53.0</ele><time>2026-04-09T13:10:53Z</time></trkpt><trkpt lat="49.19605518266604" lon="2.5742119072050493"><ele>53.0</ele><time>2026-04-09T13:10:55Z</time></trkpt><trkpt lat="49.19603940751949" lon="2.574379143481886"><ele>53.0</ele><time>2026-04-09T13:10:56.999Z</time></trkpt><trkpt lat="49.19601574328867" lon="2.5745486982768275"><ele>53.0</ele><time>2026-04-09T13:10:58.999Z</time></trkpt><trkpt lat="49.19599261047216" lon="2.5747219166651907"><ele>53.0</ele><time>2026-04-09T13:11:00.999Z</time></trkpt><trkpt lat="49.19596749043406" lon="2.5748874587038384"><ele>52.75</ele><time>2026-04-09T13:11:02.999Z</time></trkpt><trkpt lat="49.19594168214788" lon="2.575062852730962"><ele>52.5</ele><time>2026-04-09T13:11:04.999Z</time></trkpt><trkpt lat="49.195907643631394" lon="2.5752307827274605"><ele>52.25</ele><time>2026-04-09T13:11:06.999Z</time></trkpt><trkpt lat="49.19589896071678" lon="2.5754091166422635"><ele>52.0</ele><time>2026-04-09T13:11:08.999Z</time></trkpt><trkpt lat="49.195852365552355" lon="2.5755780483299096"><ele>52.5</ele><time>2026-04-09T13:11:10.999Z</time></trkpt><trkpt lat="49.19581322826823" lon="2.5757509655931536"><ele>53.0</ele><time>2026-04-09T13:11:12.999Z</time></trkpt><trkpt lat="49.195772577025316" lon="2.575927207366214"><ele>53.5</ele><time>2026-04-09T13:11:14.999Z</time></trkpt><trkpt lat="49.19573411457641" lon="2.5761036795456307"><ele>54.0</ele><time>2026-04-09T13:11:16.999Z</time></trkpt><trkpt lat="49.19569672694106" lon="2.576274324820204"><ele>54.25</ele><time>2026-04-09T13:11:18.999Z</time></trkpt><trkpt lat="49.19566144558647" lon="2.576454383515208"><ele>54.5</ele><time>2026-04-09T13:11:20.999Z</time></trkpt><trkpt lat="49.19563960934677" lon="2.576620866935754"><ele>54.75</ele><time>2026-04-09T13:11:22.999Z</time></trkpt><trkpt lat="49.195591293254324" lon="2.576779652971563"><ele>55.0</ele><time>2026-04-09T13:11:24.999Z</time></trkpt><trkpt lat="49.195566864417934" lon="2.5769322726122557"><ele>54.99999999999999</ele><time>2026-04-09T13:11:26.999Z</time></trkpt><trkpt lat="49.19560613912234" lon="2.5770579918226217"><ele>55.0</ele><time>2026-04-09T13:11:28.999Z</time></trkpt><trkpt lat="49.195668076883585" lon="2.577114761079868"><ele>55.0</ele><time>2026-04-09T13:11:30.998Z</time></trkpt><trkpt lat="49.195757917682364" lon="2.5771430956743147"><ele>55.0</ele><time>2026-04-09T13:11:32.998Z</time></trkpt><trkpt lat="49.19583806237289" lon="2.5772009306943904"><ele>54.99999999999999</ele><time>2026-04-09T13:11:34.998Z</time></trkpt><trkpt lat="49.19592273220183" lon="2.577256475921084"><ele>55.0</ele><time>2026-04-09T13:11:36.998Z</time></trkpt><trkpt lat="49.196010277598795" lon="2.577314074409953"><ele>55.0</ele><time>2026-04-09T13:11:38.998Z</time></trkpt><trkpt lat="49.19609874688262" lon="2.5773716497472763"><ele>55.0</ele><time>2026-04-09T13:11:40.998Z</time></trkpt><trkpt lat="49.19618934955479" lon="2.5774323059150297"><ele>55.0</ele><time>2026-04-09T13:11:42.998Z</time></trkpt><trkpt lat="49.19627102983627" lon="2.577490931674883"><ele>55.0</ele><time>2026-04-09T13:11:44.998Z</time></trkpt><trkpt lat="49.196362029379785" lon="2.5775497148985056"><ele>55.0</ele><time>2026-04-09T13:11:46.998Z</time></trkpt><trkpt lat="49.19644904904885" lon="2.5776044558070432"><ele>54.99999999999999</ele><time>2026-04-09T13:11:48.998Z</time></trkpt><trkpt lat="49.19652827512733" lon="2.5776624977272604"><ele>55.0</ele><time>2026-04-09T13:11:50.998Z</time></trkpt><trkpt lat="49.196601650268995" lon="2.5777168696929715"><ele>55.0</ele><time>2026-04-09T13:11:52.998Z</time></trkpt><trkpt lat="49.19668758805004" lon="2.5777654488844703"><ele>55.0</ele><time>2026-04-09T13:11:54.998Z</time></trkpt><trkpt lat="49.1967393299024" lon="2.5778771018097832"><ele>54.99999999999999</ele><time>2026-04-09T13:11:56.998Z</time></trkpt><trkpt lat="49.19681789852221" lon="2.5779290614461834"><ele>55.0</ele><time>2026-04-09T13:11:58.998Z</time></trkpt><trkpt lat="49.19689337056632" lon="2.577978973277027"><ele>54.99999999999999</ele><time>2026-04-09T13:12:00.998Z</time></trkpt><trkpt lat="49.196969235326804" lon="2.5780291447048156"><ele>55.0</ele><time>2026-04-09T13:12:02.998Z</time></trkpt><trkpt lat="49.19704167042894" lon="2.5780770481351025"><ele>55.0</ele><time>2026-04-09T13:12:04.997Z</time></trkpt><trkpt lat="49.197117288906064" lon="2.578127056721038"><ele>55.0</ele><time>2026-04-09T13:12:06.997Z</time></trkpt><trkpt lat="49.19719037493222" lon="2.5781753905190206"><ele>54.99999999999999</ele><time>2026-04-09T13:12:08.997Z</time></trkpt><trkpt lat="49.1972655987822" lon="2.578225056141673"><ele>55.0</ele><time>2026-04-09T13:12:10.997Z</time></trkpt><trkpt lat="49.19733847301466" lon="2.5782731270532917"><ele>55.166666666666664</ele><time>2026-04-09T13:12:12.997Z</time></trkpt><trkpt lat="49.197411802578316" lon="2.578321498309897"><ele>55.33333333333333</ele><time>2026-04-09T13:12:15Z</time></trkpt><trkpt lat="49.19748907318896" lon="2.5783724691944876"><ele>55.5</ele><time>2026-04-09T13:12:17Z</time></trkpt><trkpt lat="49.197567758939066" lon="2.578424373622707"><ele>55.66666666666667</ele><time>2026-04-09T13:12:19Z</time></trkpt><trkpt lat="49.19764162792175" lon="2.5784727984581886"><ele>55.833333333333336</ele><time>2026-04-09T13:12:21Z</time></trkpt><trkpt lat="49.19772035052586" lon="2.5785248186930465"><ele>56.0</ele><time>2026-04-09T13:12:23Z</time></trkpt><trkpt lat="49.197788701612794" lon="2.5785703719283535"><ele>56.0</ele><time>2026-04-09T13:12:25Z</time></trkpt><trkpt lat="49.19785872323161" lon="2.5786170382966955"><ele>56.0</ele><time>2026-04-09T13:12:27Z</time></trkpt><trkpt lat="49.1979230541001" lon="2.5786599121931286"><ele>56.0</ele><time>2026-04-09T13:12:29Z</time></trkpt><trkpt lat="49.19798873690549" lon="2.578703780208192"><ele>56.0</ele><time>2026-04-09T13:12:31Z</time></trkpt><trkpt lat="49.198049659159324" lon="2.5787447958175664"><ele>56.0</ele><time>2026-04-09T13:12:33Z</time></trkpt><trkpt lat="49.19811183113131" lon="2.578786652883481"><ele>56.0</ele><time>2026-04-09T13:12:35Z</time></trkpt><trkpt lat="49.19817356475825" lon="2.5788282147797594"><ele>56.0</ele><time>2026-04-09T13:12:37Z</time></trkpt><trkpt lat="49.19823477698833" lon="2.5788694256866624"><ele>56.333333333333336</ele><time>2026-04-09T13:12:39Z</time></trkpt><trkpt lat="49.198292874860435" lon="2.5789085398410188"><ele>56.66666666666667</ele><time>2026-04-09T13:12:41Z</time></trkpt><trkpt lat="49.1983525732958" lon="2.5789487315175266"><ele>57.0</ele><time>2026-04-09T13:12:43Z</time></trkpt><trkpt lat="49.19842951250257" lon="2.578972996541156"><ele>57.33333333333333</ele><time>2026-04-09T13:12:45Z</time></trkpt><trkpt lat="49.19849603798648" lon="2.5790529478834965"><ele>57.666666666666664</ele><time>2026-04-09T13:12:47Z</time></trkpt><trkpt lat="49.198572944132664" lon="2.5791215538521364"><ele>58.0</ele><time>2026-04-09T13:12:49Z</time></trkpt><trkpt lat="49.19865439699865" lon="2.579171262382078"><ele>57.99999999999999</ele><time>2026-04-09T13:12:51Z</time></trkpt><trkpt lat="49.19873574365264" lon="2.5792247364296004"><ele>58.0</ele><time>2026-04-09T13:12:53Z</time></trkpt><trkpt lat="49.198817928181775" lon="2.579278795358682"><ele>58.0</ele><time>2026-04-09T13:12:55Z</time></trkpt><trkpt lat="49.19890080865956" lon="2.5793365393121976"><ele>58.0</ele><time>2026-04-09T13:12:57Z</time></trkpt><trkpt lat="49.19898014032518" lon="2.579391788891335"><ele>57.99999999999999</ele><time>2026-04-09T13:12:59Z</time></trkpt><trkpt lat="49.199060927616756" lon="2.5794455633257027"><ele>58.0</ele><time>2026-04-09T13:13:01Z</time></trkpt><trkpt lat="49.19914198393312" lon="2.5794962611543006"><ele>58.599999999999994</ele><time>2026-04-09T13:13:02.999Z</time></trkpt><trkpt lat="49.199227826757294" lon="2.5795531308259014"><ele>59.199999999999996</ele><time>2026-04-09T13:13:04.999Z</time></trkpt><trkpt lat="49.19931190618781" lon="2.5796140313982225"><ele>59.8</ele><time>2026-04-09T13:13:06.999Z</time></trkpt><trkpt lat="49.19940010683023" lon="2.5796789870677483"><ele>60.4</ele><time>2026-04-09T13:13:08.999Z</time></trkpt><trkpt lat="49.19948741453352" lon="2.579741402654627"><ele>61.0</ele><time>2026-04-09T13:13:10.999Z</time></trkpt><trkpt lat="49.199577213160204" lon="2.579802132576324"><ele>61.0</ele><time>2026-04-09T13:13:12.999Z</time></trkpt><trkpt lat="49.199667147113125" lon="2.5798665687955347"><ele>60.99999999999999</ele><time>2026-04-09T13:13:14.999Z</time></trkpt><trkpt lat="49.199746517016656" lon="2.5799470063076657"><ele>60.99999999999999</ele><time>2026-04-09T13:13:16.999Z</time></trkpt><trkpt lat="49.199687238306495" lon="2.580152742214903"><ele>61.0</ele><time>2026-04-09T13:13:20.999Z</time></trkpt><trkpt lat="49.199661488337966" lon="2.58024074122734"><ele>61.0</ele><time>2026-04-09T13:13:23.999Z</time></trkpt><trkpt lat="49.19976599005962" lon="2.580257944854822"><ele>60.8</ele><time>2026-04-09T13:13:24.999Z</time></trkpt><trkpt lat="49.199847564652465" lon="2.580313651239215"><ele>60.599999999999994</ele><time>2026-04-09T13:13:27.999Z</time></trkpt><trkpt lat="49.199826407948564" lon="2.580560457183212"><ele>60.4</ele><time>2026-04-09T13:13:30.999Z</time></trkpt><trkpt lat="49.19979268014891" lon="2.5806737142215974"><ele>60.2</ele><time>2026-04-09T13:13:32.999Z</time></trkpt><trkpt lat="49.19976047124362" lon="2.5807854411959585"><ele>60.0</ele><time>2026-04-09T13:13:34.999Z</time></trkpt><trkpt lat="49.19971378212232" lon="2.5808733204724024"><ele>60.0</ele><time>2026-04-09T13:13:36.998Z</time></trkpt><trkpt lat="49.19968715470014" lon="2.5809740465859243"><ele>60.0</ele><time>2026-04-09T13:13:38.998Z</time></trkpt><trkpt lat="49.199650874995775" lon="2.581052798929085"><ele>60.0</ele><time>2026-04-09T13:13:40.998Z</time></trkpt><trkpt lat="49.19959083107397" lon="2.581135657211788"><ele>60.0</ele><time>2026-04-09T13:13:43.998Z</time></trkpt><trkpt lat="49.19955282920359" lon="2.58123363921831"><ele>60.0</ele><time>2026-04-09T13:15:14.999Z</time></trkpt><trkpt lat="49.19965639062119" lon="2.5813995579321043"><ele>60.0</ele><time>2026-04-09T13:15:23.999Z</time></trkpt><trkpt lat="49.19973575692855" lon="2.5814725639768"><ele>59.833333333333336</ele><time>2026-04-09T13:15:25.999Z</time></trkpt><trkpt lat="49.19979771681913" lon="2.5815451525543986"><ele>59.66666666666667</ele><time>2026-04-09T13:15:27.999Z</time></trkpt><trkpt lat="49.19987158345372" lon="2.5815839790485127"><ele>59.5</ele><time>2026-04-09T13:15:29.999Z</time></trkpt><trkpt lat="49.19993953117324" lon="2.581636145236272"><ele>59.333333333333336</ele><time>2026-04-09T13:15:31.999Z</time></trkpt><trkpt lat="49.20000898762474" lon="2.581688817748125"><ele>59.16666666666667</ele><time>2026-04-09T13:15:33.999Z</time></trkpt><trkpt lat="49.2000779589123" lon="2.581762797070061"><ele>59.0</ele><time>2026-04-09T13:15:35.999Z</time></trkpt><trkpt lat="49.20014827924043" lon="2.581805512968798"><ele>59.00000000000001</ele><time>2026-04-09T13:15:37.999Z</time></trkpt><trkpt lat="49.20021062325109" lon="2.581835482124757"><ele>59.0</ele><time>2026-04-09T13:15:39.998Z</time></trkpt><trkpt lat="49.200295146655066" lon="2.5819035837732343"><ele>59.0</ele><time>2026-04-09T13:15:42.998Z</time></trkpt><trkpt lat="49.20036332446718" lon="2.5819462574846064"><ele>59.0</ele><time>2026-04-09T13:15:44.998Z</time></trkpt><trkpt lat="49.200416431602946" lon="2.582013920226368"><ele>59.00000000000001</ele><time>2026-04-09T13:15:46.998Z</time></trkpt><trkpt lat="49.20049959036628" lon="2.5820614987734865"><ele>59.0</ele><time>2026-04-09T13:15:49.998Z</time></trkpt><trkpt lat="49.20057768368927" lon="2.5821277237807254"><ele>58.66666666666667</ele><time>2026-04-09T13:15:52.998Z</time></trkpt><trkpt lat="49.20065253123967" lon="2.5821613726082044"><ele>58.333333333333336</ele><time>2026-04-09T13:15:54.998Z</time></trkpt><trkpt lat="49.200717744521455" lon="2.582239413704266"><ele>58.0</ele><time>2026-04-09T13:15:56.998Z</time></trkpt><trkpt lat="49.200790977728815" lon="2.5822701413709845"><ele>57.66666666666667</ele><time>2026-04-09T13:15:58.998Z</time></trkpt><trkpt lat="49.20079842627253" lon="2.5824087420797674"><ele>57.333333333333336</ele><time>2026-04-09T13:16:01.998Z</time></trkpt><trkpt lat="49.20071865787641" lon="2.5824586211847644"><ele>57.0</ele><time>2026-04-09T13:16:03.998Z</time></trkpt><trkpt lat="49.20086738665942" lon="2.582580372261276"><ele>56.833333333333336</ele><time>2026-04-09T13:16:06.998Z</time></trkpt><trkpt lat="49.20093825163571" lon="2.5826318704062374"><ele>56.66666666666667</ele><time>2026-04-09T13:16:08.998Z</time></trkpt><trkpt lat="49.201011342296944" lon="2.5826857156889784"><ele>56.5</ele><time>2026-04-09T13:16:10.998Z</time></trkpt><trkpt lat="49.20107428670318" lon="2.5827504895051514"><ele>56.333333333333336</ele><time>2026-04-09T13:16:12.997Z</time></trkpt><trkpt lat="49.20114427456147" lon="2.5827952911403"><ele>56.16666666666667</ele><time>2026-04-09T13:16:14.997Z</time></trkpt><trkpt lat="49.20120502892237" lon="2.582847607607773"><ele>56.0</ele><time>2026-04-09T13:16:16.997Z</time></trkpt><trkpt lat="49.20111127410931" lon="2.5829961851238097"><ele>55.66666666666667</ele><time>2026-04-09T13:16:18.997Z</time></trkpt><trkpt lat="49.201074835397954" lon="2.5831028541695407"><ele>55.333333333333336</ele><time>2026-04-09T13:16:20.997Z</time></trkpt><trkpt lat="49.201018943955624" lon="2.583200329677282"><ele>55.0</ele><time>2026-04-09T13:16:22.997Z</time></trkpt><trkpt lat="49.2009561303235" lon="2.5832452208290984"><ele>54.66666666666667</ele><time>2026-04-09T13:16:24.997Z</time></trkpt><trkpt lat="49.200901520504225" lon="2.5833134806710105"><ele>54.333333333333336</ele><time>2026-04-09T13:16:27Z</time></trkpt><trkpt lat="49.20095546481447" lon="2.5835010186815324"><ele>54.0</ele><time>2026-04-09T13:16:30Z</time></trkpt><trkpt lat="49.200929086027216" lon="2.5836283674628557"><ele>53.833333333333336</ele><time>2026-04-09T13:16:32Z</time></trkpt><trkpt lat="49.200914218992736" lon="2.5837645060607053"><ele>53.66666666666667</ele><time>2026-04-09T13:16:34Z</time></trkpt><trkpt lat="49.20089592966242" lon="2.583872967951604"><ele>53.5</ele><time>2026-04-09T13:16:37Z</time></trkpt><trkpt lat="49.2008506092554" lon="2.5839692993481056"><ele>53.333333333333336</ele><time>2026-04-09T13:16:39Z</time></trkpt><trkpt lat="49.2008038761932" lon="2.5840703553076807"><ele>53.16666666666667</ele><time>2026-04-09T13:16:41Z</time></trkpt><trkpt lat="49.20074939695253" lon="2.584170599981392"><ele>53.0</ele><time>2026-04-09T13:16:43Z</time></trkpt><trkpt lat="49.20070699350081" lon="2.584282695514113"><ele>53.333333333333336</ele><time>2026-04-09T13:16:45Z</time></trkpt><trkpt lat="49.20066358739283" lon="2.584390693524113"><ele>53.66666666666667</ele><time>2026-04-09T13:16:47Z</time></trkpt><trkpt lat="49.20062727785906" lon="2.584506517002365"><ele>54.0</ele><time>2026-04-09T13:16:49Z</time></trkpt><trkpt lat="49.200577306229306" lon="2.584610531713255"><ele>54.33333333333333</ele><time>2026-04-09T13:16:51Z</time></trkpt><trkpt lat="49.20052585744258" lon="2.5847100429977123"><ele>54.666666666666664</ele><time>2026-04-09T13:16:53Z</time></trkpt><trkpt lat="49.200481150634594" lon="2.584817766224649"><ele>55.0</ele><time>2026-04-09T13:16:55Z</time></trkpt><trkpt lat="49.200437898262294" lon="2.5849302928491182"><ele>54.99999999999999</ele><time>2026-04-09T13:16:57Z</time></trkpt><trkpt lat="49.20039320566792" lon="2.5850455551813254"><ele>55.0</ele><time>2026-04-09T13:16:59Z</time></trkpt><trkpt lat="49.200351235698086" lon="2.585154034298621"><ele>55.0</ele><time>2026-04-09T13:17:01Z</time></trkpt><trkpt lat="49.200307380200805" lon="2.5852804094734285"><ele>55.0</ele><time>2026-04-09T13:17:03Z</time></trkpt><trkpt lat="49.20024443511814" lon="2.5853786403725523"><ele>54.99999999999999</ele><time>2026-04-09T13:17:05Z</time></trkpt><trkpt lat="49.20020063650956" lon="2.585504969367208"><ele>55.0</ele><time>2026-04-09T13:17:07Z</time></trkpt><trkpt lat="49.200143766653305" lon="2.5856228417218166"><ele>54.6</ele><time>2026-04-09T13:17:08.999Z</time></trkpt><trkpt lat="49.20009345481285" lon="2.585742240733374"><ele>54.2</ele><time>2026-04-09T13:17:10.999Z</time></trkpt><trkpt lat="49.20003474348329" lon="2.585867196562897"><ele>53.8</ele><time>2026-04-09T13:17:12.999Z</time></trkpt><trkpt lat="49.19998029902907" lon="2.585987598916411"><ele>53.4</ele><time>2026-04-09T13:17:14.999Z</time></trkpt><trkpt lat="49.199928482683674" lon="2.586113507141541"><ele>53.0</ele><time>2026-04-09T13:17:16.999Z</time></trkpt><trkpt lat="49.19987399984165" lon="2.5862289913003944"><ele>53.4</ele><time>2026-04-09T13:17:18.999Z</time></trkpt><trkpt lat="49.19982297803626" lon="2.5863486717131225"><ele>53.8</ele><time>2026-04-09T13:17:20.999Z</time></trkpt><trkpt lat="49.19976936444439" lon="2.586468015091475"><ele>54.2</ele><time>2026-04-09T13:17:22.999Z</time></trkpt><trkpt lat="49.199712525685015" lon="2.5865860789809876"><ele>54.6</ele><time>2026-04-09T13:17:24.999Z</time></trkpt><trkpt lat="49.199655140831425" lon="2.5867152364112243"><ele>55.0</ele><time>2026-04-09T13:17:26.999Z</time></trkpt><trkpt lat="49.19960142617438" lon="2.586838872198979"><ele>55.0</ele><time>2026-04-09T13:17:28.999Z</time></trkpt><trkpt lat="49.19953356541806" lon="2.586969571960154"><ele>55.0</ele><time>2026-04-09T13:17:30.999Z</time></trkpt><trkpt lat="49.19946406816123" lon="2.587056160291035"><ele>55.0</ele><time>2026-04-09T13:17:32.999Z</time></trkpt><trkpt lat="49.19949067309595" lon="2.587232351512132"><ele>55.0</ele><time>2026-04-09T13:17:34.999Z</time></trkpt><trkpt lat="49.19953777203617" lon="2.587376483587711"><ele>55.0</ele><time>2026-04-09T13:17:36.999Z</time></trkpt><trkpt lat="49.199575700694034" lon="2.587531307833513"><ele>54.8</ele><time>2026-04-09T13:17:38.999Z</time></trkpt><trkpt lat="49.1996093001736" lon="2.587684926588005"><ele>54.6</ele><time>2026-04-09T13:17:40.999Z</time></trkpt><trkpt lat="49.19964511372525" lon="2.587847344653661"><ele>54.400000000000006</ele><time>2026-04-09T13:17:42.999Z</time></trkpt><trkpt lat="49.199671303164244" lon="2.5880066769691203"><ele>54.2</ele><time>2026-04-09T13:17:44.998Z</time></trkpt><trkpt lat="49.19971008620721" lon="2.5881640533139763"><ele>54.0</ele><time>2026-04-09T13:17:46.998Z</time></trkpt><trkpt lat="49.19974197600283" lon="2.5883252508424053"><ele>54.0</ele><time>2026-04-09T13:17:48.998Z</time></trkpt><trkpt lat="49.19977082222882" lon="2.5884773546990623"><ele>54.00000000000001</ele><time>2026-04-09T13:17:50.998Z</time></trkpt><trkpt lat="49.19978711295706" lon="2.5886319712599755"><ele>54.00000000000001</ele><time>2026-04-09T13:17:52.998Z</time></trkpt><trkpt lat="49.19982213890548" lon="2.588777074628239"><ele>54.0</ele><time>2026-04-09T13:17:54.998Z</time></trkpt><trkpt lat="49.19984939159986" lon="2.588929452042624"><ele>54.0</ele><time>2026-04-09T13:17:56.998Z</time></trkpt><trkpt lat="49.1998757893616" lon="2.589073157020055"><ele>53.800000000000004</ele><time>2026-04-09T13:17:58.998Z</time></trkpt><trkpt lat="49.19988015832155" lon="2.5892248825536806"><ele>53.60000000000001</ele><time>2026-04-09T13:18:00.998Z</time></trkpt><trkpt lat="49.19987216476573" lon="2.5893819370447395"><ele>53.4</ele><time>2026-04-09T13:18:02.998Z</time></trkpt><trkpt lat="49.19985478015165" lon="2.5895413568548213"><ele>53.2</ele><time>2026-04-09T13:18:04.998Z</time></trkpt><trkpt lat="49.19984732868529" lon="2.589703535823938"><ele>53.0</ele><time>2026-04-09T13:18:06.998Z</time></trkpt><trkpt lat="49.199839948500944" lon="2.589864163317479"><ele>53.0</ele><time>2026-04-09T13:18:08.998Z</time></trkpt><trkpt lat="49.199842882895574" lon="2.59003112689431"><ele>53.0</ele><time>2026-04-09T13:18:10.998Z</time></trkpt><trkpt lat="49.199833192620545" lon="2.5901886190942633"><ele>53.0</ele><time>2026-04-09T13:18:12.998Z</time></trkpt><trkpt lat="49.19982117712505" lon="2.5903614909966275"><ele>53.0</ele><time>2026-04-09T13:18:14.998Z</time></trkpt><trkpt lat="49.19980820532429" lon="2.5905328097290985"><ele>53.0</ele><time>2026-04-09T13:18:16.998Z</time></trkpt><trkpt lat="49.19979292423465" lon="2.59069987740162"><ele>53.8</ele><time>2026-04-09T13:18:18.997Z</time></trkpt><trkpt lat="49.199786431828905" lon="2.590869288613826"><ele>54.599999999999994</ele><time>2026-04-09T13:18:20.997Z</time></trkpt><trkpt lat="49.199780708440656" lon="2.591026525197304"><ele>55.400000000000006</ele><time>2026-04-09T13:18:22.997Z</time></trkpt><trkpt lat="49.19976140731893" lon="2.5911868638609694"><ele>56.2</ele><time>2026-04-09T13:18:24.997Z</time></trkpt><trkpt lat="49.1997520723379" lon="2.5913524019098286"><ele>57.0</ele><time>2026-04-09T13:18:26.997Z</time></trkpt><trkpt lat="49.19974164570614" lon="2.5915072700176207"><ele>57.0</ele><time>2026-04-09T13:18:28.997Z</time></trkpt><trkpt lat="49.1997418774157" lon="2.591666173127212"><ele>57.0</ele><time>2026-04-09T13:18:30.997Z</time></trkpt><trkpt lat="49.19973373111385" lon="2.591821883044978"><ele>57.0</ele><time>2026-04-09T13:18:33Z</time></trkpt><trkpt lat="49.199710562464794" lon="2.591968463552692"><ele>57.0</ele><time>2026-04-09T13:18:35Z</time></trkpt><trkpt lat="49.19970290692685" lon="2.5921195117387135"><ele>57.0</ele><time>2026-04-09T13:18:37Z</time></trkpt><trkpt lat="49.19986568475943" lon="2.592176685745146"><ele>56.400000000000006</ele><time>2026-04-09T13:18:40Z</time></trkpt><trkpt lat="49.199956696926634" lon="2.5921311674006087"><ele>55.800000000000004</ele><time>2026-04-09T13:18:42Z</time></trkpt><trkpt lat="49.200054460626625" lon="2.592072243158555"><ele>55.2</ele><time>2026-04-09T13:18:44Z</time></trkpt><trkpt lat="49.20015841781431" lon="2.5920075474172393"><ele>54.6</ele><time>2026-04-09T13:18:46Z</time></trkpt><trkpt lat="49.20026805421785" lon="2.591957448807212"><ele>54.0</ele><time>2026-04-09T13:18:48Z</time></trkpt><trkpt lat="49.20037650636206" lon="2.591901156545284"><ele>54.0</ele><time>2026-04-09T13:18:50Z</time></trkpt><trkpt lat="49.20049208189812" lon="2.5918428058384473"><ele>54.0</ele><time>2026-04-09T13:18:52Z</time></trkpt><trkpt lat="49.200604421548604" lon="2.5917873351329286"><ele>54.0</ele><time>2026-04-09T13:18:54Z</time></trkpt><trkpt lat="49.200716944021245" lon="2.5917468974841666"><ele>54.0</ele><time>2026-04-09T13:18:56Z</time></trkpt><trkpt lat="49.20081988797843" lon="2.59165958779945"><ele>53.6</ele><time>2026-04-09T13:18:58Z</time></trkpt><trkpt lat="49.200928306142345" lon="2.5916312113010527"><ele>53.2</ele><time>2026-04-09T13:19:00Z</time></trkpt><trkpt lat="49.20102370333197" lon="2.5915633325299656"><ele>52.800000000000004</ele><time>2026-04-09T13:19:02Z</time></trkpt><trkpt lat="49.20111935677601" lon="2.5914855032485034"><ele>52.400000000000006</ele><time>2026-04-09T13:19:04Z</time></trkpt><trkpt lat="49.20121617238619" lon="2.5913956262627345"><ele>52.0</ele><time>2026-04-09T13:19:06Z</time></trkpt><trkpt lat="49.201325371397765" lon="2.591402790190748"><ele>51.99999999999999</ele><time>2026-04-09T13:19:08Z</time></trkpt><trkpt lat="49.20137574536423" lon="2.591463921157891"><ele>52.0</ele><time>2026-04-09T13:19:09Z</time></trkpt><trkpt lat="49.201414016375246" lon="2.5915520780125973"><ele>52.0</ele><time>2026-04-09T13:19:10Z</time></trkpt><trkpt lat="49.201437289362914" lon="2.5916548463207136"><ele>52.0</ele><time>2026-04-09T13:19:11Z</time></trkpt><trkpt lat="49.201450319160855" lon="2.5917514616784754"><ele>51.99999999999999</ele><time>2026-04-09T13:19:12Z</time></trkpt><trkpt lat="49.20146242353564" lon="2.5918489192443164"><ele>52.0</ele><time>2026-04-09T13:19:13Z</time></trkpt><trkpt lat="49.20150622787362" lon="2.5920274444163547"><ele>52.2</ele><time>2026-04-09T13:19:15Z</time></trkpt><trkpt lat="49.20158670929268" lon="2.5921785407292175"><ele>52.400000000000006</ele><time>2026-04-09T13:19:16.999Z</time></trkpt><trkpt lat="49.20164847778635" lon="2.5922238343960995"><ele>52.599999999999994</ele><time>2026-04-09T13:19:17.999Z</time></trkpt><trkpt lat="49.20171042718864" lon="2.5922412757686297"><ele>52.8</ele><time>2026-04-09T13:19:18.999Z</time></trkpt><trkpt lat="49.20182816707081" lon="2.5922519575323273"><ele>53.0</ele><time>2026-04-09T13:19:20.999Z</time></trkpt><trkpt lat="49.2019445556139" lon="2.592250367640145"><ele>53.00000000000001</ele><time>2026-04-09T13:19:22.999Z</time></trkpt><trkpt lat="49.20204620737757" lon="2.5922683156645534"><ele>53.0</ele><time>2026-04-09T13:19:24.999Z</time></trkpt><trkpt lat="49.20213320121507" lon="2.5922715859153604"><ele>53.0</ele><time>2026-04-09T13:19:26.999Z</time></trkpt><trkpt lat="49.20220864227923" lon="2.592287871449687"><ele>53.0</ele><time>2026-04-09T13:19:28.999Z</time></trkpt><trkpt lat="49.20229126984631" lon="2.5922677742215643"><ele>53.00000000000001</ele><time>2026-04-09T13:19:30.999Z</time></trkpt><trkpt lat="49.20236724227833" lon="2.592295666250795"><ele>53.0</ele><time>2026-04-09T13:19:32.999Z</time></trkpt><trkpt lat="49.20246838584593" lon="2.5922681128550797"><ele>53.8</ele><time>2026-04-09T13:19:34.999Z</time></trkpt><trkpt lat="49.202570732899055" lon="2.5922636797641623"><ele>54.599999999999994</ele><time>2026-04-09T13:19:36.999Z</time></trkpt><trkpt lat="49.20267165387424" lon="2.592230242661228"><ele>55.400000000000006</ele><time>2026-04-09T13:19:38.999Z</time></trkpt><trkpt lat="49.202746431069265" lon="2.5921713906059907"><ele>56.2</ele><time>2026-04-09T13:19:40.999Z</time></trkpt><trkpt lat="49.2028231113795" lon="2.592099873753374"><ele>57.0</ele><time>2026-04-09T13:19:42.999Z</time></trkpt><trkpt lat="49.20289418724797" lon="2.592023532635237"><ele>57.166666666666664</ele><time>2026-04-09T13:19:44.999Z</time></trkpt><trkpt lat="49.20297620789362" lon="2.5919786190655194"><ele>57.33333333333333</ele><time>2026-04-09T13:19:46.999Z</time></trkpt><trkpt lat="49.203044733044436" lon="2.5918937582079504"><ele>57.5</ele><time>2026-04-09T13:19:48.999Z</time></trkpt><trkpt lat="49.203127767923604" lon="2.591863580607986"><ele>57.666666666666664</ele><time>2026-04-09T13:19:50.998Z</time></trkpt><trkpt lat="49.203189874885304" lon="2.591801249101506"><ele>57.83333333333333</ele><time>2026-04-09T13:19:52.998Z</time></trkpt><trkpt lat="49.20325863306807" lon="2.591755813316365"><ele>58.0</ele><time>2026-04-09T13:19:54.998Z</time></trkpt><trkpt lat="49.203334293953155" lon="2.5917378154122894"><ele>58.166666666666664</ele><time>2026-04-09T13:19:56.998Z</time></trkpt><trkpt lat="49.203394691042405" lon="2.5917059526707487"><ele>58.33333333333333</ele><time>2026-04-09T13:19:58.998Z</time></trkpt><trkpt lat="49.203467648185814" lon="2.5916699844363467"><ele>58.5</ele><time>2026-04-09T13:20:00.998Z</time></trkpt><trkpt lat="49.203538671310106" lon="2.591638183270273"><ele>58.66666666666667</ele><time>2026-04-09T13:20:02.998Z</time></trkpt><trkpt lat="49.203629604906375" lon="2.5916029165675805"><ele>58.833333333333336</ele><time>2026-04-09T13:20:05.998Z</time></trkpt><trkpt lat="49.20371492500392" lon="2.591550252550202"><ele>59.0</ele><time>2026-04-09T13:20:08.998Z</time></trkpt><trkpt lat="49.203783650683654" lon="2.5915530230070987"><ele>59.00000000000001</ele><time>2026-04-09T13:20:10.998Z</time></trkpt><trkpt lat="49.203873738181095" lon="2.591524544200279"><ele>59.0</ele><time>2026-04-09T13:20:13.998Z</time></trkpt><trkpt lat="49.20395752253191" lon="2.5914782661689744"><ele>59.0</ele><time>2026-04-09T13:20:16.998Z</time></trkpt><trkpt lat="49.204021035437464" lon="2.59148158631363"><ele>59.0</ele><time>2026-04-09T13:20:18.998Z</time></trkpt><trkpt lat="49.20410765441054" lon="2.591485331251641"><ele>59.00000000000001</ele><time>2026-04-09T13:20:21.998Z</time></trkpt><trkpt lat="49.204187443470936" lon="2.5915005474930353"><ele>59.0</ele><time>2026-04-09T13:20:24.998Z</time></trkpt><trkpt lat="49.204254965633055" lon="2.591508446977083"><ele>59.50000000000001</ele><time>2026-04-09T13:20:26.997Z</time></trkpt><trkpt lat="49.20433751106987" lon="2.5915053131178434"><ele>60.0</ele><time>2026-04-09T13:20:29.997Z</time></trkpt><trkpt lat="49.204426548335015" lon="2.5915008021159713"><ele>60.5</ele><time>2026-04-09T13:20:32.997Z</time></trkpt><trkpt lat="49.204513565061006" lon="2.591512134748327"><ele>61.0</ele><time>2026-04-09T13:20:35.997Z</time></trkpt><trkpt lat="49.2046067116253" lon="2.5915164161487145"><ele>61.50000000000001</ele><time>2026-04-09T13:20:39Z</time></trkpt><trkpt lat="49.20469329169946" lon="2.5915485486266023"><ele>62.0</ele><time>2026-04-09T13:20:42Z</time></trkpt><trkpt lat="49.204727148104055" lon="2.5917144327817"><ele>62.00000000000001</ele><time>2026-04-09T13:20:46Z</time></trkpt><trkpt lat="49.204703542137494" lon="2.591812265750812"><ele>62.0</ele><time>2026-04-09T13:20:48Z</time></trkpt><trkpt lat="49.20465707887841" lon="2.591931204839141"><ele>62.0</ele><time>2026-04-09T13:20:51Z</time></trkpt><trkpt lat="49.20463300699821" lon="2.5920207294949886"><ele>62.0</ele><time>2026-04-09T13:20:53Z</time></trkpt><trkpt lat="49.20460894133356" lon="2.592120330705846"><ele>62.00000000000001</ele><time>2026-04-09T13:20:55Z</time></trkpt><trkpt lat="49.204592445439665" lon="2.5922151219146055"><ele>62.0</ele><time>2026-04-09T13:20:58Z</time></trkpt><trkpt lat="49.20468648518818" lon="2.592342595325308"><ele>62.00000000000001</ele><time>2026-04-09T13:20:59Z</time></trkpt><trkpt lat="49.20475900145281" lon="2.5923408339532754"><ele>62.0</ele><time>2026-04-09T13:21:01Z</time></trkpt><trkpt lat="49.204828383133524" lon="2.5923377113632426"><ele>62.0</ele><time>2026-04-09T13:21:03Z</time></trkpt><trkpt lat="49.20489923568248" lon="2.5923320658136464"><ele>62.0</ele><time>2026-04-09T13:21:05Z</time></trkpt><trkpt lat="49.20499257319489" lon="2.592325070718755"><ele>62.00000000000001</ele><time>2026-04-09T13:21:08Z</time></trkpt><trkpt lat="49.2050807562562" lon="2.5923183466102317"><ele>62.0</ele><time>2026-04-09T13:21:11Z</time></trkpt><trkpt lat="49.205156826356934" lon="2.592314551169874"><ele>62.833333333333336</ele><time>2026-04-09T13:21:14Z</time></trkpt><trkpt lat="49.205242544537306" lon="2.592285827260951"><ele>63.66666666666667</ele><time>2026-04-09T13:21:17Z</time></trkpt><trkpt lat="49.20533074683792" lon="2.5922833428344836"><ele>64.5</ele><time>2026-04-09T13:21:19.999Z</time></trkpt><trkpt lat="49.20541617865741" lon="2.5922808495638603"><ele>65.33333333333333</ele><time>2026-04-09T13:21:22.999Z</time></trkpt><trkpt lat="49.205497409481204" lon="2.59227551541082"><ele>66.16666666666666</ele><time>2026-04-09T13:21:25.999Z</time></trkpt><trkpt lat="49.20556871397291" lon="2.592297432835371"><ele>67.0</ele><time>2026-04-09T13:21:28.999Z</time></trkpt><trkpt lat="49.2057693355198" lon="2.5917162259381934"><ele>67.66666666666666</ele><time>2026-04-09T13:21:42.999Z</time></trkpt><trkpt lat="49.20572955111888" lon="2.591613381633717"><ele>68.33333333333333</ele><time>2026-04-09T13:21:45.999Z</time></trkpt><trkpt lat="49.205782325658966" lon="2.5915529322923776"><ele>69.0</ele><time>2026-04-09T13:21:47.999Z</time></trkpt><trkpt lat="49.20579177359526" lon="2.5914237084976537"><ele>69.66666666666667</ele><time>2026-04-09T13:21:50.999Z</time></trkpt><trkpt lat="49.205828694109904" lon="2.5913068672026673"><ele>70.33333333333334</ele><time>2026-04-09T13:21:53.999Z</time></trkpt><trkpt lat="49.205884787182306" lon="2.591236905920287"><ele>71.0</ele><time>2026-04-09T13:21:56.998Z</time></trkpt><trkpt lat="49.20594161940712" lon="2.5911772282848533"><ele>70.85714285714286</ele><time>2026-04-09T13:21:59.998Z</time></trkpt><trkpt lat="49.20598761129999" lon="2.591094441664806"><ele>70.71428571428571</ele><time>2026-04-09T13:22:02.998Z</time></trkpt><trkpt lat="49.206036226491264" lon="2.5909917979783867"><ele>70.57142857142857</ele><time>2026-04-09T13:22:06.998Z</time></trkpt><trkpt lat="49.20607743078637" lon="2.590909171456316"><ele>70.42857142857143</ele><time>2026-04-09T13:22:11.998Z</time></trkpt><trkpt lat="49.206129347038065" lon="2.590837750590958"><ele>70.28571428571428</ele><time>2026-04-09T13:23:29Z</time></trkpt><trkpt lat="49.206183736599705" lon="2.590741116724858"><ele>70.14285714285714</ele><time>2026-04-09T13:23:31.999Z</time></trkpt><trkpt lat="49.20622148981241" lon="2.590653158656612"><ele>70.0</ele><time>2026-04-09T13:23:33.999Z</time></trkpt><trkpt lat="49.20621798188433" lon="2.5905303747982478"><ele>70.0</ele><time>2026-04-09T13:23:37.999Z</time></trkpt><trkpt lat="49.206248750321656" lon="2.5904439672364057"><ele>70.0</ele><time>2026-04-09T13:23:45.999Z</time></trkpt><trkpt lat="49.20623447343678" lon="2.590319727465573"><ele>70.0</ele><time>2026-04-09T13:23:48.999Z</time></trkpt><trkpt lat="49.206237032255444" lon="2.590208418889616"><ele>70.0</ele><time>2026-04-09T13:23:51.999Z</time></trkpt><trkpt lat="49.20659781437559" lon="2.590108076219051"><ele>70.6</ele><time>2026-04-09T13:23:55.999Z</time></trkpt><trkpt lat="49.20664471485648" lon="2.590023644224583"><ele>71.2</ele><time>2026-04-09T13:23:57.999Z</time></trkpt><trkpt lat="49.20677368513739" lon="2.590133600738351"><ele>71.8</ele><time>2026-04-09T13:23:58.999Z</time></trkpt><trkpt lat="49.20686334025745" lon="2.5899657293874863"><ele>72.4</ele><time>2026-04-09T13:24:04.999Z</time></trkpt><trkpt lat="49.20692517804289" lon="2.58990627474375"><ele>73.0</ele><time>2026-04-09T13:24:08.998Z</time></trkpt><trkpt lat="49.20703032486649" lon="2.589967708932903"><ele>73.0</ele><time>2026-04-09T13:24:11.998Z</time></trkpt><trkpt lat="49.207099180290044" lon="2.5899974096214744"><ele>73.0</ele><time>2026-04-09T13:24:14.998Z</time></trkpt><trkpt lat="49.20716137321224" lon="2.5900429014533763"><ele>73.0</ele><time>2026-04-09T13:24:16.998Z</time></trkpt><trkpt lat="49.20722416180606" lon="2.5900888289987085"><ele>73.0</ele><time>2026-04-09T13:24:48.997Z</time></trkpt><trkpt lat="49.2073092370989" lon="2.589784988075932"><ele>73.0</ele><time>2026-04-09T13:24:55Z</time></trkpt><trkpt lat="49.20724160922246" lon="2.5897050329410267"><ele>73.0</ele><time>2026-04-09T13:26:06.999Z</time></trkpt><trkpt lat="49.20723915419745" lon="2.589802636121827"><ele>73.0</ele><time>2026-04-09T13:26:25.998Z</time></trkpt><trkpt lat="49.20722289406185" lon="2.589912575172543"><ele>73.0</ele><time>2026-04-09T13:26:32.998Z</time></trkpt><trkpt lat="49.20715854670409" lon="2.5899229611831203"><ele>73.0</ele><time>2026-04-09T13:28:17.999Z</time></trkpt><trkpt lat="49.20708707259031" lon="2.589865845796179"><ele>73.0</ele><time>2026-04-09T13:28:20.998Z</time></trkpt><trkpt lat="49.20703646458052" lon="2.589749955888052"><ele>73.0</ele><time>2026-04-09T13:28:23.998Z</time></trkpt><trkpt lat="49.2069758107602" lon="2.5897193685520103"><ele>73.0</ele><time>2026-04-09T13:28:25.998Z</time></trkpt><trkpt lat="49.20691391074489" lon="2.5896569966416165"><ele>73.0</ele><time>2026-04-09T13:28:28.998Z</time></trkpt><trkpt lat="49.2068627988382" lon="2.5895933630785306"><ele>73.0</ele><time>2026-04-09T13:28:30.998Z</time></trkpt><trkpt lat="49.20678603841004" lon="2.5895316705801994"><ele>73.0</ele><time>2026-04-09T13:28:33.998Z</time></trkpt><trkpt lat="49.20672169147367" lon="2.5894992241675694"><ele>73.0</ele><time>2026-04-09T13:28:36.998Z</time></trkpt><trkpt lat="49.20666641199311" lon="2.5894504731160137"><ele>73.0</ele><time>2026-04-09T13:28:38.998Z</time></trkpt><trkpt lat="49.206571376450306" lon="2.5894541435123575"><ele>73.0</ele><time>2026-04-09T13:28:40.998Z</time></trkpt><trkpt lat="49.206564783452436" lon="2.58934959475418"><ele>73.0</ele><time>2026-04-09T13:28:42.998Z</time></trkpt><trkpt lat="49.20650450708586" lon="2.589280476271886"><ele>72.66666666666666</ele><time>2026-04-09T13:28:44.998Z</time></trkpt><trkpt lat="49.20643070561674" lon="2.5892028707307437"><ele>72.33333333333333</ele><time>2026-04-09T13:28:46.998Z</time></trkpt><trkpt lat="49.20640919937605" lon="2.589068625084819"><ele>72.0</ele><time>2026-04-09T13:28:48.998Z</time></trkpt><trkpt lat="49.206369897575996" lon="2.5889674612804243"><ele>71.66666666666667</ele><time>2026-04-09T13:28:50.998Z</time></trkpt><trkpt lat="49.20632788837727" lon="2.5888593289194812"><ele>71.33333333333334</ele><time>2026-04-09T13:28:52.998Z</time></trkpt><trkpt lat="49.20628924820165" lon="2.5887598682489132"><ele>71.0</ele><time>2026-04-09T13:28:54.998Z</time></trkpt><trkpt lat="49.20624922951692" lon="2.588656860911314"><ele>71.0</ele><time>2026-04-09T13:28:56.997Z</time></trkpt><trkpt lat="49.206208031890384" lon="2.5885482338646764"><ele>71.0</ele><time>2026-04-09T13:28:58.997Z</time></trkpt><trkpt lat="49.206183086380776" lon="2.588443751552339"><ele>71.0</ele><time>2026-04-09T13:29:01Z</time></trkpt><trkpt lat="49.20617933444656" lon="2.588323409368121"><ele>71.0</ele><time>2026-04-09T13:29:03Z</time></trkpt><trkpt lat="49.206184984441016" lon="2.5881915705729788"><ele>71.0</ele><time>2026-04-09T13:29:05Z</time></trkpt><trkpt lat="49.20619196241353" lon="2.588064256186013"><ele>71.0</ele><time>2026-04-09T13:29:07Z</time></trkpt><trkpt lat="49.2061856546528" lon="2.587961184178306"><ele>71.0</ele><time>2026-04-09T13:29:09Z</time></trkpt><trkpt lat="49.206193422265414" lon="2.5878571849487604"><ele>71.0</ele><time>2026-04-09T13:29:11Z</time></trkpt><trkpt lat="49.20622027479582" lon="2.587718275903389"><ele>71.0</ele><time>2026-04-09T13:29:14Z</time></trkpt><trkpt lat="49.20623812000863" lon="2.5876114134656456"><ele>71.0</ele><time>2026-04-09T13:29:17Z</time></trkpt><trkpt lat="49.20613837903449" lon="2.5875014379539087"><ele>71.0</ele><time>2026-04-09T13:29:19Z</time></trkpt><trkpt lat="49.20607293289491" lon="2.587402997500709"><ele>71.16666666666667</ele><time>2026-04-09T13:29:22Z</time></trkpt><trkpt lat="49.20603095568513" lon="2.5873203068473893"><ele>71.33333333333334</ele><time>2026-04-09T13:29:24Z</time></trkpt><trkpt lat="49.20599419464329" lon="2.5872357393571073"><ele>71.5</ele><time>2026-04-09T13:29:26Z</time></trkpt><trkpt lat="49.20600758023521" lon="2.587120063366675"><ele>71.66666666666667</ele><time>2026-04-09T13:29:28Z</time></trkpt><trkpt lat="49.20604126375674" lon="2.5870159110690123"><ele>71.83333333333333</ele><time>2026-04-09T13:29:31Z</time></trkpt><trkpt lat="49.20606704663105" lon="2.5869069608596926"><ele>72.0</ele><time>2026-04-09T13:29:34Z</time></trkpt><trkpt lat="49.20593309545219" lon="2.586793044664379"><ele>72.5</ele><time>2026-04-09T13:29:38Z</time></trkpt><trkpt lat="49.205843951705795" lon="2.586724245398059"><ele>73.0</ele><time>2026-04-09T13:29:41Z</time></trkpt><trkpt lat="49.20579175462265" lon="2.5866696886477323"><ele>73.5</ele><time>2026-04-09T13:29:43Z</time></trkpt><trkpt lat="49.20571754581095" lon="2.5866169303657136"><ele>74.0</ele><time>2026-04-09T13:29:46Z</time></trkpt><trkpt lat="49.20565987158121" lon="2.586576301017234"><ele>74.5</ele><time>2026-04-09T13:29:48Z</time></trkpt><trkpt lat="49.20559639992621" lon="2.586523049205083"><ele>75.0</ele><time>2026-04-09T13:29:49.999Z</time></trkpt><trkpt lat="49.20552207740716" lon="2.5864553502080683"><ele>74.16666666666667</ele><time>2026-04-09T13:29:52.999Z</time></trkpt><trkpt lat="49.20543048632831" lon="2.5863933768984553"><ele>73.33333333333333</ele><time>2026-04-09T13:29:55.999Z</time></trkpt><trkpt lat="49.20534930117846" lon="2.586323074396862"><ele>72.5</ele><time>2026-04-09T13:29:58.999Z</time></trkpt><trkpt lat="49.20527340225912" lon="2.5862647314969083"><ele>71.66666666666666</ele><time>2026-04-09T13:30:01.999Z</time></trkpt><trkpt lat="49.20522231921095" lon="2.5861652552161445"><ele>70.83333333333333</ele><time>2026-04-09T13:30:04.999Z</time></trkpt><trkpt lat="49.20515354612258" lon="2.5860838199543346"><ele>70.0</ele><time>2026-04-09T13:30:07.999Z</time></trkpt><trkpt lat="49.2051241842875" lon="2.5859753445355365"><ele>70.0</ele><time>2026-04-09T13:30:10.999Z</time></trkpt><trkpt lat="49.20507837001424" lon="2.585876476057532"><ele>70.0</ele><time>2026-04-09T13:30:13.999Z</time></trkpt><trkpt lat="49.20504826002982" lon="2.585757206388615"><ele>70.0</ele><time>2026-04-09T13:30:16.999Z</time></trkpt><trkpt lat="49.20504886991428" lon="2.585638739830079"><ele>70.0</ele><time>2026-04-09T13:30:19.999Z</time></trkpt><trkpt lat="49.20504371881051" lon="2.5855089309274715"><ele>70.0</ele><time>2026-04-09T13:30:22.999Z</time></trkpt><trkpt lat="49.205032072937996" lon="2.58537574541372"><ele>70.0</ele><time>2026-04-09T13:30:25.998Z</time></trkpt><trkpt lat="49.205029926903656" lon="2.585241010237156"><ele>70.33333333333333</ele><time>2026-04-09T13:30:28.998Z</time></trkpt><trkpt lat="49.20503455678518" lon="2.5851111368572366"><ele>70.66666666666666</ele><time>2026-04-09T13:30:31.998Z</time></trkpt><trkpt lat="49.2050386652874" lon="2.5849716720205205"><ele>71.0</ele><time>2026-04-09T13:30:34.998Z</time></trkpt><trkpt lat="49.20504807333837" lon="2.5848424777713417"><ele>71.33333333333333</ele><time>2026-04-09T13:30:37.998Z</time></trkpt><trkpt lat="49.205053222254016" lon="2.5847092582842968"><ele>71.66666666666667</ele><time>2026-04-09T13:30:40.998Z</time></trkpt><trkpt lat="49.20505582176154" lon="2.584580514133551"><ele>72.0</ele><time>2026-04-09T13:30:43.998Z</time></trkpt><trkpt lat="49.205075232408184" lon="2.584438959470905"><ele>72.14285714285715</ele><time>2026-04-09T13:30:46.998Z</time></trkpt><trkpt lat="49.20510205801111" lon="2.5843447457084188"><ele>72.28571428571429</ele><time>2026-04-09T13:30:48.998Z</time></trkpt><trkpt lat="49.20512688452207" lon="2.584255804377841"><ele>72.42857142857143</ele><time>2026-04-09T13:30:50.998Z</time></trkpt><trkpt lat="49.205134435046354" lon="2.584158749805768"><ele>72.57142857142858</ele><time>2026-04-09T13:30:52.998Z</time></trkpt><trkpt lat="49.20517550709626" lon="2.584028478921362"><ele>72.71428571428572</ele><time>2026-04-09T13:30:55.998Z</time></trkpt><trkpt lat="49.2051922293695" lon="2.5838948147428953"><ele>72.85714285714286</ele><time>2026-04-09T13:30:58.998Z</time></trkpt><trkpt lat="49.20522884611935" lon="2.5838038624286512"><ele>73.0</ele><time>2026-04-09T13:31:02.997Z</time></trkpt><trkpt lat="49.20521897574593" lon="2.583706265487325"><ele>72.6</ele><time>2026-04-09T13:31:09Z</time></trkpt><trkpt lat="49.20506658981278" lon="2.583634170720458"><ele>72.19999999999999</ele><time>2026-04-09T13:31:13Z</time></trkpt><trkpt lat="49.204988325724045" lon="2.5836045170308757"><ele>71.8</ele><time>2026-04-09T13:31:15Z</time></trkpt><trkpt lat="49.2048888578568" lon="2.583542605688604"><ele>71.39999999999999</ele><time>2026-04-09T13:31:17Z</time></trkpt><trkpt lat="49.204836698106575" lon="2.5834819495507273"><ele>71.0</ele><time>2026-04-09T13:31:18Z</time></trkpt><trkpt lat="49.20473101930735" lon="2.583418074428514"><ele>69.2</ele><time>2026-04-09T13:31:20Z</time></trkpt><trkpt lat="49.20465675604996" lon="2.583372837068902"><ele>67.39999999999999</ele><time>2026-04-09T13:31:21Z</time></trkpt><trkpt lat="49.20454321789348" lon="2.583287823036687"><ele>65.6</ele><time>2026-04-09T13:31:23Z</time></trkpt><trkpt lat="49.20443944110142" lon="2.583228203125634"><ele>63.8</ele><time>2026-04-09T13:31:25Z</time></trkpt><trkpt lat="49.20433291375762" lon="2.5831402677995596"><ele>62.0</ele><time>2026-04-09T13:31:27Z</time></trkpt><trkpt lat="49.20424374768923" lon="2.583067637304158"><ele>62.0</ele><time>2026-04-09T13:31:28Z</time></trkpt><trkpt lat="49.20413927899622" lon="2.58299251377898"><ele>62.0</ele><time>2026-04-09T13:31:30Z</time></trkpt><trkpt lat="49.20408193825523" lon="2.582938121535486"><ele>62.0</ele><time>2026-04-09T13:31:31Z</time></trkpt><trkpt lat="49.20397100559039" lon="2.5828498832091737"><ele>62.0</ele><time>2026-04-09T13:31:33Z</time></trkpt><trkpt lat="49.20390969779121" lon="2.5827992333047094"><ele>62.0</ele><time>2026-04-09T13:31:34Z</time></trkpt><trkpt lat="49.20384331393795" lon="2.582754502277017"><ele>61.00000000000001</ele><time>2026-04-09T13:31:35Z</time></trkpt><trkpt lat="49.203776450816385" lon="2.5827123599433963"><ele>60.0</ele><time>2026-04-09T13:31:36Z</time></trkpt><trkpt lat="49.203712709219005" lon="2.5826677387201324"><ele>59.0</ele><time>2026-04-09T13:31:37Z</time></trkpt><trkpt lat="49.20365397688857" lon="2.582616218600849"><ele>58.0</ele><time>2026-04-09T13:31:38Z</time></trkpt><trkpt lat="49.20359622467601" lon="2.5825755939058994"><ele>57.00000000000001</ele><time>2026-04-09T13:31:39Z</time></trkpt><trkpt lat="49.203508980374046" lon="2.5825062786482715"><ele>56.0</ele><time>2026-04-09T13:31:41Z</time></trkpt><trkpt lat="49.2034163101152" lon="2.582445182754076"><ele>56.00000000000001</ele><time>2026-04-09T13:31:43Z</time></trkpt><trkpt lat="49.20333547183954" lon="2.5823878186062386"><ele>56.0</ele><time>2026-04-09T13:31:45Z</time></trkpt><trkpt lat="49.2032591094933" lon="2.5823416693261145"><ele>56.0</ele><time>2026-04-09T13:31:47Z</time></trkpt><trkpt lat="49.20320669070846" lon="2.582275617424975"><ele>56.0</ele><time>2026-04-09T13:31:49Z</time></trkpt><trkpt lat="49.20314519423969" lon="2.5822370996854613"><ele>56.00000000000001</ele><time>2026-04-09T13:31:51Z</time></trkpt><trkpt lat="49.2030805167196" lon="2.5821950108529745"><ele>56.0</ele><time>2026-04-09T13:31:53Z</time></trkpt><trkpt lat="49.20301050918684" lon="2.582147289060002"><ele>55.50000000000001</ele><time>2026-04-09T13:31:54.999Z</time></trkpt><trkpt lat="49.20294810532703" lon="2.5821029020429322"><ele>55.0</ele><time>2026-04-09T13:31:56.999Z</time></trkpt><trkpt lat="49.202868258052256" lon="2.582044904698533"><ele>54.5</ele><time>2026-04-09T13:31:59.999Z</time></trkpt><trkpt lat="49.20277496252639" lon="2.5820011582530054"><ele>54.0</ele><time>2026-04-09T13:32:02.999Z</time></trkpt><trkpt lat="49.20270884113397" lon="2.5819471319339535"><ele>53.50000000000001</ele><time>2026-04-09T13:32:04.999Z</time></trkpt><trkpt lat="49.202644791522644" lon="2.5818766000415465"><ele>53.0</ele><time>2026-04-09T13:32:06.999Z</time></trkpt><trkpt lat="49.202574955884714" lon="2.5818235072352196"><ele>53.00000000000001</ele><time>2026-04-09T13:32:08.999Z</time></trkpt><trkpt lat="49.20249791249203" lon="2.581801621493672"><ele>53.0</ele><time>2026-04-09T13:32:10.999Z</time></trkpt><trkpt lat="49.202430143979996" lon="2.5817481676641143"><ele>53.0</ele><time>2026-04-09T13:32:12.999Z</time></trkpt><trkpt lat="49.20237323143963" lon="2.581667374214737"><ele>53.0</ele><time>2026-04-09T13:32:14.999Z</time></trkpt><trkpt lat="49.202303240146435" lon="2.5816126603045815"><ele>53.00000000000001</ele><time>2026-04-09T13:32:16.999Z</time></trkpt><trkpt lat="49.20223219217857" lon="2.581557120385913"><ele>53.0</ele><time>2026-04-09T13:32:19.999Z</time></trkpt><trkpt lat="49.20216671462187" lon="2.581508229152442"><ele>53.285714285714285</ele><time>2026-04-09T13:32:22.999Z</time></trkpt><trkpt lat="49.20210298295617" lon="2.581464117060422"><ele>53.57142857142857</ele><time>2026-04-09T13:32:24.999Z</time></trkpt><trkpt lat="49.20202058819071" lon="2.5814055812506718"><ele>53.857142857142854</ele><time>2026-04-09T13:32:27.999Z</time></trkpt><trkpt lat="49.20194304467965" lon="2.5813831223069443"><ele>54.14285714285714</ele><time>2026-04-09T13:32:29.998Z</time></trkpt><trkpt lat="49.20187260893092" lon="2.5813648921587626"><ele>54.42857142857143</ele><time>2026-04-09T13:32:31.998Z</time></trkpt><trkpt lat="49.201810898448365" lon="2.581318982731488"><ele>54.71428571428571</ele><time>2026-04-09T13:32:33.998Z</time></trkpt><trkpt lat="49.201751173432456" lon="2.5812749015098704"><ele>55.0</ele><time>2026-04-09T13:32:35.998Z</time></trkpt><trkpt lat="49.201688575997565" lon="2.5812384494189056"><ele>54.99999999999999</ele><time>2026-04-09T13:32:37.998Z</time></trkpt><trkpt lat="49.20162472801779" lon="2.581202776306627"><ele>55.0</ele><time>2026-04-09T13:32:39.998Z</time></trkpt><trkpt lat="49.20155938815554" lon="2.581161556401285"><ele>55.0</ele><time>2026-04-09T13:32:41.998Z</time></trkpt><trkpt lat="49.20149113909653" lon="2.5811152634787766"><ele>55.0</ele><time>2026-04-09T13:32:43.998Z</time></trkpt><trkpt lat="49.201424602700406" lon="2.5810783751495454"><ele>55.0</ele><time>2026-04-09T13:32:45.998Z</time></trkpt><trkpt lat="49.20135923126971" lon="2.5810426541238822"><ele>54.99999999999999</ele><time>2026-04-09T13:32:47.998Z</time></trkpt><trkpt lat="49.20129459589491" lon="2.5810048149900386"><ele>55.0</ele><time>2026-04-09T13:32:49.998Z</time></trkpt><trkpt lat="49.20123103066415" lon="2.5809643234414335"><ele>55.71428571428571</ele><time>2026-04-09T13:32:51.998Z</time></trkpt><trkpt lat="49.20116921727135" lon="2.580919034266913"><ele>56.42857142857143</ele><time>2026-04-09T13:32:53.998Z</time></trkpt><trkpt lat="49.2011014421428" lon="2.580875695909552"><ele>57.14285714285714</ele><time>2026-04-09T13:32:55.998Z</time></trkpt><trkpt lat="49.20103768618981" lon="2.580835321639742"><ele>57.857142857142854</ele><time>2026-04-09T13:32:57.998Z</time></trkpt><trkpt lat="49.20096282158195" lon="2.5807959122503488"><ele>58.57142857142857</ele><time>2026-04-09T13:32:59.998Z</time></trkpt><trkpt lat="49.200893528466096" lon="2.580749386638693"><ele>59.285714285714285</ele><time>2026-04-09T13:33:01.998Z</time></trkpt><trkpt lat="49.20082994046851" lon="2.580709188371968"><ele>60.0</ele><time>2026-04-09T13:33:03.998Z</time></trkpt><trkpt lat="49.200764530527124" lon="2.5806577958736967"><ele>60.0</ele><time>2026-04-09T13:33:05.997Z</time></trkpt><trkpt lat="49.200691018642175" lon="2.580649060604347"><ele>60.0</ele><time>2026-04-09T13:33:07.997Z</time></trkpt><trkpt lat="49.20062547612937" lon="2.5805394014891245"><ele>60.0</ele><time>2026-04-09T13:33:09.997Z</time></trkpt><trkpt lat="49.200552220016355" lon="2.580476647857553"><ele>60.0</ele><time>2026-04-09T13:33:11.997Z</time></trkpt><trkpt lat="49.20047017007723" lon="2.5804181185291015"><ele>60.0</ele><time>2026-04-09T13:33:14.001Z</time></trkpt><trkpt lat="49.20039001097504" lon="2.580360274971659"><ele>60.0</ele><time>2026-04-09T13:33:16.001Z</time></trkpt><trkpt lat="49.200315862721396" lon="2.5802794510651648"><ele>60.0</ele><time>2026-04-09T13:33:18Z</time></trkpt><trkpt lat="49.20022968070229" lon="2.580244338813177"><ele>60.0</ele><time>2026-04-09T13:33:20.001Z</time></trkpt><trkpt lat="49.20014760137662" lon="2.580184971927326"><ele>60.0</ele><time>2026-04-09T13:33:22Z</time></trkpt><trkpt lat="49.2000681141769" lon="2.5801240720671013"><ele>60.0</ele><time>2026-04-09T13:33:24Z</time></trkpt><trkpt lat="49.199989381358414" lon="2.5800595498990986"><ele>60.0</ele><time>2026-04-09T13:33:26Z</time></trkpt><trkpt lat="49.19990901447753" lon="2.5799994788244995"><ele>60.0</ele><time>2026-04-09T13:33:28Z</time></trkpt><trkpt lat="49.199826744129616" lon="2.5799412446867622"><ele>60.166666666666664</ele><time>2026-04-09T13:33:30Z</time></trkpt><trkpt lat="49.199745058862305" lon="2.579874296241999"><ele>60.33333333333333</ele><time>2026-04-09T13:33:32Z</time></trkpt><trkpt lat="49.19966333317246" lon="2.5798161385700578"><ele>60.5</ele><time>2026-04-09T13:33:34Z</time></trkpt><trkpt lat="49.19958294515218" lon="2.5797602523560155"><ele>60.666666666666664</ele><time>2026-04-09T13:33:36Z</time></trkpt><trkpt lat="49.19950485904111" lon="2.579701209771794"><ele>60.83333333333333</ele><time>2026-04-09T13:33:38Z</time></trkpt><trkpt lat="49.1994260179045" lon="2.5796456957823417"><ele>61.0</ele><time>2026-04-09T13:33:40Z</time></trkpt><trkpt lat="49.199344557983856" lon="2.5795942791621016"><ele>60.99999999999999</ele><time>2026-04-09T13:33:42Z</time></trkpt><trkpt lat="49.19927081168252" lon="2.5795332558593795"><ele>61.0</ele><time>2026-04-09T13:33:44Z</time></trkpt><trkpt lat="49.19920703148078" lon="2.579482457791214"><ele>61.0</ele><time>2026-04-09T13:33:46Z</time></trkpt><trkpt lat="49.199152153235914" lon="2.5794059152460798"><ele>61.0</ele><time>2026-04-09T13:34:01.999Z</time></trkpt><trkpt lat="49.19908930593938" lon="2.5793727524944745"><ele>60.99999999999999</ele><time>2026-04-09T13:34:04.999Z</time></trkpt><trkpt lat="49.19900391631906" lon="2.579339240898555"><ele>61.0</ele><time>2026-04-09T13:34:07.999Z</time></trkpt><trkpt lat="49.19891093033643" lon="2.579289766632842"><ele>60.4</ele><time>2026-04-09T13:34:09.999Z</time></trkpt><trkpt lat="49.19882468411122" lon="2.579232204958187"><ele>59.8</ele><time>2026-04-09T13:34:11.999Z</time></trkpt><trkpt lat="49.19873260343393" lon="2.5791653941625836"><ele>59.199999999999996</ele><time>2026-04-09T13:34:13.999Z</time></trkpt><trkpt lat="49.19864066044196" lon="2.579103234902873"><ele>58.599999999999994</ele><time>2026-04-09T13:34:15.999Z</time></trkpt><trkpt lat="49.19854355548491" lon="2.57904047891117"><ele>58.0</ele><time>2026-04-09T13:34:17.999Z</time></trkpt><trkpt lat="49.19844483347614" lon="2.578975777386145"><ele>58.0</ele><time>2026-04-09T13:34:19.999Z</time></trkpt><trkpt lat="49.19834157732431" lon="2.5789108141299284"><ele>58.0</ele><time>2026-04-09T13:34:21.999Z</time></trkpt><trkpt lat="49.19824734948908" lon="2.5788224025794477"><ele>58.0</ele><time>2026-04-09T13:34:23.999Z</time></trkpt><trkpt lat="49.19814452090387" lon="2.578753173655276"><ele>58.0</ele><time>2026-04-09T13:34:25.999Z</time></trkpt><trkpt lat="49.19803845134365" lon="2.578681762738479"><ele>57.666666666666664</ele><time>2026-04-09T13:34:27.999Z</time></trkpt><trkpt lat="49.19792465608426" lon="2.578633118710086"><ele>57.33333333333333</ele><time>2026-04-09T13:34:29.999Z</time></trkpt><trkpt lat="49.19781228790987" lon="2.5785564795853646"><ele>57.0</ele><time>2026-04-09T13:34:31.999Z</time></trkpt><trkpt lat="49.19775215932353" lon="2.57851531141116"><ele>56.66666666666667</ele><time>2026-04-09T13:34:32.999Z</time></trkpt><trkpt lat="49.197692233592626" lon="2.578473169258338"><ele>56.333333333333336</ele><time>2026-04-09T13:34:33.999Z</time></trkpt><trkpt lat="49.1976331474131" lon="2.5784306553738956"><ele>56.0</ele><time>2026-04-09T13:34:34.999Z</time></trkpt><trkpt lat="49.19757013145378" lon="2.5783907236255885"><ele>56.0</ele><time>2026-04-09T13:34:35.999Z</time></trkpt><trkpt lat="49.1975066191337" lon="2.578346689306505"><ele>56.0</ele><time>2026-04-09T13:34:36.998Z</time></trkpt><trkpt lat="49.19744074393483" lon="2.578307608444964"><ele>56.0</ele><time>2026-04-09T13:34:37.998Z</time></trkpt><trkpt lat="49.197374650521475" lon="2.5782652729925903"><ele>56.0</ele><time>2026-04-09T13:34:38.998Z</time></trkpt><trkpt lat="49.197317739831355" lon="2.578204144253457"><ele>56.0</ele><time>2026-04-09T13:34:39.998Z</time></trkpt><trkpt lat="49.19725315213184" lon="2.5781615395223496"><ele>56.0</ele><time>2026-04-09T13:34:40.998Z</time></trkpt><trkpt lat="49.19719132848184" lon="2.578120692479925"><ele>56.0</ele><time>2026-04-09T13:34:41.998Z</time></trkpt><trkpt lat="49.19712628052926" lon="2.5780776744837177"><ele>55.857142857142854</ele><time>2026-04-09T13:34:42.998Z</time></trkpt><trkpt lat="49.19705507182021" lon="2.5780564408627042"><ele>55.714285714285715</ele><time>2026-04-09T13:34:43.998Z</time></trkpt><trkpt lat="49.19699805046857" lon="2.5779928723117247"><ele>55.57142857142857</ele><time>2026-04-09T13:34:44.998Z</time></trkpt><trkpt lat="49.196934071771196" lon="2.5779505614197142"><ele>55.42857142857143</ele><time>2026-04-09T13:34:45.998Z</time></trkpt><trkpt lat="49.19686880543288" lon="2.5779073988253725"><ele>55.285714285714285</ele><time>2026-04-09T13:34:46.998Z</time></trkpt><trkpt lat="49.19680412080785" lon="2.5778646212162863"><ele>55.14285714285714</ele><time>2026-04-09T13:34:47.998Z</time></trkpt><trkpt lat="49.19673880978578" lon="2.5778214291987225"><ele>55.0</ele><time>2026-04-09T13:34:48.998Z</time></trkpt><trkpt lat="49.19667252035979" lon="2.5777776318983165"><ele>54.99999999999999</ele><time>2026-04-09T13:34:49.998Z</time></trkpt><trkpt lat="49.1966080844248" lon="2.577736433913654"><ele>55.0</ele><time>2026-04-09T13:34:50.998Z</time></trkpt><trkpt lat="49.19654058164858" lon="2.5776932749844312"><ele>55.0</ele><time>2026-04-09T13:34:51.998Z</time></trkpt><trkpt lat="49.196470790306755" lon="2.577648652878153"><ele>55.0</ele><time>2026-04-09T13:34:52.998Z</time></trkpt><trkpt lat="49.19640510012005" lon="2.577607090910471"><ele>55.0</ele><time>2026-04-09T13:34:53.998Z</time></trkpt><trkpt lat="49.196333721580935" lon="2.5775627700713315"><ele>54.99999999999999</ele><time>2026-04-09T13:34:54.998Z</time></trkpt><trkpt lat="49.196264963890236" lon="2.577520076718979"><ele>55.0</ele><time>2026-04-09T13:34:55.998Z</time></trkpt><trkpt lat="49.196204834245336" lon="2.5774827390186568"><ele>54.99999999999999</ele><time>2026-04-09T13:34:56.998Z</time></trkpt><trkpt lat="49.19613491711742" lon="2.577441727995486"><ele>55.0</ele><time>2026-04-09T13:34:57.998Z</time></trkpt><trkpt lat="49.19606992196282" lon="2.5774028771548996"><ele>55.0</ele><time>2026-04-09T13:34:58.998Z</time></trkpt><trkpt lat="49.195998197430725" lon="2.5773865573651866"><ele>55.0</ele><time>2026-04-09T13:34:59.998Z</time></trkpt><trkpt lat="49.19593612268907" lon="2.5773452693833327"><ele>55.0</ele><time>2026-04-09T13:35:00.998Z</time></trkpt><trkpt lat="49.195875087636615" lon="2.5773033863164847"><ele>54.99999999999999</ele><time>2026-04-09T13:35:01.998Z</time></trkpt><trkpt lat="49.195815152696255" lon="2.5772640506432585"><ele>55.0</ele><time>2026-04-09T13:35:02.998Z</time></trkpt><trkpt lat="49.19575470582427" lon="2.577227898738026"><ele>55.0</ele><time>2026-04-09T13:35:03.998Z</time></trkpt><trkpt lat="49.195638331293715" lon="2.577151756673183"><ele>55.0</ele><time>2026-04-09T13:35:05.998Z</time></trkpt><trkpt lat="49.19558078612157" lon="2.5771066870604793"><ele>55.0</ele><time>2026-04-09T13:35:06.998Z</time></trkpt><trkpt lat="49.19550689839071" lon="2.5770287499830205"><ele>55.0</ele><time>2026-04-09T13:35:08.998Z</time></trkpt><trkpt lat="49.19543370737525" lon="2.5769306070832325"><ele>55.0</ele><time>2026-04-09T13:35:09.998Z</time></trkpt><trkpt lat="49.195337121919906" lon="2.5768533034973014"><ele>55.0</ele><time>2026-04-09T13:35:11.997Z</time></trkpt><trkpt lat="49.19523799711563" lon="2.5768210935133204"><ele>55.0</ele><time>2026-04-09T13:35:13.997Z</time></trkpt><trkpt lat="49.195128708792524" lon="2.576751210204107"><ele>55.0</ele><time>2026-04-09T13:35:15.997Z</time></trkpt><trkpt lat="49.19503069840477" lon="2.5766745319178925"><ele>55.0</ele><time>2026-04-09T13:35:17.997Z</time></trkpt><trkpt lat="49.194930674694994" lon="2.5766008421616333"><ele>55.0</ele><time>2026-04-09T13:35:20.001Z</time></trkpt><trkpt lat="49.194833188111254" lon="2.5765295177665934"><ele>55.0</ele><time>2026-04-09T13:35:22.001Z</time></trkpt><trkpt lat="49.19472701785424" lon="2.576462095678795"><ele>55.0</ele><time>2026-04-09T13:35:24.001Z</time></trkpt><trkpt lat="49.19462842105501" lon="2.576402551041272"><ele>55.0</ele><time>2026-04-09T13:35:26.001Z</time></trkpt><trkpt lat="49.19452292528589" lon="2.5763337841813825"><ele>55.0</ele><time>2026-04-09T13:35:28.001Z</time></trkpt><trkpt lat="49.19442073826469" lon="2.5762681329756583"><ele>55.0</ele><time>2026-04-09T13:35:30.001Z</time></trkpt><trkpt lat="49.194316845730604" lon="2.576198124454878"><ele>55.4</ele><time>2026-04-09T13:35:32.001Z</time></trkpt><trkpt lat="49.19421334129076" lon="2.576122532987984"><ele>55.8</ele><time>2026-04-09T13:35:34Z</time></trkpt><trkpt lat="49.19412001437711" lon="2.576045124463404"><ele>56.2</ele><time>2026-04-09T13:35:36Z</time></trkpt><trkpt lat="49.19401789251478" lon="2.5759761429587895"><ele>56.6</ele><time>2026-04-09T13:35:38Z</time></trkpt><trkpt lat="49.19391862765217" lon="2.575904919722123"><ele>57.0</ele><time>2026-04-09T13:35:40Z</time></trkpt><trkpt lat="49.193860871302036" lon="2.5758658145269986"><ele>57.0</ele><time>2026-04-09T13:35:41Z</time></trkpt><trkpt lat="49.19375769160253" lon="2.5757884113934786"><ele>57.0</ele><time>2026-04-09T13:35:43Z</time></trkpt><trkpt lat="49.193647995971695" lon="2.5757134113045383"><ele>57.0</ele><time>2026-04-09T13:35:45Z</time></trkpt><trkpt lat="49.193588747233065" lon="2.575676435995734"><ele>57.0</ele><time>2026-04-09T13:35:46Z</time></trkpt><trkpt lat="49.19348378510605" lon="2.575599010933154"><ele>57.0</ele><time>2026-04-09T13:35:48Z</time></trkpt><trkpt lat="49.19337545386077" lon="2.575524418412831"><ele>57.0</ele><time>2026-04-09T13:35:50Z</time></trkpt><trkpt lat="49.19326693603748" lon="2.5754536670350756"><ele>57.0</ele><time>2026-04-09T13:35:52Z</time></trkpt><trkpt lat="49.193158745417485" lon="2.5753773702128773"><ele>57.0</ele><time>2026-04-09T13:35:54Z</time></trkpt><trkpt lat="49.19304984251496" lon="2.575304816091033"><ele>57.0</ele><time>2026-04-09T13:35:56Z</time></trkpt><trkpt lat="49.1929445318254" lon="2.575231162536207"><ele>57.5</ele><time>2026-04-09T13:35:58Z</time></trkpt><trkpt lat="49.19283798422065" lon="2.5751518145043484"><ele>58.0</ele><time>2026-04-09T13:36:00Z</time></trkpt><trkpt lat="49.19272969550372" lon="2.575073571576063"><ele>58.5</ele><time>2026-04-09T13:36:02Z</time></trkpt><trkpt lat="49.19262597264226" lon="2.5749945655196793"><ele>59.0</ele><time>2026-04-09T13:36:04Z</time></trkpt><trkpt lat="49.19251638604487" lon="2.574924234479757"><ele>59.0</ele><time>2026-04-09T13:36:05.999Z</time></trkpt><trkpt lat="49.192408328776814" lon="2.5748462182460283"><ele>59.0</ele><time>2026-04-09T13:36:07.999Z</time></trkpt><trkpt lat="49.19230219583879" lon="2.5747728082802417"><ele>59.0</ele><time>2026-04-09T13:36:09.999Z</time></trkpt><trkpt lat="49.19219561484585" lon="2.5746940289942817"><ele>59.0</ele><time>2026-04-09T13:36:11.999Z</time></trkpt><trkpt lat="49.1920986972092" lon="2.574617462432928"><ele>59.2</ele><time>2026-04-09T13:36:13.999Z</time></trkpt><trkpt lat="49.191997033362185" lon="2.574533406642712"><ele>59.400000000000006</ele><time>2026-04-09T13:36:15.999Z</time></trkpt><trkpt lat="49.19190032791832" lon="2.5744555529739177"><ele>59.6</ele><time>2026-04-09T13:36:17.999Z</time></trkpt><trkpt lat="49.19181151874342" lon="2.5743934712638765"><ele>59.8</ele><time>2026-04-09T13:36:19.999Z</time></trkpt><trkpt lat="49.19172754885085" lon="2.574328217947043"><ele>60.0</ele><time>2026-04-09T13:36:21.999Z</time></trkpt><trkpt lat="49.19165840356751" lon="2.5742508038247958"><ele>60.166666666666664</ele><time>2026-04-09T13:36:23.999Z</time></trkpt><trkpt lat="49.19161331605864" lon="2.5741388973513883"><ele>60.33333333333333</ele><time>2026-04-09T13:36:25.999Z</time></trkpt><trkpt lat="49.191568601370136" lon="2.574042856025258"><ele>60.5</ele><time>2026-04-09T13:36:27.999Z</time></trkpt><trkpt lat="49.19150978267545" lon="2.5739393536244886"><ele>60.666666666666664</ele><time>2026-04-09T13:36:29.999Z</time></trkpt><trkpt lat="49.19142758512612" lon="2.5738714316675138"><ele>60.83333333333333</ele><time>2026-04-09T13:36:31.999Z</time></trkpt><trkpt lat="49.19133108109595" lon="2.573839354450653"><ele>61.0</ele><time>2026-04-09T13:36:33.999Z</time></trkpt><trkpt lat="49.19123640837629" lon="2.5738566098015494"><ele>61.4</ele><time>2026-04-09T13:36:35.999Z</time></trkpt><trkpt lat="49.19115293347806" lon="2.57393377834638"><ele>61.8</ele><time>2026-04-09T13:36:37.999Z</time></trkpt><trkpt lat="49.19109889255182" lon="2.5740502980452753"><ele>62.199999999999996</ele><time>2026-04-09T13:36:39.999Z</time></trkpt><trkpt lat="49.1910617035188" lon="2.5741919452504254"><ele>62.599999999999994</ele><time>2026-04-09T13:36:41.998Z</time></trkpt><trkpt lat="49.191051557857826" lon="2.574348879760165"><ele>63.0</ele><time>2026-04-09T13:36:43.998Z</time></trkpt><trkpt lat="49.191081972665295" lon="2.574453025980285"><ele>63.0</ele><time>2026-04-09T13:36:45.998Z</time></trkpt><trkpt lat="49.19094836284225" lon="2.574501588437232"><ele>63.0</ele><time>2026-04-09T13:36:49.998Z</time></trkpt><trkpt lat="49.190859576044645" lon="2.574467881026735"><ele>63.0</ele><time>2026-04-09T13:36:52.998Z</time></trkpt><trkpt lat="49.19079403947616" lon="2.5744747418469163"><ele>63.0</ele><time>2026-04-09T13:36:54.998Z</time></trkpt><trkpt lat="49.19071407807508" lon="2.574488034461962"><ele>63.0</ele><time>2026-04-09T13:36:57.998Z</time></trkpt><trkpt lat="49.19064275579103" lon="2.5744877178169974"><ele>63.0</ele><time>2026-04-09T13:36:59.998Z</time></trkpt><trkpt lat="49.190570259928194" lon="2.574500968249426"><ele>63.666666666666664</ele><time>2026-04-09T13:37:01.998Z</time></trkpt><trkpt lat="49.19049379327067" lon="2.5744852509754663"><ele>64.33333333333333</ele><time>2026-04-09T13:37:03.998Z</time></trkpt><trkpt lat="49.19041660950335" lon="2.574467116844316"><ele>65.0</ele><time>2026-04-09T13:37:05.998Z</time></trkpt><trkpt lat="49.19034819062136" lon="2.5744771676357945"><ele>65.66666666666666</ele><time>2026-04-09T13:37:07.998Z</time></trkpt><trkpt lat="49.190276076711115" lon="2.574470323782535"><ele>66.33333333333333</ele><time>2026-04-09T13:37:09.998Z</time></trkpt><trkpt lat="49.190194129366766" lon="2.5744665989226836"><ele>67.0</ele><time>2026-04-09T13:37:11.998Z</time></trkpt><trkpt lat="49.190107452420825" lon="2.574471324493409"><ele>67.0</ele><time>2026-04-09T13:37:13.998Z</time></trkpt><trkpt lat="49.19001250482822" lon="2.574474941356419"><ele>67.0</ele><time>2026-04-09T13:37:15.997Z</time></trkpt><trkpt lat="49.18992057651142" lon="2.5744778000197717"><ele>67.0</ele><time>2026-04-09T13:37:17.997Z</time></trkpt><trkpt lat="49.189830520249885" lon="2.574474138816657"><ele>67.0</ele><time>2026-04-09T13:37:19.997Z</time></trkpt><trkpt lat="49.189748437242024" lon="2.5744657711068974"><ele>67.0</ele><time>2026-04-09T13:37:21.997Z</time></trkpt><trkpt lat="49.18966256596675" lon="2.574465066359472"><ele>67.0</ele><time>2026-04-09T13:37:23.997Z</time></trkpt><trkpt lat="49.18958450976744" lon="2.574467115784266"><ele>67.66666666666666</ele><time>2026-04-09T13:37:26.001Z</time></trkpt><trkpt lat="49.1895027491972" lon="2.5744599387248948"><ele>68.33333333333333</ele><time>2026-04-09T13:37:28.001Z</time></trkpt><trkpt lat="49.189425541304416" lon="2.57446574598361"><ele>69.0</ele><time>2026-04-09T13:37:30.001Z</time></trkpt><trkpt lat="49.189353051747354" lon="2.574482160326259"><ele>69.66666666666667</ele><time>2026-04-09T13:37:32.001Z</time></trkpt><trkpt lat="49.189280473096396" lon="2.574484236417533"><ele>70.33333333333334</ele><time>2026-04-09T13:37:34.001Z</time></trkpt><trkpt lat="49.18921123316714" lon="2.574464404092028"><ele>71.0</ele><time>2026-04-09T13:37:36.001Z</time></trkpt><trkpt lat="49.18911716206928" lon="2.5744579467388227"><ele>71.0</ele><time>2026-04-09T13:37:39.001Z</time></trkpt><trkpt lat="49.18901609569547" lon="2.574439097411722"><ele>71.0</ele><time>2026-04-09T13:37:42Z</time></trkpt><trkpt lat="49.18894442752042" lon="2.5744438442383046"><ele>71.0</ele><time>2026-04-09T13:37:44Z</time></trkpt><trkpt lat="49.18886939078729" lon="2.57445551277344"><ele>71.0</ele><time>2026-04-09T13:37:46Z</time></trkpt><trkpt lat="49.188787801122324" lon="2.5744567524946267"><ele>71.0</ele><time>2026-04-09T13:37:48Z</time></trkpt><trkpt lat="49.18870271878577" lon="2.5744711519281402"><ele>71.0</ele><time>2026-04-09T13:37:50Z</time></trkpt><trkpt lat="49.18863268002307" lon="2.5744734647838503"><ele>71.16666666666667</ele><time>2026-04-09T13:37:52Z</time></trkpt><trkpt lat="49.18856205148499" lon="2.5745148239100373"><ele>71.33333333333334</ele><time>2026-04-09T13:37:54Z</time></trkpt><trkpt lat="49.18849560098614" lon="2.574504860802104"><ele>71.5</ele><time>2026-04-09T13:37:56Z</time></trkpt><trkpt lat="49.18842784856338" lon="2.5744793241515063"><ele>71.66666666666667</ele><time>2026-04-09T13:37:58Z</time></trkpt><trkpt lat="49.188354959712385" lon="2.5744467744170954"><ele>71.83333333333333</ele><time>2026-04-09T13:38:00Z</time></trkpt><trkpt lat="49.18827257101776" lon="2.5744648566498087"><ele>72.0</ele><time>2026-04-09T13:38:02Z</time></trkpt><trkpt lat="49.188193924017014" lon="2.5744646129565045"><ele>71.33333333333333</ele><time>2026-04-09T13:38:04Z</time></trkpt><trkpt lat="49.18810744507362" lon="2.5744573828620925"><ele>70.66666666666667</ele><time>2026-04-09T13:38:06Z</time></trkpt><trkpt lat="49.188036290843435" lon="2.574446166951251"><ele>70.0</ele><time>2026-04-09T13:38:08Z</time></trkpt><trkpt lat="49.1879524976753" lon="2.5744354646827388"><ele>69.33333333333334</ele><time>2026-04-09T13:38:10Z</time></trkpt><trkpt lat="49.187864543765414" lon="2.574429035967804"><ele>68.66666666666667</ele><time>2026-04-09T13:38:11.999Z</time></trkpt><trkpt lat="49.187787238196364" lon="2.5744275885322327"><ele>68.0</ele><time>2026-04-09T13:38:13.999Z</time></trkpt><trkpt lat="49.1877119833122" lon="2.574439710018627"><ele>68.0</ele><time>2026-04-09T13:38:15.999Z</time></trkpt><trkpt lat="49.187629863486066" lon="2.574447723702032"><ele>68.0</ele><time>2026-04-09T13:38:17.999Z</time></trkpt><trkpt lat="49.18754428369777" lon="2.5744761379724563"><ele>68.0</ele><time>2026-04-09T13:38:19.999Z</time></trkpt><trkpt lat="49.18747406637678" lon="2.5744561223483697"><ele>68.0</ele><time>2026-04-09T13:38:21.999Z</time></trkpt><trkpt lat="49.187382764143834" lon="2.574452955654663"><ele>68.0</ele><time>2026-04-09T13:38:23.999Z</time></trkpt><trkpt lat="49.187300426172364" lon="2.5744525412986268"><ele>68.0</ele><time>2026-04-09T13:38:25.999Z</time></trkpt><trkpt lat="49.18721708637638" lon="2.574445726845857"><ele>67.66666666666667</ele><time>2026-04-09T13:38:27.999Z</time></trkpt><trkpt lat="49.18714144425433" lon="2.5744343449463285"><ele>67.33333333333334</ele><time>2026-04-09T13:38:29.999Z</time></trkpt><trkpt lat="49.187065313773566" lon="2.574430880123113"><ele>67.0</ele><time>2026-04-09T13:38:31.999Z</time></trkpt><trkpt lat="49.1869865643351" lon="2.5744351943705475"><ele>66.66666666666667</ele><time>2026-04-09T13:38:33.999Z</time></trkpt><trkpt lat="49.1869033601514" lon="2.5744307537788833"><ele>66.33333333333333</ele><time>2026-04-09T13:38:35.999Z</time></trkpt><trkpt lat="49.186820142273454" lon="2.574416520149907"><ele>66.0</ele><time>2026-04-09T13:38:37.999Z</time></trkpt><trkpt lat="49.18672985523474" lon="2.5743917688731033"><ele>66.0</ele><time>2026-04-09T13:38:39.999Z</time></trkpt><trkpt lat="49.186658273905174" lon="2.574348268418786"><ele>66.0</ele><time>2026-04-09T13:38:41.999Z</time></trkpt><trkpt lat="49.18659610467669" lon="2.574272346213401"><ele>66.0</ele><time>2026-04-09T13:38:43.999Z</time></trkpt><trkpt lat="49.18654862194376" lon="2.5742046447381264"><ele>66.0</ele><time>2026-04-09T13:38:45.998Z</time></trkpt><trkpt lat="49.18646955235168" lon="2.5741395756846446"><ele>66.0</ele><time>2026-04-09T13:38:48.998Z</time></trkpt><trkpt lat="49.18642394836635" lon="2.5740712006824684"><ele>66.0</ele><time>2026-04-09T13:38:51.998Z</time></trkpt><trkpt lat="49.18635368334681" lon="2.574318848907525"><ele>65.83333333333333</ele><time>2026-04-09T13:38:53.998Z</time></trkpt><trkpt lat="49.1862894031757" lon="2.5743054963962715"><ele>65.66666666666667</ele><time>2026-04-09T13:38:55.998Z</time></trkpt><trkpt lat="49.18621055234523" lon="2.5742789111731192"><ele>65.5</ele><time>2026-04-09T13:38:58.998Z</time></trkpt><trkpt lat="49.186128363111735" lon="2.574251200449684"><ele>65.33333333333334</ele><time>2026-04-09T13:39:01.998Z</time></trkpt><trkpt lat="49.186061683900924" lon="2.574228719358332"><ele>65.16666666666667</ele><time>2026-04-09T13:39:03.998Z</time></trkpt><trkpt lat="49.18597330061547" lon="2.5741989206723304"><ele>65.0</ele><time>2026-04-09T13:39:06.998Z</time></trkpt><trkpt lat="49.18590405156295" lon="2.5741755731500104"><ele>65.0</ele><time>2026-04-09T13:39:08.998Z</time></trkpt><trkpt lat="49.1859111271556" lon="2.573870835883426"><ele>65.0</ele><time>2026-04-09T13:39:09.998Z</time></trkpt><trkpt lat="49.18584862076228" lon="2.573832065132762"><ele>65.0</ele><time>2026-04-09T13:39:11.998Z</time></trkpt><trkpt lat="49.185775205048756" lon="2.573799071641289"><ele>65.0</ele><time>2026-04-09T13:39:13.998Z</time></trkpt><trkpt lat="49.18571192241323" lon="2.5737780267494625"><ele>65.0</ele><time>2026-04-09T13:39:15.998Z</time></trkpt><trkpt lat="49.18564645841864" lon="2.573765311898147"><ele>64.66666666666667</ele><time>2026-04-09T13:39:17.998Z</time></trkpt><trkpt lat="49.18557240585391" lon="2.573763954224704"><ele>64.33333333333334</ele><time>2026-04-09T13:39:19.997Z</time></trkpt><trkpt lat="49.18549151693602" lon="2.573787413876433"><ele>64.0</ele><time>2026-04-09T13:39:21.997Z</time></trkpt><trkpt lat="49.18541455425099" lon="2.573800171565953"><ele>63.66666666666667</ele><time>2026-04-09T13:39:23.997Z</time></trkpt><trkpt lat="49.185338601037195" lon="2.5738229033184408"><ele>63.333333333333336</ele><time>2026-04-09T13:39:25.997Z</time></trkpt><trkpt lat="49.185257446609405" lon="2.5738379632555297"><ele>63.0</ele><time>2026-04-09T13:39:27.997Z</time></trkpt><trkpt lat="49.185182282113246" lon="2.5738782132880536"><ele>63.0</ele><time>2026-04-09T13:39:29.997Z</time></trkpt><trkpt lat="49.18510615364644" lon="2.5739109301869556"><ele>63.0</ele><time>2026-04-09T13:39:32.001Z</time></trkpt><trkpt lat="49.18502782894465" lon="2.573965075221731"><ele>63.0</ele><time>2026-04-09T13:39:34.001Z</time></trkpt><trkpt lat="49.18495444206582" lon="2.574011741921534"><ele>63.0</ele><time>2026-04-09T13:39:36.001Z</time></trkpt><trkpt lat="49.18488605059098" lon="2.5740782119388594"><ele>63.0</ele><time>2026-04-09T13:39:38.001Z</time></trkpt><trkpt lat="49.1848027387559" lon="2.5741387410699503"><ele>63.0</ele><time>2026-04-09T13:39:40.001Z</time></trkpt><trkpt lat="49.18472677575671" lon="2.5742048492903447"><ele>62.5</ele><time>2026-04-09T13:39:42.001Z</time></trkpt><trkpt lat="49.184665335973655" lon="2.574263519949057"><ele>62.0</ele><time>2026-04-09T13:39:44.001Z</time></trkpt><trkpt lat="49.18458492012858" lon="2.57431918380673"><ele>61.5</ele><time>2026-04-09T13:39:46Z</time></trkpt><trkpt lat="49.184503913609184" lon="2.5743667569580615"><ele>61.0</ele><time>2026-04-09T13:39:48Z</time></trkpt><trkpt lat="49.18442741878711" lon="2.5744195531844642"><ele>60.5</ele><time>2026-04-09T13:39:50Z</time></trkpt><trkpt lat="49.1843481779215" lon="2.574484103592314"><ele>60.0</ele><time>2026-04-09T13:39:52Z</time></trkpt><trkpt lat="49.184268553891435" lon="2.574509910934454"><ele>60.5</ele><time>2026-04-09T13:39:54Z</time></trkpt><trkpt lat="49.184180010013584" lon="2.5745437720796756"><ele>61.0</ele><time>2026-04-09T13:39:56Z</time></trkpt><trkpt lat="49.18409478269095" lon="2.574567429008653"><ele>61.5</ele><time>2026-04-09T13:39:58Z</time></trkpt><trkpt lat="49.184010176512615" lon="2.5745937412406126"><ele>62.0</ele><time>2026-04-09T13:40:00Z</time></trkpt><trkpt lat="49.18392060781189" lon="2.574630021546864"><ele>62.5</ele><time>2026-04-09T13:40:02Z</time></trkpt><trkpt lat="49.183835365476476" lon="2.574671504695655"><ele>63.0</ele><time>2026-04-09T13:40:04Z</time></trkpt><trkpt lat="49.183752016676976" lon="2.574702485749784"><ele>63.2</ele><time>2026-04-09T13:40:06Z</time></trkpt><trkpt lat="49.18366637986739" lon="2.574739823943236"><ele>63.4</ele><time>2026-04-09T13:40:08Z</time></trkpt><trkpt lat="49.183583793711435" lon="2.5747894872380477"><ele>63.60000000000001</ele><time>2026-04-09T13:40:10Z</time></trkpt><trkpt lat="49.18350088241513" lon="2.5748354063726735"><ele>63.800000000000004</ele><time>2026-04-09T13:40:12Z</time></trkpt><trkpt lat="49.18341784052678" lon="2.574885799412414"><ele>64.0</ele><time>2026-04-09T13:40:14Z</time></trkpt><trkpt lat="49.183324202148775" lon="2.574914792031959"><ele>64.0</ele><time>2026-04-09T13:40:16Z</time></trkpt><trkpt lat="49.18323400388639" lon="2.574912662175607"><ele>64.0</ele><time>2026-04-09T13:40:17.999Z</time></trkpt><trkpt lat="49.183147336391464" lon="2.57486164322672"><ele>64.0</ele><time>2026-04-09T13:40:19.999Z</time></trkpt><trkpt lat="49.183067080766556" lon="2.574806383464613"><ele>64.0</ele><time>2026-04-09T13:40:21.999Z</time></trkpt><trkpt lat="49.18297662715424" lon="2.574742630319952"><ele>64.0</ele><time>2026-04-09T13:40:23.999Z</time></trkpt><trkpt lat="49.18288886391511" lon="2.5747286981388045"><ele>64.2</ele><time>2026-04-09T13:40:25.999Z</time></trkpt><trkpt lat="49.18279607341076" lon="2.5747070880515532"><ele>64.4</ele><time>2026-04-09T13:40:27.999Z</time></trkpt><trkpt lat="49.18270389513252" lon="2.574706654505625"><ele>64.6</ele><time>2026-04-09T13:40:29.999Z</time></trkpt><trkpt lat="49.18260645654582" lon="2.5747143520899796"><ele>64.8</ele><time>2026-04-09T13:40:31.999Z</time></trkpt><trkpt lat="49.18250955996674" lon="2.574721506648435"><ele>65.0</ele><time>2026-04-09T13:40:33.999Z</time></trkpt><trkpt lat="49.182404192514674" lon="2.5747363845392797"><ele>64.66666666666667</ele><time>2026-04-09T13:40:35.999Z</time></trkpt><trkpt lat="49.18230763189882" lon="2.5747076877806943"><ele>64.33333333333334</ele><time>2026-04-09T13:40:37.999Z</time></trkpt><trkpt lat="49.182237846558216" lon="2.574644305011085"><ele>64.0</ele><time>2026-04-09T13:40:39.999Z</time></trkpt><trkpt lat="49.1821618849437" lon="2.5745901775246427"><ele>63.66666666666667</ele><time>2026-04-09T13:40:41.999Z</time></trkpt><trkpt lat="49.18207838758518" lon="2.574531742531768"><ele>63.333333333333336</ele><time>2026-04-09T13:40:43.999Z</time></trkpt><trkpt lat="49.18199644548091" lon="2.5744747003316952"><ele>63.0</ele><time>2026-04-09T13:40:45.999Z</time></trkpt><trkpt lat="49.181912919433685" lon="2.5744163969755594"><ele>63.0</ele><time>2026-04-09T13:40:47.999Z</time></trkpt><trkpt lat="49.1818315109335" lon="2.5743580438848164"><ele>63.0</ele><time>2026-04-09T13:40:49.999Z</time></trkpt><trkpt lat="49.18175015917745" lon="2.574303080858644"><ele>63.0</ele><time>2026-04-09T13:40:51.998Z</time></trkpt><trkpt lat="49.18166911439273" lon="2.5742515567239286"><ele>63.0</ele><time>2026-04-09T13:40:53.998Z</time></trkpt><trkpt lat="49.18158816105892" lon="2.5741966038114446"><ele>63.0</ele><time>2026-04-09T13:40:55.998Z</time></trkpt><trkpt lat="49.1815072897912" lon="2.574149659314546"><ele>63.0</ele><time>2026-04-09T13:40:57.998Z</time></trkpt><trkpt lat="49.19064275579103" lon="2.5744877178169974"><ele>63.666666666666664</ele><time>2026-04-09T13:36:59.998Z</time></trkpt><trkpt lat="49.190570259928194" lon="2.574500968249426"><ele>64.33333333333333</ele><time>2026-04-09T13:37:01.998Z</time></trkpt><trkpt lat="49.19049379327067" lon="2.5744852509754663"><ele>65.0</ele><time>2026-04-09T13:37:03.998Z</time></trkpt><trkpt lat="49.19041660950335" lon="2.574467116844316"><ele>65.66666666666666</ele><time>2026-04-09T13:37:05.998Z</time></trkpt><trkpt lat="49.19034819062136" lon="2.5744771676357945"><ele>66.33333333333333</ele><time>2026-04-09T13:37:07.998Z</time></trkpt><trkpt lat="49.190276076711115" lon="2.574470323782535"><ele>67.0</ele><time>2026-04-09T13:37:09.998Z</time></trkpt><trkpt lat="49.190194129366766" lon="2.5744665989226836"><ele>67.0</ele><time>2026-04-09T13:37:11.998Z</time></trkpt><trkpt lat="49.190107452420825" lon="2.574471324493409"><ele>67.0</ele><time>2026-04-09T13:37:13.998Z</time></trkpt><trkpt lat="49.19001250482822" lon="2.574474941356419"><ele>67.0</ele><time>2026-04-09T13:37:15.997Z</time></trkpt><trkpt lat="49.18992057651142" lon="2.5744778000197717"><ele>67.0</ele><time>2026-04-09T13:37:17.997Z</time></trkpt><trkpt lat="49.189830520249885" lon="2.574474138816657"><ele>67.0</ele><time>2026-04-09T13:37:19.997Z</time></trkpt><trkpt lat="49.189748437242024" lon="2.5744657711068974"><ele>67.0</ele><time>2026-04-09T13:37:21.997Z</time></trkpt><trkpt lat="49.18966256596675" lon="2.574465066359472"><ele>67.66666666666666</ele><time>2026-04-09T13:37:23.997Z</time></trkpt><trkpt lat="49.18958450976744" lon="2.574467115784266"><ele>68.33333333333333</ele><time>2026-04-09T13:37:26.001Z</time></trkpt><trkpt lat="49.1895027491972" lon="2.5744599387248948"><ele>69.0</ele><time>2026-04-09T13:37:28.001Z</time></trkpt><trkpt lat="49.189425541304416" lon="2.57446574598361"><ele>69.66666666666667</ele><time>2026-04-09T13:37:30.001Z</time></trkpt><trkpt lat="49.189353051747354" lon="2.574482160326259"><ele>70.33333333333334</ele><time>2026-04-09T13:37:32.001Z</time></trkpt><trkpt lat="49.189280473096396" lon="2.574484236417533"><ele>71.0</ele><time>2026-04-09T13:37:34.001Z</time></trkpt><trkpt lat="49.18921123316714" lon="2.574464404092028"><ele>71.0</ele><time>2026-04-09T13:37:36.001Z</time></trkpt><trkpt lat="49.18911716206928" lon="2.5744579467388227"><ele>71.0</ele><time>2026-04-09T13:37:39.001Z</time></trkpt><trkpt lat="49.18901609569547" lon="2.574439097411722"><ele>71.0</ele><time>2026-04-09T13:37:42Z</time></trkpt><trkpt lat="49.18894442752042" lon="2.5744438442383046"><ele>71.0</ele><time>2026-04-09T13:37:44Z</time></trkpt><trkpt lat="49.18886939078729" lon="2.57445551277344"><ele>71.0</ele><time>2026-04-09T13:37:46Z</time></trkpt><trkpt lat="49.188787801122324" lon="2.5744567524946267"><ele>71.0</ele><time>2026-04-09T13:37:48Z</time></trkpt><trkpt lat="49.18870271878577" lon="2.5744711519281402"><ele>71.14285714285714</ele><time>2026-04-09T13:37:50Z</time></trkpt><trkpt lat="49.18863268002307" lon="2.5744734647838503"><ele>71.28571428571428</ele><time>2026-04-09T13:37:52Z</time></trkpt><trkpt lat="49.18856205148499" lon="2.5745148239100373"><ele>71.42857142857143</ele><time>2026-04-09T13:37:54Z</time></trkpt><trkpt lat="49.18849560098614" lon="2.574504860802104"><ele>71.57142857142857</ele><time>2026-04-09T13:37:56Z</time></trkpt><trkpt lat="49.18842784856338" lon="2.5744793241515063"><ele>71.71428571428572</ele><time>2026-04-09T13:37:58Z</time></trkpt><trkpt lat="49.188354959712385" lon="2.5744467744170954"><ele>71.85714285714286</ele><time>2026-04-09T13:38:00Z</time></trkpt><trkpt lat="49.18827257101776" lon="2.5744648566498087"><ele>72.0</ele><time>2026-04-09T13:38:02Z</time></trkpt><trkpt lat="49.188193924017014" lon="2.5744646129565045"><ele>71.33333333333333</ele><time>2026-04-09T13:38:04Z</time></trkpt><trkpt lat="49.18810744507362" lon="2.5744573828620925"><ele>70.66666666666667</ele><time>2026-04-09T13:38:06Z</time></trkpt><trkpt lat="49.188036290843435" lon="2.574446166951251"><ele>70.0</ele><time>2026-04-09T13:38:08Z</time></trkpt><trkpt lat="49.1879524976753" lon="2.5744354646827388"><ele>69.33333333333334</ele><time>2026-04-09T13:38:10Z</time></trkpt><trkpt lat="49.187864543765414" lon="2.574429035967804"><ele>68.66666666666667</ele><time>2026-04-09T13:38:11.999Z</time></trkpt><trkpt lat="49.187787238196364" lon="2.5744275885322327"><ele>68.0</ele><time>2026-04-09T13:38:13.999Z</time></trkpt><trkpt lat="49.1877119833122" lon="2.574439710018627"><ele>68.0</ele><time>2026-04-09T13:38:15.999Z</time></trkpt><trkpt lat="49.187629863486066" lon="2.574447723702032"><ele>68.0</ele><time>2026-04-09T13:38:17.999Z</time></trkpt><trkpt lat="49.18754428369777" lon="2.5744761379724563"><ele>68.0</ele><time>2026-04-09T13:38:19.999Z</time></trkpt><trkpt lat="49.18747406637678" lon="2.5744561223483697"><ele>68.0</ele><time>2026-04-09T13:38:21.999Z</time></trkpt><trkpt lat="49.187382764143834" lon="2.574452955654663"><ele>68.0</ele><time>2026-04-09T13:38:23.999Z</time></trkpt><trkpt lat="49.187300426172364" lon="2.5744525412986268"><ele>68.0</ele><time>2026-04-09T13:38:25.999Z</time></trkpt><trkpt lat="49.18721708637638" lon="2.574445726845857"><ele>67.66666666666667</ele><time>2026-04-09T13:38:27.999Z</time></trkpt><trkpt lat="49.18714144425433" lon="2.5744343449463285"><ele>67.33333333333334</ele><time>2026-04-09T13:38:29.999Z</time></trkpt><trkpt lat="49.187065313773566" lon="2.574430880123113"><ele>67.0</ele><time>2026-04-09T13:38:31.999Z</time></trkpt><trkpt lat="49.1869865643351" lon="2.5744351943705475"><ele>66.66666666666667</ele><time>2026-04-09T13:38:33.999Z</time></trkpt><trkpt lat="49.1869033601514" lon="2.5744307537788833"><ele>66.33333333333333</ele><time>2026-04-09T13:38:35.999Z</time></trkpt><trkpt lat="49.186820142273454" lon="2.574416520149907"><ele>66.0</ele><time>2026-04-09T13:38:37.999Z</time></trkpt><trkpt lat="49.18672985523474" lon="2.5743917688731033"><ele>66.0</ele><time>2026-04-09T13:38:39.999Z</time></trkpt><trkpt lat="49.186658273905174" lon="2.574348268418786"><ele>66.0</ele><time>2026-04-09T13:38:41.999Z</time></trkpt><trkpt lat="49.18659610467669" lon="2.574272346213401"><ele>66.0</ele><time>2026-04-09T13:38:43.999Z</time></trkpt><trkpt lat="49.18654862194376" lon="2.5742046447381264"><ele>66.0</ele><time>2026-04-09T13:38:45.998Z</time></trkpt><trkpt lat="49.18646955235168" lon="2.5741395756846446"><ele>66.0</ele><time>2026-04-09T13:38:48.998Z</time></trkpt><trkpt lat="49.18642394836635" lon="2.5740712006824684"><ele>66.0</ele><time>2026-04-09T13:38:51.998Z</time></trkpt><trkpt lat="49.18635368334681" lon="2.574318848907525"><ele>65.83333333333333</ele><time>2026-04-09T13:38:53.998Z</time></trkpt><trkpt lat="49.1862894031757" lon="2.5743054963962715"><ele>65.66666666666667</ele><time>2026-04-09T13:38:55.998Z</time></trkpt><trkpt lat="49.18621055234523" lon="2.5742789111731192"><ele>65.5</ele><time>2026-04-09T13:38:58.998Z</time></trkpt><trkpt lat="49.186128363111735" lon="2.574251200449684"><ele>65.33333333333334</ele><time>2026-04-09T13:39:01.998Z</time></trkpt><trkpt lat="49.186061683900924" lon="2.574228719358332"><ele>65.16666666666667</ele><time>2026-04-09T13:39:03.998Z</time></trkpt><trkpt lat="49.18597330061547" lon="2.5741989206723304"><ele>65.0</ele><time>2026-04-09T13:39:06.998Z</time></trkpt><trkpt lat="49.18590405156295" lon="2.5741755731500104"><ele>65.0</ele><time>2026-04-09T13:39:08.998Z</time></trkpt><trkpt lat="49.1859111271556" lon="2.573870835883426"><ele>65.0</ele><time>2026-04-09T13:39:09.998Z</time></trkpt><trkpt lat="49.18584862076228" lon="2.573832065132762"><ele>65.0</ele><time>2026-04-09T13:39:11.998Z</time></trkpt><trkpt lat="49.185775205048756" lon="2.573799071641289"><ele>65.0</ele><time>2026-04-09T13:39:13.998Z</time></trkpt><trkpt lat="49.18571192241323" lon="2.5737780267494625"><ele>65.0</ele><time>2026-04-09T13:39:15.998Z</time></trkpt><trkpt lat="49.18564645841864" lon="2.573765311898147"><ele>64.66666666666667</ele><time>2026-04-09T13:39:17.998Z</time></trkpt><trkpt lat="49.18557240585391" lon="2.573763954224704"><ele>64.33333333333334</ele><time>2026-04-09T13:39:19.997Z</time></trkpt><trkpt lat="49.18549151693602" lon="2.573787413876433"><ele>64.0</ele><time>2026-04-09T13:39:21.997Z</time></trkpt><trkpt lat="49.18541455425099" lon="2.573800171565953"><ele>63.66666666666667</ele><time>2026-04-09T13:39:23.997Z</time></trkpt><trkpt lat="49.185338601037195" lon="2.5738229033184408"><ele>63.333333333333336</ele><time>2026-04-09T13:39:25.997Z</time></trkpt><trkpt lat="49.185257446609405" lon="2.5738379632555297"><ele>63.0</ele><time>2026-04-09T13:39:27.997Z</time></trkpt><trkpt lat="49.185182282113246" lon="2.5738782132880536"><ele>63.0</ele><time>2026-04-09T13:39:29.997Z</time></trkpt><trkpt lat="49.18510615364644" lon="2.5739109301869556"><ele>63.0</ele><time>2026-04-09T13:39:32.001Z</time></trkpt><trkpt lat="49.18502782894465" lon="2.573965075221731"><ele>63.0</ele><time>2026-04-09T13:39:34.001Z</time></trkpt><trkpt lat="49.18495444206582" lon="2.574011741921534"><ele>63.0</ele><time>2026-04-09T13:39:36.001Z</time></trkpt><trkpt lat="49.18488605059098" lon="2.5740782119388594"><ele>63.0</ele><time>2026-04-09T13:39:38.001Z</time></trkpt><trkpt lat="49.1848027387559" lon="2.5741387410699503"><ele>63.0</ele><time>2026-04-09T13:39:40.001Z</time></trkpt><trkpt lat="49.18472677575671" lon="2.5742048492903447"><ele>62.5</ele><time>2026-04-09T13:39:42.001Z</time></trkpt><trkpt lat="49.184665335973655" lon="2.574263519949057"><ele>62.0</ele><time>2026-04-09T13:39:44.001Z</time></trkpt><trkpt lat="49.18458492012858" lon="2.57431918380673"><ele>61.5</ele><time>2026-04-09T13:39:46Z</time></trkpt><trkpt lat="49.184503913609184" lon="2.5743667569580615"><ele>61.0</ele><time>2026-04-09T13:39:48Z</time></trkpt><trkpt lat="49.18442741878711" lon="2.5744195531844642"><ele>60.5</ele><time>2026-04-09T13:39:50Z</time></trkpt><trkpt lat="49.1843481779215" lon="2.574484103592314"><ele>60.0</ele><time>2026-04-09T13:39:52Z</time></trkpt><trkpt lat="49.184268553891435" lon="2.574509910934454"><ele>60.5</ele><time>2026-04-09T13:39:54Z</time></trkpt><trkpt lat="49.184180010013584" lon="2.5745437720796756"><ele>61.0</ele><time>2026-04-09T13:39:56Z</time></trkpt><trkpt lat="49.18409478269095" lon="2.574567429008653"><ele>61.5</ele><time>2026-04-09T13:39:58Z</time></trkpt><trkpt lat="49.184010176512615" lon="2.5745937412406126"><ele>62.0</ele><time>2026-04-09T13:40:00Z</time></trkpt><trkpt lat="49.18392060781189" lon="2.574630021546864"><ele>62.5</ele><time>2026-04-09T13:40:02Z</time></trkpt><trkpt lat="49.183835365476476" lon="2.574671504695655"><ele>63.0</ele><time>2026-04-09T13:40:04Z</time></trkpt><trkpt lat="49.183752016676976" lon="2.574702485749784"><ele>63.2</ele><time>2026-04-09T13:40:06Z</time></trkpt><trkpt lat="49.18366637986739" lon="2.574739823943236"><ele>63.4</ele><time>2026-04-09T13:40:08Z</time></trkpt><trkpt lat="49.183583793711435" lon="2.5747894872380477"><ele>63.60000000000001</ele><time>2026-04-09T13:40:10Z</time></trkpt><trkpt lat="49.18350088241513" lon="2.5748354063726735"><ele>63.800000000000004</ele><time>2026-04-09T13:40:12Z</time></trkpt><trkpt lat="49.18341784052678" lon="2.574885799412414"><ele>64.0</ele><time>2026-04-09T13:40:14Z</time></trkpt><trkpt lat="49.183324202148775" lon="2.574914792031959"><ele>64.0</ele><time>2026-04-09T13:40:16Z</time></trkpt><trkpt lat="49.18323400388639" lon="2.574912662175607"><ele>64.0</ele><time>2026-04-09T13:40:17.999Z</time></trkpt><trkpt lat="49.183147336391464" lon="2.57486164322672"><ele>64.0</ele><time>2026-04-09T13:40:19.999Z</time></trkpt><trkpt lat="49.183067080766556" lon="2.574806383464613"><ele>64.0</ele><time>2026-04-09T13:40:21.999Z</time></trkpt><trkpt lat="49.18297662715424" lon="2.574742630319952"><ele>64.0</ele><time>2026-04-09T13:40:23.999Z</time></trkpt><trkpt lat="49.18288886391511" lon="2.5747286981388045"><ele>64.2</ele><time>2026-04-09T13:40:25.999Z</time></trkpt><trkpt lat="49.18279607341076" lon="2.5747070880515532"><ele>64.4</ele><time>2026-04-09T13:40:27.999Z</time></trkpt><trkpt lat="49.18270389513252" lon="2.574706654505625"><ele>64.6</ele><time>2026-04-09T13:40:29.999Z</time></trkpt><trkpt lat="49.18260645654582" lon="2.5747143520899796"><ele>64.8</ele><time>2026-04-09T13:40:31.999Z</time></trkpt><trkpt lat="49.18250955996674" lon="2.574721506648435"><ele>65.0</ele><time>2026-04-09T13:40:33.999Z</time></trkpt><trkpt lat="49.182404192514674" lon="2.5747363845392797"><ele>64.66666666666667</ele><time>2026-04-09T13:40:35.999Z</time></trkpt><trkpt lat="49.18230763189882" lon="2.5747076877806943"><ele>64.33333333333334</ele><time>2026-04-09T13:40:37.999Z</time></trkpt><trkpt lat="49.182237846558216" lon="2.574644305011085"><ele>64.0</ele><time>2026-04-09T13:40:39.999Z</time></trkpt><trkpt lat="49.1821618849437" lon="2.5745901775246427"><ele>63.66666666666667</ele><time>2026-04-09T13:40:41.999Z</time></trkpt><trkpt lat="49.18207838758518" lon="2.574531742531768"><ele>63.333333333333336</ele><time>2026-04-09T13:40:43.999Z</time></trkpt><trkpt lat="49.18199644548091" lon="2.5744747003316952"><ele>63.0</ele><time>2026-04-09T13:40:45.999Z</time></trkpt><trkpt lat="49.181912919433685" lon="2.5744163969755594"><ele>63.0</ele><time>2026-04-09T13:40:47.999Z</time></trkpt><trkpt lat="49.1818315109335" lon="2.5743580438848164"><ele>63.0</ele><time>2026-04-09T13:40:49.999Z</time></trkpt><trkpt lat="49.18175015917745" lon="2.574303080858644"><ele>63.0</ele><time>2026-04-09T13:40:51.998Z</time></trkpt><trkpt lat="49.18166911439273" lon="2.5742515567239286"><ele>63.0</ele><time>2026-04-09T13:40:53.998Z</time></trkpt><trkpt lat="49.18158816105892" lon="2.5741966038114446"><ele>63.0</ele><time>2026-04-09T13:40:55.998Z</time></trkpt><trkpt lat="49.1815072897912" lon="2.574149659314546"><ele>63.0</ele><time>2026-04-09T13:40:57.998Z</time></trkpt><trkpt lat="49.18142862123329" lon="2.5740900540438023"><ele>62.333333333333336</ele><time>2026-04-09T13:40:59.998Z</time></trkpt><trkpt lat="49.181351125585635" lon="2.57403831491786"><ele>61.66666666666667</ele><time>2026-04-09T13:41:01.998Z</time></trkpt><trkpt lat="49.18127372132877" lon="2.573980406465219"><ele>61.0</ele><time>2026-04-09T13:41:03.998Z</time></trkpt><trkpt lat="49.18119278991259" lon="2.573926457078094"><ele>60.333333333333336</ele><time>2026-04-09T13:41:05.998Z</time></trkpt><trkpt lat="49.1811122930646" lon="2.573868921299344"><ele>59.66666666666667</ele><time>2026-04-09T13:41:07.998Z</time></trkpt><trkpt lat="49.18102831126024" lon="2.57380969381479"><ele>59.0</ele><time>2026-04-09T13:41:09.998Z</time></trkpt><trkpt lat="49.18093549227746" lon="2.573747761261005"><ele>59.66666666666667</ele><time>2026-04-09T13:41:11.998Z</time></trkpt><trkpt lat="49.180857297869984" lon="2.5736870882703275"><ele>60.333333333333336</ele><time>2026-04-09T13:41:13.998Z</time></trkpt><trkpt lat="49.180762151559286" lon="2.573624613199201"><ele>61.0</ele><time>2026-04-09T13:41:15.998Z</time></trkpt><trkpt lat="49.18067264847602" lon="2.573584704815191"><ele>61.66666666666667</ele><time>2026-04-09T13:41:17.998Z</time></trkpt><trkpt lat="49.180600313919946" lon="2.573538888224105"><ele>62.333333333333336</ele><time>2026-04-09T13:41:19.998Z</time></trkpt><trkpt lat="49.18051768885087" lon="2.5735034875195506"><ele>63.0</ele><time>2026-04-09T13:41:21.998Z</time></trkpt><trkpt lat="49.180440760733205" lon="2.5734572059403655"><ele>63.0</ele><time>2026-04-09T13:41:23.998Z</time></trkpt><trkpt lat="49.18038367325844" lon="2.5733988471972418"><ele>63.0</ele><time>2026-04-09T13:41:25.997Z</time></trkpt><trkpt lat="49.180320107736605" lon="2.5733361041337295"><ele>63.0</ele><time>2026-04-09T13:41:27.997Z</time></trkpt><trkpt lat="49.18025318402467" lon="2.5733111024223407"><ele>63.0</ele><time>2026-04-09T13:41:29.997Z</time></trkpt><trkpt lat="49.180185120117024" lon="2.5732121475335568"><ele>63.0</ele><time>2026-04-09T13:41:32.997Z</time></trkpt><trkpt lat="49.1801106884586" lon="2.5731631960130232"><ele>63.0</ele><time>2026-04-09T13:41:34.997Z</time></trkpt><trkpt lat="49.18003183647401" lon="2.5731015527697956"><ele>63.0</ele><time>2026-04-09T13:41:37.001Z</time></trkpt><trkpt lat="49.17995788301979" lon="2.5730402887406387"><ele>63.0</ele><time>2026-04-09T13:41:39.001Z</time></trkpt><trkpt lat="49.179868067606776" lon="2.5729941565046333"><ele>63.0</ele><time>2026-04-09T13:41:41.001Z</time></trkpt><trkpt lat="49.17979024021972" lon="2.5729283761967117"><ele>63.0</ele><time>2026-04-09T13:41:43.001Z</time></trkpt><trkpt lat="49.179699124758734" lon="2.572868948645768"><ele>63.0</ele><time>2026-04-09T13:41:45.001Z</time></trkpt><trkpt lat="49.179605672854365" lon="2.57280621132759"><ele>63.0</ele><time>2026-04-09T13:41:47.001Z</time></trkpt><trkpt lat="49.179522664702176" lon="2.572749675416474"><ele>63.0</ele><time>2026-04-09T13:41:49Z</time></trkpt><trkpt lat="49.17944316371678" lon="2.5726880331518314"><ele>63.0</ele><time>2026-04-09T13:41:51Z</time></trkpt><trkpt lat="49.179365443371736" lon="2.572643315594778"><ele>63.0</ele><time>2026-04-09T13:41:53Z</time></trkpt><trkpt lat="49.17929631800394" lon="2.5725901973824317"><ele>63.0</ele><time>2026-04-09T13:41:55Z</time></trkpt><trkpt lat="49.179225583475116" lon="2.572532375078541"><ele>63.0</ele><time>2026-04-09T13:41:57Z</time></trkpt><trkpt lat="49.17914107616788" lon="2.5724808790865645"><ele>63.0</ele><time>2026-04-09T13:41:59Z</time></trkpt><trkpt lat="49.17906324310089" lon="2.5724220324433364"><ele>63.0</ele><time>2026-04-09T13:42:01Z</time></trkpt><trkpt lat="49.1789716371189" lon="2.5723550089931173"><ele>63.0</ele><time>2026-04-09T13:42:03Z</time></trkpt><trkpt lat="49.17888245416965" lon="2.5722964352250455"><ele>63.0</ele><time>2026-04-09T13:42:05Z</time></trkpt><trkpt lat="49.17879734565316" lon="2.572236901923245"><ele>63.0</ele><time>2026-04-09T13:42:07Z</time></trkpt><trkpt lat="49.17871530945246" lon="2.572184481147872"><ele>63.0</ele><time>2026-04-09T13:42:09Z</time></trkpt><trkpt lat="49.178627310201904" lon="2.572114802794791"><ele>63.0</ele><time>2026-04-09T13:42:11Z</time></trkpt><trkpt lat="49.17854122937691" lon="2.5720640984218752"><ele>63.0</ele><time>2026-04-09T13:42:13Z</time></trkpt><trkpt lat="49.17847209721074" lon="2.5720195572545914"><ele>63.0</ele><time>2026-04-09T13:42:15Z</time></trkpt><trkpt lat="49.1783949001814" lon="2.571970749481794"><ele>63.0</ele><time>2026-04-09T13:42:17Z</time></trkpt><trkpt lat="49.17831733717092" lon="2.571920497252115"><ele>63.0</ele><time>2026-04-09T13:42:20Z</time></trkpt><trkpt lat="49.1782497235066" lon="2.571868938983071"><ele>62.4</ele><time>2026-04-09T13:42:21.999Z</time></trkpt><trkpt lat="49.178178266837676" lon="2.5718150926874404"><ele>61.8</ele><time>2026-04-09T13:42:23.999Z</time></trkpt><trkpt lat="49.178098532133696" lon="2.5717610771972548"><ele>61.2</ele><time>2026-04-09T13:42:25.999Z</time></trkpt><trkpt lat="49.1780038447158" lon="2.5716945375930598"><ele>60.6</ele><time>2026-04-09T13:42:27.999Z</time></trkpt><trkpt lat="49.17791724926703" lon="2.5716363475197075"><ele>60.0</ele><time>2026-04-09T13:42:29.999Z</time></trkpt><trkpt lat="49.17783627640167" lon="2.571567924318711"><ele>60.0</ele><time>2026-04-09T13:42:31.999Z</time></trkpt><trkpt lat="49.177742357690676" lon="2.5715112347348734"><ele>60.0</ele><time>2026-04-09T13:42:33.999Z</time></trkpt><trkpt lat="49.17765420951804" lon="2.571450476359584"><ele>60.0</ele><time>2026-04-09T13:42:35.999Z</time></trkpt><trkpt lat="49.17756801235013" lon="2.5713885543085535"><ele>60.0</ele><time>2026-04-09T13:42:37.999Z</time></trkpt><trkpt lat="49.177482057247396" lon="2.5713307817234923"><ele>60.0</ele><time>2026-04-09T13:42:39.999Z</time></trkpt><trkpt lat="49.17740100485313" lon="2.571265549623209"><ele>60.0</ele><time>2026-04-09T13:42:41.999Z</time></trkpt><trkpt lat="49.177313696620416" lon="2.571203017726276"><ele>60.0</ele><time>2026-04-09T13:42:43.999Z</time></trkpt><trkpt lat="49.1772131981343" lon="2.5711402939009345"><ele>60.0</ele><time>2026-04-09T13:42:45.999Z</time></trkpt><trkpt lat="49.17711811515199" lon="2.5710697909934432"><ele>60.0</ele><time>2026-04-09T13:42:47.999Z</time></trkpt><trkpt lat="49.177025112023486" lon="2.5710027676741545"><ele>60.0</ele><time>2026-04-09T13:42:49.999Z</time></trkpt><trkpt lat="49.176926861065944" lon="2.5709248531188464"><ele>60.0</ele><time>2026-04-09T13:42:51.999Z</time></trkpt><trkpt lat="49.17682459145326" lon="2.570857662965428"><ele>60.0</ele><time>2026-04-09T13:42:53.999Z</time></trkpt><trkpt lat="49.17673447784889" lon="2.570780394766601"><ele>60.0</ele><time>2026-04-09T13:42:55.998Z</time></trkpt><trkpt lat="49.176634100695736" lon="2.570686348340178"><ele>60.0</ele><time>2026-04-09T13:42:57.998Z</time></trkpt><trkpt lat="49.17652378817006" lon="2.5706256921203274"><ele>60.6</ele><time>2026-04-09T13:42:59.998Z</time></trkpt><trkpt lat="49.176424716865675" lon="2.5705549775360326"><ele>61.2</ele><time>2026-04-09T13:43:01.998Z</time></trkpt><trkpt lat="49.176330571355926" lon="2.5704743008824393"><ele>61.8</ele><time>2026-04-09T13:43:03.998Z</time></trkpt><trkpt lat="49.176240158163054" lon="2.5704065761211954"><ele>62.4</ele><time>2026-04-09T13:43:05.998Z</time></trkpt><trkpt lat="49.17613616600213" lon="2.570336860861397"><ele>63.0</ele><time>2026-04-09T13:43:07.998Z</time></trkpt><trkpt lat="49.1760613175416" lon="2.5702812987527515"><ele>63.0</ele><time>2026-04-09T13:43:09.998Z</time></trkpt><trkpt lat="49.175959642076876" lon="2.57020770120355"><ele>63.0</ele><time>2026-04-09T13:43:11.998Z</time></trkpt><trkpt lat="49.17587041803971" lon="2.5701524343889877"><ele>63.0</ele><time>2026-04-09T13:43:13.998Z</time></trkpt><trkpt lat="49.17576625456772" lon="2.570089440028605"><ele>63.0</ele><time>2026-04-09T13:43:15.998Z</time></trkpt><trkpt lat="49.175677550961865" lon="2.5700274216214694"><ele>63.0</ele><time>2026-04-09T13:43:17.998Z</time></trkpt><trkpt lat="49.17559637005173" lon="2.569948545924036"><ele>63.8</ele><time>2026-04-09T13:43:19.998Z</time></trkpt><trkpt lat="49.17550113953186" lon="2.5698969740405104"><ele>64.6</ele><time>2026-04-09T13:43:21.998Z</time></trkpt><trkpt lat="49.17540417638231" lon="2.5698286627800218"><ele>65.4</ele><time>2026-04-09T13:43:23.998Z</time></trkpt><trkpt lat="49.17531139907563" lon="2.5697711440047537"><ele>66.2</ele><time>2026-04-09T13:43:25.998Z</time></trkpt><trkpt lat="49.17522588793475" lon="2.5697157650906197"><ele>67.0</ele><time>2026-04-09T13:43:27.998Z</time></trkpt><trkpt lat="49.17514039661793" lon="2.5696513435335944"><ele>67.0</ele><time>2026-04-09T13:43:29.997Z</time></trkpt><trkpt lat="49.175075299011944" lon="2.5696050187334785"><ele>67.0</ele><time>2026-04-09T13:43:31.997Z</time></trkpt><trkpt lat="49.174991845853356" lon="2.5695430109383506"><ele>67.0</ele><time>2026-04-09T13:43:33.997Z</time></trkpt><trkpt lat="49.17490935886129" lon="2.569481004262593"><ele>67.0</ele><time>2026-04-09T13:43:35.997Z</time></trkpt><trkpt lat="49.17481959660766" lon="2.569417464918992"><ele>67.0</ele><time>2026-04-09T13:43:37.997Z</time></trkpt><trkpt lat="49.174742434754776" lon="2.569356523777037"><ele>67.0</ele><time>2026-04-09T13:43:39.997Z</time></trkpt><trkpt lat="49.174651874943436" lon="2.5693041832035997"><ele>67.16666666666666</ele><time>2026-04-09T13:43:41.997Z</time></trkpt><trkpt lat="49.17457453519755" lon="2.569272891528156"><ele>67.33333333333333</ele><time>2026-04-09T13:43:44Z</time></trkpt><trkpt lat="49.17449035542962" lon="2.569217611671401"><ele>67.5</ele><time>2026-04-09T13:43:46Z</time></trkpt><trkpt lat="49.17440486881582" lon="2.5691553644401495"><ele>67.66666666666667</ele><time>2026-04-09T13:43:48Z</time></trkpt><trkpt lat="49.174321969161596" lon="2.5690936976672236"><ele>67.83333333333334</ele><time>2026-04-09T13:43:50Z</time></trkpt><trkpt lat="49.17424161705735" lon="2.569039107729755"><ele>68.0</ele><time>2026-04-09T13:43:52Z</time></trkpt><trkpt lat="49.174156914696326" lon="2.5689876306052515"><ele>68.0</ele><time>2026-04-09T13:43:54Z</time></trkpt><trkpt lat="49.17408160120168" lon="2.568931267561423"><ele>68.0</ele><time>2026-04-09T13:43:56Z</time></trkpt><trkpt lat="49.17400486422299" lon="2.568879946023863"><ele>68.0</ele><time>2026-04-09T13:43:58Z</time></trkpt><trkpt lat="49.173922943645834" lon="2.5688229313862663"><ele>68.0</ele><time>2026-04-09T13:44:00Z</time></trkpt><trkpt lat="49.17384420795371" lon="2.5687575213149225"><ele>68.0</ele><time>2026-04-09T13:44:02Z</time></trkpt><trkpt lat="49.1737660277423" lon="2.5686978052320453"><ele>68.0</ele><time>2026-04-09T13:44:04Z</time></trkpt><trkpt lat="49.173694881398404" lon="2.5686518009754846"><ele>67.8</ele><time>2026-04-09T13:44:06Z</time></trkpt><trkpt lat="49.17362002228675" lon="2.5685841513949117"><ele>67.6</ele><time>2026-04-09T13:44:08Z</time></trkpt><trkpt lat="49.173532508353254" lon="2.568523306567959"><ele>67.4</ele><time>2026-04-09T13:44:10Z</time></trkpt><trkpt lat="49.17344457192385" lon="2.5684593050519813"><ele>67.2</ele><time>2026-04-09T13:44:12Z</time></trkpt><trkpt lat="49.17335874840965" lon="2.5683997677134762"><ele>67.0</ele><time>2026-04-09T13:44:14Z</time></trkpt><trkpt lat="49.17328050993974" lon="2.5683330233295183"><ele>67.0</ele><time>2026-04-09T13:44:16Z</time></trkpt><trkpt lat="49.17320357268149" lon="2.568285558989233"><ele>67.0</ele><time>2026-04-09T13:44:18Z</time></trkpt><trkpt lat="49.173112780762246" lon="2.5682291207150403"><ele>67.0</ele><time>2026-04-09T13:44:20Z</time></trkpt><trkpt lat="49.17303930954613" lon="2.5681739961819723"><ele>67.0</ele><time>2026-04-09T13:44:22Z</time></trkpt><trkpt lat="49.172960875550494" lon="2.5681140965866414"><ele>67.0</ele><time>2026-04-09T13:44:23.999Z</time></trkpt><trkpt lat="49.172873034206056" lon="2.5680724263795853"><ele>67.0</ele><time>2026-04-09T13:44:25.999Z</time></trkpt><trkpt lat="49.17279145417113" lon="2.568008677657601"><ele>67.16666666666666</ele><time>2026-04-09T13:44:27.999Z</time></trkpt><trkpt lat="49.17271855618462" lon="2.567954930824497"><ele>67.33333333333333</ele><time>2026-04-09T13:44:29.999Z</time></trkpt><trkpt lat="49.172644791574854" lon="2.567902954427216"><ele>67.5</ele><time>2026-04-09T13:44:31.999Z</time></trkpt><trkpt lat="49.172569753371086" lon="2.5678455474382202"><ele>67.66666666666667</ele><time>2026-04-09T13:44:33.999Z</time></trkpt><trkpt lat="49.17249750373755" lon="2.5677927186745793"><ele>67.83333333333334</ele><time>2026-04-09T13:44:35.999Z</time></trkpt><trkpt lat="49.17243027593131" lon="2.56773655612876"><ele>68.0</ele><time>2026-04-09T13:44:37.999Z</time></trkpt><trkpt lat="49.17235234650499" lon="2.5676833886339314"><ele>68.28571428571428</ele><time>2026-04-09T13:44:39.999Z</time></trkpt><trkpt lat="49.17228518462266" lon="2.5676309468987144"><ele>68.57142857142857</ele><time>2026-04-09T13:44:41.999Z</time></trkpt><trkpt lat="49.172221112980786" lon="2.5675891680630296"><ele>68.85714285714286</ele><time>2026-04-09T13:44:43.999Z</time></trkpt><trkpt lat="49.17216182446973" lon="2.567550439600538"><ele>69.14285714285714</ele><time>2026-04-09T13:44:45.999Z</time></trkpt><trkpt lat="49.172083190453755" lon="2.567492336425396"><ele>69.42857142857143</ele><time>2026-04-09T13:44:48.999Z</time></trkpt><trkpt lat="49.17200592520808" lon="2.567443722525268"><ele>69.71428571428571</ele><time>2026-04-09T13:44:51.999Z</time></trkpt><trkpt lat="49.17194331844175" lon="2.567399249306127"><ele>70.0</ele><time>2026-04-09T13:44:54.999Z</time></trkpt><trkpt lat="49.171863458294226" lon="2.5673404569978295"><ele>70.0</ele><time>2026-04-09T13:44:57.998Z</time></trkpt><trkpt lat="49.17178457498631" lon="2.5672807339453523"><ele>70.0</ele><time>2026-04-09T13:45:00.998Z</time></trkpt><trkpt lat="49.17172001953765" lon="2.567235827686941"><ele>70.0</ele><time>2026-04-09T13:45:03.998Z</time></trkpt><trkpt lat="49.171643037158105" lon="2.5671786552521936"><ele>70.0</ele><time>2026-04-09T13:45:06.998Z</time></trkpt><trkpt lat="49.171562517637014" lon="2.5671290653969328"><ele>70.0</ele><time>2026-04-09T13:45:09.998Z</time></trkpt><trkpt lat="49.17150190473042" lon="2.567085333667863"><ele>70.0</ele><time>2026-04-09T13:45:11.998Z</time></trkpt><trkpt lat="49.171438401950766" lon="2.5670422628162477"><ele>70.33333333333333</ele><time>2026-04-09T13:45:13.998Z</time></trkpt><trkpt lat="49.17136004640516" lon="2.5669784481773767"><ele>70.66666666666666</ele><time>2026-04-09T13:45:16.998Z</time></trkpt><trkpt lat="49.17127710834306" lon="2.566921048122476"><ele>71.0</ele><time>2026-04-09T13:45:19.998Z</time></trkpt><trkpt lat="49.17121393002693" lon="2.566879713500753"><ele>71.33333333333333</ele><time>2026-04-09T13:45:21.998Z</time></trkpt><trkpt lat="49.17115564573764" lon="2.5668307486010873"><ele>71.66666666666667</ele><time>2026-04-09T13:45:23.998Z</time></trkpt><trkpt lat="49.17109383983492" lon="2.56679618886508"><ele>72.0</ele><time>2026-04-09T13:45:25.998Z</time></trkpt><trkpt lat="49.17101017920262" lon="2.566740964291823"><ele>72.00000000000001</ele><time>2026-04-09T13:45:28.998Z</time></trkpt><trkpt lat="49.17094971909163" lon="2.566675373106147"><ele>72.0</ele><time>2026-04-09T13:45:30.997Z</time></trkpt><trkpt lat="49.17087574107762" lon="2.566635880844552"><ele>72.0</ele><time>2026-04-09T13:45:32.997Z</time></trkpt><trkpt lat="49.17081952351452" lon="2.5665896316004138"><ele>72.0</ele><time>2026-04-09T13:45:34.997Z</time></trkpt><trkpt lat="49.170747363135604" lon="2.566545374618695"><ele>72.0</ele><time>2026-04-09T13:45:36.997Z</time></trkpt><trkpt lat="49.17068334880503" lon="2.5664980360723844"><ele>72.00000000000001</ele><time>2026-04-09T13:45:38.997Z</time></trkpt><trkpt lat="49.17061350646405" lon="2.5664511047723435"><ele>72.0</ele><time>2026-04-09T13:45:40.997Z</time></trkpt><trkpt lat="49.17054104512006" lon="2.5664055041747402"><ele>72.0</ele><time>2026-04-09T13:45:42.997Z</time></trkpt><trkpt lat="49.17046893896519" lon="2.5663558881861497"><ele>72.0</ele><time>2026-04-09T13:45:44.997Z</time></trkpt><trkpt lat="49.17040817759815" lon="2.5662994762909053"><ele>72.0</ele><time>2026-04-09T13:45:46.997Z</time></trkpt><trkpt lat="49.170338263182735" lon="2.566259417661376"><ele>72.0</ele><time>2026-04-09T13:45:49Z</time></trkpt><trkpt lat="49.17026931856621" lon="2.5662060009187546"><ele>72.0</ele><time>2026-04-09T13:45:51Z</time></trkpt><trkpt lat="49.17018657478005" lon="2.5661471999024488"><ele>72.0</ele><time>2026-04-09T13:45:53Z</time></trkpt><trkpt lat="49.17011208676503" lon="2.5660972576502985"><ele>72.0</ele><time>2026-04-09T13:45:55Z</time></trkpt><trkpt lat="49.17004480809803" lon="2.5660425502696733"><ele>72.0</ele><time>2026-04-09T13:45:57Z</time></trkpt><trkpt lat="49.169971288428364" lon="2.5659959987659797"><ele>72.0</ele><time>2026-04-09T13:45:59Z</time></trkpt><trkpt lat="49.169901296786506" lon="2.565941235847707"><ele>72.0</ele><time>2026-04-09T13:46:01Z</time></trkpt><trkpt lat="49.16981689854542" lon="2.5658831280286347"><ele>72.0</ele><time>2026-04-09T13:46:03Z</time></trkpt><trkpt lat="49.16975384848446" lon="2.565818208002971"><ele>72.0</ele><time>2026-04-09T13:46:05Z</time></trkpt><trkpt lat="49.16967743335388" lon="2.565757813292773"><ele>71.66666666666667</ele><time>2026-04-09T13:46:07Z</time></trkpt><trkpt lat="49.16960562230702" lon="2.5657056477691182"><ele>71.33333333333333</ele><time>2026-04-09T13:46:09Z</time></trkpt><trkpt lat="49.16952435360037" lon="2.5656634961660254"><ele>71.0</ele><time>2026-04-09T13:46:11Z</time></trkpt><trkpt lat="49.169448754798694" lon="2.565593480575015"><ele>70.66666666666666</ele><time>2026-04-09T13:46:13Z</time></trkpt><trkpt lat="49.16937166292752" lon="2.5655403496869678"><ele>70.33333333333333</ele><time>2026-04-09T13:46:15Z</time></trkpt><trkpt lat="49.169292468582476" lon="2.5654845793202417"><ele>70.0</ele><time>2026-04-09T13:46:17Z</time></trkpt><trkpt lat="49.1692018949925" lon="2.5654152768359904"><ele>70.6</ele><time>2026-04-09T13:46:19Z</time></trkpt><trkpt lat="49.16911479169865" lon="2.5653580418370816"><ele>71.2</ele><time>2026-04-09T13:46:21Z</time></trkpt><trkpt lat="49.169031154524596" lon="2.5652955773888766"><ele>71.8</ele><time>2026-04-09T13:46:23Z</time></trkpt><trkpt lat="49.16894290393713" lon="2.565233450355533"><ele>72.4</ele><time>2026-04-09T13:46:25Z</time></trkpt><trkpt lat="49.16885294325763" lon="2.565173969136219"><ele>73.0</ele><time>2026-04-09T13:46:27Z</time></trkpt><trkpt lat="49.1687696405842" lon="2.565107567829891"><ele>73.0</ele><time>2026-04-09T13:46:28.999Z</time></trkpt><trkpt lat="49.16868106929719" lon="2.565040872434"><ele>73.0</ele><time>2026-04-09T13:46:30.999Z</time></trkpt><trkpt lat="49.16860051345737" lon="2.5649815843501997"><ele>73.0</ele><time>2026-04-09T13:46:32.999Z</time></trkpt><trkpt lat="49.16851186729459" lon="2.564927954732912"><ele>73.0</ele><time>2026-04-09T13:46:34.999Z</time></trkpt><trkpt lat="49.16843330906201" lon="2.5648636779605307"><ele>73.0</ele><time>2026-04-09T13:46:36.999Z</time></trkpt><trkpt lat="49.16834810203313" lon="2.5648079824989156"><ele>73.0</ele><time>2026-04-09T13:46:38.999Z</time></trkpt><trkpt lat="49.168272270551505" lon="2.5647508806215917"><ele>73.0</ele><time>2026-04-09T13:46:40.999Z</time></trkpt><trkpt lat="49.168186510151614" lon="2.564694276400564"><ele>73.0</ele><time>2026-04-09T13:46:42.999Z</time></trkpt><trkpt lat="49.168104860892555" lon="2.56464361378185"><ele>73.0</ele><time>2026-04-09T13:46:44.999Z</time></trkpt><trkpt lat="49.16801946167423" lon="2.564575207386212"><ele>73.0</ele><time>2026-04-09T13:46:46.999Z</time></trkpt><trkpt lat="49.16792794482171" lon="2.564513251605347"><ele>72.6</ele><time>2026-04-09T13:46:48.999Z</time></trkpt><trkpt lat="49.16783437930168" lon="2.564450832554215"><ele>72.19999999999999</ele><time>2026-04-09T13:46:50.999Z</time></trkpt><trkpt lat="49.16775498179625" lon="2.564386428692269"><ele>71.8</ele><time>2026-04-09T13:46:52.999Z</time></trkpt><trkpt lat="49.167673298511524" lon="2.56433181102603"><ele>71.39999999999999</ele><time>2026-04-09T13:46:54.999Z</time></trkpt><trkpt lat="49.167582921868274" lon="2.564276141655999"><ele>71.0</ele><time>2026-04-09T13:46:56.999Z</time></trkpt><trkpt lat="49.16750064937614" lon="2.564203681932625"><ele>71.0</ele><time>2026-04-09T13:46:58.999Z</time></trkpt><trkpt lat="49.16741090440249" lon="2.5641440445386596"><ele>71.0</ele><time>2026-04-09T13:47:00.999Z</time></trkpt><trkpt lat="49.167329596368084" lon="2.564075433699184"><ele>71.0</ele><time>2026-04-09T13:47:02.998Z</time></trkpt><trkpt lat="49.167242092151035" lon="2.5640148797317774"><ele>71.0</ele><time>2026-04-09T13:47:04.998Z</time></trkpt><trkpt lat="49.16715421529824" lon="2.5639587156680625"><ele>71.0</ele><time>2026-04-09T13:47:06.998Z</time></trkpt><trkpt lat="49.167063148048605" lon="2.5638958522706936"><ele>71.0</ele><time>2026-04-09T13:47:08.998Z</time></trkpt><trkpt lat="49.16697288626879" lon="2.5638265819962442"><ele>71.0</ele><time>2026-04-09T13:47:10.998Z</time></trkpt><trkpt lat="49.16687595091544" lon="2.5637609024202015"><ele>71.0</ele><time>2026-04-09T13:47:12.998Z</time></trkpt><trkpt lat="49.16678420802748" lon="2.563700455430539"><ele>71.0</ele><time>2026-04-09T13:47:14.998Z</time></trkpt><trkpt lat="49.166689172519014" lon="2.5636284087788312"><ele>71.0</ele><time>2026-04-09T13:47:16.998Z</time></trkpt><trkpt lat="49.166596182280124" lon="2.563562169764464"><ele>71.2</ele><time>2026-04-09T13:47:18.998Z</time></trkpt><trkpt lat="49.166504124323914" lon="2.5634935712364055"><ele>71.39999999999999</ele><time>2026-04-09T13:47:20.998Z</time></trkpt><trkpt lat="49.166408517196224" lon="2.5634280659691604"><ele>71.6</ele><time>2026-04-09T13:47:22.998Z</time></trkpt><trkpt lat="49.166314881844244" lon="2.5633543199658653"><ele>71.8</ele><time>2026-04-09T13:47:24.998Z</time></trkpt><trkpt lat="49.16622227595338" lon="2.5632889326263695"><ele>72.0</ele><time>2026-04-09T13:47:26.998Z</time></trkpt><trkpt lat="49.166112003342654" lon="2.5632105032883072"><ele>72.0</ele><time>2026-04-09T13:47:28.998Z</time></trkpt><trkpt lat="49.16601169394526" lon="2.5631400532060367"><ele>72.0</ele><time>2026-04-09T13:47:30.998Z</time></trkpt><trkpt lat="49.16591890055108" lon="2.563069442991925"><ele>72.0</ele><time>2026-04-09T13:47:32.998Z</time></trkpt><trkpt lat="49.16583402120782" lon="2.563004638385537"><ele>72.0</ele><time>2026-04-09T13:47:34.998Z</time></trkpt><trkpt lat="49.16574966095937" lon="2.562943120181165"><ele>72.0</ele><time>2026-04-09T13:47:36.997Z</time></trkpt><trkpt lat="49.16566686055807" lon="2.5628842753474403"><ele>71.8</ele><time>2026-04-09T13:47:38.997Z</time></trkpt><trkpt lat="49.165579695361565" lon="2.562826274320947"><ele>71.6</ele><time>2026-04-09T13:47:40.997Z</time></trkpt><trkpt lat="49.16549633715846" lon="2.562765614882788"><ele>71.39999999999999</ele><time>2026-04-09T13:47:42.997Z</time></trkpt><trkpt lat="49.16541340445325" lon="2.5627044804699564"><ele>71.2</ele><time>2026-04-09T13:47:44.997Z</time></trkpt><trkpt lat="49.16532844626506" lon="2.5626500297455324"><ele>71.0</ele><time>2026-04-09T13:47:46.997Z</time></trkpt><trkpt lat="49.16524541249907" lon="2.5625890351308733"><ele>71.0</ele><time>2026-04-09T13:47:48.997Z</time></trkpt><trkpt lat="49.165160060861545" lon="2.562529954596297"><ele>71.0</ele><time>2026-04-09T13:47:50.997Z</time></trkpt><trkpt lat="49.165072391359075" lon="2.562467492676576"><ele>71.0</ele><time>2026-04-09T13:47:52.997Z</time></trkpt><trkpt lat="49.164983274903534" lon="2.5623973934711226"><ele>71.0</ele><time>2026-04-09T13:47:55Z</time></trkpt><trkpt lat="49.16489181785083" lon="2.5623281662373105"><ele>71.0</ele><time>2026-04-09T13:47:57Z</time></trkpt><trkpt lat="49.16478363469699" lon="2.56225700167215"><ele>71.2</ele><time>2026-04-09T13:47:59Z</time></trkpt><trkpt lat="49.164682434044614" lon="2.5621854983226027"><ele>71.39999999999999</ele><time>2026-04-09T13:48:01Z</time></trkpt><trkpt lat="49.16458768163396" lon="2.562115956679939"><ele>71.6</ele><time>2026-04-09T13:48:03Z</time></trkpt><trkpt lat="49.16449088535606" lon="2.562045029612991"><ele>71.8</ele><time>2026-04-09T13:48:05Z</time></trkpt><trkpt lat="49.16439581882441" lon="2.561975574318451"><ele>72.0</ele><time>2026-04-09T13:48:07Z</time></trkpt><trkpt lat="49.164309141326136" lon="2.5619110305791986"><ele>71.66666666666667</ele><time>2026-04-09T13:48:09Z</time></trkpt><trkpt lat="49.16423454946476" lon="2.5618531874475945"><ele>71.33333333333333</ele><time>2026-04-09T13:48:11Z</time></trkpt><trkpt lat="49.164161046957915" lon="2.5618010976759424"><ele>71.0</ele><time>2026-04-09T13:48:13Z</time></trkpt><trkpt lat="49.16408968148905" lon="2.5617250089239185"><ele>70.66666666666666</ele><time>2026-04-09T13:48:15Z</time></trkpt><trkpt lat="49.16402180536764" lon="2.561644692980345"><ele>70.33333333333333</ele><time>2026-04-09T13:48:17Z</time></trkpt><trkpt lat="49.1640022665185" lon="2.561494740927248"><ele>70.0</ele><time>2026-04-09T13:48:19Z</time></trkpt><trkpt lat="49.16399177698363" lon="2.561360395063541"><ele>70.0</ele><time>2026-04-09T13:48:21Z</time></trkpt><trkpt lat="49.16398213885686" lon="2.5612283940770264"><ele>70.0</ele><time>2026-04-09T13:48:23Z</time></trkpt><trkpt lat="49.163944429182735" lon="2.561114177925475"><ele>70.0</ele><time>2026-04-09T13:48:25Z</time></trkpt><trkpt lat="49.16385996256242" lon="2.5610368287219085"><ele>70.0</ele><time>2026-04-09T13:48:27Z</time></trkpt><trkpt lat="49.1637494727251" lon="2.5610386126090736"><ele>70.0</ele><time>2026-04-09T13:48:29Z</time></trkpt><trkpt lat="49.163639788675795" lon="2.5610196739212023"><ele>70.0</ele><time>2026-04-09T13:48:31Z</time></trkpt><trkpt lat="49.1635214138733" lon="2.561036550935632"><ele>70.0</ele><time>2026-04-09T13:48:33Z</time></trkpt><trkpt lat="49.163419123081965" lon="2.5610698159412673"><ele>70.0</ele><time>2026-04-09T13:48:34.999Z</time></trkpt><trkpt lat="49.16331793289316" lon="2.561099468403811"><ele>70.0</ele><time>2026-04-09T13:48:36.999Z</time></trkpt><trkpt lat="49.163231969135474" lon="2.5610937686078037"><ele>70.0</ele><time>2026-04-09T13:48:38.999Z</time></trkpt><trkpt lat="49.16315180232246" lon="2.56106493193212"><ele>69.4</ele><time>2026-04-09T13:48:40.999Z</time></trkpt><trkpt lat="49.16307311659108" lon="2.561012933599348"><ele>68.8</ele><time>2026-04-09T13:48:42.999Z</time></trkpt><trkpt lat="49.16298438504526" lon="2.5609540258571104"><ele>68.2</ele><time>2026-04-09T13:48:44.999Z</time></trkpt><trkpt lat="49.16289817884928" lon="2.5608969354127704"><ele>67.6</ele><time>2026-04-09T13:48:46.999Z</time></trkpt><trkpt lat="49.16280923742489" lon="2.5608217459570586"><ele>67.0</ele><time>2026-04-09T13:48:48.999Z</time></trkpt><trkpt lat="49.162732082927945" lon="2.560767163830591"><ele>67.0</ele><time>2026-04-09T13:48:50.999Z</time></trkpt><trkpt lat="49.1626325987443" lon="2.56069846499475"><ele>67.0</ele><time>2026-04-09T13:48:52.999Z</time></trkpt><trkpt lat="49.16254302005515" lon="2.560631725887577"><ele>67.0</ele><time>2026-04-09T13:48:54.999Z</time></trkpt><trkpt lat="49.16245549200508" lon="2.5605716378894963"><ele>67.0</ele><time>2026-04-09T13:48:56.999Z</time></trkpt><trkpt lat="49.16236336293269" lon="2.5605079405308864"><ele>67.0</ele><time>2026-04-09T13:48:58.999Z</time></trkpt><trkpt lat="49.16228080770395" lon="2.5604527595835918"><ele>66.8</ele><time>2026-04-09T13:49:00.999Z</time></trkpt><trkpt lat="49.162189544197524" lon="2.560381002234958"><ele>66.6</ele><time>2026-04-09T13:49:02.999Z</time></trkpt><trkpt lat="49.16209445934467" lon="2.5603047995836743"><ele>66.39999999999999</ele><time>2026-04-09T13:49:04.999Z</time></trkpt><trkpt lat="49.16200521691416" lon="2.5602424131683463"><ele>66.2</ele><time>2026-04-09T13:49:06.999Z</time></trkpt><trkpt lat="49.16191857627921" lon="2.560187495828117"><ele>66.0</ele><time>2026-04-09T13:49:08.998Z</time></trkpt><trkpt lat="49.161828995648136" lon="2.560119911792559"><ele>66.0</ele><time>2026-04-09T13:49:10.998Z</time></trkpt><trkpt lat="49.161733576547796" lon="2.560049840396552"><ele>66.0</ele><time>2026-04-09T13:49:12.998Z</time></trkpt><trkpt lat="49.161640851718836" lon="2.559986132938755"><ele>66.0</ele><time>2026-04-09T13:49:14.998Z</time></trkpt><trkpt lat="49.161546116637574" lon="2.5599163463546186"><ele>66.0</ele><time>2026-04-09T13:49:16.998Z</time></trkpt><trkpt lat="49.161453926564704" lon="2.5598425659505653"><ele>66.0</ele><time>2026-04-09T13:49:18.998Z</time></trkpt><trkpt lat="49.161351144578724" lon="2.5597780278963214"><ele>65.8</ele><time>2026-04-09T13:49:20.998Z</time></trkpt><trkpt lat="49.161253112224806" lon="2.55970653801581"><ele>65.6</ele><time>2026-04-09T13:49:22.998Z</time></trkpt><trkpt lat="49.161156085257865" lon="2.5596372074670772"><ele>65.4</ele><time>2026-04-09T13:49:24.998Z</time></trkpt><trkpt lat="49.161067640829174" lon="2.559572454968537"><ele>65.2</ele><time>2026-04-09T13:49:26.998Z</time></trkpt><trkpt lat="49.160971773895625" lon="2.5594993448517536"><ele>65.0</ele><time>2026-04-09T13:49:28.998Z</time></trkpt><trkpt lat="49.16088177403628" lon="2.559430338397273"><ele>65.6</ele><time>2026-04-09T13:49:30.998Z</time></trkpt><trkpt lat="49.16078366003549" lon="2.5593700387777343"><ele>66.2</ele><time>2026-04-09T13:49:32.998Z</time></trkpt><trkpt lat="49.16069182171903" lon="2.5593088061286835"><ele>66.8</ele><time>2026-04-09T13:49:34.998Z</time></trkpt><trkpt lat="49.16059926944713" lon="2.5592394923169315"><ele>67.4</ele><time>2026-04-09T13:49:36.998Z</time></trkpt><trkpt lat="49.16051880430491" lon="2.559178977183896"><ele>68.0</ele><time>2026-04-09T13:49:38.998Z</time></trkpt><trkpt lat="49.16043838130318" lon="2.5591093395262265"><ele>68.33333333333334</ele><time>2026-04-09T13:49:40.998Z</time></trkpt><trkpt lat="49.16036663087243" lon="2.5590432292211376"><ele>68.66666666666667</ele><time>2026-04-09T13:49:42.997Z</time></trkpt><trkpt lat="49.16028094342826" lon="2.558988065695527"><ele>69.0</ele><time>2026-04-09T13:49:44.997Z</time></trkpt><trkpt lat="49.160195527602774" lon="2.558948676083426"><ele>69.33333333333333</ele><time>2026-04-09T13:49:46.997Z</time></trkpt><trkpt lat="49.16012102658042" lon="2.558876841461465"><ele>69.66666666666666</ele><time>2026-04-09T13:49:48.997Z</time></trkpt><trkpt lat="49.160064765077614" lon="2.5587844520476484"><ele>70.0</ele><time>2026-04-09T13:49:50.997Z</time></trkpt><trkpt lat="49.16003912659391" lon="2.5586395529927417"><ele>70.2</ele><time>2026-04-09T13:49:52.997Z</time></trkpt><trkpt lat="49.160012356886426" lon="2.558493732046969"><ele>70.4</ele><time>2026-04-09T13:49:54.997Z</time></trkpt><trkpt lat="49.15997234865394" lon="2.5583606541305657"><ele>70.6</ele><time>2026-04-09T13:49:56.997Z</time></trkpt><trkpt lat="49.15993176348472" lon="2.5582465472492437"><ele>70.8</ele><time>2026-04-09T13:49:58.997Z</time></trkpt><trkpt lat="49.15988302546341" lon="2.5581322525931913"><ele>71.0</ele><time>2026-04-09T13:50:01Z</time></trkpt><trkpt lat="49.159834633419436" lon="2.558009497616704"><ele>71.0</ele><time>2026-04-09T13:50:03Z</time></trkpt><trkpt lat="49.1598016209131" lon="2.557872996128425"><ele>71.0</ele><time>2026-04-09T13:50:05Z</time></trkpt><trkpt lat="49.15976889257768" lon="2.5577324474020493"><ele>71.0</ele><time>2026-04-09T13:50:07Z</time></trkpt><trkpt lat="49.159749760525514" lon="2.5575735699953888"><ele>71.0</ele><time>2026-04-09T13:50:09Z</time></trkpt><trkpt lat="49.15973405758646" lon="2.5574364871100697"><ele>71.0</ele><time>2026-04-09T13:50:11Z</time></trkpt><trkpt lat="49.15970807871991" lon="2.557272410733335"><ele>71.0</ele><time>2026-04-09T13:50:13Z</time></trkpt><trkpt lat="49.15968275202317" lon="2.5571283320870757"><ele>71.0</ele><time>2026-04-09T13:50:15Z</time></trkpt><trkpt lat="49.159645141892916" lon="2.556990303910353"><ele>71.0</ele><time>2026-04-09T13:50:17Z</time></trkpt><trkpt lat="49.159594988649516" lon="2.5568396430191886"><ele>71.0</ele><time>2026-04-09T13:50:19Z</time></trkpt><trkpt lat="49.15956854585797" lon="2.556679055321094"><ele>71.0</ele><time>2026-04-09T13:50:21Z</time></trkpt><trkpt lat="49.15954446173496" lon="2.556526332478658"><ele>70.6</ele><time>2026-04-09T13:50:23Z</time></trkpt><trkpt lat="49.15953596323201" lon="2.5563668943743885"><ele>70.19999999999999</ele><time>2026-04-09T13:50:25Z</time></trkpt><trkpt lat="49.159535990032786" lon="2.556226996367886"><ele>69.80000000000001</ele><time>2026-04-09T13:50:27Z</time></trkpt><trkpt lat="49.15951868533589" lon="2.5561042547007387"><ele>69.4</ele><time>2026-04-09T13:50:29Z</time></trkpt><trkpt lat="49.159510938840555" lon="2.5559679839420535"><ele>69.0</ele><time>2026-04-09T13:50:31Z</time></trkpt><trkpt lat="49.15950677464549" lon="2.5558196423380792"><ele>69.0</ele><time>2026-04-09T13:50:33Z</time></trkpt><trkpt lat="49.15947573116618" lon="2.5557052309766983"><ele>69.0</ele><time>2026-04-09T13:50:35Z</time></trkpt><trkpt lat="49.15943479666154" lon="2.5555872024844164"><ele>69.0</ele><time>2026-04-09T13:50:37Z</time></trkpt><trkpt lat="49.159400211471024" lon="2.555457346401997"><ele>69.0</ele><time>2026-04-09T13:50:39Z</time></trkpt><trkpt lat="49.159354393613015" lon="2.5553234311653616"><ele>69.0</ele><time>2026-04-09T13:50:41Z</time></trkpt><trkpt lat="49.159312956748465" lon="2.5551780537462343"><ele>69.2</ele><time>2026-04-09T13:50:42.999Z</time></trkpt><trkpt lat="49.15927670580045" lon="2.555030909113129"><ele>69.4</ele><time>2026-04-09T13:50:44.999Z</time></trkpt><trkpt lat="49.15924447883008" lon="2.5549005646389698"><ele>69.6</ele><time>2026-04-09T13:50:46.999Z</time></trkpt><trkpt lat="49.15919400352393" lon="2.5547771986681567"><ele>69.8</ele><time>2026-04-09T13:50:48.999Z</time></trkpt><trkpt lat="49.1591283350139" lon="2.5546723865707857"><ele>70.0</ele><time>2026-04-09T13:50:50.999Z</time></trkpt><trkpt lat="49.159063505374455" lon="2.5545743025898924"><ele>69.4</ele><time>2026-04-09T13:50:52.999Z</time></trkpt><trkpt lat="49.158999583005006" lon="2.5544748588564214"><ele>68.8</ele><time>2026-04-09T13:50:54.999Z</time></trkpt><trkpt lat="49.158935312658954" lon="2.5543709863251975"><ele>68.2</ele><time>2026-04-09T13:50:56.999Z</time></trkpt><trkpt lat="49.158871521285015" lon="2.5542745395111206"><ele>67.6</ele><time>2026-04-09T13:50:58.999Z</time></trkpt><trkpt lat="49.158800224252026" lon="2.554161815861944"><ele>67.0</ele><time>2026-04-09T13:51:00.999Z</time></trkpt><trkpt lat="49.15874465021152" lon="2.554054799616245"><ele>67.0</ele><time>2026-04-09T13:51:02.999Z</time></trkpt><trkpt lat="49.15868877251011" lon="2.5539528307249646"><ele>67.0</ele><time>2026-04-09T13:51:04.999Z</time></trkpt><trkpt lat="49.15861476508827" lon="2.5538640444245058"><ele>67.0</ele><time>2026-04-09T13:51:06.999Z</time></trkpt><trkpt lat="49.158578181299156" lon="2.5537463240362994"><ele>67.0</ele><time>2026-04-09T13:51:09.999Z</time></trkpt><trkpt lat="49.1585275189809" lon="2.5536387643290825"><ele>67.0</ele><time>2026-04-09T13:51:11.999Z</time></trkpt><trkpt lat="49.15847248697971" lon="2.5535410251833137"><ele>67.0</ele><time>2026-04-09T13:51:13.999Z</time></trkpt><trkpt lat="49.158422266438414" lon="2.5534380594559276"><ele>67.16666666666666</ele><time>2026-04-09T13:51:15.998Z</time></trkpt><trkpt lat="49.15837495085065" lon="2.553331687837053"><ele>67.33333333333333</ele><time>2026-04-09T13:51:17.998Z</time></trkpt><trkpt lat="49.158336803874036" lon="2.5532010445013236"><ele>67.5</ele><time>2026-04-09T13:51:19.998Z</time></trkpt><trkpt lat="49.15830118329228" lon="2.5530847257518836"><ele>67.66666666666667</ele><time>2026-04-09T13:51:21.998Z</time></trkpt><trkpt lat="49.1582599592228" lon="2.552978465757809"><ele>67.83333333333334</ele><time>2026-04-09T13:51:23.998Z</time></trkpt><trkpt lat="49.158227134487774" lon="2.552882511969661"><ele>68.0</ele><time>2026-04-09T13:51:25.998Z</time></trkpt><trkpt lat="49.158190916294" lon="2.5527846288403255"><ele>67.42857142857142</ele><time>2026-04-09T13:51:27.998Z</time></trkpt><trkpt lat="49.158145863509496" lon="2.552709485675123"><ele>66.85714285714286</ele><time>2026-04-09T13:51:29.998Z</time></trkpt><trkpt lat="49.15809314904383" lon="2.55263473052332"><ele>66.28571428571428</ele><time>2026-04-09T13:51:31.998Z</time></trkpt><trkpt lat="49.15803796462718" lon="2.552583781888654"><ele>65.71428571428571</ele><time>2026-04-09T13:51:33.998Z</time></trkpt><trkpt lat="49.15796924855747" lon="2.5525235791279366"><ele>65.14285714285714</ele><time>2026-04-09T13:51:35.998Z</time></trkpt><trkpt lat="49.1579048883719" lon="2.5524680783135123"><ele>64.57142857142857</ele><time>2026-04-09T13:51:37.998Z</time></trkpt><trkpt lat="49.15783506894787" lon="2.5524018468337513"><ele>64.0</ele><time>2026-04-09T13:51:39.998Z</time></trkpt><trkpt lat="49.15777714751402" lon="2.55233868624126"><ele>63.99999999999999</ele><time>2026-04-09T13:51:41.998Z</time></trkpt><trkpt lat="49.157714607484074" lon="2.5522791087436127"><ele>64.0</ele><time>2026-04-09T13:51:43.998Z</time></trkpt><trkpt lat="49.157641774833515" lon="2.552212312778809"><ele>64.0</ele><time>2026-04-09T13:51:45.998Z</time></trkpt><trkpt lat="49.157576863018015" lon="2.5521341331202394"><ele>64.0</ele><time>2026-04-09T13:51:47.998Z</time></trkpt><trkpt lat="49.15750455049832" lon="2.5520508870787326"><ele>63.99999999999999</ele><time>2026-04-09T13:51:49.997Z</time></trkpt><trkpt lat="49.15742200606087" lon="2.551987498980413"><ele>64.0</ele><time>2026-04-09T13:51:51.997Z</time></trkpt><trkpt lat="49.15735561304196" lon="2.5519373937713272"><ele>62.83333333333333</ele><time>2026-04-09T13:51:53.997Z</time></trkpt><trkpt lat="49.157260933346834" lon="2.5518867134961205"><ele>61.666666666666664</ele><time>2026-04-09T13:51:55.997Z</time></trkpt><trkpt lat="49.15717245054989" lon="2.5518066955453116"><ele>60.5</ele><time>2026-04-09T13:51:57.997Z</time></trkpt><trkpt lat="49.15716355772372" lon="2.551701327371669"><ele>59.33333333333333</ele><time>2026-04-09T13:51:59.997Z</time></trkpt><trkpt lat="49.15718906394342" lon="2.551595485783276"><ele>58.166666666666664</ele><time>2026-04-09T13:52:01.997Z</time></trkpt><trkpt lat="49.15717637159909" lon="2.5514762590758546"><ele>57.0</ele><time>2026-04-09T13:52:03.997Z</time></trkpt><trkpt lat="49.15709985879252" lon="2.5513962993050354"><ele>57.0</ele><time>2026-04-09T13:52:06Z</time></trkpt><trkpt lat="49.157068757992555" lon="2.5513086184528753"><ele>57.0</ele><time>2026-04-09T13:52:07Z</time></trkpt><trkpt lat="49.15698163961134" lon="2.5512738884177137"><ele>57.0</ele><time>2026-04-09T13:52:09Z</time></trkpt><trkpt lat="49.156893519332236" lon="2.5512387589720205"><ele>57.0</ele><time>2026-04-09T13:52:11Z</time></trkpt><trkpt lat="49.15680187955478" lon="2.551202226466444"><ele>57.0</ele><time>2026-04-09T13:52:13Z</time></trkpt><trkpt lat="49.156704114900315" lon="2.55116325225861"><ele>57.0</ele><time>2026-04-09T13:52:15Z</time></trkpt><trkpt lat="49.1565968734958" lon="2.551094515928663"><ele>56.6</ele><time>2026-04-09T13:52:17Z</time></trkpt><trkpt lat="49.15649962929644" lon="2.5509558750661863"><ele>56.2</ele><time>2026-04-09T13:52:19Z</time></trkpt><trkpt lat="49.15652818246741" lon="2.5508395701127586"><ele>55.8</ele><time>2026-04-09T13:52:20Z</time></trkpt><trkpt lat="49.15649761266835" lon="2.5506497837516524"><ele>55.4</ele><time>2026-04-09T13:52:22Z</time></trkpt><trkpt lat="49.15647943148484" lon="2.5505549078886016"><ele>55.0</ele><time>2026-04-09T13:52:23Z</time></trkpt><trkpt lat="49.156461272798346" lon="2.5504614476928"><ele>55.49999999999999</ele><time>2026-04-09T13:52:24Z</time></trkpt><trkpt lat="49.156442566573" lon="2.5503651244479504"><ele>56.0</ele><time>2026-04-09T13:52:25Z</time></trkpt><trkpt lat="49.156424591361144" lon="2.550268456543258"><ele>56.5</ele><time>2026-04-09T13:52:26Z</time></trkpt><trkpt lat="49.15640738179755" lon="2.5501734518165042"><ele>57.0</ele><time>2026-04-09T13:52:27Z</time></trkpt><trkpt lat="49.15637654246177" lon="2.549987738854724"><ele>57.49999999999999</ele><time>2026-04-09T13:52:29Z</time></trkpt><trkpt lat="49.15634732128879" lon="2.5498027311700953"><ele>58.0</ele><time>2026-04-09T13:52:31Z</time></trkpt><trkpt lat="49.15631815754315" lon="2.5496331211501406"><ele>57.8</ele><time>2026-04-09T13:52:33Z</time></trkpt><trkpt lat="49.1562887762943" lon="2.5494688106803816"><ele>57.599999999999994</ele><time>2026-04-09T13:52:35Z</time></trkpt><trkpt lat="49.15625930630522" lon="2.5493058189689575"><ele>57.400000000000006</ele><time>2026-04-09T13:52:37Z</time></trkpt><trkpt lat="49.15623039941921" lon="2.5491470786544745"><ele>57.2</ele><time>2026-04-09T13:52:39Z</time></trkpt><trkpt lat="49.156185419710184" lon="2.5489983267885146"><ele>57.0</ele><time>2026-04-09T13:52:41Z</time></trkpt><trkpt lat="49.156171797137425" lon="2.5488355010593704"><ele>56.6</ele><time>2026-04-09T13:52:43Z</time></trkpt><trkpt lat="49.15614198584922" lon="2.5486820019871224"><ele>56.2</ele><time>2026-04-09T13:52:45Z</time></trkpt><trkpt lat="49.15611057407467" lon="2.5485281241588296"><ele>55.8</ele><time>2026-04-09T13:52:47Z</time></trkpt><trkpt lat="49.156074263166374" lon="2.5483705349150414"><ele>55.4</ele><time>2026-04-09T13:52:48.999Z</time></trkpt><trkpt lat="49.156034507100635" lon="2.5482228910604423"><ele>55.0</ele><time>2026-04-09T13:52:50.999Z</time></trkpt><trkpt lat="49.155988042867186" lon="2.54808042209916"><ele>54.99999999999999</ele><time>2026-04-09T13:52:52.999Z</time></trkpt><trkpt lat="49.15593613446932" lon="2.547943783629097"><ele>55.0</ele><time>2026-04-09T13:52:54.999Z</time></trkpt><trkpt lat="49.15587942934934" lon="2.5478184620965565"><ele>55.0</ele><time>2026-04-09T13:52:56.999Z</time></trkpt><trkpt lat="49.1558085948794" lon="2.5477245739666867"><ele>55.0</ele><time>2026-04-09T13:52:58.999Z</time></trkpt><trkpt lat="49.15574128414204" lon="2.5476972352103155"><ele>54.99999999999999</ele><time>2026-04-09T13:53:01.999Z</time></trkpt><trkpt lat="49.15577962851235" lon="2.547802728620527"><ele>55.0</ele><time>2026-04-09T14:06:38.997Z</time></trkpt><trkpt lat="49.155740066645755" lon="2.5477042781690575"><ele>54.71428571428571</ele><time>2026-04-09T14:06:47Z</time></trkpt><trkpt lat="49.15568893249562" lon="2.547614710308526"><ele>54.42857142857143</ele><time>2026-04-09T14:06:50Z</time></trkpt><trkpt lat="49.15562205656917" lon="2.547511001560987"><ele>54.14285714285714</ele><time>2026-04-09T14:06:53Z</time></trkpt><trkpt lat="49.15558581931424" lon="2.547429849216088"><ele>53.857142857142854</ele><time>2026-04-09T14:06:55Z</time></trkpt><trkpt lat="49.15554242622918" lon="2.547344027156151"><ele>53.57142857142857</ele><time>2026-04-09T14:06:57Z</time></trkpt><trkpt lat="49.15550577271421" lon="2.547253941596179"><ele>53.285714285714285</ele><time>2026-04-09T14:06:59Z</time></trkpt><trkpt lat="49.15547000206017" lon="2.547161922496965"><ele>53.0</ele><time>2026-04-09T14:07:01Z</time></trkpt><trkpt lat="49.15544165722067" lon="2.5470649724842445"><ele>53.285714285714285</ele><time>2026-04-09T14:07:03Z</time></trkpt><trkpt lat="49.155419259577954" lon="2.5469628515922227"><ele>53.57142857142857</ele><time>2026-04-09T14:07:05Z</time></trkpt><trkpt lat="49.155418809107545" lon="2.546857874445686"><ele>53.857142857142854</ele><time>2026-04-09T14:07:07Z</time></trkpt><trkpt lat="49.155393805899465" lon="2.546760349858778"><ele>54.14285714285714</ele><time>2026-04-09T14:07:09Z</time></trkpt><trkpt lat="49.15536005366912" lon="2.5466286998603573"><ele>54.42857142857143</ele><time>2026-04-09T14:07:12Z</time></trkpt><trkpt lat="49.15533400890698" lon="2.5465273055369493"><ele>54.71428571428571</ele><time>2026-04-09T14:07:14Z</time></trkpt><trkpt lat="49.15530863656728" lon="2.54642879085931"><ele>55.0</ele><time>2026-04-09T14:07:16Z</time></trkpt><trkpt lat="49.15529832395665" lon="2.5463331025993816"><ele>54.99999999999999</ele><time>2026-04-09T14:07:18Z</time></trkpt><trkpt lat="49.15528280393386" lon="2.546224976909233"><ele>55.0</ele><time>2026-04-09T14:07:19.999Z</time></trkpt><trkpt lat="49.15526828968497" lon="2.5461238582989907"><ele>55.0</ele><time>2026-04-09T14:07:21.999Z</time></trkpt><trkpt lat="49.155260006833124" lon="2.546023531158452"><ele>55.0</ele><time>2026-04-09T14:07:23.999Z</time></trkpt><trkpt lat="49.15525511497609" lon="2.5459095831349288"><ele>55.0</ele><time>2026-04-09T14:07:25.999Z</time></trkpt><trkpt lat="49.15523911328084" lon="2.5458138425437986"><ele>54.99999999999999</ele><time>2026-04-09T14:07:27.999Z</time></trkpt><trkpt lat="49.15523021562685" lon="2.54565937979768"><ele>55.0</ele><time>2026-04-09T14:07:30.999Z</time></trkpt><trkpt lat="49.155228973634294" lon="2.5455260040373267"><ele>55.49999999999999</ele><time>2026-04-09T14:07:33.999Z</time></trkpt><trkpt lat="49.15522127365725" lon="2.5453950666085907"><ele>56.0</ele><time>2026-04-09T14:07:36.999Z</time></trkpt><trkpt lat="49.15523355737062" lon="2.5452940072002126"><ele>56.5</ele><time>2026-04-09T14:07:38.999Z</time></trkpt><trkpt lat="49.15522268884969" lon="2.545174949726761"><ele>57.0</ele><time>2026-04-09T14:07:40.999Z</time></trkpt><trkpt lat="49.155229044572515" lon="2.5450508359062063"><ele>57.49999999999999</ele><time>2026-04-09T14:07:43.999Z</time></trkpt><trkpt lat="49.15521586064312" lon="2.544953173831926"><ele>58.0</ele><time>2026-04-09T14:07:45.999Z</time></trkpt><trkpt lat="49.15522591140899" lon="2.5448034584557435"><ele>58.14285714285715</ele><time>2026-04-09T14:07:48.999Z</time></trkpt><trkpt lat="49.15521239439561" lon="2.5446967012366697"><ele>58.28571428571429</ele><time>2026-04-09T14:07:50.999Z</time></trkpt><trkpt lat="49.155209282270995" lon="2.5445915508159604"><ele>58.42857142857143</ele><time>2026-04-09T14:07:52.999Z</time></trkpt><trkpt lat="49.15520979972365" lon="2.544483589347559"><ele>58.57142857142858</ele><time>2026-04-09T14:07:54.999Z</time></trkpt><trkpt lat="49.15522623348286" lon="2.5443774974955478"><ele>58.71428571428572</ele><time>2026-04-09T14:07:56.999Z</time></trkpt><trkpt lat="49.15521552683337" lon="2.5442671612969674"><ele>58.857142857142854</ele><time>2026-04-09T14:07:58.999Z</time></trkpt><trkpt lat="49.15522194585694" lon="2.5441624675109296"><ele>59.0</ele><time>2026-04-09T14:08:00.999Z</time></trkpt><trkpt lat="49.155223320751816" lon="2.5440401933682972"><ele>58.833333333333336</ele><time>2026-04-09T14:08:02.998Z</time></trkpt><trkpt lat="49.15522640885968" lon="2.543929284859717"><ele>58.66666666666667</ele><time>2026-04-09T14:08:04.998Z</time></trkpt><trkpt lat="49.155234350646865" lon="2.5438103240998906"><ele>58.5</ele><time>2026-04-09T14:08:06.998Z</time></trkpt><trkpt lat="49.15523019155585" lon="2.5436892859278126"><ele>58.33333333333333</ele><time>2026-04-09T14:08:08.998Z</time></trkpt><trkpt lat="49.15521476724351" lon="2.5435581043263826"><ele>58.166666666666664</ele><time>2026-04-09T14:08:10.998Z</time></trkpt><trkpt lat="49.15519843029086" lon="2.543405315125478"><ele>58.0</ele><time>2026-04-09T14:08:12.998Z</time></trkpt><trkpt lat="49.155179899933486" lon="2.543259379971432"><ele>58.0</ele><time>2026-04-09T14:08:14.998Z</time></trkpt><trkpt lat="49.15517572367415" lon="2.5431176878390214"><ele>58.0</ele><time>2026-04-09T14:08:16.998Z</time></trkpt><trkpt lat="49.155160963703615" lon="2.5429758355392535"><ele>58.0</ele><time>2026-04-09T14:08:18.998Z</time></trkpt><trkpt lat="49.15514830750628" lon="2.542844339267997"><ele>58.0</ele><time>2026-04-09T14:08:20.998Z</time></trkpt><trkpt lat="49.155133212007414" lon="2.5426874989402255"><ele>58.0</ele><time>2026-04-09T14:08:22.998Z</time></trkpt><trkpt lat="49.15510216716879" lon="2.5425380963380086"><ele>58.2</ele><time>2026-04-09T14:08:24.998Z</time></trkpt><trkpt lat="49.15508829829008" lon="2.5423917907576046"><ele>58.4</ele><time>2026-04-09T14:08:26.998Z</time></trkpt><trkpt lat="49.1550768395316" lon="2.542252660955282"><ele>58.60000000000001</ele><time>2026-04-09T14:08:28.998Z</time></trkpt><trkpt lat="49.15508670282726" lon="2.542105679260623"><ele>58.800000000000004</ele><time>2026-04-09T14:08:30.998Z</time></trkpt><trkpt lat="49.15508059362872" lon="2.5419517457452585"><ele>59.0</ele><time>2026-04-09T14:08:32.998Z</time></trkpt><trkpt lat="49.155074616267584" lon="2.541800477757085"><ele>59.0</ele><time>2026-04-09T14:08:34.998Z</time></trkpt><trkpt lat="49.15506013307059" lon="2.541647798253411"><ele>59.00000000000001</ele><time>2026-04-09T14:08:36.998Z</time></trkpt><trkpt lat="49.15505916966721" lon="2.541495196493232"><ele>59.00000000000001</ele><time>2026-04-09T14:08:38.998Z</time></trkpt><trkpt lat="49.15506221852338" lon="2.5413304987181253"><ele>59.0</ele><time>2026-04-09T14:08:40.998Z</time></trkpt><trkpt lat="49.1550758511137" lon="2.541189925063803"><ele>59.0</ele><time>2026-04-09T14:08:42.998Z</time></trkpt><trkpt lat="49.15506540873075" lon="2.5410402486535575"><ele>59.0</ele><time>2026-04-09T14:08:44.997Z</time></trkpt><trkpt lat="49.15506230960585" lon="2.540893375952943"><ele>59.00000000000001</ele><time>2026-04-09T14:08:46.997Z</time></trkpt><trkpt lat="49.155064365648094" lon="2.5407417693524406"><ele>59.00000000000001</ele><time>2026-04-09T14:08:48.997Z</time></trkpt><trkpt lat="49.15509234799648" lon="2.5405967493608435"><ele>59.0</ele><time>2026-04-09T14:08:51Z</time></trkpt><trkpt lat="49.155091489044096" lon="2.5404607443153795"><ele>59.0</ele><time>2026-04-09T14:08:53Z</time></trkpt><trkpt lat="49.155098453998924" lon="2.540318953898834"><ele>58.66666666666667</ele><time>2026-04-09T14:08:55Z</time></trkpt><trkpt lat="49.15511399959028" lon="2.54017965439186"><ele>58.333333333333336</ele><time>2026-04-09T14:08:57Z</time></trkpt><trkpt lat="49.155123309542375" lon="2.540041855306192"><ele>58.0</ele><time>2026-04-09T14:08:59Z</time></trkpt><trkpt lat="49.155130637054604" lon="2.539919453724433"><ele>57.66666666666667</ele><time>2026-04-09T14:09:01Z</time></trkpt><trkpt lat="49.155136028289895" lon="2.539783690626004"><ele>57.333333333333336</ele><time>2026-04-09T14:09:03Z</time></trkpt><trkpt lat="49.15515942012396" lon="2.5396804494069323"><ele>57.0</ele><time>2026-04-09T14:09:05Z</time></trkpt><trkpt lat="49.155151284018594" lon="2.539543771601704"><ele>57.0</ele><time>2026-04-09T14:09:07Z</time></trkpt><trkpt lat="49.155168695595705" lon="2.5394352964863542"><ele>57.0</ele><time>2026-04-09T14:09:09Z</time></trkpt><trkpt lat="49.15516092107455" lon="2.5393185141321992"><ele>57.0</ele><time>2026-04-09T14:09:11Z</time></trkpt><trkpt lat="49.155173399164994" lon="2.5391937141463456"><ele>57.0</ele><time>2026-04-09T14:09:13Z</time></trkpt><trkpt lat="49.15516008043617" lon="2.539068779730813"><ele>57.0</ele><time>2026-04-09T14:09:15Z</time></trkpt><trkpt lat="49.15516486421704" lon="2.53894130038193"><ele>57.0</ele><time>2026-04-09T14:09:17Z</time></trkpt><trkpt lat="49.155162941963816" lon="2.538819895509253"><ele>57.8</ele><time>2026-04-09T14:09:19Z</time></trkpt><trkpt lat="49.15515170285793" lon="2.5386774398504537"><ele>58.6</ele><time>2026-04-09T14:09:21Z</time></trkpt><trkpt lat="49.15514484371507" lon="2.538538822040469"><ele>59.39999999999999</ele><time>2026-04-09T14:09:23Z</time></trkpt><trkpt lat="49.15516127295696" lon="2.538381223495739"><ele>60.199999999999996</ele><time>2026-04-09T14:09:25Z</time></trkpt><trkpt lat="49.15516166454242" lon="2.5382277227484864"><ele>61.0</ele><time>2026-04-09T14:09:27Z</time></trkpt><trkpt lat="49.15516268609802" lon="2.538090008015934"><ele>61.0</ele><time>2026-04-09T14:09:29Z</time></trkpt><trkpt lat="49.15516502756497" lon="2.537943682324256"><ele>60.99999999999999</ele><time>2026-04-09T14:09:31Z</time></trkpt><trkpt lat="49.1551685223486" lon="2.5377980920218497"><ele>60.99999999999999</ele><time>2026-04-09T14:09:33Z</time></trkpt><trkpt lat="49.15517580153496" lon="2.537646242227407"><ele>61.0</ele><time>2026-04-09T14:09:34.999Z</time></trkpt><trkpt lat="49.15518736830308" lon="2.537507467756591"><ele>61.0</ele><time>2026-04-09T14:09:36.999Z</time></trkpt><trkpt lat="49.15519342820102" lon="2.5373654845270774"><ele>61.49999999999999</ele><time>2026-04-09T14:09:38.999Z</time></trkpt><trkpt lat="49.155228134848564" lon="2.537243097688926"><ele>62.0</ele><time>2026-04-09T14:09:40.999Z</time></trkpt><trkpt lat="49.15527057879416" lon="2.5371476061536344"><ele>62.5</ele><time>2026-04-09T14:09:42.999Z</time></trkpt><trkpt lat="49.15533015535842" lon="2.537068248232959"><ele>63.0</ele><time>2026-04-09T14:09:44.999Z</time></trkpt><trkpt lat="49.15537338688281" lon="2.5369694100419315"><ele>63.49999999999999</ele><time>2026-04-09T14:09:46.999Z</time></trkpt><trkpt lat="49.15541558440078" lon="2.5368466644531362"><ele>64.0</ele><time>2026-04-09T14:09:49.999Z</time></trkpt><trkpt lat="49.15543863880577" lon="2.5367524340881036"><ele>64.16666666666666</ele><time>2026-04-09T14:09:51.999Z</time></trkpt><trkpt lat="49.15547290316058" lon="2.536610740532174"><ele>64.33333333333333</ele><time>2026-04-09T14:09:54.999Z</time></trkpt><trkpt lat="49.155497393684314" lon="2.5365081381054986"><ele>64.5</ele><time>2026-04-09T14:09:56.999Z</time></trkpt><trkpt lat="49.15552030963628" lon="2.536407616927621"><ele>64.66666666666667</ele><time>2026-04-09T14:09:58.999Z</time></trkpt><trkpt lat="49.155525857531636" lon="2.536303561472605"><ele>64.83333333333334</ele><time>2026-04-09T14:10:00.999Z</time></trkpt><trkpt lat="49.155557122379165" lon="2.5361655507414165"><ele>65.0</ele><time>2026-04-09T14:10:03.999Z</time></trkpt><trkpt lat="49.15558100940143" lon="2.53607472281439"><ele>65.16666666666667</ele><time>2026-04-09T14:10:05.999Z</time></trkpt><trkpt lat="49.15560355220358" lon="2.535965378168963"><ele>65.33333333333334</ele><time>2026-04-09T14:10:07.999Z</time></trkpt><trkpt lat="49.155628155082006" lon="2.5358426583976956"><ele>65.5</ele><time>2026-04-09T14:10:10.999Z</time></trkpt><trkpt lat="49.15565593435852" lon="2.535701605288427"><ele>65.66666666666667</ele><time>2026-04-09T14:10:13.999Z</time></trkpt><trkpt lat="49.15567043950371" lon="2.535601904263227"><ele>65.83333333333333</ele><time>2026-04-09T14:10:15.999Z</time></trkpt><trkpt lat="49.15569892183858" lon="2.5354931536293708"><ele>66.0</ele><time>2026-04-09T14:10:17.999Z</time></trkpt><trkpt lat="49.15571051544322" lon="2.5353852650523083"><ele>66.0</ele><time>2026-04-09T14:10:20.998Z</time></trkpt><trkpt lat="49.155735675747856" lon="2.5352619462645607"><ele>66.0</ele><time>2026-04-09T14:10:23.998Z</time></trkpt><trkpt lat="49.15575761450362" lon="2.5351142351845537"><ele>66.0</ele><time>2026-04-09T14:10:26.998Z</time></trkpt><trkpt lat="49.155772660843084" lon="2.535017583992213"><ele>66.0</ele><time>2026-04-09T14:10:28.998Z</time></trkpt><trkpt lat="49.155784864579026" lon="2.534904022789369"><ele>66.0</ele><time>2026-04-09T14:10:30.998Z</time></trkpt><trkpt lat="49.15580735153341" lon="2.5348088312323913"><ele>66.0</ele><time>2026-04-09T14:10:32.998Z</time></trkpt><trkpt lat="49.15581582318475" lon="2.5346941708102118"><ele>66.0</ele><time>2026-04-09T14:10:34.998Z</time></trkpt><trkpt lat="49.15582199817151" lon="2.5345922711083566"><ele>66.0</ele><time>2026-04-09T14:10:36.998Z</time></trkpt><trkpt lat="49.155825703778305" lon="2.5344794330848517"><ele>66.0</ele><time>2026-04-09T14:10:38.998Z</time></trkpt><trkpt lat="49.15582828696927" lon="2.534350174194606"><ele>66.0</ele><time>2026-04-09T14:10:40.998Z</time></trkpt><trkpt lat="49.15582941717034" lon="2.53423498660375"><ele>66.0</ele><time>2026-04-09T14:10:42.998Z</time></trkpt><trkpt lat="49.15582977412923" lon="2.534105270006752"><ele>66.0</ele><time>2026-04-09T14:10:44.998Z</time></trkpt><trkpt lat="49.15582826854418" lon="2.533975120788198"><ele>65.83333333333333</ele><time>2026-04-09T14:10:46.998Z</time></trkpt><trkpt lat="49.1558246866148" lon="2.533844181777669"><ele>65.66666666666667</ele><time>2026-04-09T14:10:48.998Z</time></trkpt><trkpt lat="49.155820034541335" lon="2.5337173108847963"><ele>65.5</ele><time>2026-04-09T14:10:50.998Z</time></trkpt><trkpt lat="49.15581419689263" lon="2.5335890494120146"><ele>65.33333333333334</ele><time>2026-04-09T14:10:52.998Z</time></trkpt><trkpt lat="49.15579574268676" lon="2.533455987264921"><ele>65.16666666666667</ele><time>2026-04-09T14:10:54.998Z</time></trkpt><trkpt lat="49.155787100067165" lon="2.533308579082408"><ele>65.0</ele><time>2026-04-09T14:10:57Z</time></trkpt><trkpt lat="49.155780906158" lon="2.533188957437406"><ele>64.4</ele><time>2026-04-09T14:10:59Z</time></trkpt><trkpt lat="49.15575549322751" lon="2.533071127697756"><ele>63.8</ele><time>2026-04-09T14:11:01Z</time></trkpt><trkpt lat="49.15574852306317" lon="2.532934713736342"><ele>63.2</ele><time>2026-04-09T14:11:03Z</time></trkpt><trkpt lat="49.15570921212363" lon="2.5328120638529477"><ele>62.6</ele><time>2026-04-09T14:11:05Z</time></trkpt><trkpt lat="49.15569436049191" lon="2.5326547861825435"><ele>62.0</ele><time>2026-04-09T14:11:07Z</time></trkpt><trkpt lat="49.155648924429705" lon="2.5325165235182596"><ele>61.6</ele><time>2026-04-09T14:11:09Z</time></trkpt><trkpt lat="49.155617574780734" lon="2.5323591251092523"><ele>61.2</ele><time>2026-04-09T14:11:11Z</time></trkpt><trkpt lat="49.15559432019508" lon="2.532205296805572"><ele>60.8</ele><time>2026-04-09T14:11:13Z</time></trkpt><trkpt lat="49.15557912619064" lon="2.532080680918532"><ele>60.4</ele><time>2026-04-09T14:11:15Z</time></trkpt><trkpt lat="49.15557438042051" lon="2.53193193960152"><ele>60.0</ele><time>2026-04-09T14:11:17Z</time></trkpt><trkpt lat="49.15554880327919" lon="2.531789796227535"><ele>59.6</ele><time>2026-04-09T14:11:19Z</time></trkpt><trkpt lat="49.155541584174664" lon="2.531633493521249"><ele>59.2</ele><time>2026-04-09T14:11:21Z</time></trkpt><trkpt lat="49.15554389392143" lon="2.531479046292223"><ele>58.8</ele><time>2026-04-09T14:11:23Z</time></trkpt><trkpt lat="49.15555740156504" lon="2.5313205195639537"><ele>58.4</ele><time>2026-04-09T14:11:25Z</time></trkpt><trkpt lat="49.155559691852524" lon="2.531212392010348"><ele>58.0</ele><time>2026-04-09T14:11:27Z</time></trkpt><trkpt lat="49.155566827485885" lon="2.53101800584974"><ele>58.0</ele><time>2026-04-09T14:11:29Z</time></trkpt><trkpt lat="49.15557157098351" lon="2.5308933378431937"><ele>58.0</ele><time>2026-04-09T14:11:31Z</time></trkpt><trkpt lat="49.15556634662654" lon="2.530745046974793"><ele>58.0</ele><time>2026-04-09T14:11:33Z</time></trkpt><trkpt lat="49.15557468384054" lon="2.5305999649085926"><ele>58.0</ele><time>2026-04-09T14:11:35Z</time></trkpt><trkpt lat="49.15557336625658" lon="2.5304477240347603"><ele>58.0</ele><time>2026-04-09T14:11:37Z</time></trkpt><trkpt lat="49.15556512962012" lon="2.5303044219441078"><ele>57.8</ele><time>2026-04-09T14:11:39Z</time></trkpt><trkpt lat="49.15554392699015" lon="2.5301477252527493"><ele>57.599999999999994</ele><time>2026-04-09T14:11:41Z</time></trkpt><trkpt lat="49.155524217412825" lon="2.529995347276678"><ele>57.400000000000006</ele><time>2026-04-09T14:11:43Z</time></trkpt><trkpt lat="49.15549111086945" lon="2.5298374604413154"><ele>57.2</ele><time>2026-04-09T14:11:45Z</time></trkpt><trkpt lat="49.155458514078916" lon="2.529682026761536"><ele>57.0</ele><time>2026-04-09T14:11:47Z</time></trkpt><trkpt lat="49.155426717711556" lon="2.529530394322387"><ele>56.6</ele><time>2026-04-09T14:11:48.999Z</time></trkpt><trkpt lat="49.15539614450815" lon="2.5293845949800136"><ele>56.2</ele><time>2026-04-09T14:11:50.999Z</time></trkpt><trkpt lat="49.155365889516126" lon="2.529240313153329"><ele>55.8</ele><time>2026-04-09T14:11:52.999Z</time></trkpt><trkpt lat="49.155338296785715" lon="2.5291092855063813"><ele>55.4</ele><time>2026-04-09T14:11:54.999Z</time></trkpt><trkpt lat="49.155318625785526" lon="2.5290176176731323"><ele>55.0</ele><time>2026-04-09T14:11:55.999Z</time></trkpt><trkpt lat="49.15527752044743" lon="2.528870102760138"><ele>54.2</ele><time>2026-04-09T14:11:57.999Z</time></trkpt><trkpt lat="49.155262880241104" lon="2.5286946743323466"><ele>53.4</ele><time>2026-04-09T14:11:59.999Z</time></trkpt><trkpt lat="49.15523177574814" lon="2.528539020291306"><ele>52.599999999999994</ele><time>2026-04-09T14:12:01.999Z</time></trkpt><trkpt lat="49.1552284365868" lon="2.5283690146520734"><ele>51.8</ele><time>2026-04-09T14:12:03.999Z</time></trkpt><trkpt lat="49.15520459311713" lon="2.5282795929187882"><ele>51.0</ele><time>2026-04-09T14:12:04.999Z</time></trkpt><trkpt lat="49.15519253087938" lon="2.528113973633939"><ele>51.0</ele><time>2026-04-09T14:12:06.999Z</time></trkpt><trkpt lat="49.155181623567564" lon="2.5279374104098054"><ele>51.0</ele><time>2026-04-09T14:12:08.999Z</time></trkpt><trkpt lat="49.155167366118704" lon="2.5277825145146333"><ele>51.0</ele><time>2026-04-09T14:12:10.999Z</time></trkpt><trkpt lat="49.155162687312455" lon="2.527644575730068"><ele>51.0</ele><time>2026-04-09T14:12:12.999Z</time></trkpt><trkpt lat="49.155164424923086" lon="2.527499743812234"><ele>51.0</ele><time>2026-04-09T14:12:14.999Z</time></trkpt><trkpt lat="49.155144613627186" lon="2.527365088836424"><ele>51.0</ele><time>2026-04-09T14:12:16.999Z</time></trkpt><trkpt lat="49.15515400686517" lon="2.5272154271021665"><ele>51.0</ele><time>2026-04-09T14:12:18.999Z</time></trkpt><trkpt lat="49.15513429205223" lon="2.527073822817016"><ele>51.0</ele><time>2026-04-09T14:12:20.999Z</time></trkpt><trkpt lat="49.15514699769569" lon="2.526930704582287"><ele>51.0</ele><time>2026-04-09T14:12:22.999Z</time></trkpt><trkpt lat="49.155143716244474" lon="2.52678684895332"><ele>51.0</ele><time>2026-04-09T14:12:24.999Z</time></trkpt><trkpt lat="49.15512630208233" lon="2.5266439525796"><ele>51.0</ele><time>2026-04-09T14:12:26.999Z</time></trkpt><trkpt lat="49.155129145877396" lon="2.526504122856572"><ele>51.0</ele><time>2026-04-09T14:12:28.999Z</time></trkpt><trkpt lat="49.15514179073254" lon="2.5263638360216802"><ele>51.0</ele><time>2026-04-09T14:12:30.998Z</time></trkpt><trkpt lat="49.15514127861873" lon="2.526236177020914"><ele>51.0</ele><time>2026-04-09T14:12:32.998Z</time></trkpt><trkpt lat="49.15512460389985" lon="2.5260851402474964"><ele>51.0</ele><time>2026-04-09T14:12:34.998Z</time></trkpt><trkpt lat="49.15512349000375" lon="2.5259476461883956"><ele>51.166666666666664</ele><time>2026-04-09T14:12:36.998Z</time></trkpt><trkpt lat="49.15513973645754" lon="2.52580204714104"><ele>51.33333333333333</ele><time>2026-04-09T14:12:38.998Z</time></trkpt><trkpt lat="49.1551285760622" lon="2.525688413928585"><ele>51.5</ele><time>2026-04-09T14:12:40.998Z</time></trkpt><trkpt lat="49.155139395229234" lon="2.5255440294147284"><ele>51.666666666666664</ele><time>2026-04-09T14:12:42.998Z</time></trkpt><trkpt lat="49.1551312903696" lon="2.5254113386162027"><ele>51.83333333333333</ele><time>2026-04-09T14:12:44.998Z</time></trkpt><trkpt lat="49.155122583366705" lon="2.525274852640996"><ele>52.0</ele><time>2026-04-09T14:12:46.998Z</time></trkpt><trkpt lat="49.15513435417753" lon="2.525140101423357"><ele>52.33333333333333</ele><time>2026-04-09T14:12:48.998Z</time></trkpt><trkpt lat="49.15513858389277" lon="2.5250183878381907"><ele>52.666666666666664</ele><time>2026-04-09T14:12:50.998Z</time></trkpt><trkpt lat="49.155145428176844" lon="2.5248986085496514"><ele>53.0</ele><time>2026-04-09T14:12:52.998Z</time></trkpt><trkpt lat="49.1551583705496" lon="2.5247855408909565"><ele>53.33333333333333</ele><time>2026-04-09T14:12:54.998Z</time></trkpt><trkpt lat="49.155166334643695" lon="2.5246723387760728"><ele>53.666666666666664</ele><time>2026-04-09T14:12:56.998Z</time></trkpt><trkpt lat="49.155175828177846" lon="2.524571918530136"><ele>54.0</ele><time>2026-04-09T14:12:58.998Z</time></trkpt><trkpt lat="49.155161433691134" lon="2.524456186675265"><ele>54.166666666666664</ele><time>2026-04-09T14:13:00.998Z</time></trkpt><trkpt lat="49.155163643076065" lon="2.5243346185445557"><ele>54.33333333333333</ele><time>2026-04-09T14:13:03.001Z</time></trkpt><trkpt lat="49.15516838813313" lon="2.5242134584045903"><ele>54.5</ele><time>2026-04-09T14:13:05.001Z</time></trkpt><trkpt lat="49.155154819170136" lon="2.524078847510202"><ele>54.666666666666664</ele><time>2026-04-09T14:13:08.001Z</time></trkpt><trkpt lat="49.155143757868515" lon="2.5239421628256133"><ele>54.83333333333333</ele><time>2026-04-09T14:13:11.001Z</time></trkpt><trkpt lat="49.15512869261851" lon="2.5238482714447645"><ele>55.0</ele><time>2026-04-09T14:13:13.001Z</time></trkpt><trkpt lat="49.155114056012174" lon="2.5236996629328403"><ele>54.99999999999999</ele><time>2026-04-09T14:13:16.001Z</time></trkpt><trkpt lat="49.15510146341258" lon="2.523593326671011"><ele>55.0</ele><time>2026-04-09T14:13:18.001Z</time></trkpt><trkpt lat="49.15509816341516" lon="2.5234940096562966"><ele>55.0</ele><time>2026-04-09T14:13:20.001Z</time></trkpt><trkpt lat="49.155087329898" lon="2.523386024135333"><ele>55.0</ele><time>2026-04-09T14:13:22.001Z</time></trkpt><trkpt lat="49.15509774576383" lon="2.5232439505057234"><ele>55.0</ele><time>2026-04-09T14:13:25Z</time></trkpt><trkpt lat="49.15509336660865" lon="2.523128166759899"><ele>54.99999999999999</ele><time>2026-04-09T14:13:27Z</time></trkpt><trkpt lat="49.155080870922454" lon="2.5230292728739196"><ele>55.0</ele><time>2026-04-09T14:13:29Z</time></trkpt><trkpt lat="49.15509574506264" lon="2.5229242233713958"><ele>55.28571428571428</ele><time>2026-04-09T14:13:31Z</time></trkpt><trkpt lat="49.1550847297493" lon="2.5228206442213494"><ele>55.57142857142857</ele><time>2026-04-09T14:13:33Z</time></trkpt><trkpt lat="49.15510797473409" lon="2.522719626580746"><ele>55.857142857142854</ele><time>2026-04-09T14:13:35Z</time></trkpt><trkpt lat="49.155102177744894" lon="2.5226070667802802"><ele>56.14285714285714</ele><time>2026-04-09T14:13:37Z</time></trkpt><trkpt lat="49.15512830863747" lon="2.5224677460650202"><ele>56.42857142857142</ele><time>2026-04-09T14:13:40Z</time></trkpt><trkpt lat="49.1551367222389" lon="2.522369817879627"><ele>56.71428571428571</ele><time>2026-04-09T14:13:42Z</time></trkpt><trkpt lat="49.15512698199277" lon="2.5222577117871587"><ele>57.0</ele><time>2026-04-09T14:13:44Z</time></trkpt><trkpt lat="49.155136302307156" lon="2.522154578051783"><ele>57.333333333333336</ele><time>2026-04-09T14:13:46Z</time></trkpt><trkpt lat="49.155140242107976" lon="2.5220575334500692"><ele>57.66666666666667</ele><time>2026-04-09T14:13:48Z</time></trkpt><trkpt lat="49.155160990817784" lon="2.5219446945902297"><ele>58.0</ele><time>2026-04-09T14:13:50Z</time></trkpt><trkpt lat="49.15515131697748" lon="2.52182557907071"><ele>58.333333333333336</ele><time>2026-04-09T14:13:52Z</time></trkpt><trkpt lat="49.155159610326486" lon="2.521706454200065"><ele>58.66666666666667</ele><time>2026-04-09T14:13:54Z</time></trkpt><trkpt lat="49.15516413069459" lon="2.5215734917789243"><ele>59.0</ele><time>2026-04-09T14:13:56Z</time></trkpt><trkpt lat="49.15516481011209" lon="2.521437851007227"><ele>59.0</ele><time>2026-04-09T14:13:58Z</time></trkpt><trkpt lat="49.1551716627525" lon="2.5212942917733385"><ele>59.00000000000001</ele><time>2026-04-09T14:13:59.999Z</time></trkpt><trkpt lat="49.155141347698866" lon="2.5211281363794584"><ele>59.00000000000001</ele><time>2026-04-09T14:14:01.999Z</time></trkpt><trkpt lat="49.155105947259806" lon="2.5209918330246617"><ele>59.0</ele><time>2026-04-09T14:14:03.999Z</time></trkpt><trkpt lat="49.15508233739173" lon="2.520887832173277"><ele>59.0</ele><time>2026-04-09T14:14:05.999Z</time></trkpt><trkpt lat="49.155040243502334" lon="2.5207683878669225"><ele>59.00000000000001</ele><time>2026-04-09T14:14:09.999Z</time></trkpt><trkpt lat="49.155083381370645" lon="2.52067474132054"><ele>59.0</ele><time>2026-04-09T14:14:11.999Z</time></trkpt><trkpt lat="49.155087765965" lon="2.5205608918268827"><ele>59.0</ele><time>2026-04-09T14:14:13.999Z</time></trkpt><trkpt lat="49.15508709632013" lon="2.52044175026366"><ele>59.0</ele><time>2026-04-09T14:14:15.999Z</time></trkpt><trkpt lat="49.15508915646531" lon="2.520319581391291"><ele>59.00000000000001</ele><time>2026-04-09T14:14:17.999Z</time></trkpt><trkpt lat="49.1550897941906" lon="2.52019811337194"><ele>59.0</ele><time>2026-04-09T14:14:19.999Z</time></trkpt><trkpt lat="49.155092919162705" lon="2.5200797479407604"><ele>58.833333333333336</ele><time>2026-04-09T14:14:21.999Z</time></trkpt><trkpt lat="49.155108572950915" lon="2.5199727924575073"><ele>58.66666666666667</ele><time>2026-04-09T14:14:23.999Z</time></trkpt><trkpt lat="49.15511088592268" lon="2.519872700457379"><ele>58.5</ele><time>2026-04-09T14:14:25.999Z</time></trkpt><trkpt lat="49.15511321113104" lon="2.519760902161333"><ele>58.33333333333333</ele><time>2026-04-09T14:14:28.999Z</time></trkpt><trkpt lat="49.155115201465684" lon="2.5196587127401657"><ele>58.166666666666664</ele><time>2026-04-09T14:14:30.999Z</time></trkpt><trkpt lat="49.15511909229156" lon="2.5195181752677502"><ele>58.0</ele><time>2026-04-09T14:14:33.999Z</time></trkpt><trkpt lat="49.155122713049764" lon="2.5193891857715105"><ele>58.00000000000001</ele><time>2026-04-09T14:14:36.999Z</time></trkpt><trkpt lat="49.15512563696868" lon="2.519264799123435"><ele>58.0</ele><time>2026-04-09T14:14:39.998Z</time></trkpt><trkpt lat="49.155127447836946" lon="2.519148769410362"><ele>58.00000000000001</ele><time>2026-04-09T14:14:42.998Z</time></trkpt><trkpt lat="49.15512820077457" lon="2.5190407210582904"><ele>58.00000000000001</ele><time>2026-04-09T14:14:45.998Z</time></trkpt><trkpt lat="49.15512880857702" lon="2.5189377758459583"><ele>58.0</ele><time>2026-04-09T14:14:48.998Z</time></trkpt><trkpt lat="49.1551293863442" lon="2.518839918621554"><ele>58.00000000000001</ele><time>2026-04-09T14:14:51.998Z</time></trkpt><trkpt lat="49.1551217832647" lon="2.5187264844099664"><ele>58.00000000000001</ele><time>2026-04-09T14:16:18.999Z</time></trkpt><trkpt lat="49.155117120861654" lon="2.5186183263689803"><ele>58.166666666666664</ele><time>2026-04-09T14:16:21.999Z</time></trkpt><trkpt lat="49.15501309456706" lon="2.5185132477999335"><ele>58.33333333333333</ele><time>2026-04-09T14:16:24.999Z</time></trkpt><trkpt lat="49.154957034074364" lon="2.5184448594985405"><ele>58.5</ele><time>2026-04-09T14:16:26.999Z</time></trkpt><trkpt lat="49.15488816836351" lon="2.5183919482677743"><ele>58.66666666666667</ele><time>2026-04-09T14:16:28.999Z</time></trkpt><trkpt lat="49.15482199386655" lon="2.5183285427992312"><ele>58.833333333333336</ele><time>2026-04-09T14:16:30.999Z</time></trkpt><trkpt lat="49.1547488294497" lon="2.518268462556286"><ele>59.0</ele><time>2026-04-09T14:16:32.999Z</time></trkpt><trkpt lat="49.15466982856382" lon="2.5182197361758782"><ele>58.833333333333336</ele><time>2026-04-09T14:16:34.999Z</time></trkpt><trkpt lat="49.1545910489286" lon="2.5181726255069323"><ele>58.66666666666667</ele><time>2026-04-09T14:16:36.999Z</time></trkpt><trkpt lat="49.15451059969625" lon="2.5181262239505107"><ele>58.5</ele><time>2026-04-09T14:16:38.999Z</time></trkpt><trkpt lat="49.15443659898138" lon="2.5180529192133623"><ele>58.33333333333333</ele><time>2026-04-09T14:16:40.999Z</time></trkpt><trkpt lat="49.15435679683628" lon="2.5179991167856053"><ele>58.166666666666664</ele><time>2026-04-09T14:16:42.998Z</time></trkpt><trkpt lat="49.15426164089044" lon="2.5179417625145697"><ele>58.0</ele><time>2026-04-09T14:16:44.998Z</time></trkpt><trkpt lat="49.15416360728571" lon="2.5178820330377873"><ele>58.0</ele><time>2026-04-09T14:16:46.998Z</time></trkpt><trkpt lat="49.15407173426553" lon="2.5178244941935475"><ele>58.0</ele><time>2026-04-09T14:16:48.998Z</time></trkpt><trkpt lat="49.15398418595841" lon="2.517766238674002"><ele>58.0</ele><time>2026-04-09T14:16:50.998Z</time></trkpt><trkpt lat="49.153890887126536" lon="2.5176996012605124"><ele>58.0</ele><time>2026-04-09T14:16:52.998Z</time></trkpt><trkpt lat="49.15380967110406" lon="2.5176415960252645"><ele>58.0</ele><time>2026-04-09T14:16:54.998Z</time></trkpt><trkpt lat="49.153730022095154" lon="2.5175833752819745"><ele>57.599999999999994</ele><time>2026-04-09T14:16:56.998Z</time></trkpt><trkpt lat="49.153652076675826" lon="2.517526151076376"><ele>57.199999999999996</ele><time>2026-04-09T14:16:58.998Z</time></trkpt><trkpt lat="49.15356833187696" lon="2.5174653775748017"><ele>56.8</ele><time>2026-04-09T14:17:00.998Z</time></trkpt><trkpt lat="49.15348034331526" lon="2.5174062931550782"><ele>56.4</ele><time>2026-04-09T14:17:02.998Z</time></trkpt><trkpt lat="49.15338074748712" lon="2.517374471304182"><ele>56.0</ele><time>2026-04-09T14:17:04.998Z</time></trkpt><trkpt lat="49.153303878120994" lon="2.5173032395089554"><ele>56.0</ele><time>2026-04-09T14:17:06.998Z</time></trkpt><trkpt lat="49.15320326089729" lon="2.5172807531906116"><ele>55.99999999999999</ele><time>2026-04-09T14:17:08.998Z</time></trkpt><trkpt lat="49.15311070849381" lon="2.5172515517840535"><ele>55.99999999999999</ele><time>2026-04-09T14:17:10.998Z</time></trkpt><trkpt lat="49.153006195828404" lon="2.517230938789218"><ele>56.0</ele><time>2026-04-09T14:17:12.998Z</time></trkpt><trkpt lat="49.15291030859899" lon="2.5172175640273045"><ele>56.0</ele><time>2026-04-09T14:17:15.001Z</time></trkpt><trkpt lat="49.15280531457473" lon="2.5171827723557367"><ele>56.0</ele><time>2026-04-09T14:17:17.001Z</time></trkpt><trkpt lat="49.15269422571181" lon="2.5171938842638846"><ele>55.99999999999999</ele><time>2026-04-09T14:17:19.001Z</time></trkpt><trkpt lat="49.15258014166903" lon="2.517191956305354"><ele>55.99999999999999</ele><time>2026-04-09T14:17:21.001Z</time></trkpt><trkpt lat="49.15250867057407" lon="2.5171879848222445"><ele>56.0</ele><time>2026-04-09T14:17:22.001Z</time></trkpt><trkpt lat="49.15238727921175" lon="2.5171852136699315"><ele>56.0</ele><time>2026-04-09T14:17:24.001Z</time></trkpt><trkpt lat="49.15232225902374" lon="2.5171873204545037"><ele>55.0</ele><time>2026-04-09T14:17:25.001Z</time></trkpt><trkpt lat="49.15225167485352" lon="2.51719254462232"><ele>54.0</ele><time>2026-04-09T14:17:26.001Z</time></trkpt><trkpt lat="49.152177338887334" lon="2.5171989752366764"><ele>53.0</ele><time>2026-04-09T14:17:27.001Z</time></trkpt><trkpt lat="49.1521029483498" lon="2.51719942447147"><ele>52.0</ele><time>2026-04-09T14:17:28.001Z</time></trkpt><trkpt lat="49.1520334275524" lon="2.5172010124968245"><ele>51.0</ele><time>2026-04-09T14:17:29.001Z</time></trkpt><trkpt lat="49.151961394365564" lon="2.517201326209907"><ele>50.0</ele><time>2026-04-09T14:17:30Z</time></trkpt><trkpt lat="49.1518899330544" lon="2.5171855346751015"><ele>49.0</ele><time>2026-04-09T14:17:31Z</time></trkpt><trkpt lat="49.15181468284281" lon="2.517144764432841"><ele>48.99999999999999</ele><time>2026-04-09T14:17:32Z</time></trkpt><trkpt lat="49.151736448744515" lon="2.5171133357067323"><ele>49.0</ele><time>2026-04-09T14:17:33Z</time></trkpt><trkpt lat="49.151673134376345" lon="2.517046406590199"><ele>49.0</ele><time>2026-04-09T14:17:34Z</time></trkpt><trkpt lat="49.15162736315661" lon="2.5169645333119033"><ele>49.0</ele><time>2026-04-09T14:17:35Z</time></trkpt><trkpt lat="49.15159000525899" lon="2.5168705439554033"><ele>48.99999999999999</ele><time>2026-04-09T14:17:36Z</time></trkpt><trkpt lat="49.15156612803159" lon="2.516758897337299"><ele>49.0</ele><time>2026-04-09T14:17:37Z</time></trkpt><trkpt lat="49.151530377273794" lon="2.516648619651179"><ele>49.0</ele><time>2026-04-09T14:17:38Z</time></trkpt><trkpt lat="49.15149370475538" lon="2.5165439540075134"><ele>49.0</ele><time>2026-04-09T14:17:39Z</time></trkpt><trkpt lat="49.151430932307406" lon="2.516459501851374"><ele>49.0</ele><time>2026-04-09T14:17:40Z</time></trkpt><trkpt lat="49.15137474772169" lon="2.516386857860519"><ele>49.0</ele><time>2026-04-09T14:17:41Z</time></trkpt><trkpt lat="49.15131619449441" lon="2.5163174465154183"><ele>49.0</ele><time>2026-04-09T14:17:42Z</time></trkpt><trkpt lat="49.15125987835522" lon="2.516251481670732"><ele>49.0</ele><time>2026-04-09T14:17:43Z</time></trkpt><trkpt lat="49.151206650828044" lon="2.5161891346303924"><ele>49.0</ele><time>2026-04-09T14:17:44Z</time></trkpt><trkpt lat="49.15115358738369" lon="2.5161281721406"><ele>49.0</ele><time>2026-04-09T14:17:45Z</time></trkpt><trkpt lat="49.151048442969135" lon="2.5160126426805824"><ele>49.0</ele><time>2026-04-09T14:17:47Z</time></trkpt><trkpt lat="49.15092965650576" lon="2.5159206244485057"><ele>49.0</ele><time>2026-04-09T14:17:49Z</time></trkpt><trkpt lat="49.1508310946975" lon="2.515797613725919"><ele>49.0</ele><time>2026-04-09T14:17:51Z</time></trkpt><trkpt lat="49.15076899978409" lon="2.5157542109424136"><ele>49.2</ele><time>2026-04-09T14:17:52Z</time></trkpt><trkpt lat="49.15069419054786" lon="2.5157190545475125"><ele>49.400000000000006</ele><time>2026-04-09T14:17:53Z</time></trkpt><trkpt lat="49.15060771607778" lon="2.515749442280302"><ele>49.6</ele><time>2026-04-09T14:17:54Z</time></trkpt><trkpt lat="49.15053918971128" lon="2.51575061268904"><ele>49.8</ele><time>2026-04-09T14:17:55Z</time></trkpt><trkpt lat="49.150425070248836" lon="2.5157528768379906"><ele>50.0</ele><time>2026-04-09T14:17:57Z</time></trkpt><trkpt lat="49.150307475362" lon="2.5157798951369172"><ele>50.0</ele><time>2026-04-09T14:17:59Z</time></trkpt><trkpt lat="49.15020459963634" lon="2.5157931422843927"><ele>50.0</ele><time>2026-04-09T14:18:01Z</time></trkpt><trkpt lat="49.150091798460416" lon="2.5158225538923262"><ele>50.0</ele><time>2026-04-09T14:18:02.999Z</time></trkpt><trkpt lat="49.149989619055276" lon="2.5158510702541967"><ele>50.0</ele><time>2026-04-09T14:18:04.999Z</time></trkpt><trkpt lat="49.149891268008595" lon="2.5158816965668973"><ele>50.0</ele><time>2026-04-09T14:18:06.999Z</time></trkpt><trkpt lat="49.14979089142485" lon="2.5159024300925417"><ele>50.0</ele><time>2026-04-09T14:18:08.999Z</time></trkpt><trkpt lat="49.14968599147233" lon="2.5159212384471537"><ele>50.0</ele><time>2026-04-09T14:18:10.999Z</time></trkpt><trkpt lat="49.149587509451806" lon="2.515951413090548"><ele>50.0</ele><time>2026-04-09T14:18:12.999Z</time></trkpt><trkpt lat="49.149486126394" lon="2.5159777747783845"><ele>50.0</ele><time>2026-04-09T14:18:14.999Z</time></trkpt><trkpt lat="49.149380402680166" lon="2.516004417298881"><ele>50.0</ele><time>2026-04-09T14:18:16.999Z</time></trkpt><trkpt lat="49.14927464796952" lon="2.5160426977224377"><ele>50.0</ele><time>2026-04-09T14:18:18.999Z</time></trkpt><trkpt lat="49.14916675261621" lon="2.5160693033075687"><ele>50.0</ele><time>2026-04-09T14:18:20.999Z</time></trkpt><trkpt lat="49.1490567966711" lon="2.516079491398572"><ele>50.0</ele><time>2026-04-09T14:18:22.999Z</time></trkpt><trkpt lat="49.14894885980466" lon="2.5161185025381507"><ele>50.0</ele><time>2026-04-09T14:18:24.999Z</time></trkpt><trkpt lat="49.148835447785764" lon="2.5161116922195075"><ele>50.0</ele><time>2026-04-09T14:18:26.999Z</time></trkpt><trkpt lat="49.14872694782749" lon="2.5161112429548345"><ele>50.0</ele><time>2026-04-09T14:18:28.999Z</time></trkpt><trkpt lat="49.148613516450574" lon="2.5161044493713103"><ele>50.0</ele><time>2026-04-09T14:18:30.999Z</time></trkpt><trkpt lat="49.1485060538267" lon="2.516095461559998"><ele>50.0</ele><time>2026-04-09T14:18:32.999Z</time></trkpt><trkpt lat="49.14839426356848" lon="2.5160899013325717"><ele>50.0</ele><time>2026-04-09T14:18:34.999Z</time></trkpt><trkpt lat="49.148286296921995" lon="2.5160816169608258"><ele>50.0</ele><time>2026-04-09T14:18:36.999Z</time></trkpt><trkpt lat="49.1481818823627" lon="2.5160650318702724"><ele>50.0</ele><time>2026-04-09T14:18:38.999Z</time></trkpt><trkpt lat="49.148076589155075" lon="2.516051244059057"><ele>50.0</ele><time>2026-04-09T14:18:40.998Z</time></trkpt><trkpt lat="49.1479707235891" lon="2.5160351832196355"><ele>50.0</ele><time>2026-04-09T14:18:42.998Z</time></trkpt><trkpt lat="49.14787103665513" lon="2.5160245929385865"><ele>50.0</ele><time>2026-04-09T14:18:44.998Z</time></trkpt><trkpt lat="49.147768208770856" lon="2.5160119994970334"><ele>50.0</ele><time>2026-04-09T14:18:46.998Z</time></trkpt><trkpt lat="49.14766439361671" lon="2.516006427924775"><ele>50.0</ele><time>2026-04-09T14:18:48.998Z</time></trkpt><trkpt lat="49.14756663252745" lon="2.515991926795265"><ele>50.0</ele><time>2026-04-09T14:18:50.998Z</time></trkpt><trkpt lat="49.14747074360251" lon="2.515975639339895"><ele>50.0</ele><time>2026-04-09T14:18:52.998Z</time></trkpt><trkpt lat="49.14738209296118" lon="2.515961495601017"><ele>50.0</ele><time>2026-04-09T14:18:54.998Z</time></trkpt><trkpt lat="49.14729669818178" lon="2.5159440264673036"><ele>50.0</ele><time>2026-04-09T14:18:56.998Z</time></trkpt><trkpt lat="49.14721690026499" lon="2.5159352845867944"><ele>50.00000000000001</ele><time>2026-04-09T14:18:58.998Z</time></trkpt><trkpt lat="49.14714436137226" lon="2.5159220000561064"><ele>50.0</ele><time>2026-04-09T14:19:00.998Z</time></trkpt><trkpt lat="49.147067347828404" lon="2.515896112762576"><ele>50.0</ele><time>2026-04-09T14:19:02.998Z</time></trkpt><trkpt lat="49.146985550783" lon="2.5158812381828333"><ele>50.0</ele><time>2026-04-09T14:19:04.998Z</time></trkpt><trkpt lat="49.146900696283055" lon="2.5158516128262822"><ele>50.00000000000001</ele><time>2026-04-09T14:19:06.998Z</time></trkpt><trkpt lat="49.14681515751128" lon="2.5158312899957047"><ele>50.0</ele><time>2026-04-09T14:19:08.998Z</time></trkpt><trkpt lat="49.14672786314917" lon="2.515818426128766"><ele>50.00000000000001</ele><time>2026-04-09T14:19:10.998Z</time></trkpt><trkpt lat="49.14664065695429" lon="2.5158188964808517"><ele>50.0</ele><time>2026-04-09T14:19:12.998Z</time></trkpt><trkpt lat="49.14655006848808" lon="2.5158265875022328"><ele>50.0</ele><time>2026-04-09T14:19:14.998Z</time></trkpt><trkpt lat="49.14646166407984" lon="2.5158315878852453"><ele>50.0</ele><time>2026-04-09T14:19:16.998Z</time></trkpt><trkpt lat="49.1463718372691" lon="2.515841849414546"><ele>50.00000000000001</ele><time>2026-04-09T14:19:18.997Z</time></trkpt><trkpt lat="49.14628219986727" lon="2.5158565118441603"><ele>50.0</ele><time>2026-04-09T14:19:21Z</time></trkpt><trkpt lat="49.146192634823755" lon="2.5158831536990918"><ele>50.00000000000001</ele><time>2026-04-09T14:19:23Z</time></trkpt><trkpt lat="49.14610149986657" lon="2.515926787936049"><ele>50.0</ele><time>2026-04-09T14:19:25.001Z</time></trkpt><trkpt lat="49.146012787873" lon="2.515960730775942"><ele>50.0</ele><time>2026-04-09T14:19:27Z</time></trkpt><trkpt lat="49.14593077918744" lon="2.5159973574882666"><ele>50.0</ele><time>2026-04-09T14:19:29Z</time></trkpt><trkpt lat="49.14584555222511" lon="2.5160235068899053"><ele>50.00000000000001</ele><time>2026-04-09T14:19:31Z</time></trkpt><trkpt lat="49.14576388915912" lon="2.516042279941455"><ele>50.0</ele><time>2026-04-09T14:19:33Z</time></trkpt><trkpt lat="49.14568639590009" lon="2.5160732396832857"><ele>50.57142857142858</ele><time>2026-04-09T14:19:35Z</time></trkpt><trkpt lat="49.14561921686669" lon="2.516115375995041"><ele>51.142857142857146</ele><time>2026-04-09T14:19:37Z</time></trkpt><trkpt lat="49.1455528181406" lon="2.5161270190962415"><ele>51.714285714285715</ele><time>2026-04-09T14:19:39Z</time></trkpt><trkpt lat="49.145488682057184" lon="2.5161568536481442"><ele>52.28571428571429</ele><time>2026-04-09T14:19:41Z</time></trkpt><trkpt lat="49.14542728249799" lon="2.5161853494288824"><ele>52.857142857142854</ele><time>2026-04-09T14:19:43Z</time></trkpt><trkpt lat="49.14536630293598" lon="2.5162138390577393"><ele>53.42857142857143</ele><time>2026-04-09T14:19:45Z</time></trkpt><trkpt lat="49.145276040797995" lon="2.5162381573320274"><ele>54.0</ele><time>2026-04-09T14:19:48Z</time></trkpt><trkpt lat="49.14519010314489" lon="2.5162765603024537"><ele>54.0</ele><time>2026-04-09T14:19:51Z</time></trkpt><trkpt lat="49.14510355563149" lon="2.516312351457049"><ele>54.0</ele><time>2026-04-09T14:19:54Z</time></trkpt><trkpt lat="49.14501443404553" lon="2.5163260539175734"><ele>54.0</ele><time>2026-04-09T14:19:57Z</time></trkpt><trkpt lat="49.14492445642152" lon="2.516323658394647"><ele>54.0</ele><time>2026-04-09T14:20:00Z</time></trkpt><trkpt lat="49.14483252142539" lon="2.5163307131130455"><ele>54.0</ele><time>2026-04-09T14:20:03Z</time></trkpt><trkpt lat="49.144754242763966" lon="2.516274117893204"><ele>54.0</ele><time>2026-04-09T14:20:06Z</time></trkpt><trkpt lat="49.14471245198877" lon="2.5161510820022484"><ele>54.333333333333336</ele><time>2026-04-09T14:20:08.999Z</time></trkpt><trkpt lat="49.144663926780055" lon="2.5160576548959543"><ele>54.66666666666667</ele><time>2026-04-09T14:20:11.999Z</time></trkpt><trkpt lat="49.14461701746333" lon="2.5159877618060844"><ele>55.0</ele><time>2026-04-09T14:20:13.999Z</time></trkpt><trkpt lat="49.14456764930001" lon="2.5159193096858763"><ele>55.333333333333336</ele><time>2026-04-09T14:20:15.999Z</time></trkpt><trkpt lat="49.14452169068081" lon="2.5157968694147193"><ele>55.66666666666667</ele><time>2026-04-09T14:20:18.999Z</time></trkpt><trkpt lat="49.14447070920846" lon="2.5157259918949553"><ele>56.0</ele><time>2026-04-09T14:20:20.999Z</time></trkpt><trkpt lat="49.14440313578922" lon="2.5156286537252863"><ele>56.00000000000001</ele><time>2026-04-09T14:20:23.999Z</time></trkpt><trkpt lat="49.144380658771574" lon="2.5155312904944704"><ele>56.0</ele><time>2026-04-09T14:20:25.999Z</time></trkpt><trkpt lat="49.14432590332216" lon="2.5154508887407863"><ele>56.0</ele><time>2026-04-09T14:20:28.999Z</time></trkpt><trkpt lat="49.14427929821311" lon="2.5153633223822136"><ele>56.0</ele><time>2026-04-09T14:20:32.999Z</time></trkpt><trkpt lat="49.14442511347545" lon="2.5153375404739946"><ele>56.00000000000001</ele><time>2026-04-09T14:22:28.999Z</time></trkpt><trkpt lat="49.14436899633839" lon="2.5152795058813733"><ele>56.0</ele><time>2026-04-09T14:24:07.999Z</time></trkpt><trkpt lat="49.14430748331851" lon="2.5153189254591672"><ele>55.833333333333336</ele><time>2026-04-09T14:24:13.999Z</time></trkpt><trkpt lat="49.14425011989942" lon="2.5153677042077365"><ele>55.66666666666667</ele><time>2026-04-09T14:24:39.998Z</time></trkpt><trkpt lat="49.14419249733678" lon="2.5153263079336927"><ele>55.5</ele><time>2026-04-09T14:28:01Z</time></trkpt><trkpt lat="49.14412992958591" lon="2.515232584452496"><ele>55.33333333333333</ele><time>2026-04-09T14:28:04.999Z</time></trkpt><trkpt lat="49.14407163759948" lon="2.515148986316158"><ele>55.166666666666664</ele><time>2026-04-09T14:28:07.999Z</time></trkpt><trkpt lat="49.144005591653375" lon="2.5150517474808285"><ele>55.0</ele><time>2026-04-09T14:28:10.999Z</time></trkpt><trkpt lat="49.14395967510511" lon="2.5149766190812346"><ele>55.28571428571428</ele><time>2026-04-09T14:28:12.999Z</time></trkpt><trkpt lat="49.14391203987194" lon="2.5149066450532582"><ele>55.57142857142857</ele><time>2026-04-09T14:28:14.999Z</time></trkpt><trkpt lat="49.14383894396492" lon="2.514801743444184"><ele>55.857142857142854</ele><time>2026-04-09T14:28:17.999Z</time></trkpt><trkpt lat="49.14378979269863" lon="2.5147325359252695"><ele>56.14285714285714</ele><time>2026-04-09T14:28:19.999Z</time></trkpt><trkpt lat="49.143738753674555" lon="2.514654139372998"><ele>56.42857142857142</ele><time>2026-04-09T14:28:21.999Z</time></trkpt><trkpt lat="49.14368799683241" lon="2.5145715369240507"><ele>56.71428571428571</ele><time>2026-04-09T14:28:23.999Z</time></trkpt><trkpt lat="49.14364137484629" lon="2.51449756863837"><ele>57.0</ele><time>2026-04-09T14:28:25.999Z</time></trkpt><trkpt lat="49.143590818586425" lon="2.514425776508222"><ele>57.0</ele><time>2026-04-09T14:28:27.999Z</time></trkpt><trkpt lat="49.143543014383305" lon="2.5143534918584476"><ele>57.0</ele><time>2026-04-09T14:28:29.999Z</time></trkpt><trkpt lat="49.143488248135384" lon="2.514273346276334"><ele>57.0</ele><time>2026-04-09T14:28:31.999Z</time></trkpt><trkpt lat="49.14343414484154" lon="2.5141934987134116"><ele>57.0</ele><time>2026-04-09T14:28:33.999Z</time></trkpt><trkpt lat="49.14337932942814" lon="2.514116116181029"><ele>57.0</ele><time>2026-04-09T14:28:35.999Z</time></trkpt><trkpt lat="49.14332544652326" lon="2.5140332884689696"><ele>57.0</ele><time>2026-04-09T14:28:37.999Z</time></trkpt><trkpt lat="49.143266226791056" lon="2.513949938657524"><ele>57.166666666666664</ele><time>2026-04-09T14:28:39.999Z</time></trkpt><trkpt lat="49.1432110338098" lon="2.5138694944705677"><ele>57.33333333333333</ele><time>2026-04-09T14:28:41.999Z</time></trkpt><trkpt lat="49.14315006573059" lon="2.513781707452261"><ele>57.5</ele><time>2026-04-09T14:28:43.999Z</time></trkpt><trkpt lat="49.143095212066804" lon="2.5136991262851773"><ele>57.666666666666664</ele><time>2026-04-09T14:28:45.999Z</time></trkpt><trkpt lat="49.1430394097648" lon="2.5136114518767054"><ele>57.83333333333333</ele><time>2026-04-09T14:28:47.999Z</time></trkpt><trkpt lat="49.14298451751742" lon="2.513522246176814"><ele>58.0</ele><time>2026-04-09T14:28:49.999Z</time></trkpt><trkpt lat="49.14292697260777" lon="2.5134407561114362"><ele>57.99999999999999</ele><time>2026-04-09T14:28:51.999Z</time></trkpt><trkpt lat="49.14286984580414" lon="2.5133507913974342"><ele>58.0</ele><time>2026-04-09T14:28:53.999Z</time></trkpt><trkpt lat="49.14281384864144" lon="2.5132694451231425"><ele>58.0</ele><time>2026-04-09T14:28:55.998Z</time></trkpt><trkpt lat="49.142755263512434" lon="2.513183261330459"><ele>58.0</ele><time>2026-04-09T14:28:57.998Z</time></trkpt><trkpt lat="49.142700668511104" lon="2.513102091948033"><ele>57.99999999999999</ele><time>2026-04-09T14:28:59.998Z</time></trkpt><trkpt lat="49.14264301353154" lon="2.5130258948512862"><ele>58.0</ele><time>2026-04-09T14:29:01.998Z</time></trkpt><trkpt lat="49.14259843135356" lon="2.5129472745988934"><ele>58.00000000000001</ele><time>2026-04-09T14:29:03.998Z</time></trkpt><trkpt lat="49.14255687652742" lon="2.51287364473139"><ele>58.0</ele><time>2026-04-09T14:29:05.998Z</time></trkpt><trkpt lat="49.14250361132524" lon="2.512803217834941"><ele>58.00000000000001</ele><time>2026-04-09T14:29:07.998Z</time></trkpt><trkpt lat="49.14246069094324" lon="2.512726316894855"><ele>58.00000000000001</ele><time>2026-04-09T14:29:09.998Z</time></trkpt><trkpt lat="49.14240664645854" lon="2.512667411185006"><ele>58.0</ele><time>2026-04-09T14:29:11.998Z</time></trkpt><trkpt lat="49.14236357052549" lon="2.512586351047965"><ele>58.00000000000001</ele><time>2026-04-09T14:29:13.998Z</time></trkpt><trkpt lat="49.14231123849507" lon="2.512520080409372"><ele>58.00000000000001</ele><time>2026-04-09T14:29:15.998Z</time></trkpt><trkpt lat="49.14225814761313" lon="2.5124530810117682"><ele>57.99999999999999</ele><time>2026-04-09T14:29:17.998Z</time></trkpt><trkpt lat="49.14218302815381" lon="2.5123571566410905"><ele>58.0</ele><time>2026-04-09T14:29:20.998Z</time></trkpt><trkpt lat="49.14212524058726" lon="2.5122778136203094"><ele>58.0</ele><time>2026-04-09T14:29:22.998Z</time></trkpt><trkpt lat="49.142073836354115" lon="2.512203836436005"><ele>58.0</ele><time>2026-04-09T14:29:24.998Z</time></trkpt><trkpt lat="49.14202306748814" lon="2.5121319380294627"><ele>57.99999999999999</ele><time>2026-04-09T14:29:26.998Z</time></trkpt><trkpt lat="49.1419683901434" lon="2.512060227873234"><ele>58.0</ele><time>2026-04-09T14:29:28.998Z</time></trkpt><trkpt lat="49.141913517998645" lon="2.5119899475435097"><ele>58.00000000000001</ele><time>2026-04-09T14:29:30.998Z</time></trkpt><trkpt lat="49.1418583679344" lon="2.511926511694501"><ele>58.0</ele><time>2026-04-09T14:29:32.998Z</time></trkpt><trkpt lat="49.1418028768941" lon="2.511852396540235"><ele>58.00000000000001</ele><time>2026-04-09T14:29:34.998Z</time></trkpt><trkpt lat="49.14174545330298" lon="2.5117822164248764"><ele>58.00000000000001</ele><time>2026-04-09T14:29:36.998Z</time></trkpt><trkpt lat="49.14169212631438" lon="2.5117149307197972"><ele>58.0</ele><time>2026-04-09T14:29:38.997Z</time></trkpt><trkpt lat="49.14163663701224" lon="2.5116542912968702"><ele>58.00000000000001</ele><time>2026-04-09T14:29:40.997Z</time></trkpt><trkpt lat="49.141587787015084" lon="2.511589127761051"><ele>58.00000000000001</ele><time>2026-04-09T14:29:42.997Z</time></trkpt><trkpt lat="49.1415341492488" lon="2.511531378773419"><ele>58.666666666666664</ele><time>2026-04-09T14:29:44.997Z</time></trkpt><trkpt lat="49.14147480456144" lon="2.511474923511471"><ele>59.33333333333333</ele><time>2026-04-09T14:29:46.997Z</time></trkpt><trkpt lat="49.14139763620967" lon="2.5113991557204027"><ele>60.0</ele><time>2026-04-09T14:29:49.997Z</time></trkpt><trkpt lat="49.14132117675026" lon="2.5113116075727424"><ele>60.66666666666667</ele><time>2026-04-09T14:29:53Z</time></trkpt><trkpt lat="49.14124985181872" lon="2.51124089240613"><ele>61.333333333333336</ele><time>2026-04-09T14:29:56Z</time></trkpt><trkpt lat="49.14119056709971" lon="2.5111838835249993"><ele>62.0</ele><time>2026-04-09T14:29:58Z</time></trkpt><trkpt lat="49.14110778331962" lon="2.511106771071879"><ele>62.00000000000001</ele><time>2026-04-09T14:30:01Z</time></trkpt><trkpt lat="49.14103072218184" lon="2.511025181387776"><ele>62.0</ele><time>2026-04-09T14:30:04Z</time></trkpt><trkpt lat="49.14095499108816" lon="2.5109417564478136"><ele>62.0</ele><time>2026-04-09T14:30:07Z</time></trkpt><trkpt lat="49.140900695102005" lon="2.510880209242886"><ele>62.0</ele><time>2026-04-09T14:30:09Z</time></trkpt><trkpt lat="49.14082919647836" lon="2.5108096724315874"><ele>62.00000000000001</ele><time>2026-04-09T14:30:12Z</time></trkpt><trkpt lat="49.14077750265274" lon="2.510750982591996"><ele>62.0</ele><time>2026-04-09T14:30:14Z</time></trkpt><trkpt lat="49.140696336208265" lon="2.5106653809018633"><ele>62.00000000000001</ele><time>2026-04-09T14:30:17Z</time></trkpt><trkpt lat="49.14061912248008" lon="2.510596062815394"><ele>62.0</ele><time>2026-04-09T14:30:20Z</time></trkpt><trkpt lat="49.14056441505877" lon="2.5105433247371183"><ele>62.0</ele><time>2026-04-09T14:30:22Z</time></trkpt><trkpt lat="49.14048779433898" lon="2.5104667619642806"><ele>62.0</ele><time>2026-04-09T14:30:25Z</time></trkpt><trkpt lat="49.14040876997201" lon="2.5104004980090173"><ele>62.00000000000001</ele><time>2026-04-09T14:30:28Z</time></trkpt><trkpt lat="49.14035342486354" lon="2.510345387834286"><ele>62.0</ele><time>2026-04-09T14:30:29.999Z</time></trkpt><trkpt lat="49.140298585023835" lon="2.510291128570753"><ele>62.00000000000001</ele><time>2026-04-09T14:30:31.999Z</time></trkpt><trkpt lat="49.140225370344595" lon="2.5102267137522842"><ele>62.0</ele><time>2026-04-09T14:30:34.999Z</time></trkpt><trkpt lat="49.14014851981752" lon="2.5101540331438756"><ele>62.0</ele><time>2026-04-09T14:30:37.999Z</time></trkpt><trkpt lat="49.1400694624354" lon="2.510082539846906"><ele>62.0</ele><time>2026-04-09T14:30:40.999Z</time></trkpt><trkpt lat="49.13999500914389" lon="2.5100107890748347"><ele>62.00000000000001</ele><time>2026-04-09T14:30:43.999Z</time></trkpt><trkpt lat="49.13992421627759" lon="2.509949904581361"><ele>62.0</ele><time>2026-04-09T14:30:46.999Z</time></trkpt><trkpt lat="49.13984424414458" lon="2.5098752039191585"><ele>62.16666666666667</ele><time>2026-04-09T14:30:49.999Z</time></trkpt><trkpt lat="49.13977163266064" lon="2.5098071127141397"><ele>62.333333333333336</ele><time>2026-04-09T14:30:52.999Z</time></trkpt><trkpt lat="49.13969736608485" lon="2.509735826880382"><ele>62.5</ele><time>2026-04-09T14:30:55.999Z</time></trkpt><trkpt lat="49.139641145822736" lon="2.509682412604565"><ele>62.66666666666667</ele><time>2026-04-09T14:30:57.999Z</time></trkpt><trkpt lat="49.13956754551332" lon="2.5096163989078923"><ele>62.833333333333336</ele><time>2026-04-09T14:31:00.999Z</time></trkpt><trkpt lat="49.1394860417277" lon="2.509540176945046"><ele>63.0</ele><time>2026-04-09T14:31:03.999Z</time></trkpt><trkpt lat="49.13940994099364" lon="2.509474247467977"><ele>63.333333333333336</ele><time>2026-04-09T14:31:06.999Z</time></trkpt><trkpt lat="49.139327207456034" lon="2.509400478649104"><ele>63.66666666666667</ele><time>2026-04-09T14:31:09.999Z</time></trkpt><trkpt lat="49.13924879533068" lon="2.509334374566599"><ele>64.0</ele><time>2026-04-09T14:31:12.998Z</time></trkpt><trkpt lat="49.13918966125799" lon="2.509282979060099"><ele>64.33333333333334</ele><time>2026-04-09T14:31:14.998Z</time></trkpt><trkpt lat="49.139131938590474" lon="2.509239407660511"><ele>64.66666666666667</ele><time>2026-04-09T14:31:16.998Z</time></trkpt><trkpt lat="49.1390436746349" lon="2.5091699987194347"><ele>65.0</ele><time>2026-04-09T14:31:19.998Z</time></trkpt><trkpt lat="49.13897799545117" lon="2.5091240475718273"><ele>65.5</ele><time>2026-04-09T14:31:21.998Z</time></trkpt><trkpt lat="49.13891459697596" lon="2.5090770552735506"><ele>66.0</ele><time>2026-04-09T14:31:23.998Z</time></trkpt><trkpt lat="49.138820372127014" lon="2.5090061290013983"><ele>66.5</ele><time>2026-04-09T14:31:26.998Z</time></trkpt><trkpt lat="49.13875661684323" lon="2.5089681059873374"><ele>67.0</ele><time>2026-04-09T14:31:28.998Z</time></trkpt><trkpt lat="49.13869163403146" lon="2.5089305279471605"><ele>67.5</ele><time>2026-04-09T14:31:30.998Z</time></trkpt><trkpt lat="49.13859385477034" lon="2.5088680430188375"><ele>68.0</ele><time>2026-04-09T14:31:33.998Z</time></trkpt><trkpt lat="49.13850904212217" lon="2.508806931264707"><ele>68.71428571428571</ele><time>2026-04-09T14:31:36.998Z</time></trkpt><trkpt lat="49.13844428804027" lon="2.508722011286592"><ele>69.42857142857143</ele><time>2026-04-09T14:31:39.998Z</time></trkpt><trkpt lat="49.13838041696383" lon="2.508708152331369"><ele>70.14285714285714</ele><time>2026-04-09T14:31:41.998Z</time></trkpt><trkpt lat="49.138318188851336" lon="2.508667722055723"><ele>70.85714285714286</ele><time>2026-04-09T14:31:43.998Z</time></trkpt><trkpt lat="49.13825149025395" lon="2.508631445836391"><ele>71.57142857142857</ele><time>2026-04-09T14:31:45.998Z</time></trkpt><trkpt lat="49.13818448960774" lon="2.508592337349035"><ele>72.28571428571428</ele><time>2026-04-09T14:31:47.998Z</time></trkpt><trkpt lat="49.13812397064697" lon="2.5085291370011205"><ele>73.0</ele><time>2026-04-09T14:31:49.998Z</time></trkpt><trkpt lat="49.138060944137216" lon="2.5084910640237164"><ele>73.0</ele><time>2026-04-09T14:31:51.998Z</time></trkpt><trkpt lat="49.137991333223326" lon="2.5084757320376903"><ele>73.0</ele><time>2026-04-09T14:31:53.998Z</time></trkpt><trkpt lat="49.137933334257994" lon="2.5084115275705114"><ele>73.0</ele><time>2026-04-09T14:31:55.998Z</time></trkpt><trkpt lat="49.13787063585041" lon="2.508371541024966"><ele>73.0</ele><time>2026-04-09T14:31:58.001Z</time></trkpt><trkpt lat="49.13779315498127" lon="2.5083495961060276"><ele>73.0</ele><time>2026-04-09T14:32:00.001Z</time></trkpt><trkpt lat="49.137730679953044" lon="2.508283453252444"><ele>73.0</ele><time>2026-04-09T14:32:02.001Z</time></trkpt><trkpt lat="49.137663607059274" lon="2.5082422035167347"><ele>73.0</ele><time>2026-04-09T14:32:04.001Z</time></trkpt><trkpt lat="49.13759140336658" lon="2.508198319531936"><ele>73.0</ele><time>2026-04-09T14:32:06.001Z</time></trkpt><trkpt lat="49.137520293903926" lon="2.5081808041010003"><ele>73.0</ele><time>2026-04-09T14:32:08.001Z</time></trkpt><trkpt lat="49.13745673473409" lon="2.5081168848468782"><ele>73.0</ele><time>2026-04-09T14:32:10.001Z</time></trkpt><trkpt lat="49.13738766940063" lon="2.508076274617886"><ele>73.0</ele><time>2026-04-09T14:32:12.001Z</time></trkpt><trkpt lat="49.13731759881642" lon="2.5080353050230975"><ele>73.0</ele><time>2026-04-09T14:32:14.001Z</time></trkpt><trkpt lat="49.13724721877675" lon="2.5079953276697147"><ele>73.0</ele><time>2026-04-09T14:32:16Z</time></trkpt><trkpt lat="49.137176854365954" lon="2.5079556646594683"><ele>73.0</ele><time>2026-04-09T14:32:18Z</time></trkpt><trkpt lat="49.137107217485934" lon="2.5079173475310546"><ele>73.57142857142857</ele><time>2026-04-09T14:32:20Z</time></trkpt><trkpt lat="49.13703859952217" lon="2.5078799362423507"><ele>74.14285714285714</ele><time>2026-04-09T14:32:22Z</time></trkpt><trkpt lat="49.1369647091616" lon="2.5078581173497145"><ele>74.71428571428572</ele><time>2026-04-09T14:32:24Z</time></trkpt><trkpt lat="49.13689809976989" lon="2.5078198618091982"><ele>75.28571428571428</ele><time>2026-04-09T14:32:26Z</time></trkpt><trkpt lat="49.13682466774006" lon="2.5077782215370847"><ele>75.85714285714286</ele><time>2026-04-09T14:32:28Z</time></trkpt><trkpt lat="49.13675433148153" lon="2.507738779400301"><ele>76.42857142857143</ele><time>2026-04-09T14:32:30Z</time></trkpt><trkpt lat="49.13668265848133" lon="2.5076987450014796"><ele>77.0</ele><time>2026-04-09T14:32:32Z</time></trkpt><trkpt lat="49.136611149801844" lon="2.507662079951315"><ele>76.71428571428571</ele><time>2026-04-09T14:32:34Z</time></trkpt><trkpt lat="49.13654574995966" lon="2.507616165472998"><ele>76.42857142857143</ele><time>2026-04-09T14:32:36Z</time></trkpt><trkpt lat="49.136485899104706" lon="2.507550851107179"><ele>76.14285714285714</ele><time>2026-04-09T14:32:38Z</time></trkpt><trkpt lat="49.136417380060436" lon="2.5075086802795425"><ele>75.85714285714286</ele><time>2026-04-09T14:32:40Z</time></trkpt><trkpt lat="49.13634882985437" lon="2.507468947436816"><ele>75.57142857142857</ele><time>2026-04-09T14:32:42Z</time></trkpt><trkpt lat="49.136279189951615" lon="2.5074293516861754"><ele>75.28571428571428</ele><time>2026-04-09T14:32:44Z</time></trkpt><trkpt lat="49.13620531594457" lon="2.5074142151174454"><ele>75.0</ele><time>2026-04-09T14:32:46Z</time></trkpt><trkpt lat="49.136140290238984" lon="2.507354898614709"><ele>75.0</ele><time>2026-04-09T14:32:48Z</time></trkpt><trkpt lat="49.136075498812495" lon="2.5073178747750875"><ele>75.0</ele><time>2026-04-09T14:32:49.999Z</time></trkpt><trkpt lat="49.13601537419302" lon="2.507266546140313"><ele>75.0</ele><time>2026-04-09T14:32:51.999Z</time></trkpt><trkpt lat="49.13593675452559" lon="2.5072285146728452"><ele>75.0</ele><time>2026-04-09T14:32:53.999Z</time></trkpt><trkpt lat="49.13584934850191" lon="2.5072308414466056"><ele>75.0</ele><time>2026-04-09T14:32:55.999Z</time></trkpt><trkpt lat="49.13575685732055" lon="2.5071887717430283"><ele>75.0</ele><time>2026-04-09T14:32:57.999Z</time></trkpt><trkpt lat="49.135649967774214" lon="2.507168859798561"><ele>75.0</ele><time>2026-04-09T14:32:59.999Z</time></trkpt><trkpt lat="49.13555942219395" lon="2.5071518568564075"><ele>75.0</ele><time>2026-04-09T14:33:01.999Z</time></trkpt><trkpt lat="49.135468188566456" lon="2.5071380539270294"><ele>75.0</ele><time>2026-04-09T14:33:03.999Z</time></trkpt><trkpt lat="49.13537420065359" lon="2.507116026068587"><ele>75.0</ele><time>2026-04-09T14:33:05.999Z</time></trkpt><trkpt lat="49.13528820970317" lon="2.5070996955666325"><ele>75.0</ele><time>2026-04-09T14:33:07.999Z</time></trkpt><trkpt lat="49.135196669661156" lon="2.5070779356969393"><ele>76.0</ele><time>2026-04-09T14:33:09.999Z</time></trkpt><trkpt lat="49.135103468216315" lon="2.5070662376750685"><ele>77.0</ele><time>2026-04-09T14:33:11.999Z</time></trkpt><trkpt lat="49.13500932966871" lon="2.5070453981355065"><ele>78.0</ele><time>2026-04-09T14:33:13.999Z</time></trkpt><trkpt lat="49.134917762933476" lon="2.507010953035193"><ele>79.0</ele><time>2026-04-09T14:33:15.999Z</time></trkpt><trkpt lat="49.134826560468916" lon="2.5069827802675757"><ele>80.0</ele><time>2026-04-09T14:33:17.999Z</time></trkpt><trkpt lat="49.134732439821114" lon="2.5069603172757113"><ele>80.0</ele><time>2026-04-09T14:33:19.999Z</time></trkpt><trkpt lat="49.134640354826" lon="2.506930259203463"><ele>80.0</ele><time>2026-04-09T14:33:21.999Z</time></trkpt><trkpt lat="49.13455604810295" lon="2.5068664940503647"><ele>80.0</ele><time>2026-04-09T14:33:23.999Z</time></trkpt><trkpt lat="49.13448122420393" lon="2.506827150608423"><ele>80.0</ele><time>2026-04-09T14:33:25.999Z</time></trkpt><trkpt lat="49.13440451013963" lon="2.5067834364538064"><ele>80.0</ele><time>2026-04-09T14:33:27.999Z</time></trkpt><trkpt lat="49.13432805128661" lon="2.5067609663887027"><ele>80.0</ele><time>2026-04-09T14:33:29.999Z</time></trkpt><trkpt lat="49.13426317868198" lon="2.506696508084328"><ele>80.0</ele><time>2026-04-09T14:33:31.998Z</time></trkpt><trkpt lat="49.134169364642275" lon="2.506888928068697"><ele>80.0</ele><time>2026-04-09T14:33:34.998Z</time></trkpt><trkpt lat="49.1341136871797" lon="2.5070023513241124"><ele>80.0</ele><time>2026-04-09T14:33:36.998Z</time></trkpt><trkpt lat="49.134060634479866" lon="2.507135889159022"><ele>80.0</ele><time>2026-04-09T14:33:38.998Z</time></trkpt><trkpt lat="49.134010367673824" lon="2.507275392322543"><ele>79.6</ele><time>2026-04-09T14:33:40.998Z</time></trkpt><trkpt lat="49.13394788217574" lon="2.5074146955125594"><ele>79.2</ele><time>2026-04-09T14:33:42.998Z</time></trkpt><trkpt lat="49.13388978384905" lon="2.5075590627610733"><ele>78.8</ele><time>2026-04-09T14:33:44.998Z</time></trkpt><trkpt lat="49.133831123567205" lon="2.5077066453540726"><ele>78.4</ele><time>2026-04-09T14:33:46.998Z</time></trkpt><trkpt lat="49.13378313752928" lon="2.507827710479935"><ele>78.0</ele><time>2026-04-09T14:33:48.998Z</time></trkpt><trkpt lat="49.133736261226225" lon="2.5079455117049294"><ele>78.0</ele><time>2026-04-09T14:33:50.998Z</time></trkpt><trkpt lat="49.13369527261574" lon="2.50804926324534"><ele>78.0</ele><time>2026-04-09T14:33:52.998Z</time></trkpt><trkpt lat="49.13366963937998" lon="2.5081496374249923"><ele>78.0</ele><time>2026-04-09T14:33:56.998Z</time></trkpt><trkpt lat="49.133698343853965" lon="2.5080414890146114"><ele>78.0</ele><time>2026-04-09T14:34:00.998Z</time></trkpt><trkpt lat="49.13364970135822" lon="2.5079571129294966"><ele>78.0</ele><time>2026-04-09T14:37:25.999Z</time></trkpt><trkpt lat="49.13358653228887" lon="2.5079504157415093"><ele>78.0</ele><time>2026-04-09T14:45:26.999Z</time></trkpt></trkseg></trk></gpx>